<?xml version="1.0" encoding="UTF-8" standalone="no" ?>
<gpx xmlns="http://www.topografix.com/GPX/1/1" xmlns:xsi="http://www.w3.org/2001/XMLSchema-instance" xsi:schemaLocation="http://www.topografix.com/GPX/1/1 http://www.topografix.com/GPX/1/1/gpx.xsd" version="1.1" creator="VisuGPX - https://www.visugpx.com">
  <metadata>
    <name>Cime du Sambuis</name>
    <desc><![CDATA[Depuis Valmaure. Montée par la combe de Mont Rond. Descente par le couloir sud.]]></desc>
  </metadata>
  <trk>
    <name><![CDATA[Trk076]]></name>
    <trkseg>
      <trkpt lat="45.28276" lon="6.20982">
        <ele>1187</ele>
        <time>2016-03-19T07:26:45Z</time>
      </trkpt>
      <trkpt lat="45.28277" lon="6.20982">
        <ele>1189</ele>
        <time>2016-03-19T07:26:50Z</time>
      </trkpt>
      <trkpt lat="45.28277" lon="6.20982">
        <ele>1191</ele>
        <time>2016-03-19T07:26:55Z</time>
      </trkpt>
      <trkpt lat="45.28278" lon="6.20982">
        <ele>1193</ele>
        <time>2016-03-19T07:27:00Z</time>
      </trkpt>
      <trkpt lat="45.28278" lon="6.20983">
        <ele>1195</ele>
        <time>2016-03-19T07:27:05Z</time>
      </trkpt>
      <trkpt lat="45.28278" lon="6.20983">
        <ele>1196</ele>
        <time>2016-03-19T07:27:10Z</time>
      </trkpt>
      <trkpt lat="45.28278" lon="6.20985">
        <ele>1199</ele>
        <time>2016-03-19T07:27:15Z</time>
      </trkpt>
      <trkpt lat="45.28275" lon="6.20988">
        <ele>1202</ele>
        <time>2016-03-19T07:27:20Z</time>
      </trkpt>
      <trkpt lat="45.28277" lon="6.20987">
        <ele>1202</ele>
        <time>2016-03-19T07:27:25Z</time>
      </trkpt>
      <trkpt lat="45.28275" lon="6.20984">
        <ele>1202</ele>
        <time>2016-03-19T07:27:30Z</time>
      </trkpt>
      <trkpt lat="45.28273" lon="6.2098">
        <ele>1204</ele>
        <time>2016-03-19T07:27:35Z</time>
      </trkpt>
      <trkpt lat="45.28272" lon="6.20976">
        <ele>1206</ele>
        <time>2016-03-19T07:27:40Z</time>
      </trkpt>
      <trkpt lat="45.2827" lon="6.20972">
        <ele>1208</ele>
        <time>2016-03-19T07:27:45Z</time>
      </trkpt>
      <trkpt lat="45.28267" lon="6.2097">
        <ele>1210</ele>
        <time>2016-03-19T07:27:50Z</time>
      </trkpt>
      <trkpt lat="45.28265" lon="6.20967">
        <ele>1211</ele>
        <time>2016-03-19T07:27:55Z</time>
      </trkpt>
      <trkpt lat="45.28264" lon="6.2096">
        <ele>1211</ele>
        <time>2016-03-19T07:28:00Z</time>
      </trkpt>
      <trkpt lat="45.28262" lon="6.20956">
        <ele>1211</ele>
        <time>2016-03-19T07:28:05Z</time>
      </trkpt>
      <trkpt lat="45.2826" lon="6.20954">
        <ele>1211</ele>
        <time>2016-03-19T07:28:10Z</time>
      </trkpt>
      <trkpt lat="45.28257" lon="6.20953">
        <ele>1211</ele>
        <time>2016-03-19T07:28:15Z</time>
      </trkpt>
      <trkpt lat="45.28254" lon="6.20954">
        <ele>1211</ele>
        <time>2016-03-19T07:28:20Z</time>
      </trkpt>
      <trkpt lat="45.2825" lon="6.20953">
        <ele>1212</ele>
        <time>2016-03-19T07:28:25Z</time>
      </trkpt>
      <trkpt lat="45.28248" lon="6.20949">
        <ele>1214</ele>
        <time>2016-03-19T07:28:30Z</time>
      </trkpt>
      <trkpt lat="45.28245" lon="6.20947">
        <ele>1216</ele>
        <time>2016-03-19T07:28:35Z</time>
      </trkpt>
      <trkpt lat="45.28244" lon="6.20947">
        <ele>1215</ele>
        <time>2016-03-19T07:28:40Z</time>
      </trkpt>
      <trkpt lat="45.28241" lon="6.2095">
        <ele>1217</ele>
        <time>2016-03-19T07:28:45Z</time>
      </trkpt>
      <trkpt lat="45.28239" lon="6.20953">
        <ele>1218</ele>
        <time>2016-03-19T07:28:50Z</time>
      </trkpt>
      <trkpt lat="45.28237" lon="6.20954">
        <ele>1219</ele>
        <time>2016-03-19T07:28:55Z</time>
      </trkpt>
      <trkpt lat="45.28234" lon="6.20957">
        <ele>1221</ele>
        <time>2016-03-19T07:29:00Z</time>
      </trkpt>
      <trkpt lat="45.28232" lon="6.20958">
        <ele>1222</ele>
        <time>2016-03-19T07:29:05Z</time>
      </trkpt>
      <trkpt lat="45.28231" lon="6.20953">
        <ele>1223</ele>
        <time>2016-03-19T07:29:10Z</time>
      </trkpt>
      <trkpt lat="45.28231" lon="6.20948">
        <ele>1223</ele>
        <time>2016-03-19T07:29:15Z</time>
      </trkpt>
      <trkpt lat="45.2823" lon="6.20944">
        <ele>1222</ele>
        <time>2016-03-19T07:29:20Z</time>
      </trkpt>
      <trkpt lat="45.28229" lon="6.20944">
        <ele>1224</ele>
        <time>2016-03-19T07:29:25Z</time>
      </trkpt>
      <trkpt lat="45.28228" lon="6.20944">
        <ele>1225</ele>
        <time>2016-03-19T07:29:30Z</time>
      </trkpt>
      <trkpt lat="45.2823" lon="6.20943">
        <ele>1228</ele>
        <time>2016-03-19T07:29:35Z</time>
      </trkpt>
      <trkpt lat="45.28228" lon="6.20942">
        <ele>1228</ele>
        <time>2016-03-19T07:29:40Z</time>
      </trkpt>
      <trkpt lat="45.28228" lon="6.20942">
        <ele>1228</ele>
        <time>2016-03-19T07:29:45Z</time>
      </trkpt>
      <trkpt lat="45.28226" lon="6.20939">
        <ele>1227</ele>
        <time>2016-03-19T07:29:50Z</time>
      </trkpt>
      <trkpt lat="45.28227" lon="6.20935">
        <ele>1228</ele>
        <time>2016-03-19T07:29:55Z</time>
      </trkpt>
      <trkpt lat="45.28228" lon="6.20929">
        <ele>1226</ele>
        <time>2016-03-19T07:30:00Z</time>
      </trkpt>
      <trkpt lat="45.2823" lon="6.20924">
        <ele>1227</ele>
        <time>2016-03-19T07:30:05Z</time>
      </trkpt>
      <trkpt lat="45.28231" lon="6.20919">
        <ele>1227</ele>
        <time>2016-03-19T07:30:10Z</time>
      </trkpt>
      <trkpt lat="45.28233" lon="6.20916">
        <ele>1230</ele>
        <time>2016-03-19T07:30:15Z</time>
      </trkpt>
      <trkpt lat="45.28233" lon="6.20913">
        <ele>1232</ele>
        <time>2016-03-19T07:30:20Z</time>
      </trkpt>
      <trkpt lat="45.28234" lon="6.20909">
        <ele>1233</ele>
        <time>2016-03-19T07:30:25Z</time>
      </trkpt>
      <trkpt lat="45.28235" lon="6.20905">
        <ele>1234</ele>
        <time>2016-03-19T07:30:30Z</time>
      </trkpt>
      <trkpt lat="45.28235" lon="6.209">
        <ele>1234</ele>
        <time>2016-03-19T07:30:35Z</time>
      </trkpt>
      <trkpt lat="45.28235" lon="6.20897">
        <ele>1235</ele>
        <time>2016-03-19T07:30:40Z</time>
      </trkpt>
      <trkpt lat="45.28235" lon="6.20894">
        <ele>1235</ele>
        <time>2016-03-19T07:30:45Z</time>
      </trkpt>
      <trkpt lat="45.28233" lon="6.2089">
        <ele>1235</ele>
        <time>2016-03-19T07:30:50Z</time>
      </trkpt>
      <trkpt lat="45.28233" lon="6.20886">
        <ele>1234</ele>
        <time>2016-03-19T07:30:55Z</time>
      </trkpt>
      <trkpt lat="45.28233" lon="6.20882">
        <ele>1236</ele>
        <time>2016-03-19T07:31:00Z</time>
      </trkpt>
      <trkpt lat="45.28234" lon="6.20879">
        <ele>1237</ele>
        <time>2016-03-19T07:31:05Z</time>
      </trkpt>
      <trkpt lat="45.28234" lon="6.20876">
        <ele>1240</ele>
        <time>2016-03-19T07:31:10Z</time>
      </trkpt>
      <trkpt lat="45.28233" lon="6.20874">
        <ele>1246</ele>
        <time>2016-03-19T07:31:15Z</time>
      </trkpt>
      <trkpt lat="45.28233" lon="6.20871">
        <ele>1249</ele>
        <time>2016-03-19T07:31:20Z</time>
      </trkpt>
      <trkpt lat="45.28232" lon="6.20868">
        <ele>1248</ele>
        <time>2016-03-19T07:31:25Z</time>
      </trkpt>
      <trkpt lat="45.2823" lon="6.20867">
        <ele>1249</ele>
        <time>2016-03-19T07:31:30Z</time>
      </trkpt>
      <trkpt lat="45.2823" lon="6.20865">
        <ele>1249</ele>
        <time>2016-03-19T07:31:35Z</time>
      </trkpt>
      <trkpt lat="45.2823" lon="6.20862">
        <ele>1250</ele>
        <time>2016-03-19T07:31:40Z</time>
      </trkpt>
      <trkpt lat="45.28229" lon="6.20859">
        <ele>1250</ele>
        <time>2016-03-19T07:31:45Z</time>
      </trkpt>
      <trkpt lat="45.28228" lon="6.20855">
        <ele>1250</ele>
        <time>2016-03-19T07:31:50Z</time>
      </trkpt>
      <trkpt lat="45.28227" lon="6.20852">
        <ele>1251</ele>
        <time>2016-03-19T07:31:55Z</time>
      </trkpt>
      <trkpt lat="45.28227" lon="6.2085">
        <ele>1254</ele>
        <time>2016-03-19T07:32:00Z</time>
      </trkpt>
      <trkpt lat="45.28225" lon="6.20848">
        <ele>1258</ele>
        <time>2016-03-19T07:32:05Z</time>
      </trkpt>
      <trkpt lat="45.28223" lon="6.20846">
        <ele>1261</ele>
        <time>2016-03-19T07:32:10Z</time>
      </trkpt>
      <trkpt lat="45.28224" lon="6.20841">
        <ele>1263</ele>
        <time>2016-03-19T07:32:15Z</time>
      </trkpt>
      <trkpt lat="45.28224" lon="6.20839">
        <ele>1264</ele>
        <time>2016-03-19T07:32:20Z</time>
      </trkpt>
      <trkpt lat="45.28224" lon="6.20837">
        <ele>1263</ele>
        <time>2016-03-19T07:32:25Z</time>
      </trkpt>
      <trkpt lat="45.28225" lon="6.20836">
        <ele>1263</ele>
        <time>2016-03-19T07:32:30Z</time>
      </trkpt>
      <trkpt lat="45.28223" lon="6.20834">
        <ele>1264</ele>
        <time>2016-03-19T07:32:35Z</time>
      </trkpt>
      <trkpt lat="45.28223" lon="6.20831">
        <ele>1266</ele>
        <time>2016-03-19T07:32:40Z</time>
      </trkpt>
      <trkpt lat="45.28223" lon="6.20826">
        <ele>1267</ele>
        <time>2016-03-19T07:32:45Z</time>
      </trkpt>
      <trkpt lat="45.28224" lon="6.20821">
        <ele>1267</ele>
        <time>2016-03-19T07:32:50Z</time>
      </trkpt>
      <trkpt lat="45.28226" lon="6.20813">
        <ele>1266</ele>
        <time>2016-03-19T07:32:55Z</time>
      </trkpt>
      <trkpt lat="45.28223" lon="6.20807">
        <ele>1262</ele>
        <time>2016-03-19T07:33:00Z</time>
      </trkpt>
      <trkpt lat="45.28223" lon="6.20802">
        <ele>1262</ele>
        <time>2016-03-19T07:33:05Z</time>
      </trkpt>
      <trkpt lat="45.28226" lon="6.20799">
        <ele>1263</ele>
        <time>2016-03-19T07:33:10Z</time>
      </trkpt>
      <trkpt lat="45.28225" lon="6.20794">
        <ele>1263</ele>
        <time>2016-03-19T07:33:15Z</time>
      </trkpt>
      <trkpt lat="45.28224" lon="6.20791">
        <ele>1264</ele>
        <time>2016-03-19T07:33:20Z</time>
      </trkpt>
      <trkpt lat="45.28224" lon="6.20789">
        <ele>1266</ele>
        <time>2016-03-19T07:33:25Z</time>
      </trkpt>
      <trkpt lat="45.28224" lon="6.20787">
        <ele>1268</ele>
        <time>2016-03-19T07:33:30Z</time>
      </trkpt>
      <trkpt lat="45.28225" lon="6.20783">
        <ele>1270</ele>
        <time>2016-03-19T07:33:35Z</time>
      </trkpt>
      <trkpt lat="45.28226" lon="6.2078">
        <ele>1270</ele>
        <time>2016-03-19T07:33:40Z</time>
      </trkpt>
      <trkpt lat="45.28228" lon="6.20774">
        <ele>1268</ele>
        <time>2016-03-19T07:33:45Z</time>
      </trkpt>
      <trkpt lat="45.28226" lon="6.20772">
        <ele>1269</ele>
        <time>2016-03-19T07:33:50Z</time>
      </trkpt>
      <trkpt lat="45.28227" lon="6.20771">
        <ele>1270</ele>
        <time>2016-03-19T07:33:55Z</time>
      </trkpt>
      <trkpt lat="45.28227" lon="6.20768">
        <ele>1272</ele>
        <time>2016-03-19T07:34:00Z</time>
      </trkpt>
      <trkpt lat="45.28226" lon="6.20764">
        <ele>1273</ele>
        <time>2016-03-19T07:34:05Z</time>
      </trkpt>
      <trkpt lat="45.28226" lon="6.20761">
        <ele>1274</ele>
        <time>2016-03-19T07:34:10Z</time>
      </trkpt>
      <trkpt lat="45.28227" lon="6.20758">
        <ele>1275</ele>
        <time>2016-03-19T07:34:15Z</time>
      </trkpt>
      <trkpt lat="45.28227" lon="6.20755">
        <ele>1276</ele>
        <time>2016-03-19T07:34:20Z</time>
      </trkpt>
      <trkpt lat="45.28228" lon="6.2075">
        <ele>1277</ele>
        <time>2016-03-19T07:34:25Z</time>
      </trkpt>
      <trkpt lat="45.28226" lon="6.20745">
        <ele>1276</ele>
        <time>2016-03-19T07:34:30Z</time>
      </trkpt>
      <trkpt lat="45.28226" lon="6.20739">
        <ele>1278</ele>
        <time>2016-03-19T07:34:35Z</time>
      </trkpt>
      <trkpt lat="45.28228" lon="6.20734">
        <ele>1280</ele>
        <time>2016-03-19T07:34:40Z</time>
      </trkpt>
      <trkpt lat="45.2823" lon="6.2073">
        <ele>1281</ele>
        <time>2016-03-19T07:34:45Z</time>
      </trkpt>
      <trkpt lat="45.28232" lon="6.20724">
        <ele>1280</ele>
        <time>2016-03-19T07:34:50Z</time>
      </trkpt>
      <trkpt lat="45.28232" lon="6.20719">
        <ele>1279</ele>
        <time>2016-03-19T07:34:55Z</time>
      </trkpt>
      <trkpt lat="45.28228" lon="6.20715">
        <ele>1281</ele>
        <time>2016-03-19T07:35:00Z</time>
      </trkpt>
      <trkpt lat="45.28226" lon="6.20709">
        <ele>1280</ele>
        <time>2016-03-19T07:35:05Z</time>
      </trkpt>
      <trkpt lat="45.28226" lon="6.20706">
        <ele>1282</ele>
        <time>2016-03-19T07:35:10Z</time>
      </trkpt>
      <trkpt lat="45.28225" lon="6.20701">
        <ele>1282</ele>
        <time>2016-03-19T07:35:15Z</time>
      </trkpt>
      <trkpt lat="45.28224" lon="6.20697">
        <ele>1283</ele>
        <time>2016-03-19T07:35:20Z</time>
      </trkpt>
      <trkpt lat="45.28224" lon="6.20696">
        <ele>1285</ele>
        <time>2016-03-19T07:35:25Z</time>
      </trkpt>
      <trkpt lat="45.28224" lon="6.20694">
        <ele>1288</ele>
        <time>2016-03-19T07:35:30Z</time>
      </trkpt>
      <trkpt lat="45.28225" lon="6.20689">
        <ele>1288</ele>
        <time>2016-03-19T07:35:35Z</time>
      </trkpt>
      <trkpt lat="45.28224" lon="6.20685">
        <ele>1290</ele>
        <time>2016-03-19T07:35:40Z</time>
      </trkpt>
      <trkpt lat="45.28228" lon="6.20682">
        <ele>1290</ele>
        <time>2016-03-19T07:35:45Z</time>
      </trkpt>
      <trkpt lat="45.28232" lon="6.20677">
        <ele>1291</ele>
        <time>2016-03-19T07:35:50Z</time>
      </trkpt>
      <trkpt lat="45.28231" lon="6.20671">
        <ele>1291</ele>
        <time>2016-03-19T07:35:55Z</time>
      </trkpt>
      <trkpt lat="45.28229" lon="6.20669">
        <ele>1293</ele>
        <time>2016-03-19T07:36:00Z</time>
      </trkpt>
      <trkpt lat="45.28228" lon="6.20662">
        <ele>1292</ele>
        <time>2016-03-19T07:36:05Z</time>
      </trkpt>
      <trkpt lat="45.28225" lon="6.20658">
        <ele>1291</ele>
        <time>2016-03-19T07:36:10Z</time>
      </trkpt>
      <trkpt lat="45.28226" lon="6.20656">
        <ele>1292</ele>
        <time>2016-03-19T07:36:15Z</time>
      </trkpt>
      <trkpt lat="45.28224" lon="6.20653">
        <ele>1293</ele>
        <time>2016-03-19T07:36:20Z</time>
      </trkpt>
      <trkpt lat="45.28222" lon="6.20649">
        <ele>1294</ele>
        <time>2016-03-19T07:36:25Z</time>
      </trkpt>
      <trkpt lat="45.2822" lon="6.20643">
        <ele>1293</ele>
        <time>2016-03-19T07:36:30Z</time>
      </trkpt>
      <trkpt lat="45.2822" lon="6.20637">
        <ele>1296</ele>
        <time>2016-03-19T07:36:35Z</time>
      </trkpt>
      <trkpt lat="45.28219" lon="6.20633">
        <ele>1295</ele>
        <time>2016-03-19T07:36:40Z</time>
      </trkpt>
      <trkpt lat="45.28217" lon="6.20628">
        <ele>1294</ele>
        <time>2016-03-19T07:36:45Z</time>
      </trkpt>
      <trkpt lat="45.28217" lon="6.20623">
        <ele>1294</ele>
        <time>2016-03-19T07:36:50Z</time>
      </trkpt>
      <trkpt lat="45.28219" lon="6.20617">
        <ele>1294</ele>
        <time>2016-03-19T07:36:55Z</time>
      </trkpt>
      <trkpt lat="45.28219" lon="6.20613">
        <ele>1294</ele>
        <time>2016-03-19T07:37:00Z</time>
      </trkpt>
      <trkpt lat="45.2822" lon="6.20608">
        <ele>1294</ele>
        <time>2016-03-19T07:37:05Z</time>
      </trkpt>
      <trkpt lat="45.28217" lon="6.20604">
        <ele>1296</ele>
        <time>2016-03-19T07:37:10Z</time>
      </trkpt>
      <trkpt lat="45.28217" lon="6.20601">
        <ele>1297</ele>
        <time>2016-03-19T07:37:15Z</time>
      </trkpt>
      <trkpt lat="45.28216" lon="6.20596">
        <ele>1295</ele>
        <time>2016-03-19T07:37:20Z</time>
      </trkpt>
      <trkpt lat="45.28215" lon="6.20591">
        <ele>1294</ele>
        <time>2016-03-19T07:37:25Z</time>
      </trkpt>
      <trkpt lat="45.28215" lon="6.20584">
        <ele>1291</ele>
        <time>2016-03-19T07:37:30Z</time>
      </trkpt>
      <trkpt lat="45.28219" lon="6.20581">
        <ele>1293</ele>
        <time>2016-03-19T07:37:35Z</time>
      </trkpt>
      <trkpt lat="45.28219" lon="6.20576">
        <ele>1293</ele>
        <time>2016-03-19T07:37:40Z</time>
      </trkpt>
      <trkpt lat="45.28217" lon="6.20573">
        <ele>1293</ele>
        <time>2016-03-19T07:37:45Z</time>
      </trkpt>
      <trkpt lat="45.28214" lon="6.20569">
        <ele>1294</ele>
        <time>2016-03-19T07:37:50Z</time>
      </trkpt>
      <trkpt lat="45.28213" lon="6.20569">
        <ele>1296</ele>
        <time>2016-03-19T07:37:55Z</time>
      </trkpt>
      <trkpt lat="45.28212" lon="6.20567">
        <ele>1296</ele>
        <time>2016-03-19T07:38:00Z</time>
      </trkpt>
      <trkpt lat="45.2821" lon="6.20566">
        <ele>1298</ele>
        <time>2016-03-19T07:38:05Z</time>
      </trkpt>
      <trkpt lat="45.28209" lon="6.20562">
        <ele>1298</ele>
        <time>2016-03-19T07:38:10Z</time>
      </trkpt>
      <trkpt lat="45.28209" lon="6.20558">
        <ele>1299</ele>
        <time>2016-03-19T07:38:15Z</time>
      </trkpt>
      <trkpt lat="45.28209" lon="6.20554">
        <ele>1301</ele>
        <time>2016-03-19T07:38:20Z</time>
      </trkpt>
      <trkpt lat="45.28211" lon="6.2055">
        <ele>1302</ele>
        <time>2016-03-19T07:38:25Z</time>
      </trkpt>
      <trkpt lat="45.28213" lon="6.20545">
        <ele>1302</ele>
        <time>2016-03-19T07:38:30Z</time>
      </trkpt>
      <trkpt lat="45.28215" lon="6.20541">
        <ele>1303</ele>
        <time>2016-03-19T07:38:35Z</time>
      </trkpt>
      <trkpt lat="45.28217" lon="6.20538">
        <ele>1302</ele>
        <time>2016-03-19T07:38:40Z</time>
      </trkpt>
      <trkpt lat="45.28221" lon="6.20534">
        <ele>1303</ele>
        <time>2016-03-19T07:38:45Z</time>
      </trkpt>
      <trkpt lat="45.28225" lon="6.2053">
        <ele>1306</ele>
        <time>2016-03-19T07:38:50Z</time>
      </trkpt>
      <trkpt lat="45.28226" lon="6.20526">
        <ele>1309</ele>
        <time>2016-03-19T07:38:55Z</time>
      </trkpt>
      <trkpt lat="45.28228" lon="6.20521">
        <ele>1308</ele>
        <time>2016-03-19T07:39:00Z</time>
      </trkpt>
      <trkpt lat="45.28228" lon="6.20514">
        <ele>1305</ele>
        <time>2016-03-19T07:39:05Z</time>
      </trkpt>
      <trkpt lat="45.28227" lon="6.20509">
        <ele>1305</ele>
        <time>2016-03-19T07:39:10Z</time>
      </trkpt>
      <trkpt lat="45.28226" lon="6.20505">
        <ele>1306</ele>
        <time>2016-03-19T07:39:15Z</time>
      </trkpt>
      <trkpt lat="45.28226" lon="6.20502">
        <ele>1306</ele>
        <time>2016-03-19T07:39:20Z</time>
      </trkpt>
      <trkpt lat="45.28225" lon="6.20501">
        <ele>1308</ele>
        <time>2016-03-19T07:39:25Z</time>
      </trkpt>
      <trkpt lat="45.28224" lon="6.205">
        <ele>1308</ele>
        <time>2016-03-19T07:39:30Z</time>
      </trkpt>
      <trkpt lat="45.28222" lon="6.20501">
        <ele>1310</ele>
        <time>2016-03-19T07:39:35Z</time>
      </trkpt>
      <trkpt lat="45.28222" lon="6.20501">
        <ele>1310</ele>
        <time>2016-03-19T07:39:40Z</time>
      </trkpt>
      <trkpt lat="45.28223" lon="6.20498">
        <ele>1308</ele>
        <time>2016-03-19T07:39:45Z</time>
      </trkpt>
      <trkpt lat="45.28223" lon="6.20498">
        <ele>1307</ele>
        <time>2016-03-19T07:39:50Z</time>
      </trkpt>
      <trkpt lat="45.28221" lon="6.20501">
        <ele>1311</ele>
        <time>2016-03-19T07:39:55Z</time>
      </trkpt>
      <trkpt lat="45.28221" lon="6.20502">
        <ele>1311</ele>
        <time>2016-03-19T07:40:00Z</time>
      </trkpt>
      <trkpt lat="45.28222" lon="6.205">
        <ele>1313</ele>
        <time>2016-03-19T07:40:05Z</time>
      </trkpt>
      <trkpt lat="45.28222" lon="6.20497">
        <ele>1315</ele>
        <time>2016-03-19T07:40:10Z</time>
      </trkpt>
      <trkpt lat="45.28222" lon="6.20493">
        <ele>1315</ele>
        <time>2016-03-19T07:40:15Z</time>
      </trkpt>
      <trkpt lat="45.28222" lon="6.20488">
        <ele>1315</ele>
        <time>2016-03-19T07:40:20Z</time>
      </trkpt>
      <trkpt lat="45.28221" lon="6.20484">
        <ele>1315</ele>
        <time>2016-03-19T07:40:25Z</time>
      </trkpt>
      <trkpt lat="45.2822" lon="6.20479">
        <ele>1315</ele>
        <time>2016-03-19T07:40:30Z</time>
      </trkpt>
      <trkpt lat="45.2822" lon="6.20472">
        <ele>1313</ele>
        <time>2016-03-19T07:40:35Z</time>
      </trkpt>
      <trkpt lat="45.2822" lon="6.20466">
        <ele>1313</ele>
        <time>2016-03-19T07:40:40Z</time>
      </trkpt>
      <trkpt lat="45.2822" lon="6.20462">
        <ele>1313</ele>
        <time>2016-03-19T07:40:45Z</time>
      </trkpt>
      <trkpt lat="45.28219" lon="6.20458">
        <ele>1312</ele>
        <time>2016-03-19T07:40:50Z</time>
      </trkpt>
      <trkpt lat="45.2822" lon="6.20454">
        <ele>1313</ele>
        <time>2016-03-19T07:40:55Z</time>
      </trkpt>
      <trkpt lat="45.28218" lon="6.20451">
        <ele>1313</ele>
        <time>2016-03-19T07:41:00Z</time>
      </trkpt>
      <trkpt lat="45.28217" lon="6.20447">
        <ele>1313</ele>
        <time>2016-03-19T07:41:05Z</time>
      </trkpt>
      <trkpt lat="45.28217" lon="6.20443">
        <ele>1314</ele>
        <time>2016-03-19T07:41:10Z</time>
      </trkpt>
      <trkpt lat="45.28215" lon="6.20439">
        <ele>1316</ele>
        <time>2016-03-19T07:41:15Z</time>
      </trkpt>
      <trkpt lat="45.28215" lon="6.20436">
        <ele>1317</ele>
        <time>2016-03-19T07:41:20Z</time>
      </trkpt>
      <trkpt lat="45.28215" lon="6.20435">
        <ele>1318</ele>
        <time>2016-03-19T07:41:25Z</time>
      </trkpt>
      <trkpt lat="45.28214" lon="6.20431">
        <ele>1320</ele>
        <time>2016-03-19T07:41:30Z</time>
      </trkpt>
      <trkpt lat="45.28214" lon="6.20427">
        <ele>1320</ele>
        <time>2016-03-19T07:41:35Z</time>
      </trkpt>
      <trkpt lat="45.28214" lon="6.20422">
        <ele>1320</ele>
        <time>2016-03-19T07:41:40Z</time>
      </trkpt>
      <trkpt lat="45.28214" lon="6.20417">
        <ele>1320</ele>
        <time>2016-03-19T07:41:45Z</time>
      </trkpt>
      <trkpt lat="45.28212" lon="6.20415">
        <ele>1320</ele>
        <time>2016-03-19T07:41:50Z</time>
      </trkpt>
      <trkpt lat="45.28211" lon="6.20412">
        <ele>1321</ele>
        <time>2016-03-19T07:41:55Z</time>
      </trkpt>
      <trkpt lat="45.28213" lon="6.20411">
        <ele>1322</ele>
        <time>2016-03-19T07:42:00Z</time>
      </trkpt>
      <trkpt lat="45.2821" lon="6.20409">
        <ele>1322</ele>
        <time>2016-03-19T07:42:05Z</time>
      </trkpt>
      <trkpt lat="45.28209" lon="6.20407">
        <ele>1321</ele>
        <time>2016-03-19T07:42:10Z</time>
      </trkpt>
      <trkpt lat="45.28209" lon="6.20406">
        <ele>1321</ele>
        <time>2016-03-19T07:42:15Z</time>
      </trkpt>
      <trkpt lat="45.28208" lon="6.20403">
        <ele>1318</ele>
        <time>2016-03-19T07:42:20Z</time>
      </trkpt>
      <trkpt lat="45.28207" lon="6.20402">
        <ele>1316</ele>
        <time>2016-03-19T07:42:25Z</time>
      </trkpt>
      <trkpt lat="45.28207" lon="6.20401">
        <ele>1315</ele>
        <time>2016-03-19T07:42:30Z</time>
      </trkpt>
      <trkpt lat="45.28207" lon="6.20401">
        <ele>1314</ele>
        <time>2016-03-19T07:42:35Z</time>
      </trkpt>
      <trkpt lat="45.28206" lon="6.204">
        <ele>1313</ele>
        <time>2016-03-19T07:42:40Z</time>
      </trkpt>
      <trkpt lat="45.28204" lon="6.20399">
        <ele>1310</ele>
        <time>2016-03-19T07:42:45Z</time>
      </trkpt>
      <trkpt lat="45.28204" lon="6.20397">
        <ele>1312</ele>
        <time>2016-03-19T07:42:50Z</time>
      </trkpt>
      <trkpt lat="45.28202" lon="6.20395">
        <ele>1314</ele>
        <time>2016-03-19T07:42:55Z</time>
      </trkpt>
      <trkpt lat="45.28203" lon="6.20395">
        <ele>1318</ele>
        <time>2016-03-19T07:43:00Z</time>
      </trkpt>
      <trkpt lat="45.28203" lon="6.20398">
        <ele>1323</ele>
        <time>2016-03-19T07:43:05Z</time>
      </trkpt>
      <trkpt lat="45.282" lon="6.204">
        <ele>1326</ele>
        <time>2016-03-19T07:43:10Z</time>
      </trkpt>
      <trkpt lat="45.28199" lon="6.20402">
        <ele>1330</ele>
        <time>2016-03-19T07:44:35Z</time>
      </trkpt>
      <trkpt lat="45.28198" lon="6.204">
        <ele>1329</ele>
        <time>2016-03-19T07:44:40Z</time>
      </trkpt>
      <trkpt lat="45.28197" lon="6.20399">
        <ele>1330</ele>
        <time>2016-03-19T07:44:45Z</time>
      </trkpt>
      <trkpt lat="45.28195" lon="6.20397">
        <ele>1329</ele>
        <time>2016-03-19T07:44:50Z</time>
      </trkpt>
      <trkpt lat="45.28194" lon="6.20396">
        <ele>1329</ele>
        <time>2016-03-19T07:44:55Z</time>
      </trkpt>
      <trkpt lat="45.28193" lon="6.20395">
        <ele>1329</ele>
        <time>2016-03-19T07:45:00Z</time>
      </trkpt>
      <trkpt lat="45.28192" lon="6.20393">
        <ele>1330</ele>
        <time>2016-03-19T07:45:05Z</time>
      </trkpt>
      <trkpt lat="45.28188" lon="6.20391">
        <ele>1328</ele>
        <time>2016-03-19T07:45:10Z</time>
      </trkpt>
      <trkpt lat="45.28186" lon="6.20389">
        <ele>1330</ele>
        <time>2016-03-19T07:45:15Z</time>
      </trkpt>
      <trkpt lat="45.28187" lon="6.20388">
        <ele>1334</ele>
        <time>2016-03-19T07:45:20Z</time>
      </trkpt>
      <trkpt lat="45.28186" lon="6.20385">
        <ele>1335</ele>
        <time>2016-03-19T07:45:25Z</time>
      </trkpt>
      <trkpt lat="45.28186" lon="6.20382">
        <ele>1336</ele>
        <time>2016-03-19T07:45:30Z</time>
      </trkpt>
      <trkpt lat="45.28184" lon="6.20378">
        <ele>1335</ele>
        <time>2016-03-19T07:45:35Z</time>
      </trkpt>
      <trkpt lat="45.28183" lon="6.20375">
        <ele>1335</ele>
        <time>2016-03-19T07:45:40Z</time>
      </trkpt>
      <trkpt lat="45.28184" lon="6.20373">
        <ele>1339</ele>
        <time>2016-03-19T07:45:45Z</time>
      </trkpt>
      <trkpt lat="45.28184" lon="6.2037">
        <ele>1340</ele>
        <time>2016-03-19T07:45:50Z</time>
      </trkpt>
      <trkpt lat="45.2818" lon="6.20366">
        <ele>1338</ele>
        <time>2016-03-19T07:45:55Z</time>
      </trkpt>
      <trkpt lat="45.28177" lon="6.20362">
        <ele>1336</ele>
        <time>2016-03-19T07:46:00Z</time>
      </trkpt>
      <trkpt lat="45.28173" lon="6.20359">
        <ele>1337</ele>
        <time>2016-03-19T07:46:05Z</time>
      </trkpt>
      <trkpt lat="45.2817" lon="6.20354">
        <ele>1337</ele>
        <time>2016-03-19T07:46:10Z</time>
      </trkpt>
      <trkpt lat="45.28167" lon="6.20351">
        <ele>1337</ele>
        <time>2016-03-19T07:46:15Z</time>
      </trkpt>
      <trkpt lat="45.28165" lon="6.20347">
        <ele>1336</ele>
        <time>2016-03-19T07:46:20Z</time>
      </trkpt>
      <trkpt lat="45.28165" lon="6.20343">
        <ele>1336</ele>
        <time>2016-03-19T07:46:25Z</time>
      </trkpt>
      <trkpt lat="45.28164" lon="6.20339">
        <ele>1338</ele>
        <time>2016-03-19T07:46:30Z</time>
      </trkpt>
      <trkpt lat="45.28164" lon="6.20335">
        <ele>1339</ele>
        <time>2016-03-19T07:46:35Z</time>
      </trkpt>
      <trkpt lat="45.28162" lon="6.20331">
        <ele>1339</ele>
        <time>2016-03-19T07:46:40Z</time>
      </trkpt>
      <trkpt lat="45.28161" lon="6.20327">
        <ele>1340</ele>
        <time>2016-03-19T07:46:45Z</time>
      </trkpt>
      <trkpt lat="45.28158" lon="6.20322">
        <ele>1339</ele>
        <time>2016-03-19T07:46:50Z</time>
      </trkpt>
      <trkpt lat="45.28155" lon="6.20317">
        <ele>1340</ele>
        <time>2016-03-19T07:46:55Z</time>
      </trkpt>
      <trkpt lat="45.28154" lon="6.20312">
        <ele>1338</ele>
        <time>2016-03-19T07:47:00Z</time>
      </trkpt>
      <trkpt lat="45.28154" lon="6.20308">
        <ele>1337</ele>
        <time>2016-03-19T07:47:05Z</time>
      </trkpt>
      <trkpt lat="45.28154" lon="6.20304">
        <ele>1337</ele>
        <time>2016-03-19T07:47:10Z</time>
      </trkpt>
      <trkpt lat="45.28154" lon="6.20298">
        <ele>1338</ele>
        <time>2016-03-19T07:47:15Z</time>
      </trkpt>
      <trkpt lat="45.28153" lon="6.20293">
        <ele>1339</ele>
        <time>2016-03-19T07:47:20Z</time>
      </trkpt>
      <trkpt lat="45.2815" lon="6.20289">
        <ele>1339</ele>
        <time>2016-03-19T07:47:25Z</time>
      </trkpt>
      <trkpt lat="45.2815" lon="6.20286">
        <ele>1342</ele>
        <time>2016-03-19T07:47:30Z</time>
      </trkpt>
      <trkpt lat="45.28149" lon="6.20283">
        <ele>1344</ele>
        <time>2016-03-19T07:47:35Z</time>
      </trkpt>
      <trkpt lat="45.28148" lon="6.20282">
        <ele>1345</ele>
        <time>2016-03-19T07:47:40Z</time>
      </trkpt>
      <trkpt lat="45.28145" lon="6.2028">
        <ele>1344</ele>
        <time>2016-03-19T07:47:45Z</time>
      </trkpt>
      <trkpt lat="45.28141" lon="6.20277">
        <ele>1342</ele>
        <time>2016-03-19T07:47:50Z</time>
      </trkpt>
      <trkpt lat="45.28143" lon="6.20274">
        <ele>1343</ele>
        <time>2016-03-19T07:47:55Z</time>
      </trkpt>
      <trkpt lat="45.28142" lon="6.20271">
        <ele>1343</ele>
        <time>2016-03-19T07:48:00Z</time>
      </trkpt>
      <trkpt lat="45.28141" lon="6.2027">
        <ele>1341</ele>
        <time>2016-03-19T07:48:05Z</time>
      </trkpt>
      <trkpt lat="45.28139" lon="6.20267">
        <ele>1344</ele>
        <time>2016-03-19T07:48:10Z</time>
      </trkpt>
      <trkpt lat="45.2814" lon="6.20262">
        <ele>1345</ele>
        <time>2016-03-19T07:48:15Z</time>
      </trkpt>
      <trkpt lat="45.28135" lon="6.2026">
        <ele>1344</ele>
        <time>2016-03-19T07:48:20Z</time>
      </trkpt>
      <trkpt lat="45.28133" lon="6.2026">
        <ele>1344</ele>
        <time>2016-03-19T07:48:25Z</time>
      </trkpt>
      <trkpt lat="45.28131" lon="6.20257">
        <ele>1344</ele>
        <time>2016-03-19T07:48:30Z</time>
      </trkpt>
      <trkpt lat="45.28127" lon="6.20252">
        <ele>1342</ele>
        <time>2016-03-19T07:48:35Z</time>
      </trkpt>
      <trkpt lat="45.28126" lon="6.2025">
        <ele>1345</ele>
        <time>2016-03-19T07:48:40Z</time>
      </trkpt>
      <trkpt lat="45.28124" lon="6.20246">
        <ele>1348</ele>
        <time>2016-03-19T07:48:45Z</time>
      </trkpt>
      <trkpt lat="45.28125" lon="6.20244">
        <ele>1350</ele>
        <time>2016-03-19T07:48:50Z</time>
      </trkpt>
      <trkpt lat="45.28124" lon="6.20242">
        <ele>1353</ele>
        <time>2016-03-19T07:48:55Z</time>
      </trkpt>
      <trkpt lat="45.28122" lon="6.20242">
        <ele>1352</ele>
        <time>2016-03-19T07:49:00Z</time>
      </trkpt>
      <trkpt lat="45.28119" lon="6.20242">
        <ele>1352</ele>
        <time>2016-03-19T07:49:05Z</time>
      </trkpt>
      <trkpt lat="45.28115" lon="6.20239">
        <ele>1350</ele>
        <time>2016-03-19T07:49:10Z</time>
      </trkpt>
      <trkpt lat="45.28112" lon="6.20239">
        <ele>1349</ele>
        <time>2016-03-19T07:49:15Z</time>
      </trkpt>
      <trkpt lat="45.28112" lon="6.20238">
        <ele>1349</ele>
        <time>2016-03-19T07:49:20Z</time>
      </trkpt>
      <trkpt lat="45.28112" lon="6.20238">
        <ele>1350</ele>
        <time>2016-03-19T07:49:25Z</time>
      </trkpt>
      <trkpt lat="45.28111" lon="6.20237">
        <ele>1350</ele>
        <time>2016-03-19T07:49:30Z</time>
      </trkpt>
      <trkpt lat="45.28111" lon="6.20237">
        <ele>1351</ele>
        <time>2016-03-19T07:49:35Z</time>
      </trkpt>
      <trkpt lat="45.28112" lon="6.20236">
        <ele>1353</ele>
        <time>2016-03-19T07:49:40Z</time>
      </trkpt>
      <trkpt lat="45.28116" lon="6.20236">
        <ele>1356</ele>
        <time>2016-03-19T07:49:45Z</time>
      </trkpt>
      <trkpt lat="45.28117" lon="6.20234">
        <ele>1357</ele>
        <time>2016-03-19T07:49:50Z</time>
      </trkpt>
      <trkpt lat="45.28121" lon="6.20232">
        <ele>1360</ele>
        <time>2016-03-19T07:49:55Z</time>
      </trkpt>
      <trkpt lat="45.28122" lon="6.20229">
        <ele>1362</ele>
        <time>2016-03-19T07:50:00Z</time>
      </trkpt>
      <trkpt lat="45.28125" lon="6.20225">
        <ele>1363</ele>
        <time>2016-03-19T07:50:05Z</time>
      </trkpt>
      <trkpt lat="45.28122" lon="6.20217">
        <ele>1360</ele>
        <time>2016-03-19T07:50:10Z</time>
      </trkpt>
      <trkpt lat="45.28113" lon="6.20213">
        <ele>1357</ele>
        <time>2016-03-19T07:50:15Z</time>
      </trkpt>
      <trkpt lat="45.28111" lon="6.20211">
        <ele>1362</ele>
        <time>2016-03-19T07:50:20Z</time>
      </trkpt>
      <trkpt lat="45.28103" lon="6.20212">
        <ele>1357</ele>
        <time>2016-03-19T07:50:25Z</time>
      </trkpt>
      <trkpt lat="45.28096" lon="6.20212">
        <ele>1354</ele>
        <time>2016-03-19T07:50:30Z</time>
      </trkpt>
      <trkpt lat="45.28095" lon="6.20211">
        <ele>1355</ele>
        <time>2016-03-19T07:50:35Z</time>
      </trkpt>
      <trkpt lat="45.28091" lon="6.20207">
        <ele>1353</ele>
        <time>2016-03-19T07:50:40Z</time>
      </trkpt>
      <trkpt lat="45.28091" lon="6.20201">
        <ele>1354</ele>
        <time>2016-03-19T07:50:45Z</time>
      </trkpt>
      <trkpt lat="45.28088" lon="6.20198">
        <ele>1355</ele>
        <time>2016-03-19T07:50:50Z</time>
      </trkpt>
      <trkpt lat="45.28083" lon="6.20193">
        <ele>1350</ele>
        <time>2016-03-19T07:50:55Z</time>
      </trkpt>
      <trkpt lat="45.28082" lon="6.20189">
        <ele>1352</ele>
        <time>2016-03-19T07:51:00Z</time>
      </trkpt>
      <trkpt lat="45.2808" lon="6.20182">
        <ele>1347</ele>
        <time>2016-03-19T07:51:05Z</time>
      </trkpt>
      <trkpt lat="45.28072" lon="6.20183">
        <ele>1344</ele>
        <time>2016-03-19T07:51:10Z</time>
      </trkpt>
      <trkpt lat="45.28074" lon="6.20177">
        <ele>1343</ele>
        <time>2016-03-19T07:51:15Z</time>
      </trkpt>
      <trkpt lat="45.28071" lon="6.20172">
        <ele>1341</ele>
        <time>2016-03-19T07:51:20Z</time>
      </trkpt>
      <trkpt lat="45.28074" lon="6.20166">
        <ele>1341</ele>
        <time>2016-03-19T07:51:25Z</time>
      </trkpt>
      <trkpt lat="45.28075" lon="6.20159">
        <ele>1340</ele>
        <time>2016-03-19T07:51:30Z</time>
      </trkpt>
      <trkpt lat="45.28075" lon="6.20153">
        <ele>1341</ele>
        <time>2016-03-19T07:51:35Z</time>
      </trkpt>
      <trkpt lat="45.28079" lon="6.20147">
        <ele>1345</ele>
        <time>2016-03-19T07:51:40Z</time>
      </trkpt>
      <trkpt lat="45.28075" lon="6.20142">
        <ele>1345</ele>
        <time>2016-03-19T07:51:45Z</time>
      </trkpt>
      <trkpt lat="45.28075" lon="6.20137">
        <ele>1347</ele>
        <time>2016-03-19T07:51:50Z</time>
      </trkpt>
      <trkpt lat="45.28073" lon="6.20133">
        <ele>1348</ele>
        <time>2016-03-19T07:51:55Z</time>
      </trkpt>
      <trkpt lat="45.28073" lon="6.2013">
        <ele>1350</ele>
        <time>2016-03-19T07:52:00Z</time>
      </trkpt>
      <trkpt lat="45.28069" lon="6.20128">
        <ele>1350</ele>
        <time>2016-03-19T07:52:05Z</time>
      </trkpt>
      <trkpt lat="45.2807" lon="6.20125">
        <ele>1351</ele>
        <time>2016-03-19T07:52:10Z</time>
      </trkpt>
      <trkpt lat="45.28067" lon="6.20126">
        <ele>1351</ele>
        <time>2016-03-19T07:52:15Z</time>
      </trkpt>
      <trkpt lat="45.28067" lon="6.20125">
        <ele>1353</ele>
        <time>2016-03-19T07:52:20Z</time>
      </trkpt>
      <trkpt lat="45.28068" lon="6.20124">
        <ele>1358</ele>
        <time>2016-03-19T07:52:25Z</time>
      </trkpt>
      <trkpt lat="45.28066" lon="6.20124">
        <ele>1358</ele>
        <time>2016-03-19T07:52:30Z</time>
      </trkpt>
      <trkpt lat="45.28065" lon="6.20123">
        <ele>1358</ele>
        <time>2016-03-19T07:52:35Z</time>
      </trkpt>
      <trkpt lat="45.28066" lon="6.20121">
        <ele>1357</ele>
        <time>2016-03-19T07:52:40Z</time>
      </trkpt>
      <trkpt lat="45.2807" lon="6.20118">
        <ele>1359</ele>
        <time>2016-03-19T07:52:45Z</time>
      </trkpt>
      <trkpt lat="45.28071" lon="6.20118">
        <ele>1358</ele>
        <time>2016-03-19T07:52:50Z</time>
      </trkpt>
      <trkpt lat="45.28072" lon="6.20118">
        <ele>1358</ele>
        <time>2016-03-19T07:52:55Z</time>
      </trkpt>
      <trkpt lat="45.28072" lon="6.20116">
        <ele>1358</ele>
        <time>2016-03-19T07:53:00Z</time>
      </trkpt>
      <trkpt lat="45.28072" lon="6.20115">
        <ele>1357</ele>
        <time>2016-03-19T07:53:05Z</time>
      </trkpt>
      <trkpt lat="45.28068" lon="6.2011">
        <ele>1356</ele>
        <time>2016-03-19T07:53:10Z</time>
      </trkpt>
      <trkpt lat="45.28063" lon="6.20106">
        <ele>1355</ele>
        <time>2016-03-19T07:53:15Z</time>
      </trkpt>
      <trkpt lat="45.28058" lon="6.20106">
        <ele>1356</ele>
        <time>2016-03-19T07:53:20Z</time>
      </trkpt>
      <trkpt lat="45.28053" lon="6.20103">
        <ele>1356</ele>
        <time>2016-03-19T07:53:25Z</time>
      </trkpt>
      <trkpt lat="45.28048" lon="6.20099">
        <ele>1355</ele>
        <time>2016-03-19T07:53:30Z</time>
      </trkpt>
      <trkpt lat="45.28048" lon="6.20095">
        <ele>1358</ele>
        <time>2016-03-19T07:53:35Z</time>
      </trkpt>
      <trkpt lat="45.28044" lon="6.20091">
        <ele>1358</ele>
        <time>2016-03-19T07:53:40Z</time>
      </trkpt>
      <trkpt lat="45.28042" lon="6.20083">
        <ele>1355</ele>
        <time>2016-03-19T07:53:45Z</time>
      </trkpt>
      <trkpt lat="45.2804" lon="6.20076">
        <ele>1355</ele>
        <time>2016-03-19T07:53:50Z</time>
      </trkpt>
      <trkpt lat="45.2804" lon="6.20071">
        <ele>1355</ele>
        <time>2016-03-19T07:53:55Z</time>
      </trkpt>
      <trkpt lat="45.28043" lon="6.20065">
        <ele>1357</ele>
        <time>2016-03-19T07:54:00Z</time>
      </trkpt>
      <trkpt lat="45.2804" lon="6.20058">
        <ele>1356</ele>
        <time>2016-03-19T07:54:05Z</time>
      </trkpt>
      <trkpt lat="45.28039" lon="6.20051">
        <ele>1356</ele>
        <time>2016-03-19T07:54:10Z</time>
      </trkpt>
      <trkpt lat="45.28035" lon="6.20046">
        <ele>1356</ele>
        <time>2016-03-19T07:54:15Z</time>
      </trkpt>
      <trkpt lat="45.2803" lon="6.20041">
        <ele>1355</ele>
        <time>2016-03-19T07:54:20Z</time>
      </trkpt>
      <trkpt lat="45.28028" lon="6.20035">
        <ele>1356</ele>
        <time>2016-03-19T07:54:25Z</time>
      </trkpt>
      <trkpt lat="45.28024" lon="6.20031">
        <ele>1356</ele>
        <time>2016-03-19T07:54:30Z</time>
      </trkpt>
      <trkpt lat="45.28021" lon="6.20026">
        <ele>1357</ele>
        <time>2016-03-19T07:54:35Z</time>
      </trkpt>
      <trkpt lat="45.28017" lon="6.2002">
        <ele>1356</ele>
        <time>2016-03-19T07:54:40Z</time>
      </trkpt>
      <trkpt lat="45.28011" lon="6.20015">
        <ele>1355</ele>
        <time>2016-03-19T07:54:45Z</time>
      </trkpt>
      <trkpt lat="45.28004" lon="6.20015">
        <ele>1355</ele>
        <time>2016-03-19T07:54:50Z</time>
      </trkpt>
      <trkpt lat="45.28003" lon="6.2001">
        <ele>1357</ele>
        <time>2016-03-19T07:54:55Z</time>
      </trkpt>
      <trkpt lat="45.28" lon="6.20007">
        <ele>1356</ele>
        <time>2016-03-19T07:55:00Z</time>
      </trkpt>
      <trkpt lat="45.27999" lon="6.20005">
        <ele>1358</ele>
        <time>2016-03-19T07:55:05Z</time>
      </trkpt>
      <trkpt lat="45.28" lon="6.19999">
        <ele>1360</ele>
        <time>2016-03-19T07:55:10Z</time>
      </trkpt>
      <trkpt lat="45.27997" lon="6.19994">
        <ele>1358</ele>
        <time>2016-03-19T07:55:15Z</time>
      </trkpt>
      <trkpt lat="45.27995" lon="6.19987">
        <ele>1356</ele>
        <time>2016-03-19T07:55:20Z</time>
      </trkpt>
      <trkpt lat="45.27992" lon="6.19983">
        <ele>1355</ele>
        <time>2016-03-19T07:55:25Z</time>
      </trkpt>
      <trkpt lat="45.27991" lon="6.19978">
        <ele>1355</ele>
        <time>2016-03-19T07:55:30Z</time>
      </trkpt>
      <trkpt lat="45.27987" lon="6.19974">
        <ele>1357</ele>
        <time>2016-03-19T07:55:35Z</time>
      </trkpt>
      <trkpt lat="45.27988" lon="6.19967">
        <ele>1359</ele>
        <time>2016-03-19T07:55:40Z</time>
      </trkpt>
      <trkpt lat="45.27987" lon="6.19968">
        <ele>1361</ele>
        <time>2016-03-19T07:55:45Z</time>
      </trkpt>
      <trkpt lat="45.27989" lon="6.19972">
        <ele>1367</ele>
        <time>2016-03-19T07:55:50Z</time>
      </trkpt>
      <trkpt lat="45.27988" lon="6.19966">
        <ele>1368</ele>
        <time>2016-03-19T07:55:55Z</time>
      </trkpt>
      <trkpt lat="45.27985" lon="6.1996">
        <ele>1368</ele>
        <time>2016-03-19T07:56:00Z</time>
      </trkpt>
      <trkpt lat="45.27983" lon="6.19956">
        <ele>1369</ele>
        <time>2016-03-19T07:56:05Z</time>
      </trkpt>
      <trkpt lat="45.27976" lon="6.19954">
        <ele>1370</ele>
        <time>2016-03-19T07:56:10Z</time>
      </trkpt>
      <trkpt lat="45.27977" lon="6.19946">
        <ele>1370</ele>
        <time>2016-03-19T07:56:15Z</time>
      </trkpt>
      <trkpt lat="45.27978" lon="6.19936">
        <ele>1368</ele>
        <time>2016-03-19T07:56:20Z</time>
      </trkpt>
      <trkpt lat="45.27977" lon="6.19927">
        <ele>1366</ele>
        <time>2016-03-19T07:56:25Z</time>
      </trkpt>
      <trkpt lat="45.27975" lon="6.19921">
        <ele>1364</ele>
        <time>2016-03-19T07:56:30Z</time>
      </trkpt>
      <trkpt lat="45.27971" lon="6.19917">
        <ele>1365</ele>
        <time>2016-03-19T07:56:35Z</time>
      </trkpt>
      <trkpt lat="45.27969" lon="6.19912">
        <ele>1366</ele>
        <time>2016-03-19T07:56:40Z</time>
      </trkpt>
      <trkpt lat="45.27967" lon="6.19908">
        <ele>1369</ele>
        <time>2016-03-19T07:56:45Z</time>
      </trkpt>
      <trkpt lat="45.27968" lon="6.19897">
        <ele>1365</ele>
        <time>2016-03-19T07:56:50Z</time>
      </trkpt>
      <trkpt lat="45.27968" lon="6.19891">
        <ele>1364</ele>
        <time>2016-03-19T07:56:55Z</time>
      </trkpt>
      <trkpt lat="45.27966" lon="6.19888">
        <ele>1368</ele>
        <time>2016-03-19T07:57:00Z</time>
      </trkpt>
      <trkpt lat="45.27964" lon="6.19886">
        <ele>1371</ele>
        <time>2016-03-19T07:57:05Z</time>
      </trkpt>
      <trkpt lat="45.27966" lon="6.19879">
        <ele>1372</ele>
        <time>2016-03-19T07:57:10Z</time>
      </trkpt>
      <trkpt lat="45.27966" lon="6.19873">
        <ele>1372</ele>
        <time>2016-03-19T07:57:15Z</time>
      </trkpt>
      <trkpt lat="45.27962" lon="6.19872">
        <ele>1376</ele>
        <time>2016-03-19T07:57:20Z</time>
      </trkpt>
      <trkpt lat="45.27966" lon="6.19862">
        <ele>1375</ele>
        <time>2016-03-19T07:57:25Z</time>
      </trkpt>
      <trkpt lat="45.27963" lon="6.19856">
        <ele>1373</ele>
        <time>2016-03-19T07:57:30Z</time>
      </trkpt>
      <trkpt lat="45.27963" lon="6.19851">
        <ele>1374</ele>
        <time>2016-03-19T07:57:35Z</time>
      </trkpt>
      <trkpt lat="45.2796" lon="6.19848">
        <ele>1372</ele>
        <time>2016-03-19T07:57:40Z</time>
      </trkpt>
      <trkpt lat="45.27959" lon="6.19841">
        <ele>1368</ele>
        <time>2016-03-19T07:57:45Z</time>
      </trkpt>
      <trkpt lat="45.27957" lon="6.19836">
        <ele>1365</ele>
        <time>2016-03-19T07:57:50Z</time>
      </trkpt>
      <trkpt lat="45.27955" lon="6.19833">
        <ele>1365</ele>
        <time>2016-03-19T07:57:55Z</time>
      </trkpt>
      <trkpt lat="45.27953" lon="6.19829">
        <ele>1367</ele>
        <time>2016-03-19T07:58:00Z</time>
      </trkpt>
      <trkpt lat="45.2795" lon="6.19825">
        <ele>1368</ele>
        <time>2016-03-19T07:58:05Z</time>
      </trkpt>
      <trkpt lat="45.27949" lon="6.19822">
        <ele>1371</ele>
        <time>2016-03-19T07:58:10Z</time>
      </trkpt>
      <trkpt lat="45.27946" lon="6.19819">
        <ele>1372</ele>
        <time>2016-03-19T07:58:15Z</time>
      </trkpt>
      <trkpt lat="45.27946" lon="6.19815">
        <ele>1374</ele>
        <time>2016-03-19T07:58:20Z</time>
      </trkpt>
      <trkpt lat="45.27947" lon="6.19812">
        <ele>1377</ele>
        <time>2016-03-19T07:58:25Z</time>
      </trkpt>
      <trkpt lat="45.27948" lon="6.19808">
        <ele>1377</ele>
        <time>2016-03-19T07:58:30Z</time>
      </trkpt>
      <trkpt lat="45.27948" lon="6.19805">
        <ele>1372</ele>
        <time>2016-03-19T07:58:35Z</time>
      </trkpt>
      <trkpt lat="45.27948" lon="6.19806">
        <ele>1383</ele>
        <time>2016-03-19T08:02:45Z</time>
      </trkpt>
      <trkpt lat="45.27948" lon="6.19805">
        <ele>1382</ele>
        <time>2016-03-19T08:02:50Z</time>
      </trkpt>
      <trkpt lat="45.27948" lon="6.19804">
        <ele>1382</ele>
        <time>2016-03-19T08:02:55Z</time>
      </trkpt>
      <trkpt lat="45.27946" lon="6.19802">
        <ele>1383</ele>
        <time>2016-03-19T08:03:00Z</time>
      </trkpt>
      <trkpt lat="45.27945" lon="6.19799">
        <ele>1385</ele>
        <time>2016-03-19T08:03:05Z</time>
      </trkpt>
      <trkpt lat="45.27944" lon="6.19793">
        <ele>1386</ele>
        <time>2016-03-19T08:03:10Z</time>
      </trkpt>
      <trkpt lat="45.27941" lon="6.19787">
        <ele>1387</ele>
        <time>2016-03-19T08:03:15Z</time>
      </trkpt>
      <trkpt lat="45.27939" lon="6.19787">
        <ele>1390</ele>
        <time>2016-03-19T08:03:20Z</time>
      </trkpt>
      <trkpt lat="45.27934" lon="6.19786">
        <ele>1393</ele>
        <time>2016-03-19T08:03:25Z</time>
      </trkpt>
      <trkpt lat="45.27933" lon="6.19779">
        <ele>1392</ele>
        <time>2016-03-19T08:03:30Z</time>
      </trkpt>
      <trkpt lat="45.27932" lon="6.19771">
        <ele>1391</ele>
        <time>2016-03-19T08:03:35Z</time>
      </trkpt>
      <trkpt lat="45.2793" lon="6.19765">
        <ele>1391</ele>
        <time>2016-03-19T08:03:40Z</time>
      </trkpt>
      <trkpt lat="45.27928" lon="6.19761">
        <ele>1392</ele>
        <time>2016-03-19T08:03:45Z</time>
      </trkpt>
      <trkpt lat="45.27926" lon="6.19757">
        <ele>1393</ele>
        <time>2016-03-19T08:03:50Z</time>
      </trkpt>
      <trkpt lat="45.27926" lon="6.19752">
        <ele>1395</ele>
        <time>2016-03-19T08:03:55Z</time>
      </trkpt>
      <trkpt lat="45.27925" lon="6.19748">
        <ele>1396</ele>
        <time>2016-03-19T08:04:00Z</time>
      </trkpt>
      <trkpt lat="45.27926" lon="6.19745">
        <ele>1396</ele>
        <time>2016-03-19T08:04:05Z</time>
      </trkpt>
      <trkpt lat="45.27923" lon="6.19743">
        <ele>1395</ele>
        <time>2016-03-19T08:04:10Z</time>
      </trkpt>
      <trkpt lat="45.27921" lon="6.19739">
        <ele>1395</ele>
        <time>2016-03-19T08:04:15Z</time>
      </trkpt>
      <trkpt lat="45.27918" lon="6.19738">
        <ele>1395</ele>
        <time>2016-03-19T08:04:20Z</time>
      </trkpt>
      <trkpt lat="45.27916" lon="6.19738">
        <ele>1397</ele>
        <time>2016-03-19T08:04:25Z</time>
      </trkpt>
      <trkpt lat="45.27915" lon="6.19738">
        <ele>1399</ele>
        <time>2016-03-19T08:04:30Z</time>
      </trkpt>
      <trkpt lat="45.27913" lon="6.19739">
        <ele>1398</ele>
        <time>2016-03-19T08:04:35Z</time>
      </trkpt>
      <trkpt lat="45.27913" lon="6.19738">
        <ele>1395</ele>
        <time>2016-03-19T08:04:40Z</time>
      </trkpt>
      <trkpt lat="45.27911" lon="6.19738">
        <ele>1398</ele>
        <time>2016-03-19T08:04:45Z</time>
      </trkpt>
      <trkpt lat="45.27907" lon="6.19739">
        <ele>1401</ele>
        <time>2016-03-19T08:04:50Z</time>
      </trkpt>
      <trkpt lat="45.27903" lon="6.19734">
        <ele>1402</ele>
        <time>2016-03-19T08:04:55Z</time>
      </trkpt>
      <trkpt lat="45.27901" lon="6.1973">
        <ele>1403</ele>
        <time>2016-03-19T08:05:00Z</time>
      </trkpt>
      <trkpt lat="45.27897" lon="6.19729">
        <ele>1406</ele>
        <time>2016-03-19T08:05:05Z</time>
      </trkpt>
      <trkpt lat="45.27893" lon="6.19728">
        <ele>1407</ele>
        <time>2016-03-19T08:05:10Z</time>
      </trkpt>
      <trkpt lat="45.27891" lon="6.19726">
        <ele>1410</ele>
        <time>2016-03-19T08:05:15Z</time>
      </trkpt>
      <trkpt lat="45.27888" lon="6.19726">
        <ele>1414</ele>
        <time>2016-03-19T08:05:20Z</time>
      </trkpt>
      <trkpt lat="45.27886" lon="6.19722">
        <ele>1414</ele>
        <time>2016-03-19T08:05:25Z</time>
      </trkpt>
      <trkpt lat="45.27884" lon="6.19718">
        <ele>1413</ele>
        <time>2016-03-19T08:05:30Z</time>
      </trkpt>
      <trkpt lat="45.2788" lon="6.19713">
        <ele>1414</ele>
        <time>2016-03-19T08:05:35Z</time>
      </trkpt>
      <trkpt lat="45.27876" lon="6.19708">
        <ele>1414</ele>
        <time>2016-03-19T08:05:40Z</time>
      </trkpt>
      <trkpt lat="45.27874" lon="6.19704">
        <ele>1414</ele>
        <time>2016-03-19T08:05:45Z</time>
      </trkpt>
      <trkpt lat="45.27873" lon="6.19698">
        <ele>1412</ele>
        <time>2016-03-19T08:05:50Z</time>
      </trkpt>
      <trkpt lat="45.27871" lon="6.19694">
        <ele>1412</ele>
        <time>2016-03-19T08:05:55Z</time>
      </trkpt>
      <trkpt lat="45.27868" lon="6.19694">
        <ele>1415</ele>
        <time>2016-03-19T08:06:00Z</time>
      </trkpt>
      <trkpt lat="45.27867" lon="6.1969">
        <ele>1415</ele>
        <time>2016-03-19T08:06:05Z</time>
      </trkpt>
      <trkpt lat="45.27865" lon="6.19685">
        <ele>1414</ele>
        <time>2016-03-19T08:06:10Z</time>
      </trkpt>
      <trkpt lat="45.27865" lon="6.19679">
        <ele>1414</ele>
        <time>2016-03-19T08:06:15Z</time>
      </trkpt>
      <trkpt lat="45.27865" lon="6.1967">
        <ele>1412</ele>
        <time>2016-03-19T08:06:20Z</time>
      </trkpt>
      <trkpt lat="45.27862" lon="6.19666">
        <ele>1412</ele>
        <time>2016-03-19T08:06:25Z</time>
      </trkpt>
      <trkpt lat="45.2786" lon="6.19663">
        <ele>1414</ele>
        <time>2016-03-19T08:06:30Z</time>
      </trkpt>
      <trkpt lat="45.27859" lon="6.1966">
        <ele>1416</ele>
        <time>2016-03-19T08:06:35Z</time>
      </trkpt>
      <trkpt lat="45.27858" lon="6.19657">
        <ele>1418</ele>
        <time>2016-03-19T08:06:40Z</time>
      </trkpt>
      <trkpt lat="45.27858" lon="6.19656">
        <ele>1421</ele>
        <time>2016-03-19T08:06:45Z</time>
      </trkpt>
      <trkpt lat="45.27857" lon="6.19652">
        <ele>1421</ele>
        <time>2016-03-19T08:06:50Z</time>
      </trkpt>
      <trkpt lat="45.27855" lon="6.19651">
        <ele>1422</ele>
        <time>2016-03-19T08:06:55Z</time>
      </trkpt>
      <trkpt lat="45.27853" lon="6.19651">
        <ele>1424</ele>
        <time>2016-03-19T08:07:00Z</time>
      </trkpt>
      <trkpt lat="45.27852" lon="6.19647">
        <ele>1424</ele>
        <time>2016-03-19T08:07:05Z</time>
      </trkpt>
      <trkpt lat="45.27851" lon="6.19645">
        <ele>1425</ele>
        <time>2016-03-19T08:07:10Z</time>
      </trkpt>
      <trkpt lat="45.2785" lon="6.19645">
        <ele>1425</ele>
        <time>2016-03-19T08:07:15Z</time>
      </trkpt>
      <trkpt lat="45.27849" lon="6.19646">
        <ele>1425</ele>
        <time>2016-03-19T08:07:20Z</time>
      </trkpt>
      <trkpt lat="45.27847" lon="6.19646">
        <ele>1425</ele>
        <time>2016-03-19T08:07:25Z</time>
      </trkpt>
      <trkpt lat="45.27846" lon="6.19649">
        <ele>1425</ele>
        <time>2016-03-19T08:07:30Z</time>
      </trkpt>
      <trkpt lat="45.27841" lon="6.19654">
        <ele>1427</ele>
        <time>2016-03-19T08:07:35Z</time>
      </trkpt>
      <trkpt lat="45.27837" lon="6.19657">
        <ele>1429</ele>
        <time>2016-03-19T08:07:40Z</time>
      </trkpt>
      <trkpt lat="45.27832" lon="6.19659">
        <ele>1431</ele>
        <time>2016-03-19T08:07:45Z</time>
      </trkpt>
      <trkpt lat="45.27829" lon="6.19659">
        <ele>1427</ele>
        <time>2016-03-19T08:07:50Z</time>
      </trkpt>
      <trkpt lat="45.27826" lon="6.19659">
        <ele>1424</ele>
        <time>2016-03-19T08:07:55Z</time>
      </trkpt>
      <trkpt lat="45.27825" lon="6.1966">
        <ele>1423</ele>
        <time>2016-03-19T08:08:00Z</time>
      </trkpt>
      <trkpt lat="45.27825" lon="6.19663">
        <ele>1421</ele>
        <time>2016-03-19T08:08:05Z</time>
      </trkpt>
      <trkpt lat="45.27823" lon="6.19666">
        <ele>1421</ele>
        <time>2016-03-19T08:08:10Z</time>
      </trkpt>
      <trkpt lat="45.27818" lon="6.19669">
        <ele>1424</ele>
        <time>2016-03-19T08:08:15Z</time>
      </trkpt>
      <trkpt lat="45.27815" lon="6.1967">
        <ele>1427</ele>
        <time>2016-03-19T08:08:20Z</time>
      </trkpt>
      <trkpt lat="45.27813" lon="6.1967">
        <ele>1430</ele>
        <time>2016-03-19T08:08:25Z</time>
      </trkpt>
      <trkpt lat="45.27812" lon="6.19668">
        <ele>1433</ele>
        <time>2016-03-19T08:08:30Z</time>
      </trkpt>
      <trkpt lat="45.27812" lon="6.19666">
        <ele>1433</ele>
        <time>2016-03-19T08:08:35Z</time>
      </trkpt>
      <trkpt lat="45.2781" lon="6.19665">
        <ele>1434</ele>
        <time>2016-03-19T08:08:40Z</time>
      </trkpt>
      <trkpt lat="45.27807" lon="6.19666">
        <ele>1436</ele>
        <time>2016-03-19T08:08:45Z</time>
      </trkpt>
      <trkpt lat="45.27805" lon="6.19668">
        <ele>1438</ele>
        <time>2016-03-19T08:08:50Z</time>
      </trkpt>
      <trkpt lat="45.27803" lon="6.19669">
        <ele>1441</ele>
        <time>2016-03-19T08:08:55Z</time>
      </trkpt>
      <trkpt lat="45.27802" lon="6.19668">
        <ele>1442</ele>
        <time>2016-03-19T08:09:00Z</time>
      </trkpt>
      <trkpt lat="45.278" lon="6.1967">
        <ele>1442</ele>
        <time>2016-03-19T08:09:05Z</time>
      </trkpt>
      <trkpt lat="45.27801" lon="6.19669">
        <ele>1444</ele>
        <time>2016-03-19T08:09:10Z</time>
      </trkpt>
      <trkpt lat="45.27799" lon="6.19668">
        <ele>1446</ele>
        <time>2016-03-19T08:09:15Z</time>
      </trkpt>
      <trkpt lat="45.27796" lon="6.19671">
        <ele>1448</ele>
        <time>2016-03-19T08:09:20Z</time>
      </trkpt>
      <trkpt lat="45.27794" lon="6.19673">
        <ele>1450</ele>
        <time>2016-03-19T08:09:25Z</time>
      </trkpt>
      <trkpt lat="45.27791" lon="6.19675">
        <ele>1451</ele>
        <time>2016-03-19T08:09:30Z</time>
      </trkpt>
      <trkpt lat="45.27789" lon="6.19678">
        <ele>1449</ele>
        <time>2016-03-19T08:09:35Z</time>
      </trkpt>
      <trkpt lat="45.27786" lon="6.19679">
        <ele>1451</ele>
        <time>2016-03-19T08:09:40Z</time>
      </trkpt>
      <trkpt lat="45.27785" lon="6.19679">
        <ele>1453</ele>
        <time>2016-03-19T08:09:45Z</time>
      </trkpt>
      <trkpt lat="45.2778" lon="6.1968">
        <ele>1452</ele>
        <time>2016-03-19T08:09:50Z</time>
      </trkpt>
      <trkpt lat="45.27778" lon="6.19683">
        <ele>1452</ele>
        <time>2016-03-19T08:09:55Z</time>
      </trkpt>
      <trkpt lat="45.27775" lon="6.19684">
        <ele>1450</ele>
        <time>2016-03-19T08:10:00Z</time>
      </trkpt>
      <trkpt lat="45.27773" lon="6.19689">
        <ele>1449</ele>
        <time>2016-03-19T08:10:05Z</time>
      </trkpt>
      <trkpt lat="45.27773" lon="6.19695">
        <ele>1452</ele>
        <time>2016-03-19T08:10:10Z</time>
      </trkpt>
      <trkpt lat="45.27773" lon="6.19698">
        <ele>1453</ele>
        <time>2016-03-19T08:10:15Z</time>
      </trkpt>
      <trkpt lat="45.27773" lon="6.19699">
        <ele>1451</ele>
        <time>2016-03-19T08:10:20Z</time>
      </trkpt>
      <trkpt lat="45.27772" lon="6.19704">
        <ele>1451</ele>
        <time>2016-03-19T08:10:25Z</time>
      </trkpt>
      <trkpt lat="45.2777" lon="6.19709">
        <ele>1449</ele>
        <time>2016-03-19T08:10:30Z</time>
      </trkpt>
      <trkpt lat="45.2777" lon="6.19716">
        <ele>1445</ele>
        <time>2016-03-19T08:10:35Z</time>
      </trkpt>
      <trkpt lat="45.2777" lon="6.1972">
        <ele>1446</ele>
        <time>2016-03-19T08:10:40Z</time>
      </trkpt>
      <trkpt lat="45.27771" lon="6.19725">
        <ele>1447</ele>
        <time>2016-03-19T08:10:45Z</time>
      </trkpt>
      <trkpt lat="45.27772" lon="6.19728">
        <ele>1448</ele>
        <time>2016-03-19T08:10:50Z</time>
      </trkpt>
      <trkpt lat="45.27773" lon="6.1973">
        <ele>1451</ele>
        <time>2016-03-19T08:10:55Z</time>
      </trkpt>
      <trkpt lat="45.27773" lon="6.19732">
        <ele>1453</ele>
        <time>2016-03-19T08:11:00Z</time>
      </trkpt>
      <trkpt lat="45.27772" lon="6.19736">
        <ele>1451</ele>
        <time>2016-03-19T08:11:05Z</time>
      </trkpt>
      <trkpt lat="45.27773" lon="6.19741">
        <ele>1450</ele>
        <time>2016-03-19T08:11:10Z</time>
      </trkpt>
      <trkpt lat="45.27775" lon="6.19746">
        <ele>1453</ele>
        <time>2016-03-19T08:11:15Z</time>
      </trkpt>
      <trkpt lat="45.27776" lon="6.19751">
        <ele>1453</ele>
        <time>2016-03-19T08:11:20Z</time>
      </trkpt>
      <trkpt lat="45.27778" lon="6.19755">
        <ele>1454</ele>
        <time>2016-03-19T08:11:25Z</time>
      </trkpt>
      <trkpt lat="45.27781" lon="6.19761">
        <ele>1455</ele>
        <time>2016-03-19T08:11:30Z</time>
      </trkpt>
      <trkpt lat="45.27783" lon="6.19766">
        <ele>1455</ele>
        <time>2016-03-19T08:11:35Z</time>
      </trkpt>
      <trkpt lat="45.27783" lon="6.19771">
        <ele>1454</ele>
        <time>2016-03-19T08:11:40Z</time>
      </trkpt>
      <trkpt lat="45.27784" lon="6.19776">
        <ele>1456</ele>
        <time>2016-03-19T08:11:45Z</time>
      </trkpt>
      <trkpt lat="45.27784" lon="6.1978">
        <ele>1459</ele>
        <time>2016-03-19T08:11:50Z</time>
      </trkpt>
      <trkpt lat="45.27785" lon="6.19784">
        <ele>1461</ele>
        <time>2016-03-19T08:11:55Z</time>
      </trkpt>
      <trkpt lat="45.27784" lon="6.19789">
        <ele>1458</ele>
        <time>2016-03-19T08:12:00Z</time>
      </trkpt>
      <trkpt lat="45.27784" lon="6.19793">
        <ele>1455</ele>
        <time>2016-03-19T08:12:05Z</time>
      </trkpt>
      <trkpt lat="45.27784" lon="6.19798">
        <ele>1456</ele>
        <time>2016-03-19T08:12:10Z</time>
      </trkpt>
      <trkpt lat="45.27783" lon="6.19802">
        <ele>1460</ele>
        <time>2016-03-19T08:12:15Z</time>
      </trkpt>
      <trkpt lat="45.27783" lon="6.19807">
        <ele>1463</ele>
        <time>2016-03-19T08:12:20Z</time>
      </trkpt>
      <trkpt lat="45.27785" lon="6.19813">
        <ele>1465</ele>
        <time>2016-03-19T08:12:25Z</time>
      </trkpt>
      <trkpt lat="45.27786" lon="6.19817">
        <ele>1468</ele>
        <time>2016-03-19T08:12:30Z</time>
      </trkpt>
      <trkpt lat="45.27787" lon="6.1982">
        <ele>1468</ele>
        <time>2016-03-19T08:12:35Z</time>
      </trkpt>
      <trkpt lat="45.27787" lon="6.19826">
        <ele>1466</ele>
        <time>2016-03-19T08:12:40Z</time>
      </trkpt>
      <trkpt lat="45.27789" lon="6.19831">
        <ele>1466</ele>
        <time>2016-03-19T08:12:45Z</time>
      </trkpt>
      <trkpt lat="45.27789" lon="6.19835">
        <ele>1469</ele>
        <time>2016-03-19T08:12:50Z</time>
      </trkpt>
      <trkpt lat="45.27789" lon="6.19838">
        <ele>1472</ele>
        <time>2016-03-19T08:12:55Z</time>
      </trkpt>
      <trkpt lat="45.2779" lon="6.19841">
        <ele>1475</ele>
        <time>2016-03-19T08:13:00Z</time>
      </trkpt>
      <trkpt lat="45.27793" lon="6.19848">
        <ele>1479</ele>
        <time>2016-03-19T08:13:05Z</time>
      </trkpt>
      <trkpt lat="45.27795" lon="6.19855">
        <ele>1480</ele>
        <time>2016-03-19T08:13:10Z</time>
      </trkpt>
      <trkpt lat="45.27795" lon="6.1986">
        <ele>1477</ele>
        <time>2016-03-19T08:13:15Z</time>
      </trkpt>
      <trkpt lat="45.27796" lon="6.19865">
        <ele>1476</ele>
        <time>2016-03-19T08:13:20Z</time>
      </trkpt>
      <trkpt lat="45.27797" lon="6.1987">
        <ele>1473</ele>
        <time>2016-03-19T08:13:25Z</time>
      </trkpt>
      <trkpt lat="45.27798" lon="6.19873">
        <ele>1474</ele>
        <time>2016-03-19T08:13:30Z</time>
      </trkpt>
      <trkpt lat="45.278" lon="6.19879">
        <ele>1475</ele>
        <time>2016-03-19T08:13:35Z</time>
      </trkpt>
      <trkpt lat="45.27802" lon="6.19883">
        <ele>1473</ele>
        <time>2016-03-19T08:13:40Z</time>
      </trkpt>
      <trkpt lat="45.27803" lon="6.19889">
        <ele>1470</ele>
        <time>2016-03-19T08:13:45Z</time>
      </trkpt>
      <trkpt lat="45.27803" lon="6.19893">
        <ele>1468</ele>
        <time>2016-03-19T08:13:50Z</time>
      </trkpt>
      <trkpt lat="45.27802" lon="6.19899">
        <ele>1469</ele>
        <time>2016-03-19T08:13:55Z</time>
      </trkpt>
      <trkpt lat="45.27804" lon="6.19904">
        <ele>1474</ele>
        <time>2016-03-19T08:14:00Z</time>
      </trkpt>
      <trkpt lat="45.27804" lon="6.19909">
        <ele>1476</ele>
        <time>2016-03-19T08:14:05Z</time>
      </trkpt>
      <trkpt lat="45.27805" lon="6.19912">
        <ele>1480</ele>
        <time>2016-03-19T08:14:10Z</time>
      </trkpt>
      <trkpt lat="45.27806" lon="6.19915">
        <ele>1482</ele>
        <time>2016-03-19T08:14:15Z</time>
      </trkpt>
      <trkpt lat="45.27807" lon="6.19918">
        <ele>1486</ele>
        <time>2016-03-19T08:14:20Z</time>
      </trkpt>
      <trkpt lat="45.27808" lon="6.19922">
        <ele>1484</ele>
        <time>2016-03-19T08:14:25Z</time>
      </trkpt>
      <trkpt lat="45.2781" lon="6.19925">
        <ele>1486</ele>
        <time>2016-03-19T08:14:30Z</time>
      </trkpt>
      <trkpt lat="45.27811" lon="6.19928">
        <ele>1490</ele>
        <time>2016-03-19T08:14:35Z</time>
      </trkpt>
      <trkpt lat="45.27812" lon="6.19932">
        <ele>1497</ele>
        <time>2016-03-19T08:14:40Z</time>
      </trkpt>
      <trkpt lat="45.27813" lon="6.19937">
        <ele>1503</ele>
        <time>2016-03-19T08:14:45Z</time>
      </trkpt>
      <trkpt lat="45.27814" lon="6.19941">
        <ele>1504</ele>
        <time>2016-03-19T08:14:50Z</time>
      </trkpt>
      <trkpt lat="45.27814" lon="6.19945">
        <ele>1503</ele>
        <time>2016-03-19T08:14:55Z</time>
      </trkpt>
      <trkpt lat="45.27812" lon="6.19951">
        <ele>1497</ele>
        <time>2016-03-19T08:15:00Z</time>
      </trkpt>
      <trkpt lat="45.27813" lon="6.19956">
        <ele>1494</ele>
        <time>2016-03-19T08:15:05Z</time>
      </trkpt>
      <trkpt lat="45.27812" lon="6.1996">
        <ele>1494</ele>
        <time>2016-03-19T08:15:10Z</time>
      </trkpt>
      <trkpt lat="45.27814" lon="6.19963">
        <ele>1491</ele>
        <time>2016-03-19T08:15:15Z</time>
      </trkpt>
      <trkpt lat="45.27815" lon="6.19968">
        <ele>1491</ele>
        <time>2016-03-19T08:15:20Z</time>
      </trkpt>
      <trkpt lat="45.27814" lon="6.19972">
        <ele>1490</ele>
        <time>2016-03-19T08:15:25Z</time>
      </trkpt>
      <trkpt lat="45.27814" lon="6.19974">
        <ele>1495</ele>
        <time>2016-03-19T08:15:30Z</time>
      </trkpt>
      <trkpt lat="45.27816" lon="6.19976">
        <ele>1499</ele>
        <time>2016-03-19T08:15:35Z</time>
      </trkpt>
      <trkpt lat="45.27816" lon="6.19981">
        <ele>1499</ele>
        <time>2016-03-19T08:15:40Z</time>
      </trkpt>
      <trkpt lat="45.27816" lon="6.19985">
        <ele>1500</ele>
        <time>2016-03-19T08:15:45Z</time>
      </trkpt>
      <trkpt lat="45.27816" lon="6.19989">
        <ele>1500</ele>
        <time>2016-03-19T08:15:50Z</time>
      </trkpt>
      <trkpt lat="45.27818" lon="6.19993">
        <ele>1500</ele>
        <time>2016-03-19T08:15:55Z</time>
      </trkpt>
      <trkpt lat="45.27819" lon="6.19997">
        <ele>1502</ele>
        <time>2016-03-19T08:16:00Z</time>
      </trkpt>
      <trkpt lat="45.27822" lon="6.20002">
        <ele>1504</ele>
        <time>2016-03-19T08:16:05Z</time>
      </trkpt>
      <trkpt lat="45.27824" lon="6.20009">
        <ele>1505</ele>
        <time>2016-03-19T08:16:10Z</time>
      </trkpt>
      <trkpt lat="45.27825" lon="6.20014">
        <ele>1503</ele>
        <time>2016-03-19T08:16:15Z</time>
      </trkpt>
      <trkpt lat="45.27823" lon="6.2002">
        <ele>1500</ele>
        <time>2016-03-19T08:16:20Z</time>
      </trkpt>
      <trkpt lat="45.27822" lon="6.20025">
        <ele>1495</ele>
        <time>2016-03-19T08:16:25Z</time>
      </trkpt>
      <trkpt lat="45.27821" lon="6.2003">
        <ele>1496</ele>
        <time>2016-03-19T08:16:30Z</time>
      </trkpt>
      <trkpt lat="45.27821" lon="6.20033">
        <ele>1498</ele>
        <time>2016-03-19T08:16:35Z</time>
      </trkpt>
      <trkpt lat="45.27822" lon="6.20039">
        <ele>1498</ele>
        <time>2016-03-19T08:16:40Z</time>
      </trkpt>
      <trkpt lat="45.27823" lon="6.20045">
        <ele>1497</ele>
        <time>2016-03-19T08:16:45Z</time>
      </trkpt>
      <trkpt lat="45.27823" lon="6.20051">
        <ele>1497</ele>
        <time>2016-03-19T08:16:50Z</time>
      </trkpt>
      <trkpt lat="45.27824" lon="6.20056">
        <ele>1495</ele>
        <time>2016-03-19T08:16:55Z</time>
      </trkpt>
      <trkpt lat="45.27827" lon="6.2006">
        <ele>1495</ele>
        <time>2016-03-19T08:17:00Z</time>
      </trkpt>
      <trkpt lat="45.27827" lon="6.20064">
        <ele>1499</ele>
        <time>2016-03-19T08:17:05Z</time>
      </trkpt>
      <trkpt lat="45.27827" lon="6.20067">
        <ele>1503</ele>
        <time>2016-03-19T08:17:10Z</time>
      </trkpt>
      <trkpt lat="45.27828" lon="6.2007">
        <ele>1506</ele>
        <time>2016-03-19T08:17:15Z</time>
      </trkpt>
      <trkpt lat="45.27828" lon="6.20073">
        <ele>1509</ele>
        <time>2016-03-19T08:17:20Z</time>
      </trkpt>
      <trkpt lat="45.27829" lon="6.20079">
        <ele>1512</ele>
        <time>2016-03-19T08:17:25Z</time>
      </trkpt>
      <trkpt lat="45.27831" lon="6.20084">
        <ele>1511</ele>
        <time>2016-03-19T08:17:30Z</time>
      </trkpt>
      <trkpt lat="45.27832" lon="6.20087">
        <ele>1509</ele>
        <time>2016-03-19T08:17:35Z</time>
      </trkpt>
      <trkpt lat="45.27831" lon="6.20091">
        <ele>1510</ele>
        <time>2016-03-19T08:17:40Z</time>
      </trkpt>
      <trkpt lat="45.2783" lon="6.20094">
        <ele>1513</ele>
        <time>2016-03-19T08:17:45Z</time>
      </trkpt>
      <trkpt lat="45.2783" lon="6.20097">
        <ele>1513</ele>
        <time>2016-03-19T08:17:50Z</time>
      </trkpt>
      <trkpt lat="45.27831" lon="6.20099">
        <ele>1521</ele>
        <time>2016-03-19T08:17:55Z</time>
      </trkpt>
      <trkpt lat="45.27831" lon="6.20103">
        <ele>1518</ele>
        <time>2016-03-19T08:18:00Z</time>
      </trkpt>
      <trkpt lat="45.27831" lon="6.20108">
        <ele>1513</ele>
        <time>2016-03-19T08:18:05Z</time>
      </trkpt>
      <trkpt lat="45.27831" lon="6.20111">
        <ele>1512</ele>
        <time>2016-03-19T08:18:10Z</time>
      </trkpt>
      <trkpt lat="45.27831" lon="6.20115">
        <ele>1515</ele>
        <time>2016-03-19T08:18:15Z</time>
      </trkpt>
      <trkpt lat="45.27833" lon="6.2012">
        <ele>1520</ele>
        <time>2016-03-19T08:18:20Z</time>
      </trkpt>
      <trkpt lat="45.27833" lon="6.20123">
        <ele>1525</ele>
        <time>2016-03-19T08:18:25Z</time>
      </trkpt>
      <trkpt lat="45.27834" lon="6.20127">
        <ele>1528</ele>
        <time>2016-03-19T08:18:30Z</time>
      </trkpt>
      <trkpt lat="45.27835" lon="6.20131">
        <ele>1532</ele>
        <time>2016-03-19T08:18:35Z</time>
      </trkpt>
      <trkpt lat="45.27836" lon="6.20134">
        <ele>1537</ele>
        <time>2016-03-19T08:18:40Z</time>
      </trkpt>
      <trkpt lat="45.27838" lon="6.20136">
        <ele>1538</ele>
        <time>2016-03-19T08:18:45Z</time>
      </trkpt>
      <trkpt lat="45.27838" lon="6.20139">
        <ele>1537</ele>
        <time>2016-03-19T08:18:50Z</time>
      </trkpt>
      <trkpt lat="45.27838" lon="6.20144">
        <ele>1530</ele>
        <time>2016-03-19T08:18:55Z</time>
      </trkpt>
      <trkpt lat="45.27838" lon="6.20149">
        <ele>1527</ele>
        <time>2016-03-19T08:19:00Z</time>
      </trkpt>
      <trkpt lat="45.27839" lon="6.20154">
        <ele>1522</ele>
        <time>2016-03-19T08:19:05Z</time>
      </trkpt>
      <trkpt lat="45.2784" lon="6.20156">
        <ele>1520</ele>
        <time>2016-03-19T08:19:10Z</time>
      </trkpt>
      <trkpt lat="45.27841" lon="6.20158">
        <ele>1519</ele>
        <time>2016-03-19T08:19:15Z</time>
      </trkpt>
      <trkpt lat="45.27842" lon="6.20161">
        <ele>1521</ele>
        <time>2016-03-19T08:19:20Z</time>
      </trkpt>
      <trkpt lat="45.27844" lon="6.20165">
        <ele>1517</ele>
        <time>2016-03-19T08:19:25Z</time>
      </trkpt>
      <trkpt lat="45.27845" lon="6.20168">
        <ele>1517</ele>
        <time>2016-03-19T08:19:30Z</time>
      </trkpt>
      <trkpt lat="45.27849" lon="6.20172">
        <ele>1520</ele>
        <time>2016-03-19T08:19:35Z</time>
      </trkpt>
      <trkpt lat="45.2785" lon="6.20175">
        <ele>1523</ele>
        <time>2016-03-19T08:19:40Z</time>
      </trkpt>
      <trkpt lat="45.27851" lon="6.20176">
        <ele>1525</ele>
        <time>2016-03-19T08:19:45Z</time>
      </trkpt>
      <trkpt lat="45.27852" lon="6.2018">
        <ele>1522</ele>
        <time>2016-03-19T08:19:50Z</time>
      </trkpt>
      <trkpt lat="45.27852" lon="6.20186">
        <ele>1517</ele>
        <time>2016-03-19T08:19:55Z</time>
      </trkpt>
      <trkpt lat="45.27855" lon="6.20191">
        <ele>1519</ele>
        <time>2016-03-19T08:20:00Z</time>
      </trkpt>
      <trkpt lat="45.27858" lon="6.20198">
        <ele>1518</ele>
        <time>2016-03-19T08:20:05Z</time>
      </trkpt>
      <trkpt lat="45.27858" lon="6.20202">
        <ele>1518</ele>
        <time>2016-03-19T08:20:10Z</time>
      </trkpt>
      <trkpt lat="45.27857" lon="6.20206">
        <ele>1519</ele>
        <time>2016-03-19T08:20:15Z</time>
      </trkpt>
      <trkpt lat="45.27853" lon="6.2021">
        <ele>1522</ele>
        <time>2016-03-19T08:20:20Z</time>
      </trkpt>
      <trkpt lat="45.27847" lon="6.20212">
        <ele>1524</ele>
        <time>2016-03-19T08:20:25Z</time>
      </trkpt>
      <trkpt lat="45.27844" lon="6.20213">
        <ele>1527</ele>
        <time>2016-03-19T08:20:30Z</time>
      </trkpt>
      <trkpt lat="45.27842" lon="6.20214">
        <ele>1529</ele>
        <time>2016-03-19T08:20:35Z</time>
      </trkpt>
      <trkpt lat="45.27845" lon="6.20214">
        <ele>1531</ele>
        <time>2016-03-19T08:20:40Z</time>
      </trkpt>
      <trkpt lat="45.27843" lon="6.20213">
        <ele>1532</ele>
        <time>2016-03-19T08:20:45Z</time>
      </trkpt>
      <trkpt lat="45.27839" lon="6.20212">
        <ele>1530</ele>
        <time>2016-03-19T08:20:50Z</time>
      </trkpt>
      <trkpt lat="45.27836" lon="6.2021">
        <ele>1530</ele>
        <time>2016-03-19T08:20:55Z</time>
      </trkpt>
      <trkpt lat="45.27834" lon="6.20208">
        <ele>1530</ele>
        <time>2016-03-19T08:21:00Z</time>
      </trkpt>
      <trkpt lat="45.27832" lon="6.20207">
        <ele>1529</ele>
        <time>2016-03-19T08:21:05Z</time>
      </trkpt>
      <trkpt lat="45.27832" lon="6.20205">
        <ele>1526</ele>
        <time>2016-03-19T08:21:10Z</time>
      </trkpt>
      <trkpt lat="45.2783" lon="6.20207">
        <ele>1525</ele>
        <time>2016-03-19T08:21:15Z</time>
      </trkpt>
      <trkpt lat="45.27828" lon="6.2021">
        <ele>1525</ele>
        <time>2016-03-19T08:21:20Z</time>
      </trkpt>
      <trkpt lat="45.27826" lon="6.2021">
        <ele>1526</ele>
        <time>2016-03-19T08:21:25Z</time>
      </trkpt>
      <trkpt lat="45.27827" lon="6.20207">
        <ele>1529</ele>
        <time>2016-03-19T08:21:30Z</time>
      </trkpt>
      <trkpt lat="45.27824" lon="6.20204">
        <ele>1529</ele>
        <time>2016-03-19T08:21:35Z</time>
      </trkpt>
      <trkpt lat="45.27822" lon="6.20202">
        <ele>1530</ele>
        <time>2016-03-19T08:21:40Z</time>
      </trkpt>
      <trkpt lat="45.27822" lon="6.20198">
        <ele>1528</ele>
        <time>2016-03-19T08:21:45Z</time>
      </trkpt>
      <trkpt lat="45.27822" lon="6.20196">
        <ele>1528</ele>
        <time>2016-03-19T08:21:50Z</time>
      </trkpt>
      <trkpt lat="45.27822" lon="6.20195">
        <ele>1527</ele>
        <time>2016-03-19T08:21:55Z</time>
      </trkpt>
      <trkpt lat="45.27817" lon="6.20195">
        <ele>1530</ele>
        <time>2016-03-19T08:27:15Z</time>
      </trkpt>
      <trkpt lat="45.27817" lon="6.20195">
        <ele>1530</ele>
        <time>2016-03-19T08:27:20Z</time>
      </trkpt>
      <trkpt lat="45.27817" lon="6.20195">
        <ele>1531</ele>
        <time>2016-03-19T08:27:25Z</time>
      </trkpt>
      <trkpt lat="45.27815" lon="6.20193">
        <ele>1531</ele>
        <time>2016-03-19T08:27:30Z</time>
      </trkpt>
      <trkpt lat="45.27814" lon="6.20192">
        <ele>1532</ele>
        <time>2016-03-19T08:27:35Z</time>
      </trkpt>
      <trkpt lat="45.27812" lon="6.20188">
        <ele>1533</ele>
        <time>2016-03-19T08:27:40Z</time>
      </trkpt>
      <trkpt lat="45.27809" lon="6.20185">
        <ele>1534</ele>
        <time>2016-03-19T08:27:45Z</time>
      </trkpt>
      <trkpt lat="45.27806" lon="6.20181">
        <ele>1535</ele>
        <time>2016-03-19T08:27:50Z</time>
      </trkpt>
      <trkpt lat="45.27802" lon="6.20176">
        <ele>1535</ele>
        <time>2016-03-19T08:27:55Z</time>
      </trkpt>
      <trkpt lat="45.27799" lon="6.20172">
        <ele>1536</ele>
        <time>2016-03-19T08:28:00Z</time>
      </trkpt>
      <trkpt lat="45.27796" lon="6.20168">
        <ele>1536</ele>
        <time>2016-03-19T08:28:05Z</time>
      </trkpt>
      <trkpt lat="45.27793" lon="6.20163">
        <ele>1537</ele>
        <time>2016-03-19T08:28:10Z</time>
      </trkpt>
      <trkpt lat="45.27791" lon="6.20159">
        <ele>1538</ele>
        <time>2016-03-19T08:28:15Z</time>
      </trkpt>
      <trkpt lat="45.27789" lon="6.20154">
        <ele>1539</ele>
        <time>2016-03-19T08:28:20Z</time>
      </trkpt>
      <trkpt lat="45.27786" lon="6.2015">
        <ele>1540</ele>
        <time>2016-03-19T08:28:25Z</time>
      </trkpt>
      <trkpt lat="45.27784" lon="6.20146">
        <ele>1540</ele>
        <time>2016-03-19T08:28:30Z</time>
      </trkpt>
      <trkpt lat="45.27781" lon="6.20142">
        <ele>1541</ele>
        <time>2016-03-19T08:28:35Z</time>
      </trkpt>
      <trkpt lat="45.27779" lon="6.20137">
        <ele>1542</ele>
        <time>2016-03-19T08:28:40Z</time>
      </trkpt>
      <trkpt lat="45.27777" lon="6.20131">
        <ele>1542</ele>
        <time>2016-03-19T08:28:45Z</time>
      </trkpt>
      <trkpt lat="45.27776" lon="6.20126">
        <ele>1543</ele>
        <time>2016-03-19T08:28:50Z</time>
      </trkpt>
      <trkpt lat="45.27773" lon="6.2012">
        <ele>1543</ele>
        <time>2016-03-19T08:28:55Z</time>
      </trkpt>
      <trkpt lat="45.27771" lon="6.20115">
        <ele>1544</ele>
        <time>2016-03-19T08:29:00Z</time>
      </trkpt>
      <trkpt lat="45.27768" lon="6.2011">
        <ele>1545</ele>
        <time>2016-03-19T08:29:05Z</time>
      </trkpt>
      <trkpt lat="45.27766" lon="6.20104">
        <ele>1545</ele>
        <time>2016-03-19T08:29:10Z</time>
      </trkpt>
      <trkpt lat="45.27763" lon="6.20098">
        <ele>1546</ele>
        <time>2016-03-19T08:29:15Z</time>
      </trkpt>
      <trkpt lat="45.27761" lon="6.20093">
        <ele>1546</ele>
        <time>2016-03-19T08:29:20Z</time>
      </trkpt>
      <trkpt lat="45.27759" lon="6.20088">
        <ele>1547</ele>
        <time>2016-03-19T08:29:25Z</time>
      </trkpt>
      <trkpt lat="45.27756" lon="6.20084">
        <ele>1547</ele>
        <time>2016-03-19T08:29:30Z</time>
      </trkpt>
      <trkpt lat="45.27754" lon="6.2008">
        <ele>1548</ele>
        <time>2016-03-19T08:29:35Z</time>
      </trkpt>
      <trkpt lat="45.27751" lon="6.20075">
        <ele>1549</ele>
        <time>2016-03-19T08:29:40Z</time>
      </trkpt>
      <trkpt lat="45.27748" lon="6.20071">
        <ele>1549</ele>
        <time>2016-03-19T08:29:45Z</time>
      </trkpt>
      <trkpt lat="45.27745" lon="6.20066">
        <ele>1550</ele>
        <time>2016-03-19T08:29:50Z</time>
      </trkpt>
      <trkpt lat="45.27742" lon="6.20061">
        <ele>1550</ele>
        <time>2016-03-19T08:29:55Z</time>
      </trkpt>
      <trkpt lat="45.27739" lon="6.20056">
        <ele>1551</ele>
        <time>2016-03-19T08:30:00Z</time>
      </trkpt>
      <trkpt lat="45.27736" lon="6.20052">
        <ele>1551</ele>
        <time>2016-03-19T08:30:05Z</time>
      </trkpt>
      <trkpt lat="45.27733" lon="6.20048">
        <ele>1551</ele>
        <time>2016-03-19T08:30:10Z</time>
      </trkpt>
      <trkpt lat="45.27729" lon="6.20044">
        <ele>1551</ele>
        <time>2016-03-19T08:30:15Z</time>
      </trkpt>
      <trkpt lat="45.27726" lon="6.2004">
        <ele>1552</ele>
        <time>2016-03-19T08:30:20Z</time>
      </trkpt>
      <trkpt lat="45.27723" lon="6.20036">
        <ele>1552</ele>
        <time>2016-03-19T08:30:25Z</time>
      </trkpt>
      <trkpt lat="45.2772" lon="6.20033">
        <ele>1553</ele>
        <time>2016-03-19T08:30:30Z</time>
      </trkpt>
      <trkpt lat="45.27718" lon="6.20029">
        <ele>1554</ele>
        <time>2016-03-19T08:30:35Z</time>
      </trkpt>
      <trkpt lat="45.27716" lon="6.20025">
        <ele>1555</ele>
        <time>2016-03-19T08:30:40Z</time>
      </trkpt>
      <trkpt lat="45.27714" lon="6.2002">
        <ele>1556</ele>
        <time>2016-03-19T08:30:45Z</time>
      </trkpt>
      <trkpt lat="45.27711" lon="6.20014">
        <ele>1557</ele>
        <time>2016-03-19T08:30:50Z</time>
      </trkpt>
      <trkpt lat="45.27706" lon="6.20009">
        <ele>1556</ele>
        <time>2016-03-19T08:30:55Z</time>
      </trkpt>
      <trkpt lat="45.27703" lon="6.20004">
        <ele>1556</ele>
        <time>2016-03-19T08:31:00Z</time>
      </trkpt>
      <trkpt lat="45.27699" lon="6.19999">
        <ele>1556</ele>
        <time>2016-03-19T08:31:05Z</time>
      </trkpt>
      <trkpt lat="45.27696" lon="6.19992">
        <ele>1556</ele>
        <time>2016-03-19T08:31:10Z</time>
      </trkpt>
      <trkpt lat="45.27693" lon="6.19985">
        <ele>1556</ele>
        <time>2016-03-19T08:31:15Z</time>
      </trkpt>
      <trkpt lat="45.2769" lon="6.19979">
        <ele>1556</ele>
        <time>2016-03-19T08:31:20Z</time>
      </trkpt>
      <trkpt lat="45.27687" lon="6.19971">
        <ele>1556</ele>
        <time>2016-03-19T08:31:25Z</time>
      </trkpt>
      <trkpt lat="45.27684" lon="6.19964">
        <ele>1555</ele>
        <time>2016-03-19T08:31:30Z</time>
      </trkpt>
      <trkpt lat="45.27682" lon="6.19957">
        <ele>1555</ele>
        <time>2016-03-19T08:31:35Z</time>
      </trkpt>
      <trkpt lat="45.2768" lon="6.1995">
        <ele>1556</ele>
        <time>2016-03-19T08:31:40Z</time>
      </trkpt>
      <trkpt lat="45.27677" lon="6.19944">
        <ele>1556</ele>
        <time>2016-03-19T08:31:45Z</time>
      </trkpt>
      <trkpt lat="45.27675" lon="6.19937">
        <ele>1557</ele>
        <time>2016-03-19T08:31:50Z</time>
      </trkpt>
      <trkpt lat="45.27672" lon="6.19932">
        <ele>1557</ele>
        <time>2016-03-19T08:31:55Z</time>
      </trkpt>
      <trkpt lat="45.27669" lon="6.19927">
        <ele>1557</ele>
        <time>2016-03-19T08:32:00Z</time>
      </trkpt>
      <trkpt lat="45.27667" lon="6.19922">
        <ele>1558</ele>
        <time>2016-03-19T08:32:05Z</time>
      </trkpt>
      <trkpt lat="45.27664" lon="6.19917">
        <ele>1559</ele>
        <time>2016-03-19T08:32:10Z</time>
      </trkpt>
      <trkpt lat="45.27662" lon="6.19911">
        <ele>1560</ele>
        <time>2016-03-19T08:32:15Z</time>
      </trkpt>
      <trkpt lat="45.27659" lon="6.19906">
        <ele>1560</ele>
        <time>2016-03-19T08:32:20Z</time>
      </trkpt>
      <trkpt lat="45.27656" lon="6.19901">
        <ele>1560</ele>
        <time>2016-03-19T08:32:25Z</time>
      </trkpt>
      <trkpt lat="45.27653" lon="6.19897">
        <ele>1561</ele>
        <time>2016-03-19T08:32:30Z</time>
      </trkpt>
      <trkpt lat="45.27651" lon="6.19892">
        <ele>1561</ele>
        <time>2016-03-19T08:32:35Z</time>
      </trkpt>
      <trkpt lat="45.27648" lon="6.19888">
        <ele>1561</ele>
        <time>2016-03-19T08:32:40Z</time>
      </trkpt>
      <trkpt lat="45.27645" lon="6.19884">
        <ele>1562</ele>
        <time>2016-03-19T08:32:45Z</time>
      </trkpt>
      <trkpt lat="45.27641" lon="6.1988">
        <ele>1562</ele>
        <time>2016-03-19T08:32:50Z</time>
      </trkpt>
      <trkpt lat="45.27636" lon="6.19877">
        <ele>1561</ele>
        <time>2016-03-19T08:32:55Z</time>
      </trkpt>
      <trkpt lat="45.27633" lon="6.19872">
        <ele>1561</ele>
        <time>2016-03-19T08:33:00Z</time>
      </trkpt>
      <trkpt lat="45.2763" lon="6.19869">
        <ele>1561</ele>
        <time>2016-03-19T08:33:05Z</time>
      </trkpt>
      <trkpt lat="45.27627" lon="6.19865">
        <ele>1561</ele>
        <time>2016-03-19T08:33:10Z</time>
      </trkpt>
      <trkpt lat="45.27625" lon="6.19861">
        <ele>1561</ele>
        <time>2016-03-19T08:33:15Z</time>
      </trkpt>
      <trkpt lat="45.27623" lon="6.19856">
        <ele>1562</ele>
        <time>2016-03-19T08:33:20Z</time>
      </trkpt>
      <trkpt lat="45.27621" lon="6.19851">
        <ele>1562</ele>
        <time>2016-03-19T08:33:25Z</time>
      </trkpt>
      <trkpt lat="45.2762" lon="6.19844">
        <ele>1562</ele>
        <time>2016-03-19T08:33:30Z</time>
      </trkpt>
      <trkpt lat="45.27618" lon="6.19839">
        <ele>1563</ele>
        <time>2016-03-19T08:33:35Z</time>
      </trkpt>
      <trkpt lat="45.27616" lon="6.19834">
        <ele>1565</ele>
        <time>2016-03-19T08:33:40Z</time>
      </trkpt>
      <trkpt lat="45.27614" lon="6.1983">
        <ele>1565</ele>
        <time>2016-03-19T08:33:45Z</time>
      </trkpt>
      <trkpt lat="45.27611" lon="6.19825">
        <ele>1566</ele>
        <time>2016-03-19T08:33:50Z</time>
      </trkpt>
      <trkpt lat="45.27608" lon="6.19822">
        <ele>1566</ele>
        <time>2016-03-19T08:33:55Z</time>
      </trkpt>
      <trkpt lat="45.27606" lon="6.19817">
        <ele>1566</ele>
        <time>2016-03-19T08:34:00Z</time>
      </trkpt>
      <trkpt lat="45.27603" lon="6.19812">
        <ele>1566</ele>
        <time>2016-03-19T08:34:05Z</time>
      </trkpt>
      <trkpt lat="45.27601" lon="6.19808">
        <ele>1567</ele>
        <time>2016-03-19T08:34:10Z</time>
      </trkpt>
      <trkpt lat="45.27601" lon="6.19803">
        <ele>1567</ele>
        <time>2016-03-19T08:34:15Z</time>
      </trkpt>
      <trkpt lat="45.27599" lon="6.19797">
        <ele>1568</ele>
        <time>2016-03-19T08:34:20Z</time>
      </trkpt>
      <trkpt lat="45.27597" lon="6.19792">
        <ele>1568</ele>
        <time>2016-03-19T08:34:25Z</time>
      </trkpt>
      <trkpt lat="45.27596" lon="6.19788">
        <ele>1569</ele>
        <time>2016-03-19T08:34:30Z</time>
      </trkpt>
      <trkpt lat="45.27594" lon="6.19783">
        <ele>1570</ele>
        <time>2016-03-19T08:34:35Z</time>
      </trkpt>
      <trkpt lat="45.27591" lon="6.19779">
        <ele>1571</ele>
        <time>2016-03-19T08:34:40Z</time>
      </trkpt>
      <trkpt lat="45.27589" lon="6.19775">
        <ele>1572</ele>
        <time>2016-03-19T08:34:45Z</time>
      </trkpt>
      <trkpt lat="45.27589" lon="6.19775">
        <ele>1572</ele>
        <time>2016-03-19T08:34:50Z</time>
      </trkpt>
      <trkpt lat="45.27589" lon="6.19774">
        <ele>1572</ele>
        <time>2016-03-19T08:34:55Z</time>
      </trkpt>
      <trkpt lat="45.27588" lon="6.19773">
        <ele>1572</ele>
        <time>2016-03-19T08:35:00Z</time>
      </trkpt>
      <trkpt lat="45.27588" lon="6.19772">
        <ele>1572</ele>
        <time>2016-03-19T08:35:05Z</time>
      </trkpt>
      <trkpt lat="45.27585" lon="6.19769">
        <ele>1572</ele>
        <time>2016-03-19T08:35:10Z</time>
      </trkpt>
      <trkpt lat="45.27581" lon="6.19765">
        <ele>1573</ele>
        <time>2016-03-19T08:35:15Z</time>
      </trkpt>
      <trkpt lat="45.27578" lon="6.19761">
        <ele>1574</ele>
        <time>2016-03-19T08:35:20Z</time>
      </trkpt>
      <trkpt lat="45.27575" lon="6.19757">
        <ele>1575</ele>
        <time>2016-03-19T08:35:25Z</time>
      </trkpt>
      <trkpt lat="45.27572" lon="6.19752">
        <ele>1575</ele>
        <time>2016-03-19T08:35:30Z</time>
      </trkpt>
      <trkpt lat="45.27569" lon="6.19749">
        <ele>1575</ele>
        <time>2016-03-19T08:35:35Z</time>
      </trkpt>
      <trkpt lat="45.27566" lon="6.19744">
        <ele>1574</ele>
        <time>2016-03-19T08:35:40Z</time>
      </trkpt>
      <trkpt lat="45.27564" lon="6.1974">
        <ele>1574</ele>
        <time>2016-03-19T08:35:45Z</time>
      </trkpt>
      <trkpt lat="45.27561" lon="6.19737">
        <ele>1573</ele>
        <time>2016-03-19T08:35:50Z</time>
      </trkpt>
      <trkpt lat="45.27557" lon="6.19734">
        <ele>1571</ele>
        <time>2016-03-19T08:35:55Z</time>
      </trkpt>
      <trkpt lat="45.27555" lon="6.19731">
        <ele>1570</ele>
        <time>2016-03-19T08:36:00Z</time>
      </trkpt>
      <trkpt lat="45.27555" lon="6.19725">
        <ele>1571</ele>
        <time>2016-03-19T08:36:05Z</time>
      </trkpt>
      <trkpt lat="45.27555" lon="6.19721">
        <ele>1573</ele>
        <time>2016-03-19T08:36:10Z</time>
      </trkpt>
      <trkpt lat="45.27556" lon="6.19716">
        <ele>1576</ele>
        <time>2016-03-19T08:36:15Z</time>
      </trkpt>
      <trkpt lat="45.27554" lon="6.19712">
        <ele>1577</ele>
        <time>2016-03-19T08:36:20Z</time>
      </trkpt>
      <trkpt lat="45.27552" lon="6.19709">
        <ele>1578</ele>
        <time>2016-03-19T08:36:25Z</time>
      </trkpt>
      <trkpt lat="45.27549" lon="6.19706">
        <ele>1578</ele>
        <time>2016-03-19T08:36:30Z</time>
      </trkpt>
      <trkpt lat="45.27547" lon="6.19704">
        <ele>1579</ele>
        <time>2016-03-19T08:36:35Z</time>
      </trkpt>
      <trkpt lat="45.27544" lon="6.19703">
        <ele>1578</ele>
        <time>2016-03-19T08:36:40Z</time>
      </trkpt>
      <trkpt lat="45.2754" lon="6.19701">
        <ele>1577</ele>
        <time>2016-03-19T08:36:45Z</time>
      </trkpt>
      <trkpt lat="45.27536" lon="6.197">
        <ele>1577</ele>
        <time>2016-03-19T08:36:50Z</time>
      </trkpt>
      <trkpt lat="45.27533" lon="6.197">
        <ele>1576</ele>
        <time>2016-03-19T08:36:55Z</time>
      </trkpt>
      <trkpt lat="45.27529" lon="6.197">
        <ele>1575</ele>
        <time>2016-03-19T08:37:00Z</time>
      </trkpt>
      <trkpt lat="45.27528" lon="6.19699">
        <ele>1575</ele>
        <time>2016-03-19T08:37:05Z</time>
      </trkpt>
      <trkpt lat="45.27525" lon="6.197">
        <ele>1577</ele>
        <time>2016-03-19T08:37:10Z</time>
      </trkpt>
      <trkpt lat="45.27523" lon="6.19699">
        <ele>1580</ele>
        <time>2016-03-19T08:37:15Z</time>
      </trkpt>
      <trkpt lat="45.27521" lon="6.19696">
        <ele>1580</ele>
        <time>2016-03-19T08:37:20Z</time>
      </trkpt>
      <trkpt lat="45.27518" lon="6.19695">
        <ele>1581</ele>
        <time>2016-03-19T08:37:25Z</time>
      </trkpt>
      <trkpt lat="45.27517" lon="6.19693">
        <ele>1582</ele>
        <time>2016-03-19T08:37:30Z</time>
      </trkpt>
      <trkpt lat="45.27515" lon="6.19692">
        <ele>1583</ele>
        <time>2016-03-19T08:37:35Z</time>
      </trkpt>
      <trkpt lat="45.27515" lon="6.19689">
        <ele>1584</ele>
        <time>2016-03-19T08:37:40Z</time>
      </trkpt>
      <trkpt lat="45.27514" lon="6.19684">
        <ele>1585</ele>
        <time>2016-03-19T08:37:45Z</time>
      </trkpt>
      <trkpt lat="45.27513" lon="6.19682">
        <ele>1588</ele>
        <time>2016-03-19T08:37:50Z</time>
      </trkpt>
      <trkpt lat="45.27512" lon="6.19681">
        <ele>1591</ele>
        <time>2016-03-19T08:37:55Z</time>
      </trkpt>
      <trkpt lat="45.2751" lon="6.19679">
        <ele>1593</ele>
        <time>2016-03-19T08:38:00Z</time>
      </trkpt>
      <trkpt lat="45.27509" lon="6.19673">
        <ele>1593</ele>
        <time>2016-03-19T08:38:05Z</time>
      </trkpt>
      <trkpt lat="45.27509" lon="6.19669">
        <ele>1593</ele>
        <time>2016-03-19T08:38:10Z</time>
      </trkpt>
      <trkpt lat="45.27509" lon="6.19666">
        <ele>1593</ele>
        <time>2016-03-19T08:38:15Z</time>
      </trkpt>
      <trkpt lat="45.2751" lon="6.19663">
        <ele>1592</ele>
        <time>2016-03-19T08:38:20Z</time>
      </trkpt>
      <trkpt lat="45.27509" lon="6.1966">
        <ele>1595</ele>
        <time>2016-03-19T08:38:25Z</time>
      </trkpt>
      <trkpt lat="45.27508" lon="6.19656">
        <ele>1595</ele>
        <time>2016-03-19T08:38:30Z</time>
      </trkpt>
      <trkpt lat="45.27507" lon="6.19652">
        <ele>1594</ele>
        <time>2016-03-19T08:38:35Z</time>
      </trkpt>
      <trkpt lat="45.27505" lon="6.19649">
        <ele>1594</ele>
        <time>2016-03-19T08:38:40Z</time>
      </trkpt>
      <trkpt lat="45.27503" lon="6.19649">
        <ele>1594</ele>
        <time>2016-03-19T08:38:45Z</time>
      </trkpt>
      <trkpt lat="45.27499" lon="6.19649">
        <ele>1593</ele>
        <time>2016-03-19T08:38:50Z</time>
      </trkpt>
      <trkpt lat="45.27496" lon="6.1965">
        <ele>1594</ele>
        <time>2016-03-19T08:38:55Z</time>
      </trkpt>
      <trkpt lat="45.27493" lon="6.19648">
        <ele>1597</ele>
        <time>2016-03-19T08:39:00Z</time>
      </trkpt>
      <trkpt lat="45.2749" lon="6.19646">
        <ele>1597</ele>
        <time>2016-03-19T08:39:05Z</time>
      </trkpt>
      <trkpt lat="45.27487" lon="6.19642">
        <ele>1600</ele>
        <time>2016-03-19T08:39:10Z</time>
      </trkpt>
      <trkpt lat="45.27485" lon="6.1964">
        <ele>1602</ele>
        <time>2016-03-19T08:39:15Z</time>
      </trkpt>
      <trkpt lat="45.27486" lon="6.19634">
        <ele>1605</ele>
        <time>2016-03-19T08:39:20Z</time>
      </trkpt>
      <trkpt lat="45.27486" lon="6.19633">
        <ele>1608</ele>
        <time>2016-03-19T08:39:25Z</time>
      </trkpt>
      <trkpt lat="45.27484" lon="6.19631">
        <ele>1609</ele>
        <time>2016-03-19T08:39:30Z</time>
      </trkpt>
      <trkpt lat="45.27483" lon="6.1963">
        <ele>1611</ele>
        <time>2016-03-19T08:39:35Z</time>
      </trkpt>
      <trkpt lat="45.27482" lon="6.19627">
        <ele>1609</ele>
        <time>2016-03-19T08:39:40Z</time>
      </trkpt>
      <trkpt lat="45.27481" lon="6.19623">
        <ele>1608</ele>
        <time>2016-03-19T08:39:45Z</time>
      </trkpt>
      <trkpt lat="45.27482" lon="6.19619">
        <ele>1606</ele>
        <time>2016-03-19T08:39:50Z</time>
      </trkpt>
      <trkpt lat="45.27481" lon="6.19613">
        <ele>1607</ele>
        <time>2016-03-19T08:39:55Z</time>
      </trkpt>
      <trkpt lat="45.27481" lon="6.19608">
        <ele>1609</ele>
        <time>2016-03-19T08:40:00Z</time>
      </trkpt>
      <trkpt lat="45.27481" lon="6.19605">
        <ele>1611</ele>
        <time>2016-03-19T08:40:05Z</time>
      </trkpt>
      <trkpt lat="45.2748" lon="6.19602">
        <ele>1611</ele>
        <time>2016-03-19T08:40:10Z</time>
      </trkpt>
      <trkpt lat="45.2748" lon="6.19598">
        <ele>1612</ele>
        <time>2016-03-19T08:40:15Z</time>
      </trkpt>
      <trkpt lat="45.27477" lon="6.19595">
        <ele>1612</ele>
        <time>2016-03-19T08:40:20Z</time>
      </trkpt>
      <trkpt lat="45.27475" lon="6.19593">
        <ele>1613</ele>
        <time>2016-03-19T08:40:25Z</time>
      </trkpt>
      <trkpt lat="45.27474" lon="6.19591">
        <ele>1615</ele>
        <time>2016-03-19T08:40:30Z</time>
      </trkpt>
      <trkpt lat="45.27473" lon="6.1959">
        <ele>1618</ele>
        <time>2016-03-19T08:40:35Z</time>
      </trkpt>
      <trkpt lat="45.27472" lon="6.19588">
        <ele>1621</ele>
        <time>2016-03-19T08:40:40Z</time>
      </trkpt>
      <trkpt lat="45.2747" lon="6.19585">
        <ele>1623</ele>
        <time>2016-03-19T08:40:45Z</time>
      </trkpt>
      <trkpt lat="45.27471" lon="6.19578">
        <ele>1623</ele>
        <time>2016-03-19T08:40:50Z</time>
      </trkpt>
      <trkpt lat="45.2747" lon="6.19572">
        <ele>1618</ele>
        <time>2016-03-19T08:40:55Z</time>
      </trkpt>
      <trkpt lat="45.27469" lon="6.19566">
        <ele>1616</ele>
        <time>2016-03-19T08:41:00Z</time>
      </trkpt>
      <trkpt lat="45.27467" lon="6.19564">
        <ele>1615</ele>
        <time>2016-03-19T08:41:05Z</time>
      </trkpt>
      <trkpt lat="45.27463" lon="6.19564">
        <ele>1615</ele>
        <time>2016-03-19T08:41:10Z</time>
      </trkpt>
      <trkpt lat="45.2746" lon="6.19562">
        <ele>1613</ele>
        <time>2016-03-19T08:41:15Z</time>
      </trkpt>
      <trkpt lat="45.27457" lon="6.19562">
        <ele>1615</ele>
        <time>2016-03-19T08:41:20Z</time>
      </trkpt>
      <trkpt lat="45.27451" lon="6.19562">
        <ele>1614</ele>
        <time>2016-03-19T08:41:25Z</time>
      </trkpt>
      <trkpt lat="45.27449" lon="6.1956">
        <ele>1617</ele>
        <time>2016-03-19T08:41:30Z</time>
      </trkpt>
      <trkpt lat="45.27447" lon="6.19559">
        <ele>1623</ele>
        <time>2016-03-19T08:41:35Z</time>
      </trkpt>
      <trkpt lat="45.27444" lon="6.19557">
        <ele>1626</ele>
        <time>2016-03-19T08:41:40Z</time>
      </trkpt>
      <trkpt lat="45.27441" lon="6.19554">
        <ele>1628</ele>
        <time>2016-03-19T08:41:45Z</time>
      </trkpt>
      <trkpt lat="45.27438" lon="6.19553">
        <ele>1629</ele>
        <time>2016-03-19T08:41:50Z</time>
      </trkpt>
      <trkpt lat="45.27436" lon="6.19551">
        <ele>1629</ele>
        <time>2016-03-19T08:41:55Z</time>
      </trkpt>
      <trkpt lat="45.27433" lon="6.19549">
        <ele>1628</ele>
        <time>2016-03-19T08:42:00Z</time>
      </trkpt>
      <trkpt lat="45.27434" lon="6.19547">
        <ele>1628</ele>
        <time>2016-03-19T08:42:05Z</time>
      </trkpt>
      <trkpt lat="45.27435" lon="6.19545">
        <ele>1629</ele>
        <time>2016-03-19T08:42:10Z</time>
      </trkpt>
      <trkpt lat="45.27437" lon="6.19542">
        <ele>1630</ele>
        <time>2016-03-19T08:42:15Z</time>
      </trkpt>
      <trkpt lat="45.27438" lon="6.19538">
        <ele>1629</ele>
        <time>2016-03-19T08:42:20Z</time>
      </trkpt>
      <trkpt lat="45.27438" lon="6.19535">
        <ele>1628</ele>
        <time>2016-03-19T08:42:25Z</time>
      </trkpt>
      <trkpt lat="45.27437" lon="6.19534">
        <ele>1628</ele>
        <time>2016-03-19T08:42:30Z</time>
      </trkpt>
      <trkpt lat="45.27435" lon="6.19532">
        <ele>1629</ele>
        <time>2016-03-19T08:42:35Z</time>
      </trkpt>
      <trkpt lat="45.27434" lon="6.19532">
        <ele>1632</ele>
        <time>2016-03-19T08:42:40Z</time>
      </trkpt>
      <trkpt lat="45.2743" lon="6.19531">
        <ele>1633</ele>
        <time>2016-03-19T08:42:45Z</time>
      </trkpt>
      <trkpt lat="45.27427" lon="6.19529">
        <ele>1631</ele>
        <time>2016-03-19T08:42:50Z</time>
      </trkpt>
      <trkpt lat="45.27424" lon="6.19528">
        <ele>1628</ele>
        <time>2016-03-19T08:42:55Z</time>
      </trkpt>
      <trkpt lat="45.2742" lon="6.19528">
        <ele>1630</ele>
        <time>2016-03-19T08:43:00Z</time>
      </trkpt>
      <trkpt lat="45.27418" lon="6.19525">
        <ele>1632</ele>
        <time>2016-03-19T08:43:05Z</time>
      </trkpt>
      <trkpt lat="45.27416" lon="6.19522">
        <ele>1634</ele>
        <time>2016-03-19T08:43:10Z</time>
      </trkpt>
      <trkpt lat="45.27414" lon="6.19521">
        <ele>1637</ele>
        <time>2016-03-19T08:43:15Z</time>
      </trkpt>
      <trkpt lat="45.27415" lon="6.19518">
        <ele>1640</ele>
        <time>2016-03-19T08:43:20Z</time>
      </trkpt>
      <trkpt lat="45.27418" lon="6.19514">
        <ele>1643</ele>
        <time>2016-03-19T08:43:25Z</time>
      </trkpt>
      <trkpt lat="45.27421" lon="6.19511">
        <ele>1646</ele>
        <time>2016-03-19T08:43:30Z</time>
      </trkpt>
      <trkpt lat="45.27424" lon="6.19507">
        <ele>1648</ele>
        <time>2016-03-19T08:43:35Z</time>
      </trkpt>
      <trkpt lat="45.27424" lon="6.19504">
        <ele>1646</ele>
        <time>2016-03-19T08:43:40Z</time>
      </trkpt>
      <trkpt lat="45.27425" lon="6.19502">
        <ele>1646</ele>
        <time>2016-03-19T08:43:45Z</time>
      </trkpt>
      <trkpt lat="45.27424" lon="6.19501">
        <ele>1646</ele>
        <time>2016-03-19T08:43:50Z</time>
      </trkpt>
      <trkpt lat="45.27421" lon="6.195">
        <ele>1645</ele>
        <time>2016-03-19T08:43:55Z</time>
      </trkpt>
      <trkpt lat="45.27419" lon="6.19498">
        <ele>1646</ele>
        <time>2016-03-19T08:44:00Z</time>
      </trkpt>
      <trkpt lat="45.27417" lon="6.19496">
        <ele>1648</ele>
        <time>2016-03-19T08:44:05Z</time>
      </trkpt>
      <trkpt lat="45.27415" lon="6.19494">
        <ele>1648</ele>
        <time>2016-03-19T08:44:10Z</time>
      </trkpt>
      <trkpt lat="45.27413" lon="6.19491">
        <ele>1649</ele>
        <time>2016-03-19T08:44:15Z</time>
      </trkpt>
      <trkpt lat="45.27411" lon="6.19489">
        <ele>1650</ele>
        <time>2016-03-19T08:44:20Z</time>
      </trkpt>
      <trkpt lat="45.27409" lon="6.19486">
        <ele>1649</ele>
        <time>2016-03-19T08:44:25Z</time>
      </trkpt>
      <trkpt lat="45.27408" lon="6.19483">
        <ele>1650</ele>
        <time>2016-03-19T08:44:30Z</time>
      </trkpt>
      <trkpt lat="45.27406" lon="6.19481">
        <ele>1652</ele>
        <time>2016-03-19T08:44:35Z</time>
      </trkpt>
      <trkpt lat="45.27404" lon="6.19477">
        <ele>1651</ele>
        <time>2016-03-19T08:44:40Z</time>
      </trkpt>
      <trkpt lat="45.27402" lon="6.19474">
        <ele>1649</ele>
        <time>2016-03-19T08:44:45Z</time>
      </trkpt>
      <trkpt lat="45.27402" lon="6.1947">
        <ele>1649</ele>
        <time>2016-03-19T08:44:50Z</time>
      </trkpt>
      <trkpt lat="45.27401" lon="6.19466">
        <ele>1649</ele>
        <time>2016-03-19T08:44:55Z</time>
      </trkpt>
      <trkpt lat="45.27399" lon="6.19462">
        <ele>1650</ele>
        <time>2016-03-19T08:45:00Z</time>
      </trkpt>
      <trkpt lat="45.27398" lon="6.19457">
        <ele>1649</ele>
        <time>2016-03-19T08:45:05Z</time>
      </trkpt>
      <trkpt lat="45.27396" lon="6.19455">
        <ele>1651</ele>
        <time>2016-03-19T08:45:10Z</time>
      </trkpt>
      <trkpt lat="45.27395" lon="6.19452">
        <ele>1652</ele>
        <time>2016-03-19T08:45:15Z</time>
      </trkpt>
      <trkpt lat="45.27395" lon="6.19449">
        <ele>1655</ele>
        <time>2016-03-19T08:45:20Z</time>
      </trkpt>
      <trkpt lat="45.27395" lon="6.19446">
        <ele>1657</ele>
        <time>2016-03-19T08:45:25Z</time>
      </trkpt>
      <trkpt lat="45.27393" lon="6.19443">
        <ele>1659</ele>
        <time>2016-03-19T08:45:30Z</time>
      </trkpt>
      <trkpt lat="45.27392" lon="6.19439">
        <ele>1660</ele>
        <time>2016-03-19T08:45:35Z</time>
      </trkpt>
      <trkpt lat="45.27392" lon="6.19435">
        <ele>1658</ele>
        <time>2016-03-19T08:45:40Z</time>
      </trkpt>
      <trkpt lat="45.27388" lon="6.19432">
        <ele>1656</ele>
        <time>2016-03-19T08:45:45Z</time>
      </trkpt>
      <trkpt lat="45.27385" lon="6.1943">
        <ele>1657</ele>
        <time>2016-03-19T08:45:50Z</time>
      </trkpt>
      <trkpt lat="45.27384" lon="6.19428">
        <ele>1659</ele>
        <time>2016-03-19T08:45:55Z</time>
      </trkpt>
      <trkpt lat="45.27381" lon="6.19425">
        <ele>1661</ele>
        <time>2016-03-19T08:46:00Z</time>
      </trkpt>
      <trkpt lat="45.27378" lon="6.19422">
        <ele>1660</ele>
        <time>2016-03-19T08:46:05Z</time>
      </trkpt>
      <trkpt lat="45.27375" lon="6.19421">
        <ele>1661</ele>
        <time>2016-03-19T08:46:10Z</time>
      </trkpt>
      <trkpt lat="45.27372" lon="6.19421">
        <ele>1660</ele>
        <time>2016-03-19T08:46:15Z</time>
      </trkpt>
      <trkpt lat="45.27369" lon="6.1942">
        <ele>1661</ele>
        <time>2016-03-19T08:46:20Z</time>
      </trkpt>
      <trkpt lat="45.27368" lon="6.19415">
        <ele>1664</ele>
        <time>2016-03-19T08:46:25Z</time>
      </trkpt>
      <trkpt lat="45.27369" lon="6.19414">
        <ele>1668</ele>
        <time>2016-03-19T08:46:30Z</time>
      </trkpt>
      <trkpt lat="45.27367" lon="6.19414">
        <ele>1670</ele>
        <time>2016-03-19T08:46:35Z</time>
      </trkpt>
      <trkpt lat="45.27368" lon="6.19412">
        <ele>1673</ele>
        <time>2016-03-19T08:46:40Z</time>
      </trkpt>
      <trkpt lat="45.27366" lon="6.19411">
        <ele>1675</ele>
        <time>2016-03-19T08:46:45Z</time>
      </trkpt>
      <trkpt lat="45.27362" lon="6.19409">
        <ele>1675</ele>
        <time>2016-03-19T08:46:50Z</time>
      </trkpt>
      <trkpt lat="45.27358" lon="6.19408">
        <ele>1675</ele>
        <time>2016-03-19T08:46:55Z</time>
      </trkpt>
      <trkpt lat="45.27355" lon="6.19408">
        <ele>1676</ele>
        <time>2016-03-19T08:47:00Z</time>
      </trkpt>
      <trkpt lat="45.27353" lon="6.19408">
        <ele>1677</ele>
        <time>2016-03-19T08:47:05Z</time>
      </trkpt>
      <trkpt lat="45.2735" lon="6.19405">
        <ele>1677</ele>
        <time>2016-03-19T08:47:10Z</time>
      </trkpt>
      <trkpt lat="45.27348" lon="6.19403">
        <ele>1676</ele>
        <time>2016-03-19T08:47:15Z</time>
      </trkpt>
      <trkpt lat="45.27346" lon="6.19401">
        <ele>1675</ele>
        <time>2016-03-19T08:47:20Z</time>
      </trkpt>
      <trkpt lat="45.27343" lon="6.19401">
        <ele>1677</ele>
        <time>2016-03-19T08:47:25Z</time>
      </trkpt>
      <trkpt lat="45.27343" lon="6.194">
        <ele>1680</ele>
        <time>2016-03-19T08:47:30Z</time>
      </trkpt>
      <trkpt lat="45.2734" lon="6.194">
        <ele>1681</ele>
        <time>2016-03-19T08:47:35Z</time>
      </trkpt>
      <trkpt lat="45.27339" lon="6.19397">
        <ele>1683</ele>
        <time>2016-03-19T08:47:40Z</time>
      </trkpt>
      <trkpt lat="45.27337" lon="6.19395">
        <ele>1682</ele>
        <time>2016-03-19T08:47:45Z</time>
      </trkpt>
      <trkpt lat="45.27333" lon="6.19394">
        <ele>1682</ele>
        <time>2016-03-19T08:47:50Z</time>
      </trkpt>
      <trkpt lat="45.2733" lon="6.19392">
        <ele>1680</ele>
        <time>2016-03-19T08:47:55Z</time>
      </trkpt>
      <trkpt lat="45.27329" lon="6.19388">
        <ele>1681</ele>
        <time>2016-03-19T08:48:00Z</time>
      </trkpt>
      <trkpt lat="45.27327" lon="6.19387">
        <ele>1681</ele>
        <time>2016-03-19T08:48:05Z</time>
      </trkpt>
      <trkpt lat="45.27325" lon="6.19384">
        <ele>1681</ele>
        <time>2016-03-19T08:48:10Z</time>
      </trkpt>
      <trkpt lat="45.27323" lon="6.19383">
        <ele>1681</ele>
        <time>2016-03-19T08:48:15Z</time>
      </trkpt>
      <trkpt lat="45.27321" lon="6.19381">
        <ele>1681</ele>
        <time>2016-03-19T08:48:20Z</time>
      </trkpt>
      <trkpt lat="45.2732" lon="6.19377">
        <ele>1684</ele>
        <time>2016-03-19T08:48:25Z</time>
      </trkpt>
      <trkpt lat="45.27319" lon="6.19371">
        <ele>1685</ele>
        <time>2016-03-19T08:48:30Z</time>
      </trkpt>
      <trkpt lat="45.27316" lon="6.19369">
        <ele>1687</ele>
        <time>2016-03-19T08:48:35Z</time>
      </trkpt>
      <trkpt lat="45.27312" lon="6.19366">
        <ele>1686</ele>
        <time>2016-03-19T08:48:40Z</time>
      </trkpt>
      <trkpt lat="45.2731" lon="6.19363">
        <ele>1686</ele>
        <time>2016-03-19T08:48:45Z</time>
      </trkpt>
      <trkpt lat="45.2731" lon="6.19358">
        <ele>1688</ele>
        <time>2016-03-19T08:48:50Z</time>
      </trkpt>
      <trkpt lat="45.27311" lon="6.19354">
        <ele>1690</ele>
        <time>2016-03-19T08:48:55Z</time>
      </trkpt>
      <trkpt lat="45.27313" lon="6.19352">
        <ele>1692</ele>
        <time>2016-03-19T08:49:00Z</time>
      </trkpt>
      <trkpt lat="45.27314" lon="6.19353">
        <ele>1691</ele>
        <time>2016-03-19T08:49:05Z</time>
      </trkpt>
      <trkpt lat="45.27317" lon="6.19354">
        <ele>1693</ele>
        <time>2016-03-19T08:49:10Z</time>
      </trkpt>
      <trkpt lat="45.27319" lon="6.19354">
        <ele>1694</ele>
        <time>2016-03-19T08:49:15Z</time>
      </trkpt>
      <trkpt lat="45.27322" lon="6.19353">
        <ele>1695</ele>
        <time>2016-03-19T08:49:20Z</time>
      </trkpt>
      <trkpt lat="45.27326" lon="6.19353">
        <ele>1696</ele>
        <time>2016-03-19T08:49:25Z</time>
      </trkpt>
      <trkpt lat="45.2733" lon="6.19352">
        <ele>1697</ele>
        <time>2016-03-19T08:49:30Z</time>
      </trkpt>
      <trkpt lat="45.27333" lon="6.19352">
        <ele>1698</ele>
        <time>2016-03-19T08:49:35Z</time>
      </trkpt>
      <trkpt lat="45.27335" lon="6.19351">
        <ele>1698</ele>
        <time>2016-03-19T08:49:40Z</time>
      </trkpt>
      <trkpt lat="45.27337" lon="6.19348">
        <ele>1698</ele>
        <time>2016-03-19T08:49:45Z</time>
      </trkpt>
      <trkpt lat="45.2734" lon="6.19348">
        <ele>1699</ele>
        <time>2016-03-19T08:49:50Z</time>
      </trkpt>
      <trkpt lat="45.27343" lon="6.19347">
        <ele>1700</ele>
        <time>2016-03-19T08:49:55Z</time>
      </trkpt>
      <trkpt lat="45.27347" lon="6.19346">
        <ele>1700</ele>
        <time>2016-03-19T08:50:00Z</time>
      </trkpt>
      <trkpt lat="45.27349" lon="6.19346">
        <ele>1700</ele>
        <time>2016-03-19T08:50:05Z</time>
      </trkpt>
      <trkpt lat="45.27352" lon="6.19346">
        <ele>1701</ele>
        <time>2016-03-19T08:50:10Z</time>
      </trkpt>
      <trkpt lat="45.27355" lon="6.19345">
        <ele>1702</ele>
        <time>2016-03-19T08:50:15Z</time>
      </trkpt>
      <trkpt lat="45.27357" lon="6.19344">
        <ele>1703</ele>
        <time>2016-03-19T08:50:20Z</time>
      </trkpt>
      <trkpt lat="45.27359" lon="6.19342">
        <ele>1705</ele>
        <time>2016-03-19T08:50:25Z</time>
      </trkpt>
      <trkpt lat="45.27362" lon="6.19341">
        <ele>1706</ele>
        <time>2016-03-19T08:50:30Z</time>
      </trkpt>
      <trkpt lat="45.27363" lon="6.1934">
        <ele>1707</ele>
        <time>2016-03-19T08:50:35Z</time>
      </trkpt>
      <trkpt lat="45.27363" lon="6.19338">
        <ele>1707</ele>
        <time>2016-03-19T08:50:40Z</time>
      </trkpt>
      <trkpt lat="45.27363" lon="6.19337">
        <ele>1707</ele>
        <time>2016-03-19T08:50:45Z</time>
      </trkpt>
      <trkpt lat="45.27364" lon="6.19334">
        <ele>1708</ele>
        <time>2016-03-19T08:50:50Z</time>
      </trkpt>
      <trkpt lat="45.27364" lon="6.19332">
        <ele>1709</ele>
        <time>2016-03-19T08:50:55Z</time>
      </trkpt>
      <trkpt lat="45.27363" lon="6.19329">
        <ele>1710</ele>
        <time>2016-03-19T08:51:00Z</time>
      </trkpt>
      <trkpt lat="45.27363" lon="6.19325">
        <ele>1710</ele>
        <time>2016-03-19T08:51:05Z</time>
      </trkpt>
      <trkpt lat="45.27361" lon="6.19324">
        <ele>1711</ele>
        <time>2016-03-19T08:51:10Z</time>
      </trkpt>
      <trkpt lat="45.27359" lon="6.19323">
        <ele>1711</ele>
        <time>2016-03-19T08:51:15Z</time>
      </trkpt>
      <trkpt lat="45.27357" lon="6.19322">
        <ele>1711</ele>
        <time>2016-03-19T08:51:20Z</time>
      </trkpt>
      <trkpt lat="45.27357" lon="6.19319">
        <ele>1711</ele>
        <time>2016-03-19T08:51:25Z</time>
      </trkpt>
      <trkpt lat="45.27357" lon="6.19316">
        <ele>1711</ele>
        <time>2016-03-19T08:51:30Z</time>
      </trkpt>
      <trkpt lat="45.27355" lon="6.19314">
        <ele>1712</ele>
        <time>2016-03-19T08:51:35Z</time>
      </trkpt>
      <trkpt lat="45.27352" lon="6.19313">
        <ele>1713</ele>
        <time>2016-03-19T08:51:40Z</time>
      </trkpt>
      <trkpt lat="45.27349" lon="6.19312">
        <ele>1715</ele>
        <time>2016-03-19T08:51:45Z</time>
      </trkpt>
      <trkpt lat="45.27347" lon="6.19312">
        <ele>1716</ele>
        <time>2016-03-19T08:51:50Z</time>
      </trkpt>
      <trkpt lat="45.27345" lon="6.19309">
        <ele>1717</ele>
        <time>2016-03-19T08:51:55Z</time>
      </trkpt>
      <trkpt lat="45.27343" lon="6.19306">
        <ele>1718</ele>
        <time>2016-03-19T08:52:00Z</time>
      </trkpt>
      <trkpt lat="45.27342" lon="6.19302">
        <ele>1718</ele>
        <time>2016-03-19T08:52:05Z</time>
      </trkpt>
      <trkpt lat="45.27341" lon="6.19299">
        <ele>1720</ele>
        <time>2016-03-19T08:52:10Z</time>
      </trkpt>
      <trkpt lat="45.2734" lon="6.19296">
        <ele>1721</ele>
        <time>2016-03-19T08:52:15Z</time>
      </trkpt>
      <trkpt lat="45.27338" lon="6.19292">
        <ele>1722</ele>
        <time>2016-03-19T08:52:20Z</time>
      </trkpt>
      <trkpt lat="45.27338" lon="6.19289">
        <ele>1723</ele>
        <time>2016-03-19T08:52:25Z</time>
      </trkpt>
      <trkpt lat="45.27337" lon="6.19285">
        <ele>1724</ele>
        <time>2016-03-19T08:52:30Z</time>
      </trkpt>
      <trkpt lat="45.27337" lon="6.19281">
        <ele>1725</ele>
        <time>2016-03-19T08:52:35Z</time>
      </trkpt>
      <trkpt lat="45.27336" lon="6.19278">
        <ele>1726</ele>
        <time>2016-03-19T08:52:40Z</time>
      </trkpt>
      <trkpt lat="45.27336" lon="6.19274">
        <ele>1727</ele>
        <time>2016-03-19T08:52:45Z</time>
      </trkpt>
      <trkpt lat="45.27336" lon="6.19271">
        <ele>1727</ele>
        <time>2016-03-19T08:52:50Z</time>
      </trkpt>
      <trkpt lat="45.27336" lon="6.19267">
        <ele>1728</ele>
        <time>2016-03-19T08:52:55Z</time>
      </trkpt>
      <trkpt lat="45.27335" lon="6.19263">
        <ele>1729</ele>
        <time>2016-03-19T08:53:00Z</time>
      </trkpt>
      <trkpt lat="45.27335" lon="6.1926">
        <ele>1730</ele>
        <time>2016-03-19T08:53:05Z</time>
      </trkpt>
      <trkpt lat="45.27335" lon="6.19256">
        <ele>1731</ele>
        <time>2016-03-19T08:53:10Z</time>
      </trkpt>
      <trkpt lat="45.27335" lon="6.19254">
        <ele>1731</ele>
        <time>2016-03-19T08:53:15Z</time>
      </trkpt>
      <trkpt lat="45.27334" lon="6.19251">
        <ele>1732</ele>
        <time>2016-03-19T08:53:20Z</time>
      </trkpt>
      <trkpt lat="45.27333" lon="6.19247">
        <ele>1733</ele>
        <time>2016-03-19T08:53:25Z</time>
      </trkpt>
      <trkpt lat="45.27333" lon="6.19246">
        <ele>1733</ele>
        <time>2016-03-19T08:53:30Z</time>
      </trkpt>
      <trkpt lat="45.27332" lon="6.19243">
        <ele>1734</ele>
        <time>2016-03-19T08:53:35Z</time>
      </trkpt>
      <trkpt lat="45.2733" lon="6.1924">
        <ele>1734</ele>
        <time>2016-03-19T08:53:40Z</time>
      </trkpt>
      <trkpt lat="45.27329" lon="6.19236">
        <ele>1735</ele>
        <time>2016-03-19T08:53:45Z</time>
      </trkpt>
      <trkpt lat="45.27327" lon="6.19232">
        <ele>1736</ele>
        <time>2016-03-19T08:53:50Z</time>
      </trkpt>
      <trkpt lat="45.27326" lon="6.19228">
        <ele>1737</ele>
        <time>2016-03-19T08:53:55Z</time>
      </trkpt>
      <trkpt lat="45.27326" lon="6.19224">
        <ele>1737</ele>
        <time>2016-03-19T08:54:00Z</time>
      </trkpt>
      <trkpt lat="45.27326" lon="6.19223">
        <ele>1737</ele>
        <time>2016-03-19T08:54:05Z</time>
      </trkpt>
      <trkpt lat="45.27326" lon="6.19224">
        <ele>1737</ele>
        <time>2016-03-19T09:01:15Z</time>
      </trkpt>
      <trkpt lat="45.27326" lon="6.19224">
        <ele>1736</ele>
        <time>2016-03-19T09:01:20Z</time>
      </trkpt>
      <trkpt lat="45.27326" lon="6.19224">
        <ele>1736</ele>
        <time>2016-03-19T09:01:25Z</time>
      </trkpt>
      <trkpt lat="45.27326" lon="6.19224">
        <ele>1736</ele>
        <time>2016-03-19T09:01:30Z</time>
      </trkpt>
      <trkpt lat="45.27326" lon="6.19224">
        <ele>1736</ele>
        <time>2016-03-19T09:01:35Z</time>
      </trkpt>
      <trkpt lat="45.27324" lon="6.19222">
        <ele>1736</ele>
        <time>2016-03-19T09:01:40Z</time>
      </trkpt>
      <trkpt lat="45.27322" lon="6.1922">
        <ele>1737</ele>
        <time>2016-03-19T09:01:45Z</time>
      </trkpt>
      <trkpt lat="45.27319" lon="6.19218">
        <ele>1737</ele>
        <time>2016-03-19T09:01:50Z</time>
      </trkpt>
      <trkpt lat="45.27317" lon="6.19215">
        <ele>1738</ele>
        <time>2016-03-19T09:01:55Z</time>
      </trkpt>
      <trkpt lat="45.27315" lon="6.19212">
        <ele>1739</ele>
        <time>2016-03-19T09:02:00Z</time>
      </trkpt>
      <trkpt lat="45.27313" lon="6.19209">
        <ele>1740</ele>
        <time>2016-03-19T09:02:05Z</time>
      </trkpt>
      <trkpt lat="45.27311" lon="6.19207">
        <ele>1740</ele>
        <time>2016-03-19T09:02:10Z</time>
      </trkpt>
      <trkpt lat="45.27309" lon="6.19204">
        <ele>1741</ele>
        <time>2016-03-19T09:02:15Z</time>
      </trkpt>
      <trkpt lat="45.27307" lon="6.19202">
        <ele>1742</ele>
        <time>2016-03-19T09:02:20Z</time>
      </trkpt>
      <trkpt lat="45.27305" lon="6.19199">
        <ele>1743</ele>
        <time>2016-03-19T09:02:25Z</time>
      </trkpt>
      <trkpt lat="45.27302" lon="6.19197">
        <ele>1744</ele>
        <time>2016-03-19T09:02:30Z</time>
      </trkpt>
      <trkpt lat="45.273" lon="6.19195">
        <ele>1745</ele>
        <time>2016-03-19T09:02:35Z</time>
      </trkpt>
      <trkpt lat="45.27298" lon="6.19192">
        <ele>1746</ele>
        <time>2016-03-19T09:02:40Z</time>
      </trkpt>
      <trkpt lat="45.27295" lon="6.1919">
        <ele>1747</ele>
        <time>2016-03-19T09:02:45Z</time>
      </trkpt>
      <trkpt lat="45.27293" lon="6.19188">
        <ele>1748</ele>
        <time>2016-03-19T09:02:50Z</time>
      </trkpt>
      <trkpt lat="45.27291" lon="6.19185">
        <ele>1749</ele>
        <time>2016-03-19T09:02:55Z</time>
      </trkpt>
      <trkpt lat="45.27289" lon="6.19183">
        <ele>1750</ele>
        <time>2016-03-19T09:03:00Z</time>
      </trkpt>
      <trkpt lat="45.27287" lon="6.19181">
        <ele>1751</ele>
        <time>2016-03-19T09:03:05Z</time>
      </trkpt>
      <trkpt lat="45.27284" lon="6.19179">
        <ele>1752</ele>
        <time>2016-03-19T09:03:10Z</time>
      </trkpt>
      <trkpt lat="45.27281" lon="6.19176">
        <ele>1753</ele>
        <time>2016-03-19T09:03:15Z</time>
      </trkpt>
      <trkpt lat="45.27279" lon="6.19174">
        <ele>1753</ele>
        <time>2016-03-19T09:03:20Z</time>
      </trkpt>
      <trkpt lat="45.27276" lon="6.19172">
        <ele>1754</ele>
        <time>2016-03-19T09:03:25Z</time>
      </trkpt>
      <trkpt lat="45.27274" lon="6.19169">
        <ele>1755</ele>
        <time>2016-03-19T09:03:30Z</time>
      </trkpt>
      <trkpt lat="45.27271" lon="6.19167">
        <ele>1756</ele>
        <time>2016-03-19T09:03:35Z</time>
      </trkpt>
      <trkpt lat="45.27269" lon="6.19165">
        <ele>1756</ele>
        <time>2016-03-19T09:03:40Z</time>
      </trkpt>
      <trkpt lat="45.27268" lon="6.19163">
        <ele>1757</ele>
        <time>2016-03-19T09:03:45Z</time>
      </trkpt>
      <trkpt lat="45.27267" lon="6.19162">
        <ele>1757</ele>
        <time>2016-03-19T09:03:50Z</time>
      </trkpt>
      <trkpt lat="45.27264" lon="6.1916">
        <ele>1758</ele>
        <time>2016-03-19T09:03:55Z</time>
      </trkpt>
      <trkpt lat="45.27262" lon="6.19158">
        <ele>1759</ele>
        <time>2016-03-19T09:04:00Z</time>
      </trkpt>
      <trkpt lat="45.2726" lon="6.19156">
        <ele>1759</ele>
        <time>2016-03-19T09:04:05Z</time>
      </trkpt>
      <trkpt lat="45.27259" lon="6.19155">
        <ele>1759</ele>
        <time>2016-03-19T09:04:10Z</time>
      </trkpt>
      <trkpt lat="45.27259" lon="6.19156">
        <ele>1759</ele>
        <time>2016-03-19T09:04:15Z</time>
      </trkpt>
      <trkpt lat="45.27259" lon="6.19156">
        <ele>1759</ele>
        <time>2016-03-19T09:04:20Z</time>
      </trkpt>
      <trkpt lat="45.27259" lon="6.19156">
        <ele>1759</ele>
        <time>2016-03-19T09:04:25Z</time>
      </trkpt>
      <trkpt lat="45.27259" lon="6.19156">
        <ele>1759</ele>
        <time>2016-03-19T09:04:30Z</time>
      </trkpt>
      <trkpt lat="45.27257" lon="6.19154">
        <ele>1760</ele>
        <time>2016-03-19T09:04:35Z</time>
      </trkpt>
      <trkpt lat="45.27255" lon="6.19151">
        <ele>1761</ele>
        <time>2016-03-19T09:04:40Z</time>
      </trkpt>
      <trkpt lat="45.27253" lon="6.19148">
        <ele>1762</ele>
        <time>2016-03-19T09:04:45Z</time>
      </trkpt>
      <trkpt lat="45.27252" lon="6.19145">
        <ele>1763</ele>
        <time>2016-03-19T09:04:50Z</time>
      </trkpt>
      <trkpt lat="45.27249" lon="6.19141">
        <ele>1764</ele>
        <time>2016-03-19T09:04:55Z</time>
      </trkpt>
      <trkpt lat="45.27247" lon="6.19137">
        <ele>1765</ele>
        <time>2016-03-19T09:05:00Z</time>
      </trkpt>
      <trkpt lat="45.27245" lon="6.19134">
        <ele>1766</ele>
        <time>2016-03-19T09:05:05Z</time>
      </trkpt>
      <trkpt lat="45.27243" lon="6.19131">
        <ele>1766</ele>
        <time>2016-03-19T09:05:10Z</time>
      </trkpt>
      <trkpt lat="45.27241" lon="6.19128">
        <ele>1767</ele>
        <time>2016-03-19T09:05:15Z</time>
      </trkpt>
      <trkpt lat="45.27239" lon="6.19126">
        <ele>1768</ele>
        <time>2016-03-19T09:05:20Z</time>
      </trkpt>
      <trkpt lat="45.27236" lon="6.19124">
        <ele>1769</ele>
        <time>2016-03-19T09:05:25Z</time>
      </trkpt>
      <trkpt lat="45.27234" lon="6.19121">
        <ele>1770</ele>
        <time>2016-03-19T09:05:30Z</time>
      </trkpt>
      <trkpt lat="45.27232" lon="6.19119">
        <ele>1770</ele>
        <time>2016-03-19T09:05:35Z</time>
      </trkpt>
      <trkpt lat="45.2723" lon="6.19116">
        <ele>1771</ele>
        <time>2016-03-19T09:05:40Z</time>
      </trkpt>
      <trkpt lat="45.27229" lon="6.19114">
        <ele>1772</ele>
        <time>2016-03-19T09:05:45Z</time>
      </trkpt>
      <trkpt lat="45.27226" lon="6.19111">
        <ele>1773</ele>
        <time>2016-03-19T09:05:50Z</time>
      </trkpt>
      <trkpt lat="45.27225" lon="6.19109">
        <ele>1774</ele>
        <time>2016-03-19T09:05:55Z</time>
      </trkpt>
      <trkpt lat="45.27223" lon="6.19107">
        <ele>1774</ele>
        <time>2016-03-19T09:06:00Z</time>
      </trkpt>
      <trkpt lat="45.27221" lon="6.19105">
        <ele>1775</ele>
        <time>2016-03-19T09:06:05Z</time>
      </trkpt>
      <trkpt lat="45.2722" lon="6.19103">
        <ele>1777</ele>
        <time>2016-03-19T09:06:10Z</time>
      </trkpt>
      <trkpt lat="45.27219" lon="6.19101">
        <ele>1777</ele>
        <time>2016-03-19T09:06:15Z</time>
      </trkpt>
      <trkpt lat="45.27218" lon="6.19099">
        <ele>1778</ele>
        <time>2016-03-19T09:06:20Z</time>
      </trkpt>
      <trkpt lat="45.27216" lon="6.19099">
        <ele>1779</ele>
        <time>2016-03-19T09:06:25Z</time>
      </trkpt>
      <trkpt lat="45.27213" lon="6.19099">
        <ele>1780</ele>
        <time>2016-03-19T09:06:30Z</time>
      </trkpt>
      <trkpt lat="45.27211" lon="6.19098">
        <ele>1780</ele>
        <time>2016-03-19T09:06:35Z</time>
      </trkpt>
      <trkpt lat="45.27208" lon="6.19096">
        <ele>1781</ele>
        <time>2016-03-19T09:06:40Z</time>
      </trkpt>
      <trkpt lat="45.27206" lon="6.19093">
        <ele>1782</ele>
        <time>2016-03-19T09:06:45Z</time>
      </trkpt>
      <trkpt lat="45.27204" lon="6.1909">
        <ele>1783</ele>
        <time>2016-03-19T09:06:50Z</time>
      </trkpt>
      <trkpt lat="45.27202" lon="6.19086">
        <ele>1783</ele>
        <time>2016-03-19T09:06:55Z</time>
      </trkpt>
      <trkpt lat="45.272" lon="6.19083">
        <ele>1784</ele>
        <time>2016-03-19T09:07:00Z</time>
      </trkpt>
      <trkpt lat="45.27197" lon="6.19079">
        <ele>1784</ele>
        <time>2016-03-19T09:07:05Z</time>
      </trkpt>
      <trkpt lat="45.27195" lon="6.19076">
        <ele>1785</ele>
        <time>2016-03-19T09:07:10Z</time>
      </trkpt>
      <trkpt lat="45.27193" lon="6.19072">
        <ele>1786</ele>
        <time>2016-03-19T09:07:15Z</time>
      </trkpt>
      <trkpt lat="45.2719" lon="6.19068">
        <ele>1786</ele>
        <time>2016-03-19T09:07:20Z</time>
      </trkpt>
      <trkpt lat="45.27187" lon="6.19064">
        <ele>1787</ele>
        <time>2016-03-19T09:07:25Z</time>
      </trkpt>
      <trkpt lat="45.27184" lon="6.1906">
        <ele>1788</ele>
        <time>2016-03-19T09:07:30Z</time>
      </trkpt>
      <trkpt lat="45.27181" lon="6.19056">
        <ele>1788</ele>
        <time>2016-03-19T09:07:35Z</time>
      </trkpt>
      <trkpt lat="45.27178" lon="6.19053">
        <ele>1789</ele>
        <time>2016-03-19T09:07:40Z</time>
      </trkpt>
      <trkpt lat="45.27175" lon="6.1905">
        <ele>1790</ele>
        <time>2016-03-19T09:07:45Z</time>
      </trkpt>
      <trkpt lat="45.27172" lon="6.19047">
        <ele>1790</ele>
        <time>2016-03-19T09:07:50Z</time>
      </trkpt>
      <trkpt lat="45.2717" lon="6.19043">
        <ele>1791</ele>
        <time>2016-03-19T09:07:55Z</time>
      </trkpt>
      <trkpt lat="45.27167" lon="6.1904">
        <ele>1792</ele>
        <time>2016-03-19T09:08:00Z</time>
      </trkpt>
      <trkpt lat="45.27164" lon="6.19036">
        <ele>1792</ele>
        <time>2016-03-19T09:08:05Z</time>
      </trkpt>
      <trkpt lat="45.27161" lon="6.19032">
        <ele>1793</ele>
        <time>2016-03-19T09:08:10Z</time>
      </trkpt>
      <trkpt lat="45.27159" lon="6.19028">
        <ele>1793</ele>
        <time>2016-03-19T09:08:15Z</time>
      </trkpt>
      <trkpt lat="45.27157" lon="6.19024">
        <ele>1794</ele>
        <time>2016-03-19T09:08:20Z</time>
      </trkpt>
      <trkpt lat="45.27154" lon="6.1902">
        <ele>1794</ele>
        <time>2016-03-19T09:08:25Z</time>
      </trkpt>
      <trkpt lat="45.27152" lon="6.19015">
        <ele>1795</ele>
        <time>2016-03-19T09:08:30Z</time>
      </trkpt>
      <trkpt lat="45.27149" lon="6.1901">
        <ele>1795</ele>
        <time>2016-03-19T09:08:35Z</time>
      </trkpt>
      <trkpt lat="45.27147" lon="6.19006">
        <ele>1795</ele>
        <time>2016-03-19T09:08:40Z</time>
      </trkpt>
      <trkpt lat="45.27145" lon="6.19001">
        <ele>1796</ele>
        <time>2016-03-19T09:08:45Z</time>
      </trkpt>
      <trkpt lat="45.27144" lon="6.18997">
        <ele>1797</ele>
        <time>2016-03-19T09:08:50Z</time>
      </trkpt>
      <trkpt lat="45.27144" lon="6.18992">
        <ele>1797</ele>
        <time>2016-03-19T09:08:55Z</time>
      </trkpt>
      <trkpt lat="45.27144" lon="6.18988">
        <ele>1798</ele>
        <time>2016-03-19T09:09:00Z</time>
      </trkpt>
      <trkpt lat="45.27144" lon="6.18983">
        <ele>1798</ele>
        <time>2016-03-19T09:09:05Z</time>
      </trkpt>
      <trkpt lat="45.27144" lon="6.18978">
        <ele>1799</ele>
        <time>2016-03-19T09:09:10Z</time>
      </trkpt>
      <trkpt lat="45.27144" lon="6.18973">
        <ele>1799</ele>
        <time>2016-03-19T09:09:15Z</time>
      </trkpt>
      <trkpt lat="45.27144" lon="6.18968">
        <ele>1799</ele>
        <time>2016-03-19T09:09:20Z</time>
      </trkpt>
      <trkpt lat="45.27144" lon="6.18962">
        <ele>1800</ele>
        <time>2016-03-19T09:09:25Z</time>
      </trkpt>
      <trkpt lat="45.27144" lon="6.18957">
        <ele>1800</ele>
        <time>2016-03-19T09:09:30Z</time>
      </trkpt>
      <trkpt lat="45.27144" lon="6.18953">
        <ele>1801</ele>
        <time>2016-03-19T09:09:35Z</time>
      </trkpt>
      <trkpt lat="45.27142" lon="6.18948">
        <ele>1801</ele>
        <time>2016-03-19T09:09:40Z</time>
      </trkpt>
      <trkpt lat="45.27141" lon="6.18944">
        <ele>1802</ele>
        <time>2016-03-19T09:09:45Z</time>
      </trkpt>
      <trkpt lat="45.27139" lon="6.1894">
        <ele>1803</ele>
        <time>2016-03-19T09:09:50Z</time>
      </trkpt>
      <trkpt lat="45.27136" lon="6.18937">
        <ele>1803</ele>
        <time>2016-03-19T09:09:55Z</time>
      </trkpt>
      <trkpt lat="45.27135" lon="6.18936">
        <ele>1803</ele>
        <time>2016-03-19T09:10:00Z</time>
      </trkpt>
      <trkpt lat="45.27134" lon="6.18935">
        <ele>1804</ele>
        <time>2016-03-19T09:10:05Z</time>
      </trkpt>
      <trkpt lat="45.27131" lon="6.18932">
        <ele>1804</ele>
        <time>2016-03-19T09:10:10Z</time>
      </trkpt>
      <trkpt lat="45.27129" lon="6.18929">
        <ele>1805</ele>
        <time>2016-03-19T09:10:15Z</time>
      </trkpt>
      <trkpt lat="45.27127" lon="6.18926">
        <ele>1805</ele>
        <time>2016-03-19T09:10:20Z</time>
      </trkpt>
      <trkpt lat="45.27124" lon="6.18922">
        <ele>1806</ele>
        <time>2016-03-19T09:10:25Z</time>
      </trkpt>
      <trkpt lat="45.27123" lon="6.18918">
        <ele>1806</ele>
        <time>2016-03-19T09:10:30Z</time>
      </trkpt>
      <trkpt lat="45.27123" lon="6.18918">
        <ele>1806</ele>
        <time>2016-03-19T09:10:35Z</time>
      </trkpt>
      <trkpt lat="45.27123" lon="6.18917">
        <ele>1806</ele>
        <time>2016-03-19T09:10:40Z</time>
      </trkpt>
      <trkpt lat="45.27122" lon="6.18915">
        <ele>1806</ele>
        <time>2016-03-19T09:10:45Z</time>
      </trkpt>
      <trkpt lat="45.27121" lon="6.18911">
        <ele>1806</ele>
        <time>2016-03-19T09:10:50Z</time>
      </trkpt>
      <trkpt lat="45.2712" lon="6.18907">
        <ele>1807</ele>
        <time>2016-03-19T09:10:55Z</time>
      </trkpt>
      <trkpt lat="45.27118" lon="6.18903">
        <ele>1807</ele>
        <time>2016-03-19T09:11:00Z</time>
      </trkpt>
      <trkpt lat="45.27117" lon="6.18899">
        <ele>1807</ele>
        <time>2016-03-19T09:11:05Z</time>
      </trkpt>
      <trkpt lat="45.27115" lon="6.18895">
        <ele>1808</ele>
        <time>2016-03-19T09:11:10Z</time>
      </trkpt>
      <trkpt lat="45.27114" lon="6.18891">
        <ele>1808</ele>
        <time>2016-03-19T09:11:15Z</time>
      </trkpt>
      <trkpt lat="45.27112" lon="6.18887">
        <ele>1808</ele>
        <time>2016-03-19T09:11:20Z</time>
      </trkpt>
      <trkpt lat="45.27111" lon="6.18883">
        <ele>1808</ele>
        <time>2016-03-19T09:11:25Z</time>
      </trkpt>
      <trkpt lat="45.27109" lon="6.18878">
        <ele>1808</ele>
        <time>2016-03-19T09:11:30Z</time>
      </trkpt>
      <trkpt lat="45.27108" lon="6.18874">
        <ele>1808</ele>
        <time>2016-03-19T09:11:35Z</time>
      </trkpt>
      <trkpt lat="45.27107" lon="6.18869">
        <ele>1808</ele>
        <time>2016-03-19T09:11:40Z</time>
      </trkpt>
      <trkpt lat="45.27107" lon="6.18864">
        <ele>1808</ele>
        <time>2016-03-19T09:11:45Z</time>
      </trkpt>
      <trkpt lat="45.27105" lon="6.18859">
        <ele>1808</ele>
        <time>2016-03-19T09:11:50Z</time>
      </trkpt>
      <trkpt lat="45.27105" lon="6.18855">
        <ele>1809</ele>
        <time>2016-03-19T09:11:55Z</time>
      </trkpt>
      <trkpt lat="45.27106" lon="6.18851">
        <ele>1809</ele>
        <time>2016-03-19T09:12:00Z</time>
      </trkpt>
      <trkpt lat="45.27106" lon="6.18847">
        <ele>1810</ele>
        <time>2016-03-19T09:12:05Z</time>
      </trkpt>
      <trkpt lat="45.27106" lon="6.18843">
        <ele>1811</ele>
        <time>2016-03-19T09:12:10Z</time>
      </trkpt>
      <trkpt lat="45.27106" lon="6.18841">
        <ele>1811</ele>
        <time>2016-03-19T09:12:15Z</time>
      </trkpt>
      <trkpt lat="45.27107" lon="6.18836">
        <ele>1812</ele>
        <time>2016-03-19T09:12:20Z</time>
      </trkpt>
      <trkpt lat="45.27105" lon="6.1883">
        <ele>1812</ele>
        <time>2016-03-19T09:12:25Z</time>
      </trkpt>
      <trkpt lat="45.27105" lon="6.18825">
        <ele>1812</ele>
        <time>2016-03-19T09:12:30Z</time>
      </trkpt>
      <trkpt lat="45.27105" lon="6.18819">
        <ele>1813</ele>
        <time>2016-03-19T09:12:35Z</time>
      </trkpt>
      <trkpt lat="45.27104" lon="6.18814">
        <ele>1813</ele>
        <time>2016-03-19T09:12:40Z</time>
      </trkpt>
      <trkpt lat="45.27102" lon="6.18809">
        <ele>1814</ele>
        <time>2016-03-19T09:12:45Z</time>
      </trkpt>
      <trkpt lat="45.27101" lon="6.18805">
        <ele>1815</ele>
        <time>2016-03-19T09:12:50Z</time>
      </trkpt>
      <trkpt lat="45.271" lon="6.18801">
        <ele>1816</ele>
        <time>2016-03-19T09:12:55Z</time>
      </trkpt>
      <trkpt lat="45.27099" lon="6.18797">
        <ele>1816</ele>
        <time>2016-03-19T09:13:00Z</time>
      </trkpt>
      <trkpt lat="45.27098" lon="6.18793">
        <ele>1817</ele>
        <time>2016-03-19T09:13:05Z</time>
      </trkpt>
      <trkpt lat="45.27098" lon="6.18792">
        <ele>1817</ele>
        <time>2016-03-19T09:13:10Z</time>
      </trkpt>
      <trkpt lat="45.27095" lon="6.18788">
        <ele>1816</ele>
        <time>2016-03-19T09:13:15Z</time>
      </trkpt>
      <trkpt lat="45.27094" lon="6.18785">
        <ele>1817</ele>
        <time>2016-03-19T09:13:20Z</time>
      </trkpt>
      <trkpt lat="45.27092" lon="6.18784">
        <ele>1817</ele>
        <time>2016-03-19T09:13:25Z</time>
      </trkpt>
      <trkpt lat="45.27089" lon="6.1878">
        <ele>1818</ele>
        <time>2016-03-19T09:13:30Z</time>
      </trkpt>
      <trkpt lat="45.27089" lon="6.18778">
        <ele>1818</ele>
        <time>2016-03-19T09:13:35Z</time>
      </trkpt>
      <trkpt lat="45.27089" lon="6.18776">
        <ele>1818</ele>
        <time>2016-03-19T09:13:40Z</time>
      </trkpt>
      <trkpt lat="45.27089" lon="6.18773">
        <ele>1819</ele>
        <time>2016-03-19T09:13:45Z</time>
      </trkpt>
      <trkpt lat="45.27089" lon="6.1877">
        <ele>1819</ele>
        <time>2016-03-19T09:13:50Z</time>
      </trkpt>
      <trkpt lat="45.27088" lon="6.18766">
        <ele>1819</ele>
        <time>2016-03-19T09:13:55Z</time>
      </trkpt>
      <trkpt lat="45.27087" lon="6.18761">
        <ele>1819</ele>
        <time>2016-03-19T09:14:00Z</time>
      </trkpt>
      <trkpt lat="45.27086" lon="6.18756">
        <ele>1820</ele>
        <time>2016-03-19T09:14:05Z</time>
      </trkpt>
      <trkpt lat="45.27084" lon="6.18752">
        <ele>1820</ele>
        <time>2016-03-19T09:14:10Z</time>
      </trkpt>
      <trkpt lat="45.27083" lon="6.18749">
        <ele>1821</ele>
        <time>2016-03-19T09:14:15Z</time>
      </trkpt>
      <trkpt lat="45.27082" lon="6.18746">
        <ele>1821</ele>
        <time>2016-03-19T09:14:20Z</time>
      </trkpt>
      <trkpt lat="45.2708" lon="6.18742">
        <ele>1822</ele>
        <time>2016-03-19T09:14:25Z</time>
      </trkpt>
      <trkpt lat="45.27079" lon="6.18738">
        <ele>1822</ele>
        <time>2016-03-19T09:14:30Z</time>
      </trkpt>
      <trkpt lat="45.27077" lon="6.18735">
        <ele>1823</ele>
        <time>2016-03-19T09:14:35Z</time>
      </trkpt>
      <trkpt lat="45.27075" lon="6.18731">
        <ele>1824</ele>
        <time>2016-03-19T09:14:40Z</time>
      </trkpt>
      <trkpt lat="45.27073" lon="6.18727">
        <ele>1824</ele>
        <time>2016-03-19T09:14:45Z</time>
      </trkpt>
      <trkpt lat="45.27071" lon="6.18723">
        <ele>1825</ele>
        <time>2016-03-19T09:14:50Z</time>
      </trkpt>
      <trkpt lat="45.27069" lon="6.18719">
        <ele>1825</ele>
        <time>2016-03-19T09:14:55Z</time>
      </trkpt>
      <trkpt lat="45.27068" lon="6.18715">
        <ele>1826</ele>
        <time>2016-03-19T09:15:00Z</time>
      </trkpt>
      <trkpt lat="45.27066" lon="6.18711">
        <ele>1826</ele>
        <time>2016-03-19T09:15:05Z</time>
      </trkpt>
      <trkpt lat="45.27064" lon="6.18708">
        <ele>1827</ele>
        <time>2016-03-19T09:15:10Z</time>
      </trkpt>
      <trkpt lat="45.27062" lon="6.18703">
        <ele>1828</ele>
        <time>2016-03-19T09:15:15Z</time>
      </trkpt>
      <trkpt lat="45.27062" lon="6.18699">
        <ele>1829</ele>
        <time>2016-03-19T09:15:20Z</time>
      </trkpt>
      <trkpt lat="45.27059" lon="6.18693">
        <ele>1829</ele>
        <time>2016-03-19T09:15:25Z</time>
      </trkpt>
      <trkpt lat="45.27058" lon="6.18688">
        <ele>1829</ele>
        <time>2016-03-19T09:15:30Z</time>
      </trkpt>
      <trkpt lat="45.27058" lon="6.18683">
        <ele>1829</ele>
        <time>2016-03-19T09:15:35Z</time>
      </trkpt>
      <trkpt lat="45.27057" lon="6.18678">
        <ele>1829</ele>
        <time>2016-03-19T09:15:40Z</time>
      </trkpt>
      <trkpt lat="45.27055" lon="6.18673">
        <ele>1830</ele>
        <time>2016-03-19T09:15:45Z</time>
      </trkpt>
      <trkpt lat="45.27054" lon="6.18668">
        <ele>1830</ele>
        <time>2016-03-19T09:15:50Z</time>
      </trkpt>
      <trkpt lat="45.27052" lon="6.18664">
        <ele>1831</ele>
        <time>2016-03-19T09:15:55Z</time>
      </trkpt>
      <trkpt lat="45.27051" lon="6.1866">
        <ele>1831</ele>
        <time>2016-03-19T09:16:00Z</time>
      </trkpt>
      <trkpt lat="45.27049" lon="6.18656">
        <ele>1832</ele>
        <time>2016-03-19T09:16:05Z</time>
      </trkpt>
      <trkpt lat="45.27048" lon="6.18651">
        <ele>1833</ele>
        <time>2016-03-19T09:16:10Z</time>
      </trkpt>
      <trkpt lat="45.27046" lon="6.18646">
        <ele>1833</ele>
        <time>2016-03-19T09:16:15Z</time>
      </trkpt>
      <trkpt lat="45.27045" lon="6.18642">
        <ele>1833</ele>
        <time>2016-03-19T09:16:20Z</time>
      </trkpt>
      <trkpt lat="45.27044" lon="6.18638">
        <ele>1834</ele>
        <time>2016-03-19T09:16:25Z</time>
      </trkpt>
      <trkpt lat="45.27043" lon="6.18635">
        <ele>1834</ele>
        <time>2016-03-19T09:16:30Z</time>
      </trkpt>
      <trkpt lat="45.27042" lon="6.1863">
        <ele>1835</ele>
        <time>2016-03-19T09:16:35Z</time>
      </trkpt>
      <trkpt lat="45.27041" lon="6.18625">
        <ele>1836</ele>
        <time>2016-03-19T09:16:40Z</time>
      </trkpt>
      <trkpt lat="45.27039" lon="6.1862">
        <ele>1836</ele>
        <time>2016-03-19T09:16:45Z</time>
      </trkpt>
      <trkpt lat="45.27038" lon="6.18615">
        <ele>1836</ele>
        <time>2016-03-19T09:16:50Z</time>
      </trkpt>
      <trkpt lat="45.27036" lon="6.18611">
        <ele>1837</ele>
        <time>2016-03-19T09:16:55Z</time>
      </trkpt>
      <trkpt lat="45.27034" lon="6.18606">
        <ele>1837</ele>
        <time>2016-03-19T09:17:00Z</time>
      </trkpt>
      <trkpt lat="45.27033" lon="6.18601">
        <ele>1838</ele>
        <time>2016-03-19T09:17:05Z</time>
      </trkpt>
      <trkpt lat="45.27032" lon="6.18596">
        <ele>1839</ele>
        <time>2016-03-19T09:17:10Z</time>
      </trkpt>
      <trkpt lat="45.27031" lon="6.18591">
        <ele>1839</ele>
        <time>2016-03-19T09:17:15Z</time>
      </trkpt>
      <trkpt lat="45.27029" lon="6.18587">
        <ele>1840</ele>
        <time>2016-03-19T09:17:20Z</time>
      </trkpt>
      <trkpt lat="45.27028" lon="6.18582">
        <ele>1841</ele>
        <time>2016-03-19T09:17:25Z</time>
      </trkpt>
      <trkpt lat="45.27026" lon="6.18578">
        <ele>1842</ele>
        <time>2016-03-19T09:17:30Z</time>
      </trkpt>
      <trkpt lat="45.27025" lon="6.18574">
        <ele>1842</ele>
        <time>2016-03-19T09:17:35Z</time>
      </trkpt>
      <trkpt lat="45.27023" lon="6.1857">
        <ele>1843</ele>
        <time>2016-03-19T09:17:40Z</time>
      </trkpt>
      <trkpt lat="45.27022" lon="6.18567">
        <ele>1844</ele>
        <time>2016-03-19T09:17:45Z</time>
      </trkpt>
      <trkpt lat="45.27021" lon="6.18565">
        <ele>1845</ele>
        <time>2016-03-19T09:17:50Z</time>
      </trkpt>
      <trkpt lat="45.27021" lon="6.18563">
        <ele>1845</ele>
        <time>2016-03-19T09:17:55Z</time>
      </trkpt>
      <trkpt lat="45.27019" lon="6.18559">
        <ele>1846</ele>
        <time>2016-03-19T09:18:00Z</time>
      </trkpt>
      <trkpt lat="45.27018" lon="6.18556">
        <ele>1847</ele>
        <time>2016-03-19T09:18:05Z</time>
      </trkpt>
      <trkpt lat="45.27017" lon="6.18552">
        <ele>1847</ele>
        <time>2016-03-19T09:18:10Z</time>
      </trkpt>
      <trkpt lat="45.27015" lon="6.18549">
        <ele>1848</ele>
        <time>2016-03-19T09:18:15Z</time>
      </trkpt>
      <trkpt lat="45.27013" lon="6.18545">
        <ele>1848</ele>
        <time>2016-03-19T09:18:20Z</time>
      </trkpt>
      <trkpt lat="45.27013" lon="6.1854">
        <ele>1849</ele>
        <time>2016-03-19T09:18:25Z</time>
      </trkpt>
      <trkpt lat="45.27012" lon="6.18536">
        <ele>1850</ele>
        <time>2016-03-19T09:18:30Z</time>
      </trkpt>
      <trkpt lat="45.27012" lon="6.18531">
        <ele>1850</ele>
        <time>2016-03-19T09:18:35Z</time>
      </trkpt>
      <trkpt lat="45.27011" lon="6.18527">
        <ele>1851</ele>
        <time>2016-03-19T09:18:40Z</time>
      </trkpt>
      <trkpt lat="45.2701" lon="6.18523">
        <ele>1851</ele>
        <time>2016-03-19T09:18:45Z</time>
      </trkpt>
      <trkpt lat="45.2701" lon="6.18518">
        <ele>1852</ele>
        <time>2016-03-19T09:18:50Z</time>
      </trkpt>
      <trkpt lat="45.2701" lon="6.18514">
        <ele>1853</ele>
        <time>2016-03-19T09:18:55Z</time>
      </trkpt>
      <trkpt lat="45.2701" lon="6.1851">
        <ele>1853</ele>
        <time>2016-03-19T09:19:00Z</time>
      </trkpt>
      <trkpt lat="45.27009" lon="6.18505">
        <ele>1854</ele>
        <time>2016-03-19T09:19:05Z</time>
      </trkpt>
      <trkpt lat="45.27009" lon="6.18501">
        <ele>1854</ele>
        <time>2016-03-19T09:19:10Z</time>
      </trkpt>
      <trkpt lat="45.27009" lon="6.18497">
        <ele>1855</ele>
        <time>2016-03-19T09:19:15Z</time>
      </trkpt>
      <trkpt lat="45.27007" lon="6.18493">
        <ele>1856</ele>
        <time>2016-03-19T09:19:20Z</time>
      </trkpt>
      <trkpt lat="45.27007" lon="6.18489">
        <ele>1856</ele>
        <time>2016-03-19T09:19:25Z</time>
      </trkpt>
      <trkpt lat="45.27005" lon="6.18485">
        <ele>1857</ele>
        <time>2016-03-19T09:19:30Z</time>
      </trkpt>
      <trkpt lat="45.27004" lon="6.18482">
        <ele>1858</ele>
        <time>2016-03-19T09:19:35Z</time>
      </trkpt>
      <trkpt lat="45.27003" lon="6.18478">
        <ele>1859</ele>
        <time>2016-03-19T09:19:40Z</time>
      </trkpt>
      <trkpt lat="45.27002" lon="6.18474">
        <ele>1859</ele>
        <time>2016-03-19T09:19:45Z</time>
      </trkpt>
      <trkpt lat="45.27001" lon="6.18471">
        <ele>1860</ele>
        <time>2016-03-19T09:19:50Z</time>
      </trkpt>
      <trkpt lat="45.27" lon="6.18467">
        <ele>1861</ele>
        <time>2016-03-19T09:19:55Z</time>
      </trkpt>
      <trkpt lat="45.26999" lon="6.18463">
        <ele>1861</ele>
        <time>2016-03-19T09:20:00Z</time>
      </trkpt>
      <trkpt lat="45.26999" lon="6.1846">
        <ele>1862</ele>
        <time>2016-03-19T09:20:05Z</time>
      </trkpt>
      <trkpt lat="45.26998" lon="6.18458">
        <ele>1862</ele>
        <time>2016-03-19T09:20:10Z</time>
      </trkpt>
      <trkpt lat="45.26997" lon="6.18453">
        <ele>1863</ele>
        <time>2016-03-19T09:20:15Z</time>
      </trkpt>
      <trkpt lat="45.26997" lon="6.18449">
        <ele>1864</ele>
        <time>2016-03-19T09:20:20Z</time>
      </trkpt>
      <trkpt lat="45.26997" lon="6.18444">
        <ele>1864</ele>
        <time>2016-03-19T09:20:25Z</time>
      </trkpt>
      <trkpt lat="45.26997" lon="6.18439">
        <ele>1865</ele>
        <time>2016-03-19T09:20:30Z</time>
      </trkpt>
      <trkpt lat="45.26997" lon="6.18434">
        <ele>1865</ele>
        <time>2016-03-19T09:20:35Z</time>
      </trkpt>
      <trkpt lat="45.26997" lon="6.1843">
        <ele>1866</ele>
        <time>2016-03-19T09:20:40Z</time>
      </trkpt>
      <trkpt lat="45.26996" lon="6.18426">
        <ele>1866</ele>
        <time>2016-03-19T09:20:45Z</time>
      </trkpt>
      <trkpt lat="45.26996" lon="6.18421">
        <ele>1867</ele>
        <time>2016-03-19T09:20:50Z</time>
      </trkpt>
      <trkpt lat="45.26996" lon="6.18417">
        <ele>1868</ele>
        <time>2016-03-19T09:20:55Z</time>
      </trkpt>
      <trkpt lat="45.26996" lon="6.18413">
        <ele>1869</ele>
        <time>2016-03-19T09:21:00Z</time>
      </trkpt>
      <trkpt lat="45.26996" lon="6.18409">
        <ele>1869</ele>
        <time>2016-03-19T09:21:05Z</time>
      </trkpt>
      <trkpt lat="45.26995" lon="6.18404">
        <ele>1870</ele>
        <time>2016-03-19T09:21:10Z</time>
      </trkpt>
      <trkpt lat="45.26995" lon="6.184">
        <ele>1871</ele>
        <time>2016-03-19T09:21:15Z</time>
      </trkpt>
      <trkpt lat="45.26995" lon="6.18396">
        <ele>1871</ele>
        <time>2016-03-19T09:21:20Z</time>
      </trkpt>
      <trkpt lat="45.26996" lon="6.18391">
        <ele>1872</ele>
        <time>2016-03-19T09:21:25Z</time>
      </trkpt>
      <trkpt lat="45.26996" lon="6.18387">
        <ele>1873</ele>
        <time>2016-03-19T09:21:30Z</time>
      </trkpt>
      <trkpt lat="45.26997" lon="6.18382">
        <ele>1873</ele>
        <time>2016-03-19T09:21:35Z</time>
      </trkpt>
      <trkpt lat="45.26997" lon="6.18377">
        <ele>1874</ele>
        <time>2016-03-19T09:21:40Z</time>
      </trkpt>
      <trkpt lat="45.26997" lon="6.18376">
        <ele>1874</ele>
        <time>2016-03-19T09:21:45Z</time>
      </trkpt>
      <trkpt lat="45.26998" lon="6.18371">
        <ele>1874</ele>
        <time>2016-03-19T09:21:50Z</time>
      </trkpt>
      <trkpt lat="45.26999" lon="6.18365">
        <ele>1875</ele>
        <time>2016-03-19T09:21:55Z</time>
      </trkpt>
      <trkpt lat="45.27" lon="6.1836">
        <ele>1876</ele>
        <time>2016-03-19T09:22:00Z</time>
      </trkpt>
      <trkpt lat="45.27001" lon="6.18355">
        <ele>1876</ele>
        <time>2016-03-19T09:22:05Z</time>
      </trkpt>
      <trkpt lat="45.27001" lon="6.1835">
        <ele>1877</ele>
        <time>2016-03-19T09:22:10Z</time>
      </trkpt>
      <trkpt lat="45.27001" lon="6.18345">
        <ele>1878</ele>
        <time>2016-03-19T09:22:15Z</time>
      </trkpt>
      <trkpt lat="45.27" lon="6.18341">
        <ele>1879</ele>
        <time>2016-03-19T09:22:20Z</time>
      </trkpt>
      <trkpt lat="45.26999" lon="6.18336">
        <ele>1879</ele>
        <time>2016-03-19T09:22:25Z</time>
      </trkpt>
      <trkpt lat="45.26999" lon="6.18331">
        <ele>1880</ele>
        <time>2016-03-19T09:22:30Z</time>
      </trkpt>
      <trkpt lat="45.26999" lon="6.18325">
        <ele>1881</ele>
        <time>2016-03-19T09:22:35Z</time>
      </trkpt>
      <trkpt lat="45.26999" lon="6.1832">
        <ele>1881</ele>
        <time>2016-03-19T09:22:40Z</time>
      </trkpt>
      <trkpt lat="45.26998" lon="6.18318">
        <ele>1881</ele>
        <time>2016-03-19T09:22:45Z</time>
      </trkpt>
      <trkpt lat="45.26999" lon="6.18317">
        <ele>1881</ele>
        <time>2016-03-19T09:22:50Z</time>
      </trkpt>
      <trkpt lat="45.26999" lon="6.18317">
        <ele>1882</ele>
        <time>2016-03-19T09:22:55Z</time>
      </trkpt>
      <trkpt lat="45.26998" lon="6.18312">
        <ele>1882</ele>
        <time>2016-03-19T09:23:00Z</time>
      </trkpt>
      <trkpt lat="45.26998" lon="6.18312">
        <ele>1882</ele>
        <time>2016-03-19T09:23:05Z</time>
      </trkpt>
      <trkpt lat="45.26998" lon="6.18312">
        <ele>1882</ele>
        <time>2016-03-19T09:23:10Z</time>
      </trkpt>
      <trkpt lat="45.26998" lon="6.18312">
        <ele>1882</ele>
        <time>2016-03-19T09:23:15Z</time>
      </trkpt>
      <trkpt lat="45.26998" lon="6.18312">
        <ele>1882</ele>
        <time>2016-03-19T09:23:20Z</time>
      </trkpt>
      <trkpt lat="45.26999" lon="6.18312">
        <ele>1882</ele>
        <time>2016-03-19T09:23:25Z</time>
      </trkpt>
      <trkpt lat="45.26998" lon="6.18309">
        <ele>1882</ele>
        <time>2016-03-19T09:23:30Z</time>
      </trkpt>
      <trkpt lat="45.26997" lon="6.18304">
        <ele>1883</ele>
        <time>2016-03-19T09:23:35Z</time>
      </trkpt>
      <trkpt lat="45.26996" lon="6.183">
        <ele>1884</ele>
        <time>2016-03-19T09:23:40Z</time>
      </trkpt>
      <trkpt lat="45.26995" lon="6.18295">
        <ele>1884</ele>
        <time>2016-03-19T09:23:45Z</time>
      </trkpt>
      <trkpt lat="45.26994" lon="6.18291">
        <ele>1885</ele>
        <time>2016-03-19T09:23:50Z</time>
      </trkpt>
      <trkpt lat="45.26992" lon="6.18286">
        <ele>1886</ele>
        <time>2016-03-19T09:23:55Z</time>
      </trkpt>
      <trkpt lat="45.26991" lon="6.18281">
        <ele>1887</ele>
        <time>2016-03-19T09:24:00Z</time>
      </trkpt>
      <trkpt lat="45.2699" lon="6.18277">
        <ele>1887</ele>
        <time>2016-03-19T09:24:05Z</time>
      </trkpt>
      <trkpt lat="45.26989" lon="6.18272">
        <ele>1888</ele>
        <time>2016-03-19T09:24:10Z</time>
      </trkpt>
      <trkpt lat="45.26988" lon="6.18267">
        <ele>1889</ele>
        <time>2016-03-19T09:24:15Z</time>
      </trkpt>
      <trkpt lat="45.26987" lon="6.18261">
        <ele>1889</ele>
        <time>2016-03-19T09:24:20Z</time>
      </trkpt>
      <trkpt lat="45.26986" lon="6.18256">
        <ele>1890</ele>
        <time>2016-03-19T09:24:25Z</time>
      </trkpt>
      <trkpt lat="45.26986" lon="6.18252">
        <ele>1891</ele>
        <time>2016-03-19T09:24:30Z</time>
      </trkpt>
      <trkpt lat="45.26984" lon="6.18247">
        <ele>1891</ele>
        <time>2016-03-19T09:24:35Z</time>
      </trkpt>
      <trkpt lat="45.26984" lon="6.18242">
        <ele>1892</ele>
        <time>2016-03-19T09:24:40Z</time>
      </trkpt>
      <trkpt lat="45.26984" lon="6.18238">
        <ele>1892</ele>
        <time>2016-03-19T09:24:45Z</time>
      </trkpt>
      <trkpt lat="45.26983" lon="6.18233">
        <ele>1893</ele>
        <time>2016-03-19T09:24:50Z</time>
      </trkpt>
      <trkpt lat="45.26982" lon="6.18229">
        <ele>1894</ele>
        <time>2016-03-19T09:24:55Z</time>
      </trkpt>
      <trkpt lat="45.26981" lon="6.18225">
        <ele>1894</ele>
        <time>2016-03-19T09:25:00Z</time>
      </trkpt>
      <trkpt lat="45.2698" lon="6.18221">
        <ele>1895</ele>
        <time>2016-03-19T09:25:05Z</time>
      </trkpt>
      <trkpt lat="45.26979" lon="6.18217">
        <ele>1896</ele>
        <time>2016-03-19T09:25:10Z</time>
      </trkpt>
      <trkpt lat="45.26978" lon="6.18213">
        <ele>1896</ele>
        <time>2016-03-19T09:25:15Z</time>
      </trkpt>
      <trkpt lat="45.26977" lon="6.18209">
        <ele>1897</ele>
        <time>2016-03-19T09:25:20Z</time>
      </trkpt>
      <trkpt lat="45.26976" lon="6.18206">
        <ele>1898</ele>
        <time>2016-03-19T09:25:25Z</time>
      </trkpt>
      <trkpt lat="45.26975" lon="6.18202">
        <ele>1898</ele>
        <time>2016-03-19T09:25:30Z</time>
      </trkpt>
      <trkpt lat="45.26974" lon="6.18198">
        <ele>1899</ele>
        <time>2016-03-19T09:25:35Z</time>
      </trkpt>
      <trkpt lat="45.26973" lon="6.18195">
        <ele>1899</ele>
        <time>2016-03-19T09:25:40Z</time>
      </trkpt>
      <trkpt lat="45.26972" lon="6.18191">
        <ele>1900</ele>
        <time>2016-03-19T09:25:45Z</time>
      </trkpt>
      <trkpt lat="45.26971" lon="6.18187">
        <ele>1901</ele>
        <time>2016-03-19T09:25:50Z</time>
      </trkpt>
      <trkpt lat="45.26969" lon="6.18184">
        <ele>1901</ele>
        <time>2016-03-19T09:25:55Z</time>
      </trkpt>
      <trkpt lat="45.26968" lon="6.18181">
        <ele>1902</ele>
        <time>2016-03-19T09:26:00Z</time>
      </trkpt>
      <trkpt lat="45.26966" lon="6.18177">
        <ele>1902</ele>
        <time>2016-03-19T09:26:05Z</time>
      </trkpt>
      <trkpt lat="45.26964" lon="6.18175">
        <ele>1903</ele>
        <time>2016-03-19T09:26:10Z</time>
      </trkpt>
      <trkpt lat="45.26962" lon="6.18172">
        <ele>1904</ele>
        <time>2016-03-19T09:26:15Z</time>
      </trkpt>
      <trkpt lat="45.26959" lon="6.1817">
        <ele>1904</ele>
        <time>2016-03-19T09:26:20Z</time>
      </trkpt>
      <trkpt lat="45.26957" lon="6.18168">
        <ele>1905</ele>
        <time>2016-03-19T09:26:25Z</time>
      </trkpt>
      <trkpt lat="45.26955" lon="6.18166">
        <ele>1905</ele>
        <time>2016-03-19T09:26:30Z</time>
      </trkpt>
      <trkpt lat="45.26954" lon="6.18163">
        <ele>1906</ele>
        <time>2016-03-19T09:26:35Z</time>
      </trkpt>
      <trkpt lat="45.26952" lon="6.1816">
        <ele>1906</ele>
        <time>2016-03-19T09:26:40Z</time>
      </trkpt>
      <trkpt lat="45.2695" lon="6.18157">
        <ele>1907</ele>
        <time>2016-03-19T09:26:45Z</time>
      </trkpt>
      <trkpt lat="45.26948" lon="6.18154">
        <ele>1908</ele>
        <time>2016-03-19T09:26:50Z</time>
      </trkpt>
      <trkpt lat="45.26946" lon="6.18151">
        <ele>1908</ele>
        <time>2016-03-19T09:26:55Z</time>
      </trkpt>
      <trkpt lat="45.26944" lon="6.18148">
        <ele>1909</ele>
        <time>2016-03-19T09:27:00Z</time>
      </trkpt>
      <trkpt lat="45.26943" lon="6.18147">
        <ele>1909</ele>
        <time>2016-03-19T09:27:05Z</time>
      </trkpt>
      <trkpt lat="45.26943" lon="6.18146">
        <ele>1910</ele>
        <time>2016-03-19T09:27:10Z</time>
      </trkpt>
      <trkpt lat="45.2694" lon="6.18144">
        <ele>1910</ele>
        <time>2016-03-19T09:27:15Z</time>
      </trkpt>
      <trkpt lat="45.26939" lon="6.18142">
        <ele>1911</ele>
        <time>2016-03-19T09:27:20Z</time>
      </trkpt>
      <trkpt lat="45.26936" lon="6.1814">
        <ele>1912</ele>
        <time>2016-03-19T09:27:25Z</time>
      </trkpt>
      <trkpt lat="45.26935" lon="6.18138">
        <ele>1913</ele>
        <time>2016-03-19T09:27:30Z</time>
      </trkpt>
      <trkpt lat="45.26932" lon="6.18136">
        <ele>1914</ele>
        <time>2016-03-19T09:27:35Z</time>
      </trkpt>
      <trkpt lat="45.2693" lon="6.18134">
        <ele>1914</ele>
        <time>2016-03-19T09:27:40Z</time>
      </trkpt>
      <trkpt lat="45.26928" lon="6.18132">
        <ele>1915</ele>
        <time>2016-03-19T09:27:45Z</time>
      </trkpt>
      <trkpt lat="45.26926" lon="6.1813">
        <ele>1916</ele>
        <time>2016-03-19T09:27:50Z</time>
      </trkpt>
      <trkpt lat="45.26924" lon="6.18128">
        <ele>1917</ele>
        <time>2016-03-19T09:27:55Z</time>
      </trkpt>
      <trkpt lat="45.26921" lon="6.18127">
        <ele>1918</ele>
        <time>2016-03-19T09:28:00Z</time>
      </trkpt>
      <trkpt lat="45.26919" lon="6.18126">
        <ele>1919</ele>
        <time>2016-03-19T09:28:05Z</time>
      </trkpt>
      <trkpt lat="45.26916" lon="6.18125">
        <ele>1919</ele>
        <time>2016-03-19T09:28:10Z</time>
      </trkpt>
      <trkpt lat="45.26914" lon="6.18124">
        <ele>1920</ele>
        <time>2016-03-19T09:28:15Z</time>
      </trkpt>
      <trkpt lat="45.26911" lon="6.18122">
        <ele>1921</ele>
        <time>2016-03-19T09:28:20Z</time>
      </trkpt>
      <trkpt lat="45.26908" lon="6.18121">
        <ele>1921</ele>
        <time>2016-03-19T09:28:25Z</time>
      </trkpt>
      <trkpt lat="45.26906" lon="6.18119">
        <ele>1922</ele>
        <time>2016-03-19T09:28:30Z</time>
      </trkpt>
      <trkpt lat="45.26907" lon="6.18117">
        <ele>1923</ele>
        <time>2016-03-19T09:28:35Z</time>
      </trkpt>
      <trkpt lat="45.26908" lon="6.18115">
        <ele>1924</ele>
        <time>2016-03-19T09:28:40Z</time>
      </trkpt>
      <trkpt lat="45.2691" lon="6.18113">
        <ele>1924</ele>
        <time>2016-03-19T09:28:45Z</time>
      </trkpt>
      <trkpt lat="45.26912" lon="6.18111">
        <ele>1925</ele>
        <time>2016-03-19T09:28:50Z</time>
      </trkpt>
      <trkpt lat="45.26914" lon="6.18109">
        <ele>1926</ele>
        <time>2016-03-19T09:28:55Z</time>
      </trkpt>
      <trkpt lat="45.26915" lon="6.18107">
        <ele>1926</ele>
        <time>2016-03-19T09:29:00Z</time>
      </trkpt>
      <trkpt lat="45.26915" lon="6.18106">
        <ele>1927</ele>
        <time>2016-03-19T09:29:05Z</time>
      </trkpt>
      <trkpt lat="45.26914" lon="6.18104">
        <ele>1928</ele>
        <time>2016-03-19T09:29:10Z</time>
      </trkpt>
      <trkpt lat="45.26912" lon="6.18102">
        <ele>1928</ele>
        <time>2016-03-19T09:29:15Z</time>
      </trkpt>
      <trkpt lat="45.2691" lon="6.18099">
        <ele>1929</ele>
        <time>2016-03-19T09:29:20Z</time>
      </trkpt>
      <trkpt lat="45.26909" lon="6.18097">
        <ele>1930</ele>
        <time>2016-03-19T09:29:25Z</time>
      </trkpt>
      <trkpt lat="45.26907" lon="6.18095">
        <ele>1930</ele>
        <time>2016-03-19T09:29:30Z</time>
      </trkpt>
      <trkpt lat="45.26906" lon="6.18092">
        <ele>1931</ele>
        <time>2016-03-19T09:29:35Z</time>
      </trkpt>
      <trkpt lat="45.26904" lon="6.1809">
        <ele>1932</ele>
        <time>2016-03-19T09:29:40Z</time>
      </trkpt>
      <trkpt lat="45.26902" lon="6.18088">
        <ele>1933</ele>
        <time>2016-03-19T09:29:45Z</time>
      </trkpt>
      <trkpt lat="45.26903" lon="6.18086">
        <ele>1934</ele>
        <time>2016-03-19T09:29:50Z</time>
      </trkpt>
      <trkpt lat="45.26904" lon="6.18083">
        <ele>1934</ele>
        <time>2016-03-19T09:29:55Z</time>
      </trkpt>
      <trkpt lat="45.26906" lon="6.1808">
        <ele>1935</ele>
        <time>2016-03-19T09:30:00Z</time>
      </trkpt>
      <trkpt lat="45.26907" lon="6.18077">
        <ele>1936</ele>
        <time>2016-03-19T09:30:05Z</time>
      </trkpt>
      <trkpt lat="45.26908" lon="6.18075">
        <ele>1937</ele>
        <time>2016-03-19T09:30:10Z</time>
      </trkpt>
      <trkpt lat="45.26909" lon="6.18072">
        <ele>1938</ele>
        <time>2016-03-19T09:30:15Z</time>
      </trkpt>
      <trkpt lat="45.26909" lon="6.18069">
        <ele>1938</ele>
        <time>2016-03-19T09:30:20Z</time>
      </trkpt>
      <trkpt lat="45.2691" lon="6.18065">
        <ele>1939</ele>
        <time>2016-03-19T09:30:25Z</time>
      </trkpt>
      <trkpt lat="45.26912" lon="6.18062">
        <ele>1940</ele>
        <time>2016-03-19T09:30:30Z</time>
      </trkpt>
      <trkpt lat="45.26913" lon="6.1806">
        <ele>1941</ele>
        <time>2016-03-19T09:30:35Z</time>
      </trkpt>
      <trkpt lat="45.26914" lon="6.18056">
        <ele>1941</ele>
        <time>2016-03-19T09:30:40Z</time>
      </trkpt>
      <trkpt lat="45.26916" lon="6.18052">
        <ele>1942</ele>
        <time>2016-03-19T09:30:45Z</time>
      </trkpt>
      <trkpt lat="45.26917" lon="6.18048">
        <ele>1942</ele>
        <time>2016-03-19T09:30:50Z</time>
      </trkpt>
      <trkpt lat="45.26918" lon="6.18044">
        <ele>1943</ele>
        <time>2016-03-19T09:30:55Z</time>
      </trkpt>
      <trkpt lat="45.26919" lon="6.1804">
        <ele>1943</ele>
        <time>2016-03-19T09:31:00Z</time>
      </trkpt>
      <trkpt lat="45.2692" lon="6.18036">
        <ele>1944</ele>
        <time>2016-03-19T09:31:05Z</time>
      </trkpt>
      <trkpt lat="45.26922" lon="6.18032">
        <ele>1945</ele>
        <time>2016-03-19T09:31:10Z</time>
      </trkpt>
      <trkpt lat="45.26922" lon="6.18028">
        <ele>1945</ele>
        <time>2016-03-19T09:31:15Z</time>
      </trkpt>
      <trkpt lat="45.26923" lon="6.18024">
        <ele>1946</ele>
        <time>2016-03-19T09:31:20Z</time>
      </trkpt>
      <trkpt lat="45.26923" lon="6.1802">
        <ele>1947</ele>
        <time>2016-03-19T09:31:25Z</time>
      </trkpt>
      <trkpt lat="45.26924" lon="6.18016">
        <ele>1948</ele>
        <time>2016-03-19T09:31:30Z</time>
      </trkpt>
      <trkpt lat="45.26924" lon="6.18012">
        <ele>1948</ele>
        <time>2016-03-19T09:31:35Z</time>
      </trkpt>
      <trkpt lat="45.26924" lon="6.18008">
        <ele>1949</ele>
        <time>2016-03-19T09:31:40Z</time>
      </trkpt>
      <trkpt lat="45.26925" lon="6.18004">
        <ele>1950</ele>
        <time>2016-03-19T09:31:45Z</time>
      </trkpt>
      <trkpt lat="45.26924" lon="6.18">
        <ele>1951</ele>
        <time>2016-03-19T09:31:50Z</time>
      </trkpt>
      <trkpt lat="45.26924" lon="6.17996">
        <ele>1951</ele>
        <time>2016-03-19T09:31:55Z</time>
      </trkpt>
      <trkpt lat="45.26923" lon="6.17991">
        <ele>1952</ele>
        <time>2016-03-19T09:32:00Z</time>
      </trkpt>
      <trkpt lat="45.26923" lon="6.17986">
        <ele>1952</ele>
        <time>2016-03-19T09:32:05Z</time>
      </trkpt>
      <trkpt lat="45.26922" lon="6.17981">
        <ele>1953</ele>
        <time>2016-03-19T09:32:10Z</time>
      </trkpt>
      <trkpt lat="45.26922" lon="6.17976">
        <ele>1954</ele>
        <time>2016-03-19T09:32:15Z</time>
      </trkpt>
      <trkpt lat="45.26921" lon="6.17971">
        <ele>1954</ele>
        <time>2016-03-19T09:32:20Z</time>
      </trkpt>
      <trkpt lat="45.26921" lon="6.17966">
        <ele>1955</ele>
        <time>2016-03-19T09:32:25Z</time>
      </trkpt>
      <trkpt lat="45.2692" lon="6.17961">
        <ele>1955</ele>
        <time>2016-03-19T09:32:30Z</time>
      </trkpt>
      <trkpt lat="45.2692" lon="6.17956">
        <ele>1956</ele>
        <time>2016-03-19T09:32:35Z</time>
      </trkpt>
      <trkpt lat="45.2692" lon="6.17953">
        <ele>1957</ele>
        <time>2016-03-19T09:32:40Z</time>
      </trkpt>
      <trkpt lat="45.26919" lon="6.17949">
        <ele>1957</ele>
        <time>2016-03-19T09:32:45Z</time>
      </trkpt>
      <trkpt lat="45.26919" lon="6.17945">
        <ele>1958</ele>
        <time>2016-03-19T09:32:50Z</time>
      </trkpt>
      <trkpt lat="45.26919" lon="6.17941">
        <ele>1959</ele>
        <time>2016-03-19T09:32:55Z</time>
      </trkpt>
      <trkpt lat="45.26919" lon="6.17937">
        <ele>1960</ele>
        <time>2016-03-19T09:33:00Z</time>
      </trkpt>
      <trkpt lat="45.26919" lon="6.17933">
        <ele>1961</ele>
        <time>2016-03-19T09:33:05Z</time>
      </trkpt>
      <trkpt lat="45.26919" lon="6.17929">
        <ele>1962</ele>
        <time>2016-03-19T09:33:10Z</time>
      </trkpt>
      <trkpt lat="45.26919" lon="6.17925">
        <ele>1963</ele>
        <time>2016-03-19T09:33:15Z</time>
      </trkpt>
      <trkpt lat="45.26919" lon="6.17921">
        <ele>1963</ele>
        <time>2016-03-19T09:33:20Z</time>
      </trkpt>
      <trkpt lat="45.26919" lon="6.17918">
        <ele>1964</ele>
        <time>2016-03-19T09:33:25Z</time>
      </trkpt>
      <trkpt lat="45.26919" lon="6.17914">
        <ele>1965</ele>
        <time>2016-03-19T09:33:30Z</time>
      </trkpt>
      <trkpt lat="45.26919" lon="6.1791">
        <ele>1966</ele>
        <time>2016-03-19T09:33:35Z</time>
      </trkpt>
      <trkpt lat="45.2692" lon="6.17906">
        <ele>1966</ele>
        <time>2016-03-19T09:33:40Z</time>
      </trkpt>
      <trkpt lat="45.2692" lon="6.17902">
        <ele>1967</ele>
        <time>2016-03-19T09:33:45Z</time>
      </trkpt>
      <trkpt lat="45.2692" lon="6.17898">
        <ele>1968</ele>
        <time>2016-03-19T09:33:50Z</time>
      </trkpt>
      <trkpt lat="45.26921" lon="6.17894">
        <ele>1969</ele>
        <time>2016-03-19T09:33:55Z</time>
      </trkpt>
      <trkpt lat="45.26922" lon="6.1789">
        <ele>1969</ele>
        <time>2016-03-19T09:34:00Z</time>
      </trkpt>
      <trkpt lat="45.26922" lon="6.17887">
        <ele>1970</ele>
        <time>2016-03-19T09:34:05Z</time>
      </trkpt>
      <trkpt lat="45.26922" lon="6.17884">
        <ele>1971</ele>
        <time>2016-03-19T09:34:10Z</time>
      </trkpt>
      <trkpt lat="45.26922" lon="6.1788">
        <ele>1972</ele>
        <time>2016-03-19T09:34:15Z</time>
      </trkpt>
      <trkpt lat="45.26923" lon="6.17877">
        <ele>1973</ele>
        <time>2016-03-19T09:34:20Z</time>
      </trkpt>
      <trkpt lat="45.26923" lon="6.17874">
        <ele>1974</ele>
        <time>2016-03-19T09:34:25Z</time>
      </trkpt>
      <trkpt lat="45.26923" lon="6.1787">
        <ele>1975</ele>
        <time>2016-03-19T09:34:30Z</time>
      </trkpt>
      <trkpt lat="45.26924" lon="6.17867">
        <ele>1975</ele>
        <time>2016-03-19T09:34:35Z</time>
      </trkpt>
      <trkpt lat="45.26924" lon="6.17864">
        <ele>1976</ele>
        <time>2016-03-19T09:34:40Z</time>
      </trkpt>
      <trkpt lat="45.26925" lon="6.1786">
        <ele>1977</ele>
        <time>2016-03-19T09:34:45Z</time>
      </trkpt>
      <trkpt lat="45.26925" lon="6.17856">
        <ele>1978</ele>
        <time>2016-03-19T09:34:50Z</time>
      </trkpt>
      <trkpt lat="45.26925" lon="6.17853">
        <ele>1979</ele>
        <time>2016-03-19T09:34:55Z</time>
      </trkpt>
      <trkpt lat="45.26925" lon="6.1785">
        <ele>1980</ele>
        <time>2016-03-19T09:35:00Z</time>
      </trkpt>
      <trkpt lat="45.26926" lon="6.17846">
        <ele>1980</ele>
        <time>2016-03-19T09:35:05Z</time>
      </trkpt>
      <trkpt lat="45.26926" lon="6.17842">
        <ele>1981</ele>
        <time>2016-03-19T09:35:10Z</time>
      </trkpt>
      <trkpt lat="45.26926" lon="6.17839">
        <ele>1982</ele>
        <time>2016-03-19T09:35:15Z</time>
      </trkpt>
      <trkpt lat="45.26927" lon="6.17836">
        <ele>1983</ele>
        <time>2016-03-19T09:35:20Z</time>
      </trkpt>
      <trkpt lat="45.26927" lon="6.17833">
        <ele>1984</ele>
        <time>2016-03-19T09:35:25Z</time>
      </trkpt>
      <trkpt lat="45.26928" lon="6.17829">
        <ele>1984</ele>
        <time>2016-03-19T09:35:30Z</time>
      </trkpt>
      <trkpt lat="45.26928" lon="6.17826">
        <ele>1985</ele>
        <time>2016-03-19T09:35:35Z</time>
      </trkpt>
      <trkpt lat="45.26928" lon="6.17822">
        <ele>1986</ele>
        <time>2016-03-19T09:35:40Z</time>
      </trkpt>
      <trkpt lat="45.26928" lon="6.17819">
        <ele>1987</ele>
        <time>2016-03-19T09:35:45Z</time>
      </trkpt>
      <trkpt lat="45.26928" lon="6.17816">
        <ele>1987</ele>
        <time>2016-03-19T09:35:50Z</time>
      </trkpt>
      <trkpt lat="45.26929" lon="6.17812">
        <ele>1988</ele>
        <time>2016-03-19T09:35:55Z</time>
      </trkpt>
      <trkpt lat="45.26929" lon="6.17809">
        <ele>1989</ele>
        <time>2016-03-19T09:36:00Z</time>
      </trkpt>
      <trkpt lat="45.26929" lon="6.17806">
        <ele>1989</ele>
        <time>2016-03-19T09:36:05Z</time>
      </trkpt>
      <trkpt lat="45.2693" lon="6.17802">
        <ele>1990</ele>
        <time>2016-03-19T09:36:10Z</time>
      </trkpt>
      <trkpt lat="45.2693" lon="6.17799">
        <ele>1991</ele>
        <time>2016-03-19T09:36:15Z</time>
      </trkpt>
      <trkpt lat="45.2693" lon="6.17795">
        <ele>1991</ele>
        <time>2016-03-19T09:36:20Z</time>
      </trkpt>
      <trkpt lat="45.26931" lon="6.17792">
        <ele>1992</ele>
        <time>2016-03-19T09:36:25Z</time>
      </trkpt>
      <trkpt lat="45.26931" lon="6.17788">
        <ele>1993</ele>
        <time>2016-03-19T09:36:30Z</time>
      </trkpt>
      <trkpt lat="45.26931" lon="6.17784">
        <ele>1993</ele>
        <time>2016-03-19T09:36:35Z</time>
      </trkpt>
      <trkpt lat="45.26931" lon="6.17781">
        <ele>1994</ele>
        <time>2016-03-19T09:36:40Z</time>
      </trkpt>
      <trkpt lat="45.26931" lon="6.17777">
        <ele>1995</ele>
        <time>2016-03-19T09:36:45Z</time>
      </trkpt>
      <trkpt lat="45.26931" lon="6.17773">
        <ele>1996</ele>
        <time>2016-03-19T09:36:50Z</time>
      </trkpt>
      <trkpt lat="45.26931" lon="6.1777">
        <ele>1997</ele>
        <time>2016-03-19T09:36:55Z</time>
      </trkpt>
      <trkpt lat="45.26931" lon="6.17766">
        <ele>1997</ele>
        <time>2016-03-19T09:37:00Z</time>
      </trkpt>
      <trkpt lat="45.26931" lon="6.17762">
        <ele>1998</ele>
        <time>2016-03-19T09:37:05Z</time>
      </trkpt>
      <trkpt lat="45.26932" lon="6.17758">
        <ele>1999</ele>
        <time>2016-03-19T09:37:10Z</time>
      </trkpt>
      <trkpt lat="45.26932" lon="6.17755">
        <ele>2000</ele>
        <time>2016-03-19T09:37:15Z</time>
      </trkpt>
      <trkpt lat="45.26933" lon="6.17751">
        <ele>2001</ele>
        <time>2016-03-19T09:37:20Z</time>
      </trkpt>
      <trkpt lat="45.26933" lon="6.17747">
        <ele>2002</ele>
        <time>2016-03-19T09:37:25Z</time>
      </trkpt>
      <trkpt lat="45.26933" lon="6.17744">
        <ele>2002</ele>
        <time>2016-03-19T09:37:30Z</time>
      </trkpt>
      <trkpt lat="45.26935" lon="6.1774">
        <ele>2003</ele>
        <time>2016-03-19T09:37:35Z</time>
      </trkpt>
      <trkpt lat="45.26935" lon="6.17736">
        <ele>2004</ele>
        <time>2016-03-19T09:37:40Z</time>
      </trkpt>
      <trkpt lat="45.26936" lon="6.17733">
        <ele>2005</ele>
        <time>2016-03-19T09:37:45Z</time>
      </trkpt>
      <trkpt lat="45.26938" lon="6.1773">
        <ele>2006</ele>
        <time>2016-03-19T09:37:50Z</time>
      </trkpt>
      <trkpt lat="45.2694" lon="6.17728">
        <ele>2006</ele>
        <time>2016-03-19T09:37:55Z</time>
      </trkpt>
      <trkpt lat="45.26942" lon="6.17726">
        <ele>2007</ele>
        <time>2016-03-19T09:38:00Z</time>
      </trkpt>
      <trkpt lat="45.26944" lon="6.17724">
        <ele>2008</ele>
        <time>2016-03-19T09:38:05Z</time>
      </trkpt>
      <trkpt lat="45.26946" lon="6.17723">
        <ele>2009</ele>
        <time>2016-03-19T09:38:10Z</time>
      </trkpt>
      <trkpt lat="45.26948" lon="6.17721">
        <ele>2009</ele>
        <time>2016-03-19T09:38:15Z</time>
      </trkpt>
      <trkpt lat="45.26951" lon="6.17719">
        <ele>2010</ele>
        <time>2016-03-19T09:38:20Z</time>
      </trkpt>
      <trkpt lat="45.26952" lon="6.17718">
        <ele>2011</ele>
        <time>2016-03-19T09:38:25Z</time>
      </trkpt>
      <trkpt lat="45.26955" lon="6.17717">
        <ele>2012</ele>
        <time>2016-03-19T09:38:30Z</time>
      </trkpt>
      <trkpt lat="45.26957" lon="6.17716">
        <ele>2010</ele>
        <time>2016-03-19T09:38:35Z</time>
      </trkpt>
      <trkpt lat="45.26959" lon="6.17716">
        <ele>2010</ele>
        <time>2016-03-19T09:38:40Z</time>
      </trkpt>
      <trkpt lat="45.2696" lon="6.17716">
        <ele>2010</ele>
        <time>2016-03-19T09:38:45Z</time>
      </trkpt>
      <trkpt lat="45.26962" lon="6.17716">
        <ele>2010</ele>
        <time>2016-03-19T09:38:50Z</time>
      </trkpt>
      <trkpt lat="45.26965" lon="6.17716">
        <ele>2011</ele>
        <time>2016-03-19T09:38:55Z</time>
      </trkpt>
      <trkpt lat="45.26967" lon="6.17716">
        <ele>2011</ele>
        <time>2016-03-19T09:39:00Z</time>
      </trkpt>
      <trkpt lat="45.26968" lon="6.17717">
        <ele>2012</ele>
        <time>2016-03-19T09:39:05Z</time>
      </trkpt>
      <trkpt lat="45.26971" lon="6.17717">
        <ele>2012</ele>
        <time>2016-03-19T09:39:10Z</time>
      </trkpt>
      <trkpt lat="45.26973" lon="6.17718">
        <ele>2013</ele>
        <time>2016-03-19T09:39:15Z</time>
      </trkpt>
      <trkpt lat="45.26975" lon="6.17718">
        <ele>2014</ele>
        <time>2016-03-19T09:39:20Z</time>
      </trkpt>
      <trkpt lat="45.26976" lon="6.17716">
        <ele>2014</ele>
        <time>2016-03-19T09:39:25Z</time>
      </trkpt>
      <trkpt lat="45.26976" lon="6.17713">
        <ele>2015</ele>
        <time>2016-03-19T09:39:30Z</time>
      </trkpt>
      <trkpt lat="45.26976" lon="6.1771">
        <ele>2016</ele>
        <time>2016-03-19T09:39:35Z</time>
      </trkpt>
      <trkpt lat="45.26976" lon="6.17707">
        <ele>2016</ele>
        <time>2016-03-19T09:39:40Z</time>
      </trkpt>
      <trkpt lat="45.26976" lon="6.17704">
        <ele>2017</ele>
        <time>2016-03-19T09:39:45Z</time>
      </trkpt>
      <trkpt lat="45.26975" lon="6.177">
        <ele>2018</ele>
        <time>2016-03-19T09:39:50Z</time>
      </trkpt>
      <trkpt lat="45.26975" lon="6.17697">
        <ele>2019</ele>
        <time>2016-03-19T09:39:55Z</time>
      </trkpt>
      <trkpt lat="45.26975" lon="6.17694">
        <ele>2020</ele>
        <time>2016-03-19T09:40:00Z</time>
      </trkpt>
      <trkpt lat="45.26975" lon="6.17691">
        <ele>2021</ele>
        <time>2016-03-19T09:40:05Z</time>
      </trkpt>
      <trkpt lat="45.26974" lon="6.17687">
        <ele>2022</ele>
        <time>2016-03-19T09:40:10Z</time>
      </trkpt>
      <trkpt lat="45.26975" lon="6.17684">
        <ele>2023</ele>
        <time>2016-03-19T09:40:15Z</time>
      </trkpt>
      <trkpt lat="45.26974" lon="6.17681">
        <ele>2023</ele>
        <time>2016-03-19T09:40:20Z</time>
      </trkpt>
      <trkpt lat="45.26974" lon="6.17678">
        <ele>2024</ele>
        <time>2016-03-19T09:40:25Z</time>
      </trkpt>
      <trkpt lat="45.26974" lon="6.17675">
        <ele>2025</ele>
        <time>2016-03-19T09:40:30Z</time>
      </trkpt>
      <trkpt lat="45.26974" lon="6.17672">
        <ele>2026</ele>
        <time>2016-03-19T09:40:35Z</time>
      </trkpt>
      <trkpt lat="45.26974" lon="6.17669">
        <ele>2027</ele>
        <time>2016-03-19T09:40:40Z</time>
      </trkpt>
      <trkpt lat="45.26973" lon="6.17666">
        <ele>2027</ele>
        <time>2016-03-19T09:40:45Z</time>
      </trkpt>
      <trkpt lat="45.26973" lon="6.17662">
        <ele>2028</ele>
        <time>2016-03-19T09:40:50Z</time>
      </trkpt>
      <trkpt lat="45.26972" lon="6.17659">
        <ele>2029</ele>
        <time>2016-03-19T09:40:55Z</time>
      </trkpt>
      <trkpt lat="45.26972" lon="6.17656">
        <ele>2030</ele>
        <time>2016-03-19T09:41:00Z</time>
      </trkpt>
      <trkpt lat="45.26971" lon="6.17652">
        <ele>2030</ele>
        <time>2016-03-19T09:41:05Z</time>
      </trkpt>
      <trkpt lat="45.26971" lon="6.17649">
        <ele>2031</ele>
        <time>2016-03-19T09:41:10Z</time>
      </trkpt>
      <trkpt lat="45.26971" lon="6.17646">
        <ele>2033</ele>
        <time>2016-03-19T09:41:15Z</time>
      </trkpt>
      <trkpt lat="45.2697" lon="6.17642">
        <ele>2034</ele>
        <time>2016-03-19T09:41:20Z</time>
      </trkpt>
      <trkpt lat="45.2697" lon="6.17639">
        <ele>2035</ele>
        <time>2016-03-19T09:41:25Z</time>
      </trkpt>
      <trkpt lat="45.2697" lon="6.17636">
        <ele>2036</ele>
        <time>2016-03-19T09:41:30Z</time>
      </trkpt>
      <trkpt lat="45.26969" lon="6.17633">
        <ele>2037</ele>
        <time>2016-03-19T09:41:35Z</time>
      </trkpt>
      <trkpt lat="45.26968" lon="6.17629">
        <ele>2038</ele>
        <time>2016-03-19T09:41:40Z</time>
      </trkpt>
      <trkpt lat="45.26968" lon="6.17626">
        <ele>2039</ele>
        <time>2016-03-19T09:41:45Z</time>
      </trkpt>
      <trkpt lat="45.26967" lon="6.17623">
        <ele>2040</ele>
        <time>2016-03-19T09:41:50Z</time>
      </trkpt>
      <trkpt lat="45.26967" lon="6.1762">
        <ele>2041</ele>
        <time>2016-03-19T09:41:55Z</time>
      </trkpt>
      <trkpt lat="45.26965" lon="6.17616">
        <ele>2042</ele>
        <time>2016-03-19T09:42:00Z</time>
      </trkpt>
      <trkpt lat="45.26965" lon="6.17613">
        <ele>2043</ele>
        <time>2016-03-19T09:42:05Z</time>
      </trkpt>
      <trkpt lat="45.26964" lon="6.1761">
        <ele>2043</ele>
        <time>2016-03-19T09:42:10Z</time>
      </trkpt>
      <trkpt lat="45.26963" lon="6.17607">
        <ele>2044</ele>
        <time>2016-03-19T09:42:15Z</time>
      </trkpt>
      <trkpt lat="45.26962" lon="6.17604">
        <ele>2045</ele>
        <time>2016-03-19T09:42:20Z</time>
      </trkpt>
      <trkpt lat="45.26962" lon="6.17601">
        <ele>2046</ele>
        <time>2016-03-19T09:42:25Z</time>
      </trkpt>
      <trkpt lat="45.26961" lon="6.17597">
        <ele>2047</ele>
        <time>2016-03-19T09:42:30Z</time>
      </trkpt>
      <trkpt lat="45.2696" lon="6.17594">
        <ele>2047</ele>
        <time>2016-03-19T09:42:35Z</time>
      </trkpt>
      <trkpt lat="45.26959" lon="6.1759">
        <ele>2048</ele>
        <time>2016-03-19T09:42:40Z</time>
      </trkpt>
      <trkpt lat="45.26959" lon="6.17586">
        <ele>2049</ele>
        <time>2016-03-19T09:42:45Z</time>
      </trkpt>
      <trkpt lat="45.26958" lon="6.17583">
        <ele>2049</ele>
        <time>2016-03-19T09:42:50Z</time>
      </trkpt>
      <trkpt lat="45.26957" lon="6.1758">
        <ele>2050</ele>
        <time>2016-03-19T09:42:55Z</time>
      </trkpt>
      <trkpt lat="45.26955" lon="6.17576">
        <ele>2051</ele>
        <time>2016-03-19T09:43:00Z</time>
      </trkpt>
      <trkpt lat="45.26954" lon="6.17574">
        <ele>2052</ele>
        <time>2016-03-19T09:43:05Z</time>
      </trkpt>
      <trkpt lat="45.26952" lon="6.17572">
        <ele>2053</ele>
        <time>2016-03-19T09:43:10Z</time>
      </trkpt>
      <trkpt lat="45.26949" lon="6.17571">
        <ele>2053</ele>
        <time>2016-03-19T09:43:15Z</time>
      </trkpt>
      <trkpt lat="45.26946" lon="6.1757">
        <ele>2054</ele>
        <time>2016-03-19T09:43:20Z</time>
      </trkpt>
      <trkpt lat="45.26944" lon="6.1757">
        <ele>2054</ele>
        <time>2016-03-19T09:43:25Z</time>
      </trkpt>
      <trkpt lat="45.26941" lon="6.1757">
        <ele>2055</ele>
        <time>2016-03-19T09:43:30Z</time>
      </trkpt>
      <trkpt lat="45.26938" lon="6.1757">
        <ele>2055</ele>
        <time>2016-03-19T09:43:35Z</time>
      </trkpt>
      <trkpt lat="45.26935" lon="6.1757">
        <ele>2056</ele>
        <time>2016-03-19T09:43:40Z</time>
      </trkpt>
      <trkpt lat="45.26934" lon="6.1757">
        <ele>2056</ele>
        <time>2016-03-19T09:43:45Z</time>
      </trkpt>
      <trkpt lat="45.26935" lon="6.17567">
        <ele>2057</ele>
        <time>2016-03-19T09:43:50Z</time>
      </trkpt>
      <trkpt lat="45.26936" lon="6.17564">
        <ele>2057</ele>
        <time>2016-03-19T09:43:55Z</time>
      </trkpt>
      <trkpt lat="45.26938" lon="6.17561">
        <ele>2058</ele>
        <time>2016-03-19T09:44:00Z</time>
      </trkpt>
      <trkpt lat="45.26939" lon="6.17559">
        <ele>2059</ele>
        <time>2016-03-19T09:44:05Z</time>
      </trkpt>
      <trkpt lat="45.2694" lon="6.17556">
        <ele>2059</ele>
        <time>2016-03-19T09:44:10Z</time>
      </trkpt>
      <trkpt lat="45.26942" lon="6.17553">
        <ele>2060</ele>
        <time>2016-03-19T09:44:15Z</time>
      </trkpt>
      <trkpt lat="45.26943" lon="6.17551">
        <ele>2061</ele>
        <time>2016-03-19T09:44:20Z</time>
      </trkpt>
      <trkpt lat="45.26945" lon="6.17548">
        <ele>2061</ele>
        <time>2016-03-19T09:44:25Z</time>
      </trkpt>
      <trkpt lat="45.26946" lon="6.17546">
        <ele>2062</ele>
        <time>2016-03-19T09:44:30Z</time>
      </trkpt>
      <trkpt lat="45.26944" lon="6.17546">
        <ele>2063</ele>
        <time>2016-03-19T09:44:35Z</time>
      </trkpt>
      <trkpt lat="45.26941" lon="6.17545">
        <ele>2063</ele>
        <time>2016-03-19T09:44:40Z</time>
      </trkpt>
      <trkpt lat="45.26939" lon="6.17544">
        <ele>2064</ele>
        <time>2016-03-19T09:44:45Z</time>
      </trkpt>
      <trkpt lat="45.26936" lon="6.17544">
        <ele>2064</ele>
        <time>2016-03-19T09:44:50Z</time>
      </trkpt>
      <trkpt lat="45.26934" lon="6.17544">
        <ele>2065</ele>
        <time>2016-03-19T09:44:55Z</time>
      </trkpt>
      <trkpt lat="45.26931" lon="6.17544">
        <ele>2066</ele>
        <time>2016-03-19T09:45:00Z</time>
      </trkpt>
      <trkpt lat="45.26929" lon="6.17545">
        <ele>2066</ele>
        <time>2016-03-19T09:45:05Z</time>
      </trkpt>
      <trkpt lat="45.26926" lon="6.17546">
        <ele>2067</ele>
        <time>2016-03-19T09:45:10Z</time>
      </trkpt>
      <trkpt lat="45.26924" lon="6.17548">
        <ele>2068</ele>
        <time>2016-03-19T09:45:15Z</time>
      </trkpt>
      <trkpt lat="45.26922" lon="6.17549">
        <ele>2068</ele>
        <time>2016-03-19T09:45:20Z</time>
      </trkpt>
      <trkpt lat="45.26919" lon="6.17549">
        <ele>2068</ele>
        <time>2016-03-19T09:45:25Z</time>
      </trkpt>
      <trkpt lat="45.26916" lon="6.17549">
        <ele>2068</ele>
        <time>2016-03-19T09:45:30Z</time>
      </trkpt>
      <trkpt lat="45.26913" lon="6.17549">
        <ele>2069</ele>
        <time>2016-03-19T09:45:35Z</time>
      </trkpt>
      <trkpt lat="45.2691" lon="6.1755">
        <ele>2070</ele>
        <time>2016-03-19T09:45:40Z</time>
      </trkpt>
      <trkpt lat="45.26908" lon="6.17552">
        <ele>2070</ele>
        <time>2016-03-19T09:45:45Z</time>
      </trkpt>
      <trkpt lat="45.26908" lon="6.17551">
        <ele>2070</ele>
        <time>2016-03-19T09:45:50Z</time>
      </trkpt>
      <trkpt lat="45.26909" lon="6.17547">
        <ele>2071</ele>
        <time>2016-03-19T09:45:55Z</time>
      </trkpt>
      <trkpt lat="45.2691" lon="6.17543">
        <ele>2072</ele>
        <time>2016-03-19T09:46:00Z</time>
      </trkpt>
      <trkpt lat="45.26912" lon="6.17541">
        <ele>2074</ele>
        <time>2016-03-19T09:46:05Z</time>
      </trkpt>
      <trkpt lat="45.26914" lon="6.17538">
        <ele>2076</ele>
        <time>2016-03-19T09:46:10Z</time>
      </trkpt>
      <trkpt lat="45.26916" lon="6.17536">
        <ele>2079</ele>
        <time>2016-03-19T09:46:15Z</time>
      </trkpt>
      <trkpt lat="45.26917" lon="6.17535">
        <ele>2079</ele>
        <time>2016-03-19T09:46:20Z</time>
      </trkpt>
      <trkpt lat="45.26918" lon="6.17532">
        <ele>2080</ele>
        <time>2016-03-19T09:46:25Z</time>
      </trkpt>
      <trkpt lat="45.26919" lon="6.1753">
        <ele>2080</ele>
        <time>2016-03-19T09:46:30Z</time>
      </trkpt>
      <trkpt lat="45.26919" lon="6.17528">
        <ele>2078</ele>
        <time>2016-03-19T09:46:35Z</time>
      </trkpt>
      <trkpt lat="45.26921" lon="6.17526">
        <ele>2078</ele>
        <time>2016-03-19T09:46:40Z</time>
      </trkpt>
      <trkpt lat="45.26922" lon="6.17523">
        <ele>2078</ele>
        <time>2016-03-19T09:46:45Z</time>
      </trkpt>
      <trkpt lat="45.26925" lon="6.1752">
        <ele>2079</ele>
        <time>2016-03-19T09:46:50Z</time>
      </trkpt>
      <trkpt lat="45.26927" lon="6.17518">
        <ele>2081</ele>
        <time>2016-03-19T09:46:55Z</time>
      </trkpt>
      <trkpt lat="45.26929" lon="6.17514">
        <ele>2081</ele>
        <time>2016-03-19T09:47:00Z</time>
      </trkpt>
      <trkpt lat="45.2693" lon="6.17512">
        <ele>2081</ele>
        <time>2016-03-19T09:47:05Z</time>
      </trkpt>
      <trkpt lat="45.26932" lon="6.17509">
        <ele>2081</ele>
        <time>2016-03-19T09:47:10Z</time>
      </trkpt>
      <trkpt lat="45.26935" lon="6.17507">
        <ele>2082</ele>
        <time>2016-03-19T09:47:15Z</time>
      </trkpt>
      <trkpt lat="45.26936" lon="6.17504">
        <ele>2083</ele>
        <time>2016-03-19T09:47:20Z</time>
      </trkpt>
      <trkpt lat="45.26938" lon="6.17501">
        <ele>2083</ele>
        <time>2016-03-19T09:47:25Z</time>
      </trkpt>
      <trkpt lat="45.26939" lon="6.17499">
        <ele>2084</ele>
        <time>2016-03-19T09:47:30Z</time>
      </trkpt>
      <trkpt lat="45.26942" lon="6.17496">
        <ele>2085</ele>
        <time>2016-03-19T09:47:35Z</time>
      </trkpt>
      <trkpt lat="45.26943" lon="6.17493">
        <ele>2086</ele>
        <time>2016-03-19T09:47:40Z</time>
      </trkpt>
      <trkpt lat="45.26945" lon="6.1749">
        <ele>2086</ele>
        <time>2016-03-19T09:47:45Z</time>
      </trkpt>
      <trkpt lat="45.26947" lon="6.17487">
        <ele>2087</ele>
        <time>2016-03-19T09:47:50Z</time>
      </trkpt>
      <trkpt lat="45.26948" lon="6.17485">
        <ele>2088</ele>
        <time>2016-03-19T09:47:55Z</time>
      </trkpt>
      <trkpt lat="45.2695" lon="6.17482">
        <ele>2089</ele>
        <time>2016-03-19T09:48:00Z</time>
      </trkpt>
      <trkpt lat="45.26952" lon="6.17479">
        <ele>2090</ele>
        <time>2016-03-19T09:48:05Z</time>
      </trkpt>
      <trkpt lat="45.26953" lon="6.17476">
        <ele>2090</ele>
        <time>2016-03-19T09:48:10Z</time>
      </trkpt>
      <trkpt lat="45.26954" lon="6.17473">
        <ele>2091</ele>
        <time>2016-03-19T09:48:15Z</time>
      </trkpt>
      <trkpt lat="45.26955" lon="6.1747">
        <ele>2092</ele>
        <time>2016-03-19T09:48:20Z</time>
      </trkpt>
      <trkpt lat="45.26957" lon="6.17467">
        <ele>2092</ele>
        <time>2016-03-19T09:48:25Z</time>
      </trkpt>
      <trkpt lat="45.26958" lon="6.17463">
        <ele>2093</ele>
        <time>2016-03-19T09:48:30Z</time>
      </trkpt>
      <trkpt lat="45.26959" lon="6.1746">
        <ele>2094</ele>
        <time>2016-03-19T09:48:35Z</time>
      </trkpt>
      <trkpt lat="45.26959" lon="6.17456">
        <ele>2094</ele>
        <time>2016-03-19T09:48:40Z</time>
      </trkpt>
      <trkpt lat="45.2696" lon="6.17453">
        <ele>2095</ele>
        <time>2016-03-19T09:48:45Z</time>
      </trkpt>
      <trkpt lat="45.2696" lon="6.17453">
        <ele>2095</ele>
        <time>2016-03-19T09:48:50Z</time>
      </trkpt>
      <trkpt lat="45.2696" lon="6.17453">
        <ele>2095</ele>
        <time>2016-03-19T09:48:55Z</time>
      </trkpt>
      <trkpt lat="45.2696" lon="6.17453">
        <ele>2095</ele>
        <time>2016-03-19T09:49:00Z</time>
      </trkpt>
      <trkpt lat="45.2696" lon="6.17453">
        <ele>2095</ele>
        <time>2016-03-19T09:49:05Z</time>
      </trkpt>
      <trkpt lat="45.2696" lon="6.17453">
        <ele>2095</ele>
        <time>2016-03-19T09:49:10Z</time>
      </trkpt>
      <trkpt lat="45.2696" lon="6.17453">
        <ele>2095</ele>
        <time>2016-03-19T09:49:15Z</time>
      </trkpt>
      <trkpt lat="45.2696" lon="6.17453">
        <ele>2095</ele>
        <time>2016-03-19T09:49:20Z</time>
      </trkpt>
      <trkpt lat="45.26959" lon="6.17453">
        <ele>2095</ele>
        <time>2016-03-19T09:49:25Z</time>
      </trkpt>
      <trkpt lat="45.26959" lon="6.17453">
        <ele>2095</ele>
        <time>2016-03-19T09:49:30Z</time>
      </trkpt>
      <trkpt lat="45.26959" lon="6.17453">
        <ele>2095</ele>
        <time>2016-03-19T09:49:35Z</time>
      </trkpt>
      <trkpt lat="45.2696" lon="6.17453">
        <ele>2095</ele>
        <time>2016-03-19T09:49:40Z</time>
      </trkpt>
      <trkpt lat="45.2696" lon="6.17453">
        <ele>2095</ele>
        <time>2016-03-19T09:49:45Z</time>
      </trkpt>
      <trkpt lat="45.2696" lon="6.17453">
        <ele>2095</ele>
        <time>2016-03-19T09:49:50Z</time>
      </trkpt>
      <trkpt lat="45.2696" lon="6.17453">
        <ele>2096</ele>
        <time>2016-03-19T09:49:55Z</time>
      </trkpt>
      <trkpt lat="45.2696" lon="6.17453">
        <ele>2096</ele>
        <time>2016-03-19T09:50:00Z</time>
      </trkpt>
      <trkpt lat="45.2696" lon="6.17453">
        <ele>2096</ele>
        <time>2016-03-19T09:50:05Z</time>
      </trkpt>
      <trkpt lat="45.2696" lon="6.17453">
        <ele>2096</ele>
        <time>2016-03-19T09:50:10Z</time>
      </trkpt>
      <trkpt lat="45.26961" lon="6.17452">
        <ele>2096</ele>
        <time>2016-03-19T09:56:35Z</time>
      </trkpt>
      <trkpt lat="45.26963" lon="6.17448">
        <ele>2097</ele>
        <time>2016-03-19T09:56:40Z</time>
      </trkpt>
      <trkpt lat="45.26964" lon="6.17444">
        <ele>2099</ele>
        <time>2016-03-19T09:56:45Z</time>
      </trkpt>
      <trkpt lat="45.26964" lon="6.17441">
        <ele>2099</ele>
        <time>2016-03-19T09:56:50Z</time>
      </trkpt>
      <trkpt lat="45.26965" lon="6.17437">
        <ele>2100</ele>
        <time>2016-03-19T09:56:55Z</time>
      </trkpt>
      <trkpt lat="45.26967" lon="6.17433">
        <ele>2101</ele>
        <time>2016-03-19T09:57:00Z</time>
      </trkpt>
      <trkpt lat="45.26968" lon="6.17429">
        <ele>2102</ele>
        <time>2016-03-19T09:57:05Z</time>
      </trkpt>
      <trkpt lat="45.26969" lon="6.17425">
        <ele>2103</ele>
        <time>2016-03-19T09:57:10Z</time>
      </trkpt>
      <trkpt lat="45.2697" lon="6.17421">
        <ele>2103</ele>
        <time>2016-03-19T09:57:15Z</time>
      </trkpt>
      <trkpt lat="45.26971" lon="6.17417">
        <ele>2104</ele>
        <time>2016-03-19T09:57:20Z</time>
      </trkpt>
      <trkpt lat="45.26972" lon="6.17413">
        <ele>2105</ele>
        <time>2016-03-19T09:57:25Z</time>
      </trkpt>
      <trkpt lat="45.26973" lon="6.17409">
        <ele>2106</ele>
        <time>2016-03-19T09:57:30Z</time>
      </trkpt>
      <trkpt lat="45.26975" lon="6.17404">
        <ele>2106</ele>
        <time>2016-03-19T09:57:35Z</time>
      </trkpt>
      <trkpt lat="45.26976" lon="6.174">
        <ele>2107</ele>
        <time>2016-03-19T09:57:40Z</time>
      </trkpt>
      <trkpt lat="45.26977" lon="6.17396">
        <ele>2107</ele>
        <time>2016-03-19T09:57:45Z</time>
      </trkpt>
      <trkpt lat="45.26978" lon="6.17391">
        <ele>2108</ele>
        <time>2016-03-19T09:57:50Z</time>
      </trkpt>
      <trkpt lat="45.2698" lon="6.17386">
        <ele>2108</ele>
        <time>2016-03-19T09:57:55Z</time>
      </trkpt>
      <trkpt lat="45.26981" lon="6.17382">
        <ele>2109</ele>
        <time>2016-03-19T09:58:00Z</time>
      </trkpt>
      <trkpt lat="45.26981" lon="6.17377">
        <ele>2109</ele>
        <time>2016-03-19T09:58:05Z</time>
      </trkpt>
      <trkpt lat="45.26983" lon="6.17373">
        <ele>2110</ele>
        <time>2016-03-19T09:58:10Z</time>
      </trkpt>
      <trkpt lat="45.26984" lon="6.17369">
        <ele>2111</ele>
        <time>2016-03-19T09:58:15Z</time>
      </trkpt>
      <trkpt lat="45.26984" lon="6.17365">
        <ele>2111</ele>
        <time>2016-03-19T09:58:20Z</time>
      </trkpt>
      <trkpt lat="45.26985" lon="6.17361">
        <ele>2112</ele>
        <time>2016-03-19T09:58:25Z</time>
      </trkpt>
      <trkpt lat="45.26986" lon="6.17357">
        <ele>2113</ele>
        <time>2016-03-19T09:58:30Z</time>
      </trkpt>
      <trkpt lat="45.26987" lon="6.17353">
        <ele>2113</ele>
        <time>2016-03-19T09:58:35Z</time>
      </trkpt>
      <trkpt lat="45.26988" lon="6.17349">
        <ele>2114</ele>
        <time>2016-03-19T09:58:40Z</time>
      </trkpt>
      <trkpt lat="45.26989" lon="6.17345">
        <ele>2114</ele>
        <time>2016-03-19T09:58:45Z</time>
      </trkpt>
      <trkpt lat="45.26989" lon="6.17342">
        <ele>2115</ele>
        <time>2016-03-19T09:58:50Z</time>
      </trkpt>
      <trkpt lat="45.26991" lon="6.17338">
        <ele>2116</ele>
        <time>2016-03-19T09:58:55Z</time>
      </trkpt>
      <trkpt lat="45.26991" lon="6.17335">
        <ele>2116</ele>
        <time>2016-03-19T09:59:00Z</time>
      </trkpt>
      <trkpt lat="45.26992" lon="6.17332">
        <ele>2117</ele>
        <time>2016-03-19T09:59:05Z</time>
      </trkpt>
      <trkpt lat="45.26992" lon="6.17328">
        <ele>2117</ele>
        <time>2016-03-19T09:59:10Z</time>
      </trkpt>
      <trkpt lat="45.26993" lon="6.17325">
        <ele>2118</ele>
        <time>2016-03-19T09:59:15Z</time>
      </trkpt>
      <trkpt lat="45.26994" lon="6.17321">
        <ele>2119</ele>
        <time>2016-03-19T09:59:20Z</time>
      </trkpt>
      <trkpt lat="45.26994" lon="6.17318">
        <ele>2120</ele>
        <time>2016-03-19T09:59:25Z</time>
      </trkpt>
      <trkpt lat="45.26995" lon="6.17315">
        <ele>2120</ele>
        <time>2016-03-19T09:59:30Z</time>
      </trkpt>
      <trkpt lat="45.26996" lon="6.17311">
        <ele>2121</ele>
        <time>2016-03-19T09:59:35Z</time>
      </trkpt>
      <trkpt lat="45.26997" lon="6.17308">
        <ele>2122</ele>
        <time>2016-03-19T09:59:40Z</time>
      </trkpt>
      <trkpt lat="45.26997" lon="6.17305">
        <ele>2122</ele>
        <time>2016-03-19T09:59:45Z</time>
      </trkpt>
      <trkpt lat="45.26997" lon="6.17302">
        <ele>2123</ele>
        <time>2016-03-19T09:59:50Z</time>
      </trkpt>
      <trkpt lat="45.26998" lon="6.17299">
        <ele>2124</ele>
        <time>2016-03-19T09:59:55Z</time>
      </trkpt>
      <trkpt lat="45.26999" lon="6.17296">
        <ele>2124</ele>
        <time>2016-03-19T10:00:00Z</time>
      </trkpt>
      <trkpt lat="45.26999" lon="6.17293">
        <ele>2125</ele>
        <time>2016-03-19T10:00:05Z</time>
      </trkpt>
      <trkpt lat="45.26999" lon="6.1729">
        <ele>2126</ele>
        <time>2016-03-19T10:00:10Z</time>
      </trkpt>
      <trkpt lat="45.27" lon="6.17287">
        <ele>2126</ele>
        <time>2016-03-19T10:00:15Z</time>
      </trkpt>
      <trkpt lat="45.27001" lon="6.17284">
        <ele>2127</ele>
        <time>2016-03-19T10:00:20Z</time>
      </trkpt>
      <trkpt lat="45.27001" lon="6.17281">
        <ele>2127</ele>
        <time>2016-03-19T10:00:25Z</time>
      </trkpt>
      <trkpt lat="45.27001" lon="6.17278">
        <ele>2128</ele>
        <time>2016-03-19T10:00:30Z</time>
      </trkpt>
      <trkpt lat="45.27001" lon="6.17275">
        <ele>2129</ele>
        <time>2016-03-19T10:00:35Z</time>
      </trkpt>
      <trkpt lat="45.27002" lon="6.17272">
        <ele>2129</ele>
        <time>2016-03-19T10:00:40Z</time>
      </trkpt>
      <trkpt lat="45.27002" lon="6.17269">
        <ele>2130</ele>
        <time>2016-03-19T10:00:45Z</time>
      </trkpt>
      <trkpt lat="45.27003" lon="6.17267">
        <ele>2130</ele>
        <time>2016-03-19T10:00:50Z</time>
      </trkpt>
      <trkpt lat="45.27003" lon="6.17264">
        <ele>2131</ele>
        <time>2016-03-19T10:00:55Z</time>
      </trkpt>
      <trkpt lat="45.27004" lon="6.17261">
        <ele>2131</ele>
        <time>2016-03-19T10:01:00Z</time>
      </trkpt>
      <trkpt lat="45.27004" lon="6.17258">
        <ele>2132</ele>
        <time>2016-03-19T10:01:05Z</time>
      </trkpt>
      <trkpt lat="45.27004" lon="6.17255">
        <ele>2132</ele>
        <time>2016-03-19T10:01:10Z</time>
      </trkpt>
      <trkpt lat="45.27005" lon="6.17252">
        <ele>2133</ele>
        <time>2016-03-19T10:01:15Z</time>
      </trkpt>
      <trkpt lat="45.27005" lon="6.17249">
        <ele>2134</ele>
        <time>2016-03-19T10:01:20Z</time>
      </trkpt>
      <trkpt lat="45.27006" lon="6.17246">
        <ele>2134</ele>
        <time>2016-03-19T10:01:25Z</time>
      </trkpt>
      <trkpt lat="45.27006" lon="6.17242">
        <ele>2135</ele>
        <time>2016-03-19T10:01:30Z</time>
      </trkpt>
      <trkpt lat="45.27007" lon="6.17239">
        <ele>2136</ele>
        <time>2016-03-19T10:01:35Z</time>
      </trkpt>
      <trkpt lat="45.27007" lon="6.17236">
        <ele>2136</ele>
        <time>2016-03-19T10:01:40Z</time>
      </trkpt>
      <trkpt lat="45.27007" lon="6.17233">
        <ele>2137</ele>
        <time>2016-03-19T10:01:45Z</time>
      </trkpt>
      <trkpt lat="45.27007" lon="6.1723">
        <ele>2138</ele>
        <time>2016-03-19T10:01:50Z</time>
      </trkpt>
      <trkpt lat="45.27008" lon="6.17227">
        <ele>2138</ele>
        <time>2016-03-19T10:01:55Z</time>
      </trkpt>
      <trkpt lat="45.27008" lon="6.17224">
        <ele>2139</ele>
        <time>2016-03-19T10:02:00Z</time>
      </trkpt>
      <trkpt lat="45.27008" lon="6.17221">
        <ele>2140</ele>
        <time>2016-03-19T10:02:05Z</time>
      </trkpt>
      <trkpt lat="45.27008" lon="6.17218">
        <ele>2140</ele>
        <time>2016-03-19T10:02:10Z</time>
      </trkpt>
      <trkpt lat="45.27008" lon="6.17215">
        <ele>2141</ele>
        <time>2016-03-19T10:02:15Z</time>
      </trkpt>
      <trkpt lat="45.27008" lon="6.17212">
        <ele>2142</ele>
        <time>2016-03-19T10:02:20Z</time>
      </trkpt>
      <trkpt lat="45.27009" lon="6.17209">
        <ele>2143</ele>
        <time>2016-03-19T10:02:25Z</time>
      </trkpt>
      <trkpt lat="45.27009" lon="6.17207">
        <ele>2143</ele>
        <time>2016-03-19T10:02:30Z</time>
      </trkpt>
      <trkpt lat="45.2701" lon="6.17204">
        <ele>2144</ele>
        <time>2016-03-19T10:02:35Z</time>
      </trkpt>
      <trkpt lat="45.2701" lon="6.17202">
        <ele>2145</ele>
        <time>2016-03-19T10:02:40Z</time>
      </trkpt>
      <trkpt lat="45.27011" lon="6.17199">
        <ele>2146</ele>
        <time>2016-03-19T10:02:45Z</time>
      </trkpt>
      <trkpt lat="45.27012" lon="6.17197">
        <ele>2146</ele>
        <time>2016-03-19T10:02:50Z</time>
      </trkpt>
      <trkpt lat="45.27013" lon="6.17195">
        <ele>2147</ele>
        <time>2016-03-19T10:02:55Z</time>
      </trkpt>
      <trkpt lat="45.27013" lon="6.17192">
        <ele>2148</ele>
        <time>2016-03-19T10:03:00Z</time>
      </trkpt>
      <trkpt lat="45.27013" lon="6.17189">
        <ele>2149</ele>
        <time>2016-03-19T10:03:05Z</time>
      </trkpt>
      <trkpt lat="45.27014" lon="6.17187">
        <ele>2150</ele>
        <time>2016-03-19T10:03:10Z</time>
      </trkpt>
      <trkpt lat="45.27015" lon="6.17184">
        <ele>2150</ele>
        <time>2016-03-19T10:03:15Z</time>
      </trkpt>
      <trkpt lat="45.27015" lon="6.17181">
        <ele>2151</ele>
        <time>2016-03-19T10:03:20Z</time>
      </trkpt>
      <trkpt lat="45.27016" lon="6.17178">
        <ele>2152</ele>
        <time>2016-03-19T10:03:25Z</time>
      </trkpt>
      <trkpt lat="45.27017" lon="6.17175">
        <ele>2153</ele>
        <time>2016-03-19T10:03:30Z</time>
      </trkpt>
      <trkpt lat="45.27016" lon="6.17172">
        <ele>2154</ele>
        <time>2016-03-19T10:03:35Z</time>
      </trkpt>
      <trkpt lat="45.27015" lon="6.17169">
        <ele>2154</ele>
        <time>2016-03-19T10:03:40Z</time>
      </trkpt>
      <trkpt lat="45.27014" lon="6.17167">
        <ele>2155</ele>
        <time>2016-03-19T10:03:45Z</time>
      </trkpt>
      <trkpt lat="45.27013" lon="6.17164">
        <ele>2156</ele>
        <time>2016-03-19T10:03:50Z</time>
      </trkpt>
      <trkpt lat="45.27012" lon="6.17162">
        <ele>2156</ele>
        <time>2016-03-19T10:03:55Z</time>
      </trkpt>
      <trkpt lat="45.27011" lon="6.17159">
        <ele>2157</ele>
        <time>2016-03-19T10:04:00Z</time>
      </trkpt>
      <trkpt lat="45.2701" lon="6.17157">
        <ele>2158</ele>
        <time>2016-03-19T10:04:05Z</time>
      </trkpt>
      <trkpt lat="45.27009" lon="6.17154">
        <ele>2159</ele>
        <time>2016-03-19T10:04:10Z</time>
      </trkpt>
      <trkpt lat="45.27007" lon="6.17152">
        <ele>2160</ele>
        <time>2016-03-19T10:04:15Z</time>
      </trkpt>
      <trkpt lat="45.27006" lon="6.1715">
        <ele>2161</ele>
        <time>2016-03-19T10:04:20Z</time>
      </trkpt>
      <trkpt lat="45.27004" lon="6.17148">
        <ele>2162</ele>
        <time>2016-03-19T10:04:25Z</time>
      </trkpt>
      <trkpt lat="45.27003" lon="6.17145">
        <ele>2162</ele>
        <time>2016-03-19T10:04:30Z</time>
      </trkpt>
      <trkpt lat="45.27002" lon="6.17143">
        <ele>2163</ele>
        <time>2016-03-19T10:04:35Z</time>
      </trkpt>
      <trkpt lat="45.27001" lon="6.17141">
        <ele>2164</ele>
        <time>2016-03-19T10:04:40Z</time>
      </trkpt>
      <trkpt lat="45.27" lon="6.1714">
        <ele>2165</ele>
        <time>2016-03-19T10:04:45Z</time>
      </trkpt>
      <trkpt lat="45.26999" lon="6.17138">
        <ele>2165</ele>
        <time>2016-03-19T10:04:50Z</time>
      </trkpt>
      <trkpt lat="45.26997" lon="6.17136">
        <ele>2166</ele>
        <time>2016-03-19T10:04:55Z</time>
      </trkpt>
      <trkpt lat="45.26996" lon="6.17134">
        <ele>2167</ele>
        <time>2016-03-19T10:05:00Z</time>
      </trkpt>
      <trkpt lat="45.26995" lon="6.17132">
        <ele>2167</ele>
        <time>2016-03-19T10:05:05Z</time>
      </trkpt>
      <trkpt lat="45.26994" lon="6.1713">
        <ele>2168</ele>
        <time>2016-03-19T10:05:10Z</time>
      </trkpt>
      <trkpt lat="45.26992" lon="6.17127">
        <ele>2169</ele>
        <time>2016-03-19T10:05:15Z</time>
      </trkpt>
      <trkpt lat="45.26991" lon="6.17125">
        <ele>2170</ele>
        <time>2016-03-19T10:05:20Z</time>
      </trkpt>
      <trkpt lat="45.26991" lon="6.17124">
        <ele>2170</ele>
        <time>2016-03-19T10:05:25Z</time>
      </trkpt>
      <trkpt lat="45.26991" lon="6.17123">
        <ele>2170</ele>
        <time>2016-03-19T10:05:30Z</time>
      </trkpt>
      <trkpt lat="45.26989" lon="6.17121">
        <ele>2171</ele>
        <time>2016-03-19T10:05:35Z</time>
      </trkpt>
      <trkpt lat="45.26989" lon="6.17119">
        <ele>2171</ele>
        <time>2016-03-19T10:05:40Z</time>
      </trkpt>
      <trkpt lat="45.26988" lon="6.17118">
        <ele>2172</ele>
        <time>2016-03-19T10:05:45Z</time>
      </trkpt>
      <trkpt lat="45.26987" lon="6.17115">
        <ele>2173</ele>
        <time>2016-03-19T10:05:50Z</time>
      </trkpt>
      <trkpt lat="45.26986" lon="6.17113">
        <ele>2173</ele>
        <time>2016-03-19T10:05:55Z</time>
      </trkpt>
      <trkpt lat="45.26985" lon="6.1711">
        <ele>2174</ele>
        <time>2016-03-19T10:06:00Z</time>
      </trkpt>
      <trkpt lat="45.26984" lon="6.17108">
        <ele>2175</ele>
        <time>2016-03-19T10:06:05Z</time>
      </trkpt>
      <trkpt lat="45.26984" lon="6.17107">
        <ele>2175</ele>
        <time>2016-03-19T10:06:10Z</time>
      </trkpt>
      <trkpt lat="45.26982" lon="6.17106">
        <ele>2175</ele>
        <time>2016-03-19T10:06:15Z</time>
      </trkpt>
      <trkpt lat="45.26981" lon="6.17107">
        <ele>2176</ele>
        <time>2016-03-19T10:06:20Z</time>
      </trkpt>
      <trkpt lat="45.26979" lon="6.17108">
        <ele>2176</ele>
        <time>2016-03-19T10:06:25Z</time>
      </trkpt>
      <trkpt lat="45.26977" lon="6.17109">
        <ele>2177</ele>
        <time>2016-03-19T10:06:30Z</time>
      </trkpt>
      <trkpt lat="45.26975" lon="6.1711">
        <ele>2177</ele>
        <time>2016-03-19T10:06:35Z</time>
      </trkpt>
      <trkpt lat="45.26972" lon="6.17111">
        <ele>2178</ele>
        <time>2016-03-19T10:06:40Z</time>
      </trkpt>
      <trkpt lat="45.2697" lon="6.17111">
        <ele>2179</ele>
        <time>2016-03-19T10:06:45Z</time>
      </trkpt>
      <trkpt lat="45.26968" lon="6.17111">
        <ele>2179</ele>
        <time>2016-03-19T10:06:50Z</time>
      </trkpt>
      <trkpt lat="45.26965" lon="6.17111">
        <ele>2180</ele>
        <time>2016-03-19T10:06:55Z</time>
      </trkpt>
      <trkpt lat="45.26963" lon="6.17112">
        <ele>2181</ele>
        <time>2016-03-19T10:07:00Z</time>
      </trkpt>
      <trkpt lat="45.26961" lon="6.17112">
        <ele>2182</ele>
        <time>2016-03-19T10:07:05Z</time>
      </trkpt>
      <trkpt lat="45.26959" lon="6.17113">
        <ele>2182</ele>
        <time>2016-03-19T10:07:10Z</time>
      </trkpt>
      <trkpt lat="45.26956" lon="6.17114">
        <ele>2183</ele>
        <time>2016-03-19T10:07:15Z</time>
      </trkpt>
      <trkpt lat="45.26954" lon="6.17115">
        <ele>2183</ele>
        <time>2016-03-19T10:07:20Z</time>
      </trkpt>
      <trkpt lat="45.26953" lon="6.17115">
        <ele>2183</ele>
        <time>2016-03-19T10:07:25Z</time>
      </trkpt>
      <trkpt lat="45.26954" lon="6.17113">
        <ele>2183</ele>
        <time>2016-03-19T10:07:30Z</time>
      </trkpt>
      <trkpt lat="45.26954" lon="6.1711">
        <ele>2184</ele>
        <time>2016-03-19T10:07:35Z</time>
      </trkpt>
      <trkpt lat="45.26954" lon="6.17107">
        <ele>2184</ele>
        <time>2016-03-19T10:07:40Z</time>
      </trkpt>
      <trkpt lat="45.26955" lon="6.17104">
        <ele>2185</ele>
        <time>2016-03-19T10:07:45Z</time>
      </trkpt>
      <trkpt lat="45.26955" lon="6.17101">
        <ele>2186</ele>
        <time>2016-03-19T10:07:50Z</time>
      </trkpt>
      <trkpt lat="45.26955" lon="6.17098">
        <ele>2186</ele>
        <time>2016-03-19T10:07:55Z</time>
      </trkpt>
      <trkpt lat="45.26956" lon="6.17094">
        <ele>2187</ele>
        <time>2016-03-19T10:08:00Z</time>
      </trkpt>
      <trkpt lat="45.26956" lon="6.17091">
        <ele>2188</ele>
        <time>2016-03-19T10:08:05Z</time>
      </trkpt>
      <trkpt lat="45.26957" lon="6.17087">
        <ele>2188</ele>
        <time>2016-03-19T10:08:10Z</time>
      </trkpt>
      <trkpt lat="45.26957" lon="6.17084">
        <ele>2189</ele>
        <time>2016-03-19T10:08:15Z</time>
      </trkpt>
      <trkpt lat="45.26957" lon="6.17082">
        <ele>2190</ele>
        <time>2016-03-19T10:08:20Z</time>
      </trkpt>
      <trkpt lat="45.26956" lon="6.17083">
        <ele>2191</ele>
        <time>2016-03-19T10:08:25Z</time>
      </trkpt>
      <trkpt lat="45.26954" lon="6.17085">
        <ele>2192</ele>
        <time>2016-03-19T10:08:30Z</time>
      </trkpt>
      <trkpt lat="45.26951" lon="6.17086">
        <ele>2193</ele>
        <time>2016-03-19T10:08:35Z</time>
      </trkpt>
      <trkpt lat="45.26949" lon="6.17086">
        <ele>2194</ele>
        <time>2016-03-19T10:08:40Z</time>
      </trkpt>
      <trkpt lat="45.26946" lon="6.17088">
        <ele>2195</ele>
        <time>2016-03-19T10:08:45Z</time>
      </trkpt>
      <trkpt lat="45.26944" lon="6.17089">
        <ele>2196</ele>
        <time>2016-03-19T10:08:50Z</time>
      </trkpt>
      <trkpt lat="45.26942" lon="6.17091">
        <ele>2198</ele>
        <time>2016-03-19T10:08:55Z</time>
      </trkpt>
      <trkpt lat="45.2694" lon="6.17092">
        <ele>2199</ele>
        <time>2016-03-19T10:09:00Z</time>
      </trkpt>
      <trkpt lat="45.26938" lon="6.17094">
        <ele>2200</ele>
        <time>2016-03-19T10:09:05Z</time>
      </trkpt>
      <trkpt lat="45.26936" lon="6.17095">
        <ele>2200</ele>
        <time>2016-03-19T10:09:10Z</time>
      </trkpt>
      <trkpt lat="45.26934" lon="6.17097">
        <ele>2201</ele>
        <time>2016-03-19T10:09:15Z</time>
      </trkpt>
      <trkpt lat="45.26932" lon="6.17099">
        <ele>2201</ele>
        <time>2016-03-19T10:09:20Z</time>
      </trkpt>
      <trkpt lat="45.2693" lon="6.171">
        <ele>2202</ele>
        <time>2016-03-19T10:09:25Z</time>
      </trkpt>
      <trkpt lat="45.26928" lon="6.17101">
        <ele>2203</ele>
        <time>2016-03-19T10:09:30Z</time>
      </trkpt>
      <trkpt lat="45.26925" lon="6.17102">
        <ele>2203</ele>
        <time>2016-03-19T10:09:35Z</time>
      </trkpt>
      <trkpt lat="45.26923" lon="6.17102">
        <ele>2204</ele>
        <time>2016-03-19T10:09:40Z</time>
      </trkpt>
      <trkpt lat="45.26922" lon="6.17103">
        <ele>2204</ele>
        <time>2016-03-19T10:09:45Z</time>
      </trkpt>
      <trkpt lat="45.26919" lon="6.17103">
        <ele>2205</ele>
        <time>2016-03-19T10:09:50Z</time>
      </trkpt>
      <trkpt lat="45.26917" lon="6.17104">
        <ele>2206</ele>
        <time>2016-03-19T10:09:55Z</time>
      </trkpt>
      <trkpt lat="45.26917" lon="6.17101">
        <ele>2207</ele>
        <time>2016-03-19T10:10:00Z</time>
      </trkpt>
      <trkpt lat="45.26917" lon="6.17099">
        <ele>2208</ele>
        <time>2016-03-19T10:10:05Z</time>
      </trkpt>
      <trkpt lat="45.26918" lon="6.17095">
        <ele>2208</ele>
        <time>2016-03-19T10:10:10Z</time>
      </trkpt>
      <trkpt lat="45.26918" lon="6.17093">
        <ele>2209</ele>
        <time>2016-03-19T10:10:15Z</time>
      </trkpt>
      <trkpt lat="45.26919" lon="6.17089">
        <ele>2209</ele>
        <time>2016-03-19T10:10:20Z</time>
      </trkpt>
      <trkpt lat="45.2692" lon="6.17086">
        <ele>2209</ele>
        <time>2016-03-19T10:10:25Z</time>
      </trkpt>
      <trkpt lat="45.2692" lon="6.17083">
        <ele>2210</ele>
        <time>2016-03-19T10:10:30Z</time>
      </trkpt>
      <trkpt lat="45.26921" lon="6.1708">
        <ele>2210</ele>
        <time>2016-03-19T10:10:35Z</time>
      </trkpt>
      <trkpt lat="45.26921" lon="6.17077">
        <ele>2211</ele>
        <time>2016-03-19T10:10:40Z</time>
      </trkpt>
      <trkpt lat="45.26922" lon="6.17073">
        <ele>2211</ele>
        <time>2016-03-19T10:10:45Z</time>
      </trkpt>
      <trkpt lat="45.26922" lon="6.1707">
        <ele>2212</ele>
        <time>2016-03-19T10:10:50Z</time>
      </trkpt>
      <trkpt lat="45.26922" lon="6.17067">
        <ele>2212</ele>
        <time>2016-03-19T10:10:55Z</time>
      </trkpt>
      <trkpt lat="45.26922" lon="6.17063">
        <ele>2213</ele>
        <time>2016-03-19T10:11:00Z</time>
      </trkpt>
      <trkpt lat="45.26922" lon="6.1706">
        <ele>2214</ele>
        <time>2016-03-19T10:11:05Z</time>
      </trkpt>
      <trkpt lat="45.26922" lon="6.17058">
        <ele>2214</ele>
        <time>2016-03-19T10:11:10Z</time>
      </trkpt>
      <trkpt lat="45.2692" lon="6.1706">
        <ele>2215</ele>
        <time>2016-03-19T10:11:15Z</time>
      </trkpt>
      <trkpt lat="45.26918" lon="6.17061">
        <ele>2216</ele>
        <time>2016-03-19T10:11:20Z</time>
      </trkpt>
      <trkpt lat="45.26916" lon="6.17062">
        <ele>2216</ele>
        <time>2016-03-19T10:11:25Z</time>
      </trkpt>
      <trkpt lat="45.26914" lon="6.17063">
        <ele>2217</ele>
        <time>2016-03-19T10:11:30Z</time>
      </trkpt>
      <trkpt lat="45.26912" lon="6.17064">
        <ele>2218</ele>
        <time>2016-03-19T10:11:35Z</time>
      </trkpt>
      <trkpt lat="45.26909" lon="6.17065">
        <ele>2218</ele>
        <time>2016-03-19T10:11:40Z</time>
      </trkpt>
      <trkpt lat="45.26907" lon="6.17065">
        <ele>2219</ele>
        <time>2016-03-19T10:11:45Z</time>
      </trkpt>
      <trkpt lat="45.26906" lon="6.17066">
        <ele>2219</ele>
        <time>2016-03-19T10:11:50Z</time>
      </trkpt>
      <trkpt lat="45.26903" lon="6.17067">
        <ele>2220</ele>
        <time>2016-03-19T10:11:55Z</time>
      </trkpt>
      <trkpt lat="45.26901" lon="6.17068">
        <ele>2221</ele>
        <time>2016-03-19T10:12:00Z</time>
      </trkpt>
      <trkpt lat="45.26899" lon="6.17068">
        <ele>2222</ele>
        <time>2016-03-19T10:12:05Z</time>
      </trkpt>
      <trkpt lat="45.26897" lon="6.17069">
        <ele>2222</ele>
        <time>2016-03-19T10:12:10Z</time>
      </trkpt>
      <trkpt lat="45.26895" lon="6.1707">
        <ele>2223</ele>
        <time>2016-03-19T10:12:15Z</time>
      </trkpt>
      <trkpt lat="45.26895" lon="6.17069">
        <ele>2223</ele>
        <time>2016-03-19T10:12:20Z</time>
      </trkpt>
      <trkpt lat="45.26896" lon="6.17066">
        <ele>2224</ele>
        <time>2016-03-19T10:12:25Z</time>
      </trkpt>
      <trkpt lat="45.26896" lon="6.17064">
        <ele>2224</ele>
        <time>2016-03-19T10:12:30Z</time>
      </trkpt>
      <trkpt lat="45.26897" lon="6.17061">
        <ele>2225</ele>
        <time>2016-03-19T10:12:35Z</time>
      </trkpt>
      <trkpt lat="45.26898" lon="6.17058">
        <ele>2226</ele>
        <time>2016-03-19T10:12:40Z</time>
      </trkpt>
      <trkpt lat="45.26899" lon="6.17055">
        <ele>2226</ele>
        <time>2016-03-19T10:12:45Z</time>
      </trkpt>
      <trkpt lat="45.26899" lon="6.17052">
        <ele>2227</ele>
        <time>2016-03-19T10:12:50Z</time>
      </trkpt>
      <trkpt lat="45.269" lon="6.17049">
        <ele>2228</ele>
        <time>2016-03-19T10:12:55Z</time>
      </trkpt>
      <trkpt lat="45.26901" lon="6.17046">
        <ele>2228</ele>
        <time>2016-03-19T10:13:00Z</time>
      </trkpt>
      <trkpt lat="45.26902" lon="6.17043">
        <ele>2229</ele>
        <time>2016-03-19T10:13:05Z</time>
      </trkpt>
      <trkpt lat="45.26902" lon="6.1704">
        <ele>2230</ele>
        <time>2016-03-19T10:13:10Z</time>
      </trkpt>
      <trkpt lat="45.26903" lon="6.17037">
        <ele>2230</ele>
        <time>2016-03-19T10:13:15Z</time>
      </trkpt>
      <trkpt lat="45.26904" lon="6.17034">
        <ele>2231</ele>
        <time>2016-03-19T10:13:20Z</time>
      </trkpt>
      <trkpt lat="45.26905" lon="6.17031">
        <ele>2232</ele>
        <time>2016-03-19T10:13:25Z</time>
      </trkpt>
      <trkpt lat="45.26905" lon="6.17031">
        <ele>2232</ele>
        <time>2016-03-19T10:13:30Z</time>
      </trkpt>
      <trkpt lat="45.26906" lon="6.17028">
        <ele>2232</ele>
        <time>2016-03-19T10:13:35Z</time>
      </trkpt>
      <trkpt lat="45.26907" lon="6.17025">
        <ele>2233</ele>
        <time>2016-03-19T10:13:40Z</time>
      </trkpt>
      <trkpt lat="45.26908" lon="6.17023">
        <ele>2234</ele>
        <time>2016-03-19T10:13:45Z</time>
      </trkpt>
      <trkpt lat="45.26909" lon="6.1702">
        <ele>2234</ele>
        <time>2016-03-19T10:13:50Z</time>
      </trkpt>
      <trkpt lat="45.2691" lon="6.17017">
        <ele>2235</ele>
        <time>2016-03-19T10:13:55Z</time>
      </trkpt>
      <trkpt lat="45.26911" lon="6.17014">
        <ele>2236</ele>
        <time>2016-03-19T10:14:00Z</time>
      </trkpt>
      <trkpt lat="45.26912" lon="6.17011">
        <ele>2237</ele>
        <time>2016-03-19T10:14:05Z</time>
      </trkpt>
      <trkpt lat="45.26914" lon="6.17008">
        <ele>2237</ele>
        <time>2016-03-19T10:14:10Z</time>
      </trkpt>
      <trkpt lat="45.26915" lon="6.17005">
        <ele>2238</ele>
        <time>2016-03-19T10:14:15Z</time>
      </trkpt>
      <trkpt lat="45.26916" lon="6.17002">
        <ele>2239</ele>
        <time>2016-03-19T10:14:20Z</time>
      </trkpt>
      <trkpt lat="45.26917" lon="6.17">
        <ele>2239</ele>
        <time>2016-03-19T10:14:25Z</time>
      </trkpt>
      <trkpt lat="45.26916" lon="6.17">
        <ele>2239</ele>
        <time>2016-03-19T10:14:30Z</time>
      </trkpt>
      <trkpt lat="45.26913" lon="6.17003">
        <ele>2240</ele>
        <time>2016-03-19T10:14:35Z</time>
      </trkpt>
      <trkpt lat="45.26911" lon="6.17004">
        <ele>2240</ele>
        <time>2016-03-19T10:14:40Z</time>
      </trkpt>
      <trkpt lat="45.2691" lon="6.17004">
        <ele>2240</ele>
        <time>2016-03-19T10:14:45Z</time>
      </trkpt>
      <trkpt lat="45.26909" lon="6.17004">
        <ele>2241</ele>
        <time>2016-03-19T10:14:50Z</time>
      </trkpt>
      <trkpt lat="45.26909" lon="6.17004">
        <ele>2241</ele>
        <time>2016-03-19T10:14:55Z</time>
      </trkpt>
      <trkpt lat="45.26909" lon="6.17004">
        <ele>2241</ele>
        <time>2016-03-19T10:15:00Z</time>
      </trkpt>
      <trkpt lat="45.26909" lon="6.17004">
        <ele>2241</ele>
        <time>2016-03-19T10:15:05Z</time>
      </trkpt>
      <trkpt lat="45.26906" lon="6.17004">
        <ele>2242</ele>
        <time>2016-03-19T10:15:10Z</time>
      </trkpt>
      <trkpt lat="45.26904" lon="6.17004">
        <ele>2243</ele>
        <time>2016-03-19T10:15:15Z</time>
      </trkpt>
      <trkpt lat="45.26901" lon="6.17004">
        <ele>2243</ele>
        <time>2016-03-19T10:15:20Z</time>
      </trkpt>
      <trkpt lat="45.26899" lon="6.17004">
        <ele>2244</ele>
        <time>2016-03-19T10:15:25Z</time>
      </trkpt>
      <trkpt lat="45.26897" lon="6.17005">
        <ele>2245</ele>
        <time>2016-03-19T10:15:30Z</time>
      </trkpt>
      <trkpt lat="45.26894" lon="6.17005">
        <ele>2246</ele>
        <time>2016-03-19T10:15:35Z</time>
      </trkpt>
      <trkpt lat="45.26892" lon="6.17006">
        <ele>2247</ele>
        <time>2016-03-19T10:15:40Z</time>
      </trkpt>
      <trkpt lat="45.26892" lon="6.17006">
        <ele>2247</ele>
        <time>2016-03-19T10:15:45Z</time>
      </trkpt>
      <trkpt lat="45.2689" lon="6.17003">
        <ele>2248</ele>
        <time>2016-03-19T10:22:45Z</time>
      </trkpt>
      <trkpt lat="45.2689" lon="6.17003">
        <ele>2247</ele>
        <time>2016-03-19T10:22:50Z</time>
      </trkpt>
      <trkpt lat="45.26891" lon="6.17003">
        <ele>2248</ele>
        <time>2016-03-19T10:22:55Z</time>
      </trkpt>
      <trkpt lat="45.26891" lon="6.17002">
        <ele>2248</ele>
        <time>2016-03-19T10:23:00Z</time>
      </trkpt>
      <trkpt lat="45.26892" lon="6.16999">
        <ele>2248</ele>
        <time>2016-03-19T10:23:05Z</time>
      </trkpt>
      <trkpt lat="45.26893" lon="6.16996">
        <ele>2248</ele>
        <time>2016-03-19T10:23:10Z</time>
      </trkpt>
      <trkpt lat="45.26894" lon="6.16992">
        <ele>2249</ele>
        <time>2016-03-19T10:23:15Z</time>
      </trkpt>
      <trkpt lat="45.26895" lon="6.16989">
        <ele>2250</ele>
        <time>2016-03-19T10:23:20Z</time>
      </trkpt>
      <trkpt lat="45.26896" lon="6.16985">
        <ele>2250</ele>
        <time>2016-03-19T10:23:25Z</time>
      </trkpt>
      <trkpt lat="45.26898" lon="6.16981">
        <ele>2251</ele>
        <time>2016-03-19T10:23:30Z</time>
      </trkpt>
      <trkpt lat="45.26899" lon="6.16977">
        <ele>2252</ele>
        <time>2016-03-19T10:23:35Z</time>
      </trkpt>
      <trkpt lat="45.26899" lon="6.16974">
        <ele>2252</ele>
        <time>2016-03-19T10:23:40Z</time>
      </trkpt>
      <trkpt lat="45.269" lon="6.1697">
        <ele>2253</ele>
        <time>2016-03-19T10:23:45Z</time>
      </trkpt>
      <trkpt lat="45.26901" lon="6.16967">
        <ele>2254</ele>
        <time>2016-03-19T10:23:50Z</time>
      </trkpt>
      <trkpt lat="45.26902" lon="6.16963">
        <ele>2254</ele>
        <time>2016-03-19T10:23:55Z</time>
      </trkpt>
      <trkpt lat="45.26902" lon="6.16959">
        <ele>2255</ele>
        <time>2016-03-19T10:24:00Z</time>
      </trkpt>
      <trkpt lat="45.26903" lon="6.16956">
        <ele>2256</ele>
        <time>2016-03-19T10:24:05Z</time>
      </trkpt>
      <trkpt lat="45.26904" lon="6.16952">
        <ele>2257</ele>
        <time>2016-03-19T10:24:10Z</time>
      </trkpt>
      <trkpt lat="45.26904" lon="6.1695">
        <ele>2257</ele>
        <time>2016-03-19T10:24:15Z</time>
      </trkpt>
      <trkpt lat="45.26901" lon="6.16951">
        <ele>2258</ele>
        <time>2016-03-19T10:24:20Z</time>
      </trkpt>
      <trkpt lat="45.26899" lon="6.16951">
        <ele>2259</ele>
        <time>2016-03-19T10:24:25Z</time>
      </trkpt>
      <trkpt lat="45.26896" lon="6.16952">
        <ele>2260</ele>
        <time>2016-03-19T10:24:30Z</time>
      </trkpt>
      <trkpt lat="45.26894" lon="6.16953">
        <ele>2260</ele>
        <time>2016-03-19T10:24:35Z</time>
      </trkpt>
      <trkpt lat="45.26891" lon="6.16954">
        <ele>2261</ele>
        <time>2016-03-19T10:24:40Z</time>
      </trkpt>
      <trkpt lat="45.26889" lon="6.16955">
        <ele>2262</ele>
        <time>2016-03-19T10:24:45Z</time>
      </trkpt>
      <trkpt lat="45.26887" lon="6.16956">
        <ele>2263</ele>
        <time>2016-03-19T10:24:50Z</time>
      </trkpt>
      <trkpt lat="45.26885" lon="6.16957">
        <ele>2264</ele>
        <time>2016-03-19T10:24:55Z</time>
      </trkpt>
      <trkpt lat="45.26884" lon="6.16956">
        <ele>2264</ele>
        <time>2016-03-19T10:25:00Z</time>
      </trkpt>
      <trkpt lat="45.26885" lon="6.16953">
        <ele>2265</ele>
        <time>2016-03-19T10:25:05Z</time>
      </trkpt>
      <trkpt lat="45.26885" lon="6.16949">
        <ele>2266</ele>
        <time>2016-03-19T10:25:10Z</time>
      </trkpt>
      <trkpt lat="45.26885" lon="6.16946">
        <ele>2266</ele>
        <time>2016-03-19T10:25:15Z</time>
      </trkpt>
      <trkpt lat="45.26885" lon="6.16942">
        <ele>2267</ele>
        <time>2016-03-19T10:25:20Z</time>
      </trkpt>
      <trkpt lat="45.26885" lon="6.16942">
        <ele>2267</ele>
        <time>2016-03-19T10:25:25Z</time>
      </trkpt>
      <trkpt lat="45.26885" lon="6.16943">
        <ele>2268</ele>
        <time>2016-03-19T10:25:30Z</time>
      </trkpt>
      <trkpt lat="45.26885" lon="6.16943">
        <ele>2268</ele>
        <time>2016-03-19T10:25:35Z</time>
      </trkpt>
      <trkpt lat="45.26886" lon="6.16942">
        <ele>2269</ele>
        <time>2016-03-19T10:25:40Z</time>
      </trkpt>
      <trkpt lat="45.26886" lon="6.16938">
        <ele>2270</ele>
        <time>2016-03-19T10:25:45Z</time>
      </trkpt>
      <trkpt lat="45.26886" lon="6.16934">
        <ele>2270</ele>
        <time>2016-03-19T10:25:50Z</time>
      </trkpt>
      <trkpt lat="45.26887" lon="6.16931">
        <ele>2271</ele>
        <time>2016-03-19T10:25:55Z</time>
      </trkpt>
      <trkpt lat="45.26888" lon="6.16927">
        <ele>2272</ele>
        <time>2016-03-19T10:26:00Z</time>
      </trkpt>
      <trkpt lat="45.26889" lon="6.16924">
        <ele>2272</ele>
        <time>2016-03-19T10:26:05Z</time>
      </trkpt>
      <trkpt lat="45.2689" lon="6.1692">
        <ele>2273</ele>
        <time>2016-03-19T10:26:10Z</time>
      </trkpt>
      <trkpt lat="45.26891" lon="6.16917">
        <ele>2274</ele>
        <time>2016-03-19T10:26:15Z</time>
      </trkpt>
      <trkpt lat="45.2689" lon="6.16917">
        <ele>2275</ele>
        <time>2016-03-19T10:26:20Z</time>
      </trkpt>
      <trkpt lat="45.26887" lon="6.16917">
        <ele>2275</ele>
        <time>2016-03-19T10:26:25Z</time>
      </trkpt>
      <trkpt lat="45.26885" lon="6.16918">
        <ele>2276</ele>
        <time>2016-03-19T10:26:30Z</time>
      </trkpt>
      <trkpt lat="45.26882" lon="6.16918">
        <ele>2276</ele>
        <time>2016-03-19T10:26:35Z</time>
      </trkpt>
      <trkpt lat="45.2688" lon="6.16919">
        <ele>2277</ele>
        <time>2016-03-19T10:26:40Z</time>
      </trkpt>
      <trkpt lat="45.2688" lon="6.16919">
        <ele>2277</ele>
        <time>2016-03-19T10:26:45Z</time>
      </trkpt>
      <trkpt lat="45.2688" lon="6.16919">
        <ele>2278</ele>
        <time>2016-03-19T10:26:50Z</time>
      </trkpt>
      <trkpt lat="45.2688" lon="6.16919">
        <ele>2278</ele>
        <time>2016-03-19T10:26:55Z</time>
      </trkpt>
      <trkpt lat="45.2688" lon="6.16919">
        <ele>2278</ele>
        <time>2016-03-19T10:27:00Z</time>
      </trkpt>
      <trkpt lat="45.2688" lon="6.16919">
        <ele>2277</ele>
        <time>2016-03-19T10:27:05Z</time>
      </trkpt>
      <trkpt lat="45.2688" lon="6.16919">
        <ele>2277</ele>
        <time>2016-03-19T10:27:10Z</time>
      </trkpt>
      <trkpt lat="45.26877" lon="6.16921">
        <ele>2278</ele>
        <time>2016-03-19T10:27:15Z</time>
      </trkpt>
      <trkpt lat="45.26875" lon="6.16923">
        <ele>2279</ele>
        <time>2016-03-19T10:27:20Z</time>
      </trkpt>
      <trkpt lat="45.26872" lon="6.16924">
        <ele>2280</ele>
        <time>2016-03-19T10:27:25Z</time>
      </trkpt>
      <trkpt lat="45.2687" lon="6.16926">
        <ele>2281</ele>
        <time>2016-03-19T10:27:30Z</time>
      </trkpt>
      <trkpt lat="45.26869" lon="6.16928">
        <ele>2281</ele>
        <time>2016-03-19T10:27:35Z</time>
      </trkpt>
      <trkpt lat="45.26869" lon="6.16927">
        <ele>2281</ele>
        <time>2016-03-19T10:27:40Z</time>
      </trkpt>
      <trkpt lat="45.26869" lon="6.16924">
        <ele>2282</ele>
        <time>2016-03-19T10:27:45Z</time>
      </trkpt>
      <trkpt lat="45.26869" lon="6.1692">
        <ele>2283</ele>
        <time>2016-03-19T10:27:50Z</time>
      </trkpt>
      <trkpt lat="45.26869" lon="6.16916">
        <ele>2283</ele>
        <time>2016-03-19T10:27:55Z</time>
      </trkpt>
      <trkpt lat="45.2687" lon="6.16913">
        <ele>2284</ele>
        <time>2016-03-19T10:28:00Z</time>
      </trkpt>
      <trkpt lat="45.2687" lon="6.16909">
        <ele>2285</ele>
        <time>2016-03-19T10:28:05Z</time>
      </trkpt>
      <trkpt lat="45.26871" lon="6.16906">
        <ele>2285</ele>
        <time>2016-03-19T10:28:10Z</time>
      </trkpt>
      <trkpt lat="45.26872" lon="6.16902">
        <ele>2286</ele>
        <time>2016-03-19T10:28:15Z</time>
      </trkpt>
      <trkpt lat="45.26873" lon="6.16899">
        <ele>2287</ele>
        <time>2016-03-19T10:28:20Z</time>
      </trkpt>
      <trkpt lat="45.26873" lon="6.16896">
        <ele>2288</ele>
        <time>2016-03-19T10:28:25Z</time>
      </trkpt>
      <trkpt lat="45.26875" lon="6.16892">
        <ele>2288</ele>
        <time>2016-03-19T10:28:30Z</time>
      </trkpt>
      <trkpt lat="45.26876" lon="6.16889">
        <ele>2289</ele>
        <time>2016-03-19T10:28:35Z</time>
      </trkpt>
      <trkpt lat="45.26877" lon="6.16886">
        <ele>2290</ele>
        <time>2016-03-19T10:28:40Z</time>
      </trkpt>
      <trkpt lat="45.26877" lon="6.16882">
        <ele>2291</ele>
        <time>2016-03-19T10:28:45Z</time>
      </trkpt>
      <trkpt lat="45.26876" lon="6.16883">
        <ele>2291</ele>
        <time>2016-03-19T10:28:50Z</time>
      </trkpt>
      <trkpt lat="45.26875" lon="6.16884">
        <ele>2291</ele>
        <time>2016-03-19T10:28:55Z</time>
      </trkpt>
      <trkpt lat="45.26872" lon="6.16885">
        <ele>2292</ele>
        <time>2016-03-19T10:29:00Z</time>
      </trkpt>
      <trkpt lat="45.26869" lon="6.16886">
        <ele>2293</ele>
        <time>2016-03-19T10:29:05Z</time>
      </trkpt>
      <trkpt lat="45.26867" lon="6.16887">
        <ele>2294</ele>
        <time>2016-03-19T10:29:10Z</time>
      </trkpt>
      <trkpt lat="45.26865" lon="6.16888">
        <ele>2295</ele>
        <time>2016-03-19T10:29:15Z</time>
      </trkpt>
      <trkpt lat="45.26862" lon="6.1689">
        <ele>2296</ele>
        <time>2016-03-19T10:29:20Z</time>
      </trkpt>
      <trkpt lat="45.2686" lon="6.16891">
        <ele>2296</ele>
        <time>2016-03-19T10:29:25Z</time>
      </trkpt>
      <trkpt lat="45.26858" lon="6.16893">
        <ele>2297</ele>
        <time>2016-03-19T10:29:30Z</time>
      </trkpt>
      <trkpt lat="45.26856" lon="6.16895">
        <ele>2298</ele>
        <time>2016-03-19T10:29:35Z</time>
      </trkpt>
      <trkpt lat="45.26854" lon="6.16897">
        <ele>2300</ele>
        <time>2016-03-19T10:29:40Z</time>
      </trkpt>
      <trkpt lat="45.26852" lon="6.16899">
        <ele>2301</ele>
        <time>2016-03-19T10:29:45Z</time>
      </trkpt>
      <trkpt lat="45.2685" lon="6.169">
        <ele>2302</ele>
        <time>2016-03-19T10:29:50Z</time>
      </trkpt>
      <trkpt lat="45.26848" lon="6.16902">
        <ele>2303</ele>
        <time>2016-03-19T10:29:55Z</time>
      </trkpt>
      <trkpt lat="45.26845" lon="6.16904">
        <ele>2304</ele>
        <time>2016-03-19T10:30:00Z</time>
      </trkpt>
      <trkpt lat="45.26843" lon="6.16905">
        <ele>2305</ele>
        <time>2016-03-19T10:30:05Z</time>
      </trkpt>
      <trkpt lat="45.26841" lon="6.16907">
        <ele>2306</ele>
        <time>2016-03-19T10:30:10Z</time>
      </trkpt>
      <trkpt lat="45.26839" lon="6.16909">
        <ele>2307</ele>
        <time>2016-03-19T10:30:15Z</time>
      </trkpt>
      <trkpt lat="45.26836" lon="6.16911">
        <ele>2308</ele>
        <time>2016-03-19T10:30:20Z</time>
      </trkpt>
      <trkpt lat="45.26834" lon="6.16912">
        <ele>2308</ele>
        <time>2016-03-19T10:30:25Z</time>
      </trkpt>
      <trkpt lat="45.26832" lon="6.16914">
        <ele>2309</ele>
        <time>2016-03-19T10:30:30Z</time>
      </trkpt>
      <trkpt lat="45.2683" lon="6.16915">
        <ele>2310</ele>
        <time>2016-03-19T10:30:35Z</time>
      </trkpt>
      <trkpt lat="45.26827" lon="6.16916">
        <ele>2311</ele>
        <time>2016-03-19T10:30:40Z</time>
      </trkpt>
      <trkpt lat="45.26825" lon="6.16917">
        <ele>2311</ele>
        <time>2016-03-19T10:30:45Z</time>
      </trkpt>
      <trkpt lat="45.26822" lon="6.16918">
        <ele>2312</ele>
        <time>2016-03-19T10:30:50Z</time>
      </trkpt>
      <trkpt lat="45.26822" lon="6.16916">
        <ele>2313</ele>
        <time>2016-03-19T10:30:55Z</time>
      </trkpt>
      <trkpt lat="45.26823" lon="6.16913">
        <ele>2313</ele>
        <time>2016-03-19T10:31:00Z</time>
      </trkpt>
      <trkpt lat="45.26823" lon="6.1691">
        <ele>2314</ele>
        <time>2016-03-19T10:31:05Z</time>
      </trkpt>
      <trkpt lat="45.26823" lon="6.16907">
        <ele>2314</ele>
        <time>2016-03-19T10:31:10Z</time>
      </trkpt>
      <trkpt lat="45.26823" lon="6.16904">
        <ele>2315</ele>
        <time>2016-03-19T10:31:15Z</time>
      </trkpt>
      <trkpt lat="45.26824" lon="6.16901">
        <ele>2315</ele>
        <time>2016-03-19T10:31:20Z</time>
      </trkpt>
      <trkpt lat="45.26824" lon="6.16898">
        <ele>2316</ele>
        <time>2016-03-19T10:31:25Z</time>
      </trkpt>
      <trkpt lat="45.26823" lon="6.16895">
        <ele>2316</ele>
        <time>2016-03-19T10:31:30Z</time>
      </trkpt>
      <trkpt lat="45.26824" lon="6.16891">
        <ele>2317</ele>
        <time>2016-03-19T10:31:35Z</time>
      </trkpt>
      <trkpt lat="45.26824" lon="6.16888">
        <ele>2318</ele>
        <time>2016-03-19T10:31:40Z</time>
      </trkpt>
      <trkpt lat="45.26824" lon="6.16885">
        <ele>2318</ele>
        <time>2016-03-19T10:31:45Z</time>
      </trkpt>
      <trkpt lat="45.26825" lon="6.16883">
        <ele>2319</ele>
        <time>2016-03-19T10:31:50Z</time>
      </trkpt>
      <trkpt lat="45.26823" lon="6.16883">
        <ele>2319</ele>
        <time>2016-03-19T10:31:55Z</time>
      </trkpt>
      <trkpt lat="45.26821" lon="6.16884">
        <ele>2320</ele>
        <time>2016-03-19T10:32:00Z</time>
      </trkpt>
      <trkpt lat="45.26819" lon="6.16885">
        <ele>2321</ele>
        <time>2016-03-19T10:32:05Z</time>
      </trkpt>
      <trkpt lat="45.26817" lon="6.16886">
        <ele>2321</ele>
        <time>2016-03-19T10:32:10Z</time>
      </trkpt>
      <trkpt lat="45.26815" lon="6.16887">
        <ele>2322</ele>
        <time>2016-03-19T10:32:15Z</time>
      </trkpt>
      <trkpt lat="45.26812" lon="6.16888">
        <ele>2323</ele>
        <time>2016-03-19T10:32:20Z</time>
      </trkpt>
      <trkpt lat="45.26811" lon="6.16889">
        <ele>2324</ele>
        <time>2016-03-19T10:32:25Z</time>
      </trkpt>
      <trkpt lat="45.26809" lon="6.16891">
        <ele>2325</ele>
        <time>2016-03-19T10:32:30Z</time>
      </trkpt>
      <trkpt lat="45.26807" lon="6.16892">
        <ele>2326</ele>
        <time>2016-03-19T10:32:35Z</time>
      </trkpt>
      <trkpt lat="45.26805" lon="6.16893">
        <ele>2327</ele>
        <time>2016-03-19T10:32:40Z</time>
      </trkpt>
      <trkpt lat="45.26803" lon="6.16895">
        <ele>2328</ele>
        <time>2016-03-19T10:32:45Z</time>
      </trkpt>
      <trkpt lat="45.268" lon="6.16896">
        <ele>2328</ele>
        <time>2016-03-19T10:32:50Z</time>
      </trkpt>
      <trkpt lat="45.26798" lon="6.16898">
        <ele>2329</ele>
        <time>2016-03-19T10:32:55Z</time>
      </trkpt>
      <trkpt lat="45.26796" lon="6.16899">
        <ele>2330</ele>
        <time>2016-03-19T10:33:00Z</time>
      </trkpt>
      <trkpt lat="45.26795" lon="6.16901">
        <ele>2331</ele>
        <time>2016-03-19T10:33:05Z</time>
      </trkpt>
      <trkpt lat="45.26793" lon="6.16902">
        <ele>2332</ele>
        <time>2016-03-19T10:33:10Z</time>
      </trkpt>
      <trkpt lat="45.26793" lon="6.16901">
        <ele>2332</ele>
        <time>2016-03-19T10:33:15Z</time>
      </trkpt>
      <trkpt lat="45.26793" lon="6.16898">
        <ele>2332</ele>
        <time>2016-03-19T10:33:20Z</time>
      </trkpt>
      <trkpt lat="45.26793" lon="6.16895">
        <ele>2333</ele>
        <time>2016-03-19T10:33:25Z</time>
      </trkpt>
      <trkpt lat="45.26793" lon="6.16892">
        <ele>2333</ele>
        <time>2016-03-19T10:33:30Z</time>
      </trkpt>
      <trkpt lat="45.26793" lon="6.16888">
        <ele>2333</ele>
        <time>2016-03-19T10:33:35Z</time>
      </trkpt>
      <trkpt lat="45.26793" lon="6.16885">
        <ele>2334</ele>
        <time>2016-03-19T10:33:40Z</time>
      </trkpt>
      <trkpt lat="45.26793" lon="6.16882">
        <ele>2335</ele>
        <time>2016-03-19T10:33:45Z</time>
      </trkpt>
      <trkpt lat="45.26793" lon="6.16879">
        <ele>2336</ele>
        <time>2016-03-19T10:33:50Z</time>
      </trkpt>
      <trkpt lat="45.26794" lon="6.16876">
        <ele>2337</ele>
        <time>2016-03-19T10:33:55Z</time>
      </trkpt>
      <trkpt lat="45.26794" lon="6.16873">
        <ele>2338</ele>
        <time>2016-03-19T10:34:00Z</time>
      </trkpt>
      <trkpt lat="45.26795" lon="6.1687">
        <ele>2338</ele>
        <time>2016-03-19T10:34:05Z</time>
      </trkpt>
      <trkpt lat="45.26795" lon="6.16867">
        <ele>2339</ele>
        <time>2016-03-19T10:34:10Z</time>
      </trkpt>
      <trkpt lat="45.26795" lon="6.16865">
        <ele>2340</ele>
        <time>2016-03-19T10:34:15Z</time>
      </trkpt>
      <trkpt lat="45.26796" lon="6.16862">
        <ele>2341</ele>
        <time>2016-03-19T10:34:20Z</time>
      </trkpt>
      <trkpt lat="45.26798" lon="6.16859">
        <ele>2341</ele>
        <time>2016-03-19T10:34:25Z</time>
      </trkpt>
      <trkpt lat="45.26798" lon="6.16857">
        <ele>2342</ele>
        <time>2016-03-19T10:34:30Z</time>
      </trkpt>
      <trkpt lat="45.26798" lon="6.16856">
        <ele>2342</ele>
        <time>2016-03-19T10:34:35Z</time>
      </trkpt>
      <trkpt lat="45.26798" lon="6.16856">
        <ele>2342</ele>
        <time>2016-03-19T10:34:40Z</time>
      </trkpt>
      <trkpt lat="45.26796" lon="6.16856">
        <ele>2342</ele>
        <time>2016-03-19T10:34:45Z</time>
      </trkpt>
      <trkpt lat="45.26794" lon="6.16857">
        <ele>2343</ele>
        <time>2016-03-19T10:34:50Z</time>
      </trkpt>
      <trkpt lat="45.26791" lon="6.16857">
        <ele>2344</ele>
        <time>2016-03-19T10:34:55Z</time>
      </trkpt>
      <trkpt lat="45.26789" lon="6.16857">
        <ele>2344</ele>
        <time>2016-03-19T10:35:00Z</time>
      </trkpt>
      <trkpt lat="45.26786" lon="6.16857">
        <ele>2345</ele>
        <time>2016-03-19T10:35:05Z</time>
      </trkpt>
      <trkpt lat="45.26784" lon="6.16857">
        <ele>2346</ele>
        <time>2016-03-19T10:35:10Z</time>
      </trkpt>
      <trkpt lat="45.26782" lon="6.16858">
        <ele>2347</ele>
        <time>2016-03-19T10:35:15Z</time>
      </trkpt>
      <trkpt lat="45.26779" lon="6.16859">
        <ele>2348</ele>
        <time>2016-03-19T10:35:20Z</time>
      </trkpt>
      <trkpt lat="45.26777" lon="6.1686">
        <ele>2349</ele>
        <time>2016-03-19T10:35:25Z</time>
      </trkpt>
      <trkpt lat="45.26775" lon="6.16861">
        <ele>2350</ele>
        <time>2016-03-19T10:35:30Z</time>
      </trkpt>
      <trkpt lat="45.26773" lon="6.16863">
        <ele>2350</ele>
        <time>2016-03-19T10:35:35Z</time>
      </trkpt>
      <trkpt lat="45.2677" lon="6.16865">
        <ele>2352</ele>
        <time>2016-03-19T10:35:40Z</time>
      </trkpt>
      <trkpt lat="45.26769" lon="6.16867">
        <ele>2352</ele>
        <time>2016-03-19T10:35:45Z</time>
      </trkpt>
      <trkpt lat="45.26767" lon="6.16869">
        <ele>2354</ele>
        <time>2016-03-19T10:35:50Z</time>
      </trkpt>
      <trkpt lat="45.26767" lon="6.16868">
        <ele>2354</ele>
        <time>2016-03-19T10:35:55Z</time>
      </trkpt>
      <trkpt lat="45.26767" lon="6.16865">
        <ele>2355</ele>
        <time>2016-03-19T10:36:00Z</time>
      </trkpt>
      <trkpt lat="45.26766" lon="6.16862">
        <ele>2356</ele>
        <time>2016-03-19T10:36:05Z</time>
      </trkpt>
      <trkpt lat="45.26766" lon="6.16859">
        <ele>2356</ele>
        <time>2016-03-19T10:36:10Z</time>
      </trkpt>
      <trkpt lat="45.26766" lon="6.16856">
        <ele>2357</ele>
        <time>2016-03-19T10:36:15Z</time>
      </trkpt>
      <trkpt lat="45.26766" lon="6.16853">
        <ele>2357</ele>
        <time>2016-03-19T10:36:20Z</time>
      </trkpt>
      <trkpt lat="45.26765" lon="6.16849">
        <ele>2358</ele>
        <time>2016-03-19T10:36:25Z</time>
      </trkpt>
      <trkpt lat="45.26765" lon="6.16846">
        <ele>2359</ele>
        <time>2016-03-19T10:36:30Z</time>
      </trkpt>
      <trkpt lat="45.26764" lon="6.16843">
        <ele>2359</ele>
        <time>2016-03-19T10:36:35Z</time>
      </trkpt>
      <trkpt lat="45.26764" lon="6.1684">
        <ele>2360</ele>
        <time>2016-03-19T10:36:40Z</time>
      </trkpt>
      <trkpt lat="45.26763" lon="6.16836">
        <ele>2361</ele>
        <time>2016-03-19T10:36:45Z</time>
      </trkpt>
      <trkpt lat="45.26762" lon="6.16833">
        <ele>2361</ele>
        <time>2016-03-19T10:36:50Z</time>
      </trkpt>
      <trkpt lat="45.26762" lon="6.16831">
        <ele>2362</ele>
        <time>2016-03-19T10:36:55Z</time>
      </trkpt>
      <trkpt lat="45.26762" lon="6.16827">
        <ele>2363</ele>
        <time>2016-03-19T10:37:00Z</time>
      </trkpt>
      <trkpt lat="45.26761" lon="6.16824">
        <ele>2364</ele>
        <time>2016-03-19T10:37:05Z</time>
      </trkpt>
      <trkpt lat="45.2676" lon="6.16821">
        <ele>2365</ele>
        <time>2016-03-19T10:37:10Z</time>
      </trkpt>
      <trkpt lat="45.26759" lon="6.16818">
        <ele>2366</ele>
        <time>2016-03-19T10:37:15Z</time>
      </trkpt>
      <trkpt lat="45.26759" lon="6.16815">
        <ele>2367</ele>
        <time>2016-03-19T10:37:20Z</time>
      </trkpt>
      <trkpt lat="45.26758" lon="6.16812">
        <ele>2368</ele>
        <time>2016-03-19T10:37:25Z</time>
      </trkpt>
      <trkpt lat="45.26757" lon="6.16811">
        <ele>2368</ele>
        <time>2016-03-19T10:37:30Z</time>
      </trkpt>
      <trkpt lat="45.26757" lon="6.1681">
        <ele>2368</ele>
        <time>2016-03-19T10:37:35Z</time>
      </trkpt>
      <trkpt lat="45.26759" lon="6.1681">
        <ele>2367</ele>
        <time>2016-03-19T10:38:55Z</time>
      </trkpt>
      <trkpt lat="45.26758" lon="6.16809">
        <ele>2367</ele>
        <time>2016-03-19T10:39:00Z</time>
      </trkpt>
      <trkpt lat="45.26755" lon="6.16806">
        <ele>2368</ele>
        <time>2016-03-19T10:39:05Z</time>
      </trkpt>
      <trkpt lat="45.26754" lon="6.16803">
        <ele>2369</ele>
        <time>2016-03-19T10:39:10Z</time>
      </trkpt>
      <trkpt lat="45.26754" lon="6.16799">
        <ele>2371</ele>
        <time>2016-03-19T10:39:15Z</time>
      </trkpt>
      <trkpt lat="45.26753" lon="6.16796">
        <ele>2372</ele>
        <time>2016-03-19T10:39:20Z</time>
      </trkpt>
      <trkpt lat="45.26753" lon="6.16793">
        <ele>2373</ele>
        <time>2016-03-19T10:39:25Z</time>
      </trkpt>
      <trkpt lat="45.26754" lon="6.1679">
        <ele>2374</ele>
        <time>2016-03-19T10:39:30Z</time>
      </trkpt>
      <trkpt lat="45.26756" lon="6.16788">
        <ele>2375</ele>
        <time>2016-03-19T10:39:35Z</time>
      </trkpt>
      <trkpt lat="45.26758" lon="6.16786">
        <ele>2376</ele>
        <time>2016-03-19T10:39:40Z</time>
      </trkpt>
      <trkpt lat="45.2676" lon="6.16785">
        <ele>2377</ele>
        <time>2016-03-19T10:39:45Z</time>
      </trkpt>
      <trkpt lat="45.26762" lon="6.16783">
        <ele>2378</ele>
        <time>2016-03-19T10:39:50Z</time>
      </trkpt>
      <trkpt lat="45.26765" lon="6.1678">
        <ele>2379</ele>
        <time>2016-03-19T10:39:55Z</time>
      </trkpt>
      <trkpt lat="45.26766" lon="6.16777">
        <ele>2379</ele>
        <time>2016-03-19T10:40:00Z</time>
      </trkpt>
      <trkpt lat="45.26767" lon="6.16774">
        <ele>2380</ele>
        <time>2016-03-19T10:40:05Z</time>
      </trkpt>
      <trkpt lat="45.26769" lon="6.16771">
        <ele>2381</ele>
        <time>2016-03-19T10:40:10Z</time>
      </trkpt>
      <trkpt lat="45.2677" lon="6.16767">
        <ele>2381</ele>
        <time>2016-03-19T10:40:15Z</time>
      </trkpt>
      <trkpt lat="45.26772" lon="6.16764">
        <ele>2382</ele>
        <time>2016-03-19T10:40:20Z</time>
      </trkpt>
      <trkpt lat="45.26772" lon="6.16761">
        <ele>2383</ele>
        <time>2016-03-19T10:40:25Z</time>
      </trkpt>
      <trkpt lat="45.26773" lon="6.16757">
        <ele>2384</ele>
        <time>2016-03-19T10:40:30Z</time>
      </trkpt>
      <trkpt lat="45.26774" lon="6.16753">
        <ele>2385</ele>
        <time>2016-03-19T10:40:35Z</time>
      </trkpt>
      <trkpt lat="45.26775" lon="6.16749">
        <ele>2386</ele>
        <time>2016-03-19T10:40:40Z</time>
      </trkpt>
      <trkpt lat="45.26775" lon="6.16746">
        <ele>2386</ele>
        <time>2016-03-19T10:40:45Z</time>
      </trkpt>
      <trkpt lat="45.26776" lon="6.16741">
        <ele>2387</ele>
        <time>2016-03-19T10:40:50Z</time>
      </trkpt>
      <trkpt lat="45.26777" lon="6.16737">
        <ele>2387</ele>
        <time>2016-03-19T10:40:55Z</time>
      </trkpt>
      <trkpt lat="45.26777" lon="6.16735">
        <ele>2387</ele>
        <time>2016-03-19T10:41:00Z</time>
      </trkpt>
      <trkpt lat="45.26777" lon="6.16735">
        <ele>2387</ele>
        <time>2016-03-19T10:41:05Z</time>
      </trkpt>
      <trkpt lat="45.26777" lon="6.16735">
        <ele>2386</ele>
        <time>2016-03-19T10:41:10Z</time>
      </trkpt>
      <trkpt lat="45.26777" lon="6.16735">
        <ele>2387</ele>
        <time>2016-03-19T10:41:15Z</time>
      </trkpt>
      <trkpt lat="45.26777" lon="6.16735">
        <ele>2387</ele>
        <time>2016-03-19T10:41:20Z</time>
      </trkpt>
      <trkpt lat="45.26777" lon="6.16735">
        <ele>2387</ele>
        <time>2016-03-19T10:41:25Z</time>
      </trkpt>
      <trkpt lat="45.26777" lon="6.16735">
        <ele>2387</ele>
        <time>2016-03-19T10:41:30Z</time>
      </trkpt>
      <trkpt lat="45.26777" lon="6.16735">
        <ele>2387</ele>
        <time>2016-03-19T10:41:35Z</time>
      </trkpt>
      <trkpt lat="45.26777" lon="6.16735">
        <ele>2386</ele>
        <time>2016-03-19T10:41:40Z</time>
      </trkpt>
      <trkpt lat="45.26777" lon="6.16735">
        <ele>2385</ele>
        <time>2016-03-19T10:41:45Z</time>
      </trkpt>
      <trkpt lat="45.26778" lon="6.16735">
        <ele>2386</ele>
        <time>2016-03-19T10:41:50Z</time>
      </trkpt>
      <trkpt lat="45.26778" lon="6.16735">
        <ele>2385</ele>
        <time>2016-03-19T10:41:55Z</time>
      </trkpt>
      <trkpt lat="45.26778" lon="6.16735">
        <ele>2385</ele>
        <time>2016-03-19T10:42:00Z</time>
      </trkpt>
      <trkpt lat="45.26778" lon="6.16735">
        <ele>2384</ele>
        <time>2016-03-19T10:42:05Z</time>
      </trkpt>
      <trkpt lat="45.26777" lon="6.16733">
        <ele>2385</ele>
        <time>2016-03-19T10:42:10Z</time>
      </trkpt>
      <trkpt lat="45.26775" lon="6.16731">
        <ele>2385</ele>
        <time>2016-03-19T10:42:15Z</time>
      </trkpt>
      <trkpt lat="45.26775" lon="6.16731">
        <ele>2385</ele>
        <time>2016-03-19T10:42:20Z</time>
      </trkpt>
      <trkpt lat="45.26775" lon="6.16731">
        <ele>2385</ele>
        <time>2016-03-19T10:42:25Z</time>
      </trkpt>
      <trkpt lat="45.26775" lon="6.16732">
        <ele>2385</ele>
        <time>2016-03-19T10:42:30Z</time>
      </trkpt>
      <trkpt lat="45.26775" lon="6.16732">
        <ele>2385</ele>
        <time>2016-03-19T10:42:35Z</time>
      </trkpt>
      <trkpt lat="45.26775" lon="6.16732">
        <ele>2385</ele>
        <time>2016-03-19T10:42:40Z</time>
      </trkpt>
      <trkpt lat="45.26775" lon="6.16732">
        <ele>2385</ele>
        <time>2016-03-19T10:42:45Z</time>
      </trkpt>
      <trkpt lat="45.26774" lon="6.16733">
        <ele>2386</ele>
        <time>2016-03-19T10:42:50Z</time>
      </trkpt>
      <trkpt lat="45.2677" lon="6.16735">
        <ele>2386</ele>
        <time>2016-03-19T10:42:55Z</time>
      </trkpt>
      <trkpt lat="45.26767" lon="6.16736">
        <ele>2387</ele>
        <time>2016-03-19T10:43:00Z</time>
      </trkpt>
      <trkpt lat="45.26764" lon="6.16737">
        <ele>2387</ele>
        <time>2016-03-19T10:43:05Z</time>
      </trkpt>
      <trkpt lat="45.26761" lon="6.16737">
        <ele>2388</ele>
        <time>2016-03-19T10:43:10Z</time>
      </trkpt>
      <trkpt lat="45.26758" lon="6.16738">
        <ele>2388</ele>
        <time>2016-03-19T10:43:15Z</time>
      </trkpt>
      <trkpt lat="45.26754" lon="6.16739">
        <ele>2388</ele>
        <time>2016-03-19T10:43:20Z</time>
      </trkpt>
      <trkpt lat="45.26751" lon="6.1674">
        <ele>2389</ele>
        <time>2016-03-19T10:43:25Z</time>
      </trkpt>
      <trkpt lat="45.26748" lon="6.16741">
        <ele>2389</ele>
        <time>2016-03-19T10:43:30Z</time>
      </trkpt>
      <trkpt lat="45.26746" lon="6.16743">
        <ele>2390</ele>
        <time>2016-03-19T10:43:35Z</time>
      </trkpt>
      <trkpt lat="45.26743" lon="6.16746">
        <ele>2391</ele>
        <time>2016-03-19T10:43:40Z</time>
      </trkpt>
      <trkpt lat="45.2674" lon="6.16747">
        <ele>2392</ele>
        <time>2016-03-19T10:43:45Z</time>
      </trkpt>
      <trkpt lat="45.26738" lon="6.16748">
        <ele>2393</ele>
        <time>2016-03-19T10:43:50Z</time>
      </trkpt>
      <trkpt lat="45.26735" lon="6.1675">
        <ele>2394</ele>
        <time>2016-03-19T10:43:55Z</time>
      </trkpt>
      <trkpt lat="45.26735" lon="6.1675">
        <ele>2394</ele>
        <time>2016-03-19T10:44:00Z</time>
      </trkpt>
      <trkpt lat="45.26735" lon="6.1675">
        <ele>2395</ele>
        <time>2016-03-19T10:44:05Z</time>
      </trkpt>
      <trkpt lat="45.26732" lon="6.16752">
        <ele>2396</ele>
        <time>2016-03-19T10:44:10Z</time>
      </trkpt>
      <trkpt lat="45.2673" lon="6.16756">
        <ele>2397</ele>
        <time>2016-03-19T10:44:15Z</time>
      </trkpt>
      <trkpt lat="45.26727" lon="6.1676">
        <ele>2397</ele>
        <time>2016-03-19T10:44:20Z</time>
      </trkpt>
      <trkpt lat="45.26724" lon="6.16764">
        <ele>2397</ele>
        <time>2016-03-19T10:44:25Z</time>
      </trkpt>
      <trkpt lat="45.2672" lon="6.16768">
        <ele>2397</ele>
        <time>2016-03-19T10:44:30Z</time>
      </trkpt>
      <trkpt lat="45.26717" lon="6.16771">
        <ele>2397</ele>
        <time>2016-03-19T10:44:35Z</time>
      </trkpt>
      <trkpt lat="45.26714" lon="6.16775">
        <ele>2396</ele>
        <time>2016-03-19T10:44:40Z</time>
      </trkpt>
      <trkpt lat="45.26712" lon="6.16777">
        <ele>2396</ele>
        <time>2016-03-19T10:44:45Z</time>
      </trkpt>
      <trkpt lat="45.26711" lon="6.16781">
        <ele>2398</ele>
        <time>2016-03-19T10:44:50Z</time>
      </trkpt>
      <trkpt lat="45.26709" lon="6.16785">
        <ele>2398</ele>
        <time>2016-03-19T10:44:55Z</time>
      </trkpt>
      <trkpt lat="45.26708" lon="6.16789">
        <ele>2399</ele>
        <time>2016-03-19T10:45:00Z</time>
      </trkpt>
      <trkpt lat="45.26708" lon="6.16793">
        <ele>2401</ele>
        <time>2016-03-19T10:45:05Z</time>
      </trkpt>
      <trkpt lat="45.26707" lon="6.16797">
        <ele>2401</ele>
        <time>2016-03-19T10:45:10Z</time>
      </trkpt>
      <trkpt lat="45.26706" lon="6.168">
        <ele>2403</ele>
        <time>2016-03-19T10:45:15Z</time>
      </trkpt>
      <trkpt lat="45.26705" lon="6.16802">
        <ele>2404</ele>
        <time>2016-03-19T10:45:20Z</time>
      </trkpt>
      <trkpt lat="45.26704" lon="6.16805">
        <ele>2405</ele>
        <time>2016-03-19T10:45:25Z</time>
      </trkpt>
      <trkpt lat="45.26703" lon="6.16807">
        <ele>2405</ele>
        <time>2016-03-19T10:45:30Z</time>
      </trkpt>
      <trkpt lat="45.26702" lon="6.16808">
        <ele>2405</ele>
        <time>2016-03-19T10:45:35Z</time>
      </trkpt>
      <trkpt lat="45.26701" lon="6.1681">
        <ele>2405</ele>
        <time>2016-03-19T10:45:40Z</time>
      </trkpt>
      <trkpt lat="45.26699" lon="6.16812">
        <ele>2404</ele>
        <time>2016-03-19T10:45:45Z</time>
      </trkpt>
      <trkpt lat="45.26698" lon="6.16815">
        <ele>2405</ele>
        <time>2016-03-19T10:45:50Z</time>
      </trkpt>
      <trkpt lat="45.26698" lon="6.16817">
        <ele>2406</ele>
        <time>2016-03-19T10:45:55Z</time>
      </trkpt>
      <trkpt lat="45.267" lon="6.1682">
        <ele>2411</ele>
        <time>2016-03-19T10:46:00Z</time>
      </trkpt>
      <trkpt lat="45.26703" lon="6.16822">
        <ele>2417</ele>
        <time>2016-03-19T10:46:05Z</time>
      </trkpt>
      <trkpt lat="45.26705" lon="6.16824">
        <ele>2421</ele>
        <time>2016-03-19T10:46:10Z</time>
      </trkpt>
      <trkpt lat="45.26706" lon="6.16827">
        <ele>2424</ele>
        <time>2016-03-19T10:46:15Z</time>
      </trkpt>
      <trkpt lat="45.26705" lon="6.1683">
        <ele>2425</ele>
        <time>2016-03-19T10:46:20Z</time>
      </trkpt>
      <trkpt lat="45.26704" lon="6.16833">
        <ele>2425</ele>
        <time>2016-03-19T10:46:25Z</time>
      </trkpt>
      <trkpt lat="45.26703" lon="6.16836">
        <ele>2425</ele>
        <time>2016-03-19T10:46:30Z</time>
      </trkpt>
      <trkpt lat="45.26701" lon="6.16839">
        <ele>2425</ele>
        <time>2016-03-19T10:46:35Z</time>
      </trkpt>
      <trkpt lat="45.267" lon="6.16842">
        <ele>2425</ele>
        <time>2016-03-19T10:46:40Z</time>
      </trkpt>
      <trkpt lat="45.26696" lon="6.16844">
        <ele>2422</ele>
        <time>2016-03-19T10:46:45Z</time>
      </trkpt>
      <trkpt lat="45.26694" lon="6.16844">
        <ele>2419</ele>
        <time>2016-03-19T10:46:50Z</time>
      </trkpt>
      <trkpt lat="45.26692" lon="6.16845">
        <ele>2417</ele>
        <time>2016-03-19T10:46:55Z</time>
      </trkpt>
      <trkpt lat="45.2669" lon="6.16848">
        <ele>2416</ele>
        <time>2016-03-19T10:47:00Z</time>
      </trkpt>
      <trkpt lat="45.26689" lon="6.16851">
        <ele>2417</ele>
        <time>2016-03-19T10:47:05Z</time>
      </trkpt>
      <trkpt lat="45.26688" lon="6.16854">
        <ele>2418</ele>
        <time>2016-03-19T10:47:10Z</time>
      </trkpt>
      <trkpt lat="45.26686" lon="6.16857">
        <ele>2418</ele>
        <time>2016-03-19T10:47:15Z</time>
      </trkpt>
      <trkpt lat="45.26684" lon="6.1686">
        <ele>2418</ele>
        <time>2016-03-19T10:47:20Z</time>
      </trkpt>
      <trkpt lat="45.26683" lon="6.16864">
        <ele>2418</ele>
        <time>2016-03-19T10:47:25Z</time>
      </trkpt>
      <trkpt lat="45.26682" lon="6.16867">
        <ele>2419</ele>
        <time>2016-03-19T10:47:30Z</time>
      </trkpt>
      <trkpt lat="45.2668" lon="6.1687">
        <ele>2420</ele>
        <time>2016-03-19T10:47:35Z</time>
      </trkpt>
      <trkpt lat="45.26679" lon="6.16873">
        <ele>2420</ele>
        <time>2016-03-19T10:47:40Z</time>
      </trkpt>
      <trkpt lat="45.26679" lon="6.16877">
        <ele>2421</ele>
        <time>2016-03-19T10:47:45Z</time>
      </trkpt>
      <trkpt lat="45.26677" lon="6.16881">
        <ele>2422</ele>
        <time>2016-03-19T10:47:50Z</time>
      </trkpt>
      <trkpt lat="45.26675" lon="6.16884">
        <ele>2422</ele>
        <time>2016-03-19T10:47:55Z</time>
      </trkpt>
      <trkpt lat="45.26674" lon="6.16886">
        <ele>2423</ele>
        <time>2016-03-19T10:48:00Z</time>
      </trkpt>
      <trkpt lat="45.26671" lon="6.16888">
        <ele>2424</ele>
        <time>2016-03-19T10:48:05Z</time>
      </trkpt>
      <trkpt lat="45.2667" lon="6.16891">
        <ele>2425</ele>
        <time>2016-03-19T10:48:10Z</time>
      </trkpt>
      <trkpt lat="45.26668" lon="6.16894">
        <ele>2425</ele>
        <time>2016-03-19T10:48:15Z</time>
      </trkpt>
      <trkpt lat="45.26668" lon="6.16894">
        <ele>2425</ele>
        <time>2016-03-19T10:48:20Z</time>
      </trkpt>
      <trkpt lat="45.26668" lon="6.16894">
        <ele>2425</ele>
        <time>2016-03-19T10:48:25Z</time>
      </trkpt>
      <trkpt lat="45.26667" lon="6.16896">
        <ele>2425</ele>
        <time>2016-03-19T10:48:30Z</time>
      </trkpt>
      <trkpt lat="45.26664" lon="6.16898">
        <ele>2425</ele>
        <time>2016-03-19T10:48:35Z</time>
      </trkpt>
      <trkpt lat="45.26663" lon="6.16899">
        <ele>2425</ele>
        <time>2016-03-19T10:48:40Z</time>
      </trkpt>
      <trkpt lat="45.26664" lon="6.16897">
        <ele>2431</ele>
        <time>2016-03-19T10:56:35Z</time>
      </trkpt>
      <trkpt lat="45.26662" lon="6.16898">
        <ele>2431</ele>
        <time>2016-03-19T10:56:40Z</time>
      </trkpt>
      <trkpt lat="45.26659" lon="6.16896">
        <ele>2430</ele>
        <time>2016-03-19T10:56:45Z</time>
      </trkpt>
      <trkpt lat="45.26657" lon="6.16894">
        <ele>2429</ele>
        <time>2016-03-19T10:56:50Z</time>
      </trkpt>
      <trkpt lat="45.26657" lon="6.16895">
        <ele>2428</ele>
        <time>2016-03-19T10:56:55Z</time>
      </trkpt>
      <trkpt lat="45.26657" lon="6.16895">
        <ele>2428</ele>
        <time>2016-03-19T10:57:00Z</time>
      </trkpt>
      <trkpt lat="45.26655" lon="6.16893">
        <ele>2428</ele>
        <time>2016-03-19T10:57:05Z</time>
      </trkpt>
      <trkpt lat="45.26652" lon="6.16891">
        <ele>2428</ele>
        <time>2016-03-19T10:57:10Z</time>
      </trkpt>
      <trkpt lat="45.26649" lon="6.16889">
        <ele>2429</ele>
        <time>2016-03-19T10:57:15Z</time>
      </trkpt>
      <trkpt lat="45.26647" lon="6.16887">
        <ele>2429</ele>
        <time>2016-03-19T10:57:20Z</time>
      </trkpt>
      <trkpt lat="45.26644" lon="6.16885">
        <ele>2429</ele>
        <time>2016-03-19T10:57:25Z</time>
      </trkpt>
      <trkpt lat="45.26642" lon="6.16884">
        <ele>2430</ele>
        <time>2016-03-19T10:57:30Z</time>
      </trkpt>
      <trkpt lat="45.26639" lon="6.16882">
        <ele>2430</ele>
        <time>2016-03-19T10:57:35Z</time>
      </trkpt>
      <trkpt lat="45.26636" lon="6.1688">
        <ele>2431</ele>
        <time>2016-03-19T10:57:40Z</time>
      </trkpt>
      <trkpt lat="45.26634" lon="6.16878">
        <ele>2431</ele>
        <time>2016-03-19T10:57:45Z</time>
      </trkpt>
      <trkpt lat="45.26632" lon="6.16875">
        <ele>2432</ele>
        <time>2016-03-19T10:57:50Z</time>
      </trkpt>
      <trkpt lat="45.2663" lon="6.16873">
        <ele>2432</ele>
        <time>2016-03-19T10:57:55Z</time>
      </trkpt>
      <trkpt lat="45.26629" lon="6.16871">
        <ele>2433</ele>
        <time>2016-03-19T10:58:00Z</time>
      </trkpt>
      <trkpt lat="45.26628" lon="6.16869">
        <ele>2434</ele>
        <time>2016-03-19T10:58:05Z</time>
      </trkpt>
      <trkpt lat="45.26629" lon="6.16866">
        <ele>2435</ele>
        <time>2016-03-19T10:58:10Z</time>
      </trkpt>
      <trkpt lat="45.26629" lon="6.16863">
        <ele>2435</ele>
        <time>2016-03-19T10:58:15Z</time>
      </trkpt>
      <trkpt lat="45.26629" lon="6.16859">
        <ele>2436</ele>
        <time>2016-03-19T10:58:20Z</time>
      </trkpt>
      <trkpt lat="45.26629" lon="6.16857">
        <ele>2437</ele>
        <time>2016-03-19T10:58:25Z</time>
      </trkpt>
      <trkpt lat="45.26629" lon="6.16854">
        <ele>2437</ele>
        <time>2016-03-19T10:58:30Z</time>
      </trkpt>
      <trkpt lat="45.2663" lon="6.16851">
        <ele>2438</ele>
        <time>2016-03-19T10:58:35Z</time>
      </trkpt>
      <trkpt lat="45.2663" lon="6.16848">
        <ele>2439</ele>
        <time>2016-03-19T10:58:40Z</time>
      </trkpt>
      <trkpt lat="45.2663" lon="6.16845">
        <ele>2439</ele>
        <time>2016-03-19T10:58:45Z</time>
      </trkpt>
      <trkpt lat="45.2663" lon="6.16842">
        <ele>2440</ele>
        <time>2016-03-19T10:58:50Z</time>
      </trkpt>
      <trkpt lat="45.2663" lon="6.16839">
        <ele>2441</ele>
        <time>2016-03-19T10:58:55Z</time>
      </trkpt>
      <trkpt lat="45.2663" lon="6.16837">
        <ele>2443</ele>
        <time>2016-03-19T10:59:00Z</time>
      </trkpt>
      <trkpt lat="45.2663" lon="6.16834">
        <ele>2443</ele>
        <time>2016-03-19T10:59:05Z</time>
      </trkpt>
      <trkpt lat="45.2663" lon="6.16831">
        <ele>2444</ele>
        <time>2016-03-19T10:59:10Z</time>
      </trkpt>
      <trkpt lat="45.2663" lon="6.16828">
        <ele>2445</ele>
        <time>2016-03-19T10:59:15Z</time>
      </trkpt>
      <trkpt lat="45.2663" lon="6.16825">
        <ele>2445</ele>
        <time>2016-03-19T10:59:20Z</time>
      </trkpt>
      <trkpt lat="45.2663" lon="6.16822">
        <ele>2446</ele>
        <time>2016-03-19T10:59:25Z</time>
      </trkpt>
      <trkpt lat="45.2663" lon="6.1682">
        <ele>2447</ele>
        <time>2016-03-19T10:59:30Z</time>
      </trkpt>
      <trkpt lat="45.2663" lon="6.16817">
        <ele>2448</ele>
        <time>2016-03-19T10:59:35Z</time>
      </trkpt>
      <trkpt lat="45.26631" lon="6.16814">
        <ele>2448</ele>
        <time>2016-03-19T10:59:40Z</time>
      </trkpt>
      <trkpt lat="45.2663" lon="6.16813">
        <ele>2448</ele>
        <time>2016-03-19T10:59:45Z</time>
      </trkpt>
      <trkpt lat="45.26628" lon="6.16815">
        <ele>2448</ele>
        <time>2016-03-19T10:59:50Z</time>
      </trkpt>
      <trkpt lat="45.26626" lon="6.16815">
        <ele>2448</ele>
        <time>2016-03-19T10:59:55Z</time>
      </trkpt>
      <trkpt lat="45.26624" lon="6.16816">
        <ele>2449</ele>
        <time>2016-03-19T11:00:00Z</time>
      </trkpt>
      <trkpt lat="45.26622" lon="6.16817">
        <ele>2449</ele>
        <time>2016-03-19T11:00:05Z</time>
      </trkpt>
      <trkpt lat="45.2662" lon="6.16817">
        <ele>2450</ele>
        <time>2016-03-19T11:00:10Z</time>
      </trkpt>
      <trkpt lat="45.26618" lon="6.16817">
        <ele>2450</ele>
        <time>2016-03-19T11:00:15Z</time>
      </trkpt>
      <trkpt lat="45.26616" lon="6.16817">
        <ele>2451</ele>
        <time>2016-03-19T11:00:20Z</time>
      </trkpt>
      <trkpt lat="45.26614" lon="6.16817">
        <ele>2451</ele>
        <time>2016-03-19T11:00:25Z</time>
      </trkpt>
      <trkpt lat="45.26611" lon="6.16818">
        <ele>2452</ele>
        <time>2016-03-19T11:00:30Z</time>
      </trkpt>
      <trkpt lat="45.26609" lon="6.16818">
        <ele>2452</ele>
        <time>2016-03-19T11:00:35Z</time>
      </trkpt>
      <trkpt lat="45.26607" lon="6.16818">
        <ele>2453</ele>
        <time>2016-03-19T11:00:40Z</time>
      </trkpt>
      <trkpt lat="45.26605" lon="6.16818">
        <ele>2454</ele>
        <time>2016-03-19T11:00:45Z</time>
      </trkpt>
      <trkpt lat="45.26603" lon="6.16818">
        <ele>2454</ele>
        <time>2016-03-19T11:00:50Z</time>
      </trkpt>
      <trkpt lat="45.26601" lon="6.16819">
        <ele>2455</ele>
        <time>2016-03-19T11:00:55Z</time>
      </trkpt>
      <trkpt lat="45.26601" lon="6.16818">
        <ele>2455</ele>
        <time>2016-03-19T11:01:00Z</time>
      </trkpt>
      <trkpt lat="45.26602" lon="6.16815">
        <ele>2456</ele>
        <time>2016-03-19T11:01:05Z</time>
      </trkpt>
      <trkpt lat="45.26603" lon="6.16812">
        <ele>2456</ele>
        <time>2016-03-19T11:01:10Z</time>
      </trkpt>
      <trkpt lat="45.26604" lon="6.16809">
        <ele>2457</ele>
        <time>2016-03-19T11:01:15Z</time>
      </trkpt>
      <trkpt lat="45.26605" lon="6.16806">
        <ele>2458</ele>
        <time>2016-03-19T11:01:20Z</time>
      </trkpt>
      <trkpt lat="45.26606" lon="6.16803">
        <ele>2459</ele>
        <time>2016-03-19T11:01:25Z</time>
      </trkpt>
      <trkpt lat="45.26606" lon="6.168">
        <ele>2460</ele>
        <time>2016-03-19T11:01:30Z</time>
      </trkpt>
      <trkpt lat="45.26607" lon="6.16797">
        <ele>2461</ele>
        <time>2016-03-19T11:01:35Z</time>
      </trkpt>
      <trkpt lat="45.26608" lon="6.16794">
        <ele>2462</ele>
        <time>2016-03-19T11:01:40Z</time>
      </trkpt>
      <trkpt lat="45.2661" lon="6.16791">
        <ele>2463</ele>
        <time>2016-03-19T11:01:45Z</time>
      </trkpt>
      <trkpt lat="45.26611" lon="6.16789">
        <ele>2464</ele>
        <time>2016-03-19T11:01:50Z</time>
      </trkpt>
      <trkpt lat="45.26612" lon="6.16786">
        <ele>2465</ele>
        <time>2016-03-19T11:01:55Z</time>
      </trkpt>
      <trkpt lat="45.26613" lon="6.16782">
        <ele>2465</ele>
        <time>2016-03-19T11:02:00Z</time>
      </trkpt>
      <trkpt lat="45.26614" lon="6.1678">
        <ele>2466</ele>
        <time>2016-03-19T11:02:05Z</time>
      </trkpt>
      <trkpt lat="45.26616" lon="6.16777">
        <ele>2467</ele>
        <time>2016-03-19T11:02:10Z</time>
      </trkpt>
      <trkpt lat="45.26616" lon="6.16775">
        <ele>2467</ele>
        <time>2016-03-19T11:02:15Z</time>
      </trkpt>
      <trkpt lat="45.26613" lon="6.16775">
        <ele>2467</ele>
        <time>2016-03-19T11:02:20Z</time>
      </trkpt>
      <trkpt lat="45.26611" lon="6.16775">
        <ele>2467</ele>
        <time>2016-03-19T11:02:25Z</time>
      </trkpt>
      <trkpt lat="45.26609" lon="6.16775">
        <ele>2468</ele>
        <time>2016-03-19T11:02:30Z</time>
      </trkpt>
      <trkpt lat="45.26607" lon="6.16775">
        <ele>2469</ele>
        <time>2016-03-19T11:02:35Z</time>
      </trkpt>
      <trkpt lat="45.26605" lon="6.16775">
        <ele>2469</ele>
        <time>2016-03-19T11:02:40Z</time>
      </trkpt>
      <trkpt lat="45.26603" lon="6.16776">
        <ele>2470</ele>
        <time>2016-03-19T11:02:45Z</time>
      </trkpt>
      <trkpt lat="45.266" lon="6.16776">
        <ele>2471</ele>
        <time>2016-03-19T11:02:50Z</time>
      </trkpt>
      <trkpt lat="45.26597" lon="6.16776">
        <ele>2471</ele>
        <time>2016-03-19T11:02:55Z</time>
      </trkpt>
      <trkpt lat="45.26595" lon="6.16777">
        <ele>2472</ele>
        <time>2016-03-19T11:03:00Z</time>
      </trkpt>
      <trkpt lat="45.26593" lon="6.16778">
        <ele>2473</ele>
        <time>2016-03-19T11:03:05Z</time>
      </trkpt>
      <trkpt lat="45.26592" lon="6.16777">
        <ele>2474</ele>
        <time>2016-03-19T11:03:10Z</time>
      </trkpt>
      <trkpt lat="45.26592" lon="6.16777">
        <ele>2474</ele>
        <time>2016-03-19T11:03:15Z</time>
      </trkpt>
      <trkpt lat="45.26592" lon="6.16777">
        <ele>2474</ele>
        <time>2016-03-19T11:03:20Z</time>
      </trkpt>
      <trkpt lat="45.26592" lon="6.16777">
        <ele>2473</ele>
        <time>2016-03-19T11:03:25Z</time>
      </trkpt>
      <trkpt lat="45.26592" lon="6.16777">
        <ele>2473</ele>
        <time>2016-03-19T11:03:30Z</time>
      </trkpt>
      <trkpt lat="45.26592" lon="6.16778">
        <ele>2473</ele>
        <time>2016-03-19T11:03:35Z</time>
      </trkpt>
      <trkpt lat="45.26591" lon="6.1678">
        <ele>2476</ele>
        <time>2016-03-19T11:03:40Z</time>
      </trkpt>
      <trkpt lat="45.2659" lon="6.16781">
        <ele>2477</ele>
        <time>2016-03-19T11:03:45Z</time>
      </trkpt>
      <trkpt lat="45.2659" lon="6.16781">
        <ele>2478</ele>
        <time>2016-03-19T11:03:50Z</time>
      </trkpt>
      <trkpt lat="45.26591" lon="6.16779">
        <ele>2482</ele>
        <time>2016-03-19T11:03:55Z</time>
      </trkpt>
      <trkpt lat="45.26592" lon="6.16777">
        <ele>2484</ele>
        <time>2016-03-19T11:04:00Z</time>
      </trkpt>
      <trkpt lat="45.26593" lon="6.16774">
        <ele>2485</ele>
        <time>2016-03-19T11:04:05Z</time>
      </trkpt>
      <trkpt lat="45.26594" lon="6.1677">
        <ele>2484</ele>
        <time>2016-03-19T11:04:10Z</time>
      </trkpt>
      <trkpt lat="45.26596" lon="6.16767">
        <ele>2484</ele>
        <time>2016-03-19T11:04:15Z</time>
      </trkpt>
      <trkpt lat="45.26597" lon="6.16763">
        <ele>2484</ele>
        <time>2016-03-19T11:04:20Z</time>
      </trkpt>
      <trkpt lat="45.266" lon="6.16759">
        <ele>2485</ele>
        <time>2016-03-19T11:04:25Z</time>
      </trkpt>
      <trkpt lat="45.26601" lon="6.16756">
        <ele>2484</ele>
        <time>2016-03-19T11:04:30Z</time>
      </trkpt>
      <trkpt lat="45.26603" lon="6.16753">
        <ele>2484</ele>
        <time>2016-03-19T11:04:35Z</time>
      </trkpt>
      <trkpt lat="45.26603" lon="6.16752">
        <ele>2482</ele>
        <time>2016-03-19T11:04:40Z</time>
      </trkpt>
      <trkpt lat="45.26603" lon="6.16752">
        <ele>2482</ele>
        <time>2016-03-19T11:04:45Z</time>
      </trkpt>
      <trkpt lat="45.26602" lon="6.16751">
        <ele>2481</ele>
        <time>2016-03-19T11:04:50Z</time>
      </trkpt>
      <trkpt lat="45.266" lon="6.16751">
        <ele>2482</ele>
        <time>2016-03-19T11:04:55Z</time>
      </trkpt>
      <trkpt lat="45.26597" lon="6.1675">
        <ele>2482</ele>
        <time>2016-03-19T11:05:00Z</time>
      </trkpt>
      <trkpt lat="45.26596" lon="6.1675">
        <ele>2483</ele>
        <time>2016-03-19T11:05:05Z</time>
      </trkpt>
      <trkpt lat="45.26596" lon="6.1675">
        <ele>2483</ele>
        <time>2016-03-19T11:05:10Z</time>
      </trkpt>
      <trkpt lat="45.26596" lon="6.16749">
        <ele>2483</ele>
        <time>2016-03-19T11:05:15Z</time>
      </trkpt>
      <trkpt lat="45.26596" lon="6.16749">
        <ele>2483</ele>
        <time>2016-03-19T11:05:20Z</time>
      </trkpt>
      <trkpt lat="45.26596" lon="6.16749">
        <ele>2483</ele>
        <time>2016-03-19T11:05:25Z</time>
      </trkpt>
      <trkpt lat="45.26596" lon="6.16749">
        <ele>2482</ele>
        <time>2016-03-19T11:05:30Z</time>
      </trkpt>
      <trkpt lat="45.26596" lon="6.16749">
        <ele>2482</ele>
        <time>2016-03-19T11:05:35Z</time>
      </trkpt>
      <trkpt lat="45.26596" lon="6.16749">
        <ele>2482</ele>
        <time>2016-03-19T11:05:40Z</time>
      </trkpt>
      <trkpt lat="45.26596" lon="6.16749">
        <ele>2482</ele>
        <time>2016-03-19T11:05:45Z</time>
      </trkpt>
      <trkpt lat="45.26596" lon="6.16749">
        <ele>2482</ele>
        <time>2016-03-19T11:05:50Z</time>
      </trkpt>
      <trkpt lat="45.26596" lon="6.16749">
        <ele>2482</ele>
        <time>2016-03-19T11:05:55Z</time>
      </trkpt>
      <trkpt lat="45.26595" lon="6.16749">
        <ele>2483</ele>
        <time>2016-03-19T11:06:00Z</time>
      </trkpt>
      <trkpt lat="45.26593" lon="6.16748">
        <ele>2484</ele>
        <time>2016-03-19T11:06:05Z</time>
      </trkpt>
      <trkpt lat="45.2659" lon="6.16748">
        <ele>2484</ele>
        <time>2016-03-19T11:06:10Z</time>
      </trkpt>
      <trkpt lat="45.26589" lon="6.16748">
        <ele>2485</ele>
        <time>2016-03-19T11:06:15Z</time>
      </trkpt>
      <trkpt lat="45.26589" lon="6.16747">
        <ele>2485</ele>
        <time>2016-03-19T11:06:20Z</time>
      </trkpt>
      <trkpt lat="45.26589" lon="6.16747">
        <ele>2485</ele>
        <time>2016-03-19T11:06:25Z</time>
      </trkpt>
      <trkpt lat="45.26589" lon="6.16748">
        <ele>2485</ele>
        <time>2016-03-19T11:06:30Z</time>
      </trkpt>
      <trkpt lat="45.26589" lon="6.16748">
        <ele>2485</ele>
        <time>2016-03-19T11:06:35Z</time>
      </trkpt>
      <trkpt lat="45.26589" lon="6.16748">
        <ele>2486</ele>
        <time>2016-03-19T11:06:40Z</time>
      </trkpt>
      <trkpt lat="45.26589" lon="6.16748">
        <ele>2486</ele>
        <time>2016-03-19T11:06:45Z</time>
      </trkpt>
      <trkpt lat="45.26589" lon="6.16748">
        <ele>2486</ele>
        <time>2016-03-19T11:06:50Z</time>
      </trkpt>
      <trkpt lat="45.26589" lon="6.16748">
        <ele>2486</ele>
        <time>2016-03-19T11:06:55Z</time>
      </trkpt>
      <trkpt lat="45.26589" lon="6.16746">
        <ele>2487</ele>
        <time>2016-03-19T11:07:00Z</time>
      </trkpt>
      <trkpt lat="45.2659" lon="6.16744">
        <ele>2488</ele>
        <time>2016-03-19T11:07:05Z</time>
      </trkpt>
      <trkpt lat="45.26592" lon="6.1674">
        <ele>2489</ele>
        <time>2016-03-19T11:07:10Z</time>
      </trkpt>
      <trkpt lat="45.26593" lon="6.16737">
        <ele>2490</ele>
        <time>2016-03-19T11:07:15Z</time>
      </trkpt>
      <trkpt lat="45.26595" lon="6.16734">
        <ele>2491</ele>
        <time>2016-03-19T11:07:20Z</time>
      </trkpt>
      <trkpt lat="45.26597" lon="6.16732">
        <ele>2492</ele>
        <time>2016-03-19T11:07:25Z</time>
      </trkpt>
      <trkpt lat="45.26598" lon="6.1673">
        <ele>2493</ele>
        <time>2016-03-19T11:07:30Z</time>
      </trkpt>
      <trkpt lat="45.266" lon="6.16729">
        <ele>2494</ele>
        <time>2016-03-19T11:07:35Z</time>
      </trkpt>
      <trkpt lat="45.26598" lon="6.16728">
        <ele>2494</ele>
        <time>2016-03-19T11:07:40Z</time>
      </trkpt>
      <trkpt lat="45.26596" lon="6.16727">
        <ele>2495</ele>
        <time>2016-03-19T11:07:45Z</time>
      </trkpt>
      <trkpt lat="45.26593" lon="6.16726">
        <ele>2496</ele>
        <time>2016-03-19T11:07:50Z</time>
      </trkpt>
      <trkpt lat="45.26592" lon="6.16725">
        <ele>2497</ele>
        <time>2016-03-19T11:07:55Z</time>
      </trkpt>
      <trkpt lat="45.26589" lon="6.16724">
        <ele>2497</ele>
        <time>2016-03-19T11:08:00Z</time>
      </trkpt>
      <trkpt lat="45.26587" lon="6.16724">
        <ele>2498</ele>
        <time>2016-03-19T11:08:05Z</time>
      </trkpt>
      <trkpt lat="45.26585" lon="6.16724">
        <ele>2499</ele>
        <time>2016-03-19T11:08:10Z</time>
      </trkpt>
      <trkpt lat="45.26582" lon="6.16723">
        <ele>2500</ele>
        <time>2016-03-19T11:08:15Z</time>
      </trkpt>
      <trkpt lat="45.2658" lon="6.16723">
        <ele>2501</ele>
        <time>2016-03-19T11:08:20Z</time>
      </trkpt>
      <trkpt lat="45.26577" lon="6.16723">
        <ele>2501</ele>
        <time>2016-03-19T11:08:25Z</time>
      </trkpt>
      <trkpt lat="45.26576" lon="6.16724">
        <ele>2502</ele>
        <time>2016-03-19T11:08:30Z</time>
      </trkpt>
      <trkpt lat="45.26576" lon="6.16723">
        <ele>2502</ele>
        <time>2016-03-19T11:08:35Z</time>
      </trkpt>
      <trkpt lat="45.26576" lon="6.16723">
        <ele>2502</ele>
        <time>2016-03-19T11:08:40Z</time>
      </trkpt>
      <trkpt lat="45.26576" lon="6.1672">
        <ele>2502</ele>
        <time>2016-03-19T11:08:45Z</time>
      </trkpt>
      <trkpt lat="45.26577" lon="6.16718">
        <ele>2503</ele>
        <time>2016-03-19T11:08:50Z</time>
      </trkpt>
      <trkpt lat="45.26577" lon="6.16715">
        <ele>2504</ele>
        <time>2016-03-19T11:08:55Z</time>
      </trkpt>
      <trkpt lat="45.26578" lon="6.16712">
        <ele>2505</ele>
        <time>2016-03-19T11:09:00Z</time>
      </trkpt>
      <trkpt lat="45.26579" lon="6.1671">
        <ele>2505</ele>
        <time>2016-03-19T11:09:05Z</time>
      </trkpt>
      <trkpt lat="45.2658" lon="6.16707">
        <ele>2506</ele>
        <time>2016-03-19T11:09:10Z</time>
      </trkpt>
      <trkpt lat="45.26582" lon="6.16705">
        <ele>2507</ele>
        <time>2016-03-19T11:09:15Z</time>
      </trkpt>
      <trkpt lat="45.26583" lon="6.16703">
        <ele>2507</ele>
        <time>2016-03-19T11:09:20Z</time>
      </trkpt>
      <trkpt lat="45.26584" lon="6.16701">
        <ele>2508</ele>
        <time>2016-03-19T11:09:25Z</time>
      </trkpt>
      <trkpt lat="45.26586" lon="6.16699">
        <ele>2509</ele>
        <time>2016-03-19T11:09:30Z</time>
      </trkpt>
      <trkpt lat="45.26587" lon="6.16699">
        <ele>2509</ele>
        <time>2016-03-19T11:09:35Z</time>
      </trkpt>
      <trkpt lat="45.26587" lon="6.16698">
        <ele>2509</ele>
        <time>2016-03-19T11:09:40Z</time>
      </trkpt>
      <trkpt lat="45.26585" lon="6.16698">
        <ele>2510</ele>
        <time>2016-03-19T11:09:45Z</time>
      </trkpt>
      <trkpt lat="45.26582" lon="6.16697">
        <ele>2510</ele>
        <time>2016-03-19T11:09:50Z</time>
      </trkpt>
      <trkpt lat="45.2658" lon="6.16697">
        <ele>2511</ele>
        <time>2016-03-19T11:09:55Z</time>
      </trkpt>
      <trkpt lat="45.26577" lon="6.16697">
        <ele>2511</ele>
        <time>2016-03-19T11:10:00Z</time>
      </trkpt>
      <trkpt lat="45.26575" lon="6.16697">
        <ele>2512</ele>
        <time>2016-03-19T11:10:05Z</time>
      </trkpt>
      <trkpt lat="45.26573" lon="6.16697">
        <ele>2512</ele>
        <time>2016-03-19T11:10:10Z</time>
      </trkpt>
      <trkpt lat="45.26571" lon="6.16698">
        <ele>2513</ele>
        <time>2016-03-19T11:10:15Z</time>
      </trkpt>
      <trkpt lat="45.26569" lon="6.16699">
        <ele>2513</ele>
        <time>2016-03-19T11:10:20Z</time>
      </trkpt>
      <trkpt lat="45.26567" lon="6.167">
        <ele>2514</ele>
        <time>2016-03-19T11:10:25Z</time>
      </trkpt>
      <trkpt lat="45.26567" lon="6.167">
        <ele>2514</ele>
        <time>2016-03-19T11:10:30Z</time>
      </trkpt>
      <trkpt lat="45.26567" lon="6.167">
        <ele>2514</ele>
        <time>2016-03-19T11:10:35Z</time>
      </trkpt>
      <trkpt lat="45.26567" lon="6.16697">
        <ele>2514</ele>
        <time>2016-03-19T11:10:40Z</time>
      </trkpt>
      <trkpt lat="45.26568" lon="6.16694">
        <ele>2515</ele>
        <time>2016-03-19T11:10:45Z</time>
      </trkpt>
      <trkpt lat="45.26569" lon="6.16692">
        <ele>2516</ele>
        <time>2016-03-19T11:10:50Z</time>
      </trkpt>
      <trkpt lat="45.2657" lon="6.16689">
        <ele>2516</ele>
        <time>2016-03-19T11:10:55Z</time>
      </trkpt>
      <trkpt lat="45.26571" lon="6.16686">
        <ele>2517</ele>
        <time>2016-03-19T11:11:00Z</time>
      </trkpt>
      <trkpt lat="45.26572" lon="6.16683">
        <ele>2518</ele>
        <time>2016-03-19T11:11:05Z</time>
      </trkpt>
      <trkpt lat="45.26573" lon="6.16681">
        <ele>2518</ele>
        <time>2016-03-19T11:11:10Z</time>
      </trkpt>
      <trkpt lat="45.26574" lon="6.1668">
        <ele>2519</ele>
        <time>2016-03-19T11:11:15Z</time>
      </trkpt>
      <trkpt lat="45.26574" lon="6.16679">
        <ele>2519</ele>
        <time>2016-03-19T11:11:20Z</time>
      </trkpt>
      <trkpt lat="45.26571" lon="6.16679">
        <ele>2520</ele>
        <time>2016-03-19T11:11:25Z</time>
      </trkpt>
      <trkpt lat="45.26569" lon="6.16679">
        <ele>2520</ele>
        <time>2016-03-19T11:11:30Z</time>
      </trkpt>
      <trkpt lat="45.26567" lon="6.1668">
        <ele>2521</ele>
        <time>2016-03-19T11:11:35Z</time>
      </trkpt>
      <trkpt lat="45.26566" lon="6.1668">
        <ele>2522</ele>
        <time>2016-03-19T11:11:40Z</time>
      </trkpt>
      <trkpt lat="45.26565" lon="6.1668">
        <ele>2522</ele>
        <time>2016-03-19T11:11:45Z</time>
      </trkpt>
      <trkpt lat="45.26564" lon="6.1668">
        <ele>2522</ele>
        <time>2016-03-19T11:11:50Z</time>
      </trkpt>
      <trkpt lat="45.26564" lon="6.16681">
        <ele>2522</ele>
        <time>2016-03-19T11:11:55Z</time>
      </trkpt>
      <trkpt lat="45.26562" lon="6.16681">
        <ele>2523</ele>
        <time>2016-03-19T11:12:00Z</time>
      </trkpt>
      <trkpt lat="45.26561" lon="6.16682">
        <ele>2523</ele>
        <time>2016-03-19T11:12:05Z</time>
      </trkpt>
      <trkpt lat="45.2656" lon="6.16683">
        <ele>2523</ele>
        <time>2016-03-19T11:12:10Z</time>
      </trkpt>
      <trkpt lat="45.2656" lon="6.16683">
        <ele>2524</ele>
        <time>2016-03-19T11:12:15Z</time>
      </trkpt>
      <trkpt lat="45.2656" lon="6.16683">
        <ele>2524</ele>
        <time>2016-03-19T11:12:20Z</time>
      </trkpt>
      <trkpt lat="45.2656" lon="6.16683">
        <ele>2524</ele>
        <time>2016-03-19T11:12:25Z</time>
      </trkpt>
      <trkpt lat="45.2656" lon="6.16683">
        <ele>2524</ele>
        <time>2016-03-19T11:12:30Z</time>
      </trkpt>
      <trkpt lat="45.2656" lon="6.1668">
        <ele>2524</ele>
        <time>2016-03-19T11:12:35Z</time>
      </trkpt>
      <trkpt lat="45.26561" lon="6.16677">
        <ele>2524</ele>
        <time>2016-03-19T11:12:40Z</time>
      </trkpt>
      <trkpt lat="45.26562" lon="6.16674">
        <ele>2525</ele>
        <time>2016-03-19T11:12:45Z</time>
      </trkpt>
      <trkpt lat="45.26563" lon="6.16671">
        <ele>2526</ele>
        <time>2016-03-19T11:12:50Z</time>
      </trkpt>
      <trkpt lat="45.26564" lon="6.16668">
        <ele>2527</ele>
        <time>2016-03-19T11:12:55Z</time>
      </trkpt>
      <trkpt lat="45.26565" lon="6.16665">
        <ele>2528</ele>
        <time>2016-03-19T11:13:00Z</time>
      </trkpt>
      <trkpt lat="45.26566" lon="6.16663">
        <ele>2528</ele>
        <time>2016-03-19T11:13:05Z</time>
      </trkpt>
      <trkpt lat="45.26567" lon="6.16662">
        <ele>2529</ele>
        <time>2016-03-19T11:13:10Z</time>
      </trkpt>
      <trkpt lat="45.26568" lon="6.16661">
        <ele>2530</ele>
        <time>2016-03-19T11:13:15Z</time>
      </trkpt>
      <trkpt lat="45.26567" lon="6.16661">
        <ele>2530</ele>
        <time>2016-03-19T11:13:20Z</time>
      </trkpt>
      <trkpt lat="45.26564" lon="6.16661">
        <ele>2530</ele>
        <time>2016-03-19T11:13:25Z</time>
      </trkpt>
      <trkpt lat="45.26562" lon="6.16661">
        <ele>2531</ele>
        <time>2016-03-19T11:13:30Z</time>
      </trkpt>
      <trkpt lat="45.2656" lon="6.16661">
        <ele>2532</ele>
        <time>2016-03-19T11:13:35Z</time>
      </trkpt>
      <trkpt lat="45.26557" lon="6.16662">
        <ele>2533</ele>
        <time>2016-03-19T11:13:40Z</time>
      </trkpt>
      <trkpt lat="45.26555" lon="6.16663">
        <ele>2533</ele>
        <time>2016-03-19T11:13:45Z</time>
      </trkpt>
      <trkpt lat="45.26553" lon="6.16664">
        <ele>2534</ele>
        <time>2016-03-19T11:13:50Z</time>
      </trkpt>
      <trkpt lat="45.26551" lon="6.16665">
        <ele>2534</ele>
        <time>2016-03-19T11:13:55Z</time>
      </trkpt>
      <trkpt lat="45.26548" lon="6.16666">
        <ele>2535</ele>
        <time>2016-03-19T11:14:00Z</time>
      </trkpt>
      <trkpt lat="45.26546" lon="6.16667">
        <ele>2536</ele>
        <time>2016-03-19T11:14:05Z</time>
      </trkpt>
      <trkpt lat="45.26544" lon="6.16668">
        <ele>2536</ele>
        <time>2016-03-19T11:14:10Z</time>
      </trkpt>
      <trkpt lat="45.26544" lon="6.16667">
        <ele>2537</ele>
        <time>2016-03-19T11:14:15Z</time>
      </trkpt>
      <trkpt lat="45.26544" lon="6.16667">
        <ele>2537</ele>
        <time>2016-03-19T11:14:20Z</time>
      </trkpt>
      <trkpt lat="45.26544" lon="6.16666">
        <ele>2537</ele>
        <time>2016-03-19T11:14:25Z</time>
      </trkpt>
      <trkpt lat="45.26545" lon="6.16662">
        <ele>2537</ele>
        <time>2016-03-19T11:14:30Z</time>
      </trkpt>
      <trkpt lat="45.26546" lon="6.16659">
        <ele>2538</ele>
        <time>2016-03-19T11:14:35Z</time>
      </trkpt>
      <trkpt lat="45.26547" lon="6.16656">
        <ele>2539</ele>
        <time>2016-03-19T11:14:40Z</time>
      </trkpt>
      <trkpt lat="45.26548" lon="6.16653">
        <ele>2540</ele>
        <time>2016-03-19T11:14:45Z</time>
      </trkpt>
      <trkpt lat="45.26549" lon="6.16651">
        <ele>2540</ele>
        <time>2016-03-19T11:14:50Z</time>
      </trkpt>
      <trkpt lat="45.2655" lon="6.16648">
        <ele>2541</ele>
        <time>2016-03-19T11:14:55Z</time>
      </trkpt>
      <trkpt lat="45.26551" lon="6.16646">
        <ele>2542</ele>
        <time>2016-03-19T11:15:00Z</time>
      </trkpt>
      <trkpt lat="45.26553" lon="6.16644">
        <ele>2543</ele>
        <time>2016-03-19T11:15:05Z</time>
      </trkpt>
      <trkpt lat="45.26552" lon="6.16644">
        <ele>2543</ele>
        <time>2016-03-19T11:15:10Z</time>
      </trkpt>
      <trkpt lat="45.2655" lon="6.16645">
        <ele>2543</ele>
        <time>2016-03-19T11:15:15Z</time>
      </trkpt>
      <trkpt lat="45.26547" lon="6.16646">
        <ele>2544</ele>
        <time>2016-03-19T11:15:20Z</time>
      </trkpt>
      <trkpt lat="45.26545" lon="6.16646">
        <ele>2544</ele>
        <time>2016-03-19T11:15:25Z</time>
      </trkpt>
      <trkpt lat="45.26543" lon="6.16646">
        <ele>2545</ele>
        <time>2016-03-19T11:15:30Z</time>
      </trkpt>
      <trkpt lat="45.2654" lon="6.16646">
        <ele>2546</ele>
        <time>2016-03-19T11:15:35Z</time>
      </trkpt>
      <trkpt lat="45.26538" lon="6.16646">
        <ele>2546</ele>
        <time>2016-03-19T11:15:40Z</time>
      </trkpt>
      <trkpt lat="45.26538" lon="6.16646">
        <ele>2546</ele>
        <time>2016-03-19T11:15:45Z</time>
      </trkpt>
      <trkpt lat="45.26537" lon="6.16646">
        <ele>2546</ele>
        <time>2016-03-19T11:15:50Z</time>
      </trkpt>
      <trkpt lat="45.26535" lon="6.16647">
        <ele>2547</ele>
        <time>2016-03-19T11:15:55Z</time>
      </trkpt>
      <trkpt lat="45.26532" lon="6.16647">
        <ele>2548</ele>
        <time>2016-03-19T11:16:00Z</time>
      </trkpt>
      <trkpt lat="45.26531" lon="6.16648">
        <ele>2548</ele>
        <time>2016-03-19T11:16:05Z</time>
      </trkpt>
      <trkpt lat="45.2653" lon="6.16647">
        <ele>2549</ele>
        <time>2016-03-19T11:16:10Z</time>
      </trkpt>
      <trkpt lat="45.26531" lon="6.16645">
        <ele>2550</ele>
        <time>2016-03-19T11:16:15Z</time>
      </trkpt>
      <trkpt lat="45.26532" lon="6.16642">
        <ele>2550</ele>
        <time>2016-03-19T11:16:20Z</time>
      </trkpt>
      <trkpt lat="45.26533" lon="6.1664">
        <ele>2551</ele>
        <time>2016-03-19T11:16:25Z</time>
      </trkpt>
      <trkpt lat="45.26534" lon="6.16637">
        <ele>2552</ele>
        <time>2016-03-19T11:16:30Z</time>
      </trkpt>
      <trkpt lat="45.26535" lon="6.16635">
        <ele>2552</ele>
        <time>2016-03-19T11:16:35Z</time>
      </trkpt>
      <trkpt lat="45.26534" lon="6.16636">
        <ele>2553</ele>
        <time>2016-03-19T11:16:40Z</time>
      </trkpt>
      <trkpt lat="45.26531" lon="6.16638">
        <ele>2553</ele>
        <time>2016-03-19T11:16:45Z</time>
      </trkpt>
      <trkpt lat="45.26528" lon="6.1664">
        <ele>2553</ele>
        <time>2016-03-19T11:16:50Z</time>
      </trkpt>
      <trkpt lat="45.26526" lon="6.16642">
        <ele>2554</ele>
        <time>2016-03-19T11:16:55Z</time>
      </trkpt>
      <trkpt lat="45.26524" lon="6.16643">
        <ele>2554</ele>
        <time>2016-03-19T11:17:00Z</time>
      </trkpt>
      <trkpt lat="45.26523" lon="6.16643">
        <ele>2554</ele>
        <time>2016-03-19T11:17:05Z</time>
      </trkpt>
      <trkpt lat="45.26523" lon="6.16643">
        <ele>2554</ele>
        <time>2016-03-19T11:17:10Z</time>
      </trkpt>
      <trkpt lat="45.26523" lon="6.16643">
        <ele>2554</ele>
        <time>2016-03-19T11:17:15Z</time>
      </trkpt>
      <trkpt lat="45.26523" lon="6.16643">
        <ele>2554</ele>
        <time>2016-03-19T11:17:20Z</time>
      </trkpt>
      <trkpt lat="45.26523" lon="6.16643">
        <ele>2552</ele>
        <time>2016-03-19T11:24:00Z</time>
      </trkpt>
      <trkpt lat="45.26523" lon="6.16643">
        <ele>2552</ele>
        <time>2016-03-19T11:24:05Z</time>
      </trkpt>
      <trkpt lat="45.26523" lon="6.16643">
        <ele>2552</ele>
        <time>2016-03-19T11:24:10Z</time>
      </trkpt>
      <trkpt lat="45.26522" lon="6.16643">
        <ele>2553</ele>
        <time>2016-03-19T11:24:15Z</time>
      </trkpt>
      <trkpt lat="45.26521" lon="6.16642">
        <ele>2553</ele>
        <time>2016-03-19T11:24:20Z</time>
      </trkpt>
      <trkpt lat="45.26521" lon="6.16642">
        <ele>2554</ele>
        <time>2016-03-19T11:24:25Z</time>
      </trkpt>
      <trkpt lat="45.26519" lon="6.1664">
        <ele>2554</ele>
        <time>2016-03-19T11:24:30Z</time>
      </trkpt>
      <trkpt lat="45.26516" lon="6.16638">
        <ele>2555</ele>
        <time>2016-03-19T11:24:35Z</time>
      </trkpt>
      <trkpt lat="45.26514" lon="6.16637">
        <ele>2556</ele>
        <time>2016-03-19T11:24:40Z</time>
      </trkpt>
      <trkpt lat="45.26511" lon="6.16635">
        <ele>2557</ele>
        <time>2016-03-19T11:24:45Z</time>
      </trkpt>
      <trkpt lat="45.26508" lon="6.16633">
        <ele>2557</ele>
        <time>2016-03-19T11:24:50Z</time>
      </trkpt>
      <trkpt lat="45.26506" lon="6.1663">
        <ele>2558</ele>
        <time>2016-03-19T11:24:55Z</time>
      </trkpt>
      <trkpt lat="45.26504" lon="6.16627">
        <ele>2559</ele>
        <time>2016-03-19T11:25:00Z</time>
      </trkpt>
      <trkpt lat="45.26502" lon="6.16625">
        <ele>2560</ele>
        <time>2016-03-19T11:25:05Z</time>
      </trkpt>
      <trkpt lat="45.265" lon="6.16622">
        <ele>2560</ele>
        <time>2016-03-19T11:25:10Z</time>
      </trkpt>
      <trkpt lat="45.26498" lon="6.1662">
        <ele>2561</ele>
        <time>2016-03-19T11:25:15Z</time>
      </trkpt>
      <trkpt lat="45.26495" lon="6.16617">
        <ele>2562</ele>
        <time>2016-03-19T11:25:20Z</time>
      </trkpt>
      <trkpt lat="45.26492" lon="6.16615">
        <ele>2563</ele>
        <time>2016-03-19T11:25:25Z</time>
      </trkpt>
      <trkpt lat="45.2649" lon="6.16614">
        <ele>2563</ele>
        <time>2016-03-19T11:25:30Z</time>
      </trkpt>
      <trkpt lat="45.26488" lon="6.16613">
        <ele>2564</ele>
        <time>2016-03-19T11:25:35Z</time>
      </trkpt>
      <trkpt lat="45.26485" lon="6.16612">
        <ele>2564</ele>
        <time>2016-03-19T11:25:40Z</time>
      </trkpt>
      <trkpt lat="45.26482" lon="6.16611">
        <ele>2565</ele>
        <time>2016-03-19T11:25:45Z</time>
      </trkpt>
      <trkpt lat="45.2648" lon="6.1661">
        <ele>2565</ele>
        <time>2016-03-19T11:25:50Z</time>
      </trkpt>
      <trkpt lat="45.26477" lon="6.1661">
        <ele>2565</ele>
        <time>2016-03-19T11:25:55Z</time>
      </trkpt>
      <trkpt lat="45.26475" lon="6.1661">
        <ele>2566</ele>
        <time>2016-03-19T11:26:00Z</time>
      </trkpt>
      <trkpt lat="45.26474" lon="6.1661">
        <ele>2566</ele>
        <time>2016-03-19T11:26:05Z</time>
      </trkpt>
      <trkpt lat="45.26471" lon="6.1661">
        <ele>2566</ele>
        <time>2016-03-19T11:26:10Z</time>
      </trkpt>
      <trkpt lat="45.26469" lon="6.1661">
        <ele>2567</ele>
        <time>2016-03-19T11:26:15Z</time>
      </trkpt>
      <trkpt lat="45.26467" lon="6.1661">
        <ele>2567</ele>
        <time>2016-03-19T11:26:20Z</time>
      </trkpt>
      <trkpt lat="45.26465" lon="6.16611">
        <ele>2568</ele>
        <time>2016-03-19T11:26:25Z</time>
      </trkpt>
      <trkpt lat="45.26463" lon="6.16611">
        <ele>2568</ele>
        <time>2016-03-19T11:26:30Z</time>
      </trkpt>
      <trkpt lat="45.2646" lon="6.16613">
        <ele>2569</ele>
        <time>2016-03-19T11:26:35Z</time>
      </trkpt>
      <trkpt lat="45.26457" lon="6.16614">
        <ele>2569</ele>
        <time>2016-03-19T11:26:40Z</time>
      </trkpt>
      <trkpt lat="45.26455" lon="6.16615">
        <ele>2570</ele>
        <time>2016-03-19T11:26:45Z</time>
      </trkpt>
      <trkpt lat="45.26452" lon="6.16616">
        <ele>2570</ele>
        <time>2016-03-19T11:26:50Z</time>
      </trkpt>
      <trkpt lat="45.2645" lon="6.16617">
        <ele>2571</ele>
        <time>2016-03-19T11:26:55Z</time>
      </trkpt>
      <trkpt lat="45.26447" lon="6.16619">
        <ele>2572</ele>
        <time>2016-03-19T11:27:00Z</time>
      </trkpt>
      <trkpt lat="45.26444" lon="6.1662">
        <ele>2572</ele>
        <time>2016-03-19T11:27:05Z</time>
      </trkpt>
      <trkpt lat="45.26442" lon="6.1662">
        <ele>2573</ele>
        <time>2016-03-19T11:27:10Z</time>
      </trkpt>
      <trkpt lat="45.26441" lon="6.16618">
        <ele>2574</ele>
        <time>2016-03-19T11:27:15Z</time>
      </trkpt>
      <trkpt lat="45.26442" lon="6.16615">
        <ele>2575</ele>
        <time>2016-03-19T11:27:20Z</time>
      </trkpt>
      <trkpt lat="45.26442" lon="6.16612">
        <ele>2576</ele>
        <time>2016-03-19T11:27:25Z</time>
      </trkpt>
      <trkpt lat="45.26443" lon="6.16609">
        <ele>2577</ele>
        <time>2016-03-19T11:27:30Z</time>
      </trkpt>
      <trkpt lat="45.26444" lon="6.16606">
        <ele>2577</ele>
        <time>2016-03-19T11:27:35Z</time>
      </trkpt>
      <trkpt lat="45.26445" lon="6.16604">
        <ele>2578</ele>
        <time>2016-03-19T11:27:40Z</time>
      </trkpt>
      <trkpt lat="45.26445" lon="6.16601">
        <ele>2579</ele>
        <time>2016-03-19T11:27:45Z</time>
      </trkpt>
      <trkpt lat="45.26446" lon="6.16599">
        <ele>2579</ele>
        <time>2016-03-19T11:27:50Z</time>
      </trkpt>
      <trkpt lat="45.26447" lon="6.16596">
        <ele>2580</ele>
        <time>2016-03-19T11:27:55Z</time>
      </trkpt>
      <trkpt lat="45.26447" lon="6.16594">
        <ele>2580</ele>
        <time>2016-03-19T11:28:00Z</time>
      </trkpt>
      <trkpt lat="45.26448" lon="6.16591">
        <ele>2581</ele>
        <time>2016-03-19T11:28:05Z</time>
      </trkpt>
      <trkpt lat="45.26449" lon="6.16588">
        <ele>2581</ele>
        <time>2016-03-19T11:28:10Z</time>
      </trkpt>
      <trkpt lat="45.2645" lon="6.16587">
        <ele>2582</ele>
        <time>2016-03-19T11:28:15Z</time>
      </trkpt>
      <trkpt lat="45.26449" lon="6.16586">
        <ele>2583</ele>
        <time>2016-03-19T11:28:20Z</time>
      </trkpt>
      <trkpt lat="45.26446" lon="6.16586">
        <ele>2583</ele>
        <time>2016-03-19T11:28:25Z</time>
      </trkpt>
      <trkpt lat="45.26444" lon="6.16585">
        <ele>2584</ele>
        <time>2016-03-19T11:28:30Z</time>
      </trkpt>
      <trkpt lat="45.26442" lon="6.16584">
        <ele>2585</ele>
        <time>2016-03-19T11:28:35Z</time>
      </trkpt>
      <trkpt lat="45.2644" lon="6.16583">
        <ele>2586</ele>
        <time>2016-03-19T11:28:40Z</time>
      </trkpt>
      <trkpt lat="45.26438" lon="6.16581">
        <ele>2587</ele>
        <time>2016-03-19T11:28:45Z</time>
      </trkpt>
      <trkpt lat="45.26436" lon="6.1658">
        <ele>2587</ele>
        <time>2016-03-19T11:28:50Z</time>
      </trkpt>
      <trkpt lat="45.26434" lon="6.16578">
        <ele>2588</ele>
        <time>2016-03-19T11:28:55Z</time>
      </trkpt>
      <trkpt lat="45.26432" lon="6.16577">
        <ele>2589</ele>
        <time>2016-03-19T11:29:00Z</time>
      </trkpt>
      <trkpt lat="45.2643" lon="6.16577">
        <ele>2590</ele>
        <time>2016-03-19T11:29:05Z</time>
      </trkpt>
      <trkpt lat="45.26428" lon="6.16576">
        <ele>2590</ele>
        <time>2016-03-19T11:29:10Z</time>
      </trkpt>
      <trkpt lat="45.26427" lon="6.16576">
        <ele>2591</ele>
        <time>2016-03-19T11:29:15Z</time>
      </trkpt>
      <trkpt lat="45.26424" lon="6.16576">
        <ele>2591</ele>
        <time>2016-03-19T11:29:20Z</time>
      </trkpt>
      <trkpt lat="45.26423" lon="6.16576">
        <ele>2592</ele>
        <time>2016-03-19T11:29:25Z</time>
      </trkpt>
      <trkpt lat="45.26421" lon="6.16576">
        <ele>2592</ele>
        <time>2016-03-19T11:29:30Z</time>
      </trkpt>
      <trkpt lat="45.2642" lon="6.16577">
        <ele>2593</ele>
        <time>2016-03-19T11:29:35Z</time>
      </trkpt>
      <trkpt lat="45.26417" lon="6.16577">
        <ele>2593</ele>
        <time>2016-03-19T11:29:40Z</time>
      </trkpt>
      <trkpt lat="45.26415" lon="6.16579">
        <ele>2594</ele>
        <time>2016-03-19T11:29:45Z</time>
      </trkpt>
      <trkpt lat="45.26414" lon="6.16579">
        <ele>2595</ele>
        <time>2016-03-19T11:29:50Z</time>
      </trkpt>
      <trkpt lat="45.26412" lon="6.1658">
        <ele>2595</ele>
        <time>2016-03-19T11:29:55Z</time>
      </trkpt>
      <trkpt lat="45.2641" lon="6.16578">
        <ele>2595</ele>
        <time>2016-03-19T11:30:00Z</time>
      </trkpt>
      <trkpt lat="45.2641" lon="6.16576">
        <ele>2596</ele>
        <time>2016-03-19T11:30:05Z</time>
      </trkpt>
      <trkpt lat="45.2641" lon="6.16574">
        <ele>2597</ele>
        <time>2016-03-19T11:30:10Z</time>
      </trkpt>
      <trkpt lat="45.2641" lon="6.1657">
        <ele>2597</ele>
        <time>2016-03-19T11:30:15Z</time>
      </trkpt>
      <trkpt lat="45.2641" lon="6.16567">
        <ele>2598</ele>
        <time>2016-03-19T11:30:20Z</time>
      </trkpt>
      <trkpt lat="45.2641" lon="6.16564">
        <ele>2599</ele>
        <time>2016-03-19T11:30:25Z</time>
      </trkpt>
      <trkpt lat="45.26411" lon="6.16561">
        <ele>2600</ele>
        <time>2016-03-19T11:30:30Z</time>
      </trkpt>
      <trkpt lat="45.26412" lon="6.16558">
        <ele>2600</ele>
        <time>2016-03-19T11:30:35Z</time>
      </trkpt>
      <trkpt lat="45.26412" lon="6.16555">
        <ele>2601</ele>
        <time>2016-03-19T11:30:40Z</time>
      </trkpt>
      <trkpt lat="45.26413" lon="6.16553">
        <ele>2601</ele>
        <time>2016-03-19T11:30:45Z</time>
      </trkpt>
      <trkpt lat="45.26414" lon="6.1655">
        <ele>2602</ele>
        <time>2016-03-19T11:30:50Z</time>
      </trkpt>
      <trkpt lat="45.26415" lon="6.16547">
        <ele>2603</ele>
        <time>2016-03-19T11:30:55Z</time>
      </trkpt>
      <trkpt lat="45.26415" lon="6.16544">
        <ele>2604</ele>
        <time>2016-03-19T11:31:00Z</time>
      </trkpt>
      <trkpt lat="45.26416" lon="6.16542">
        <ele>2604</ele>
        <time>2016-03-19T11:31:05Z</time>
      </trkpt>
      <trkpt lat="45.26417" lon="6.1654">
        <ele>2605</ele>
        <time>2016-03-19T11:31:10Z</time>
      </trkpt>
      <trkpt lat="45.26418" lon="6.16538">
        <ele>2605</ele>
        <time>2016-03-19T11:31:15Z</time>
      </trkpt>
      <trkpt lat="45.26418" lon="6.16538">
        <ele>2606</ele>
        <time>2016-03-19T11:31:20Z</time>
      </trkpt>
      <trkpt lat="45.26416" lon="6.16538">
        <ele>2606</ele>
        <time>2016-03-19T11:31:25Z</time>
      </trkpt>
      <trkpt lat="45.26415" lon="6.16537">
        <ele>2607</ele>
        <time>2016-03-19T11:31:30Z</time>
      </trkpt>
      <trkpt lat="45.26413" lon="6.16537">
        <ele>2607</ele>
        <time>2016-03-19T11:31:35Z</time>
      </trkpt>
      <trkpt lat="45.26411" lon="6.16537">
        <ele>2608</ele>
        <time>2016-03-19T11:31:40Z</time>
      </trkpt>
      <trkpt lat="45.26409" lon="6.16536">
        <ele>2609</ele>
        <time>2016-03-19T11:31:45Z</time>
      </trkpt>
      <trkpt lat="45.26407" lon="6.16536">
        <ele>2609</ele>
        <time>2016-03-19T11:31:50Z</time>
      </trkpt>
      <trkpt lat="45.26405" lon="6.16535">
        <ele>2610</ele>
        <time>2016-03-19T11:31:55Z</time>
      </trkpt>
      <trkpt lat="45.26403" lon="6.16535">
        <ele>2611</ele>
        <time>2016-03-19T11:32:00Z</time>
      </trkpt>
      <trkpt lat="45.264" lon="6.16535">
        <ele>2612</ele>
        <time>2016-03-19T11:32:05Z</time>
      </trkpt>
      <trkpt lat="45.26398" lon="6.16535">
        <ele>2612</ele>
        <time>2016-03-19T11:32:10Z</time>
      </trkpt>
      <trkpt lat="45.26395" lon="6.16535">
        <ele>2613</ele>
        <time>2016-03-19T11:32:15Z</time>
      </trkpt>
      <trkpt lat="45.26394" lon="6.16535">
        <ele>2614</ele>
        <time>2016-03-19T11:32:20Z</time>
      </trkpt>
      <trkpt lat="45.26391" lon="6.16536">
        <ele>2614</ele>
        <time>2016-03-19T11:32:25Z</time>
      </trkpt>
      <trkpt lat="45.26391" lon="6.16537">
        <ele>2615</ele>
        <time>2016-03-19T11:32:30Z</time>
      </trkpt>
      <trkpt lat="45.26391" lon="6.16536">
        <ele>2615</ele>
        <time>2016-03-19T11:32:35Z</time>
      </trkpt>
      <trkpt lat="45.26391" lon="6.16534">
        <ele>2617</ele>
        <time>2016-03-19T11:32:40Z</time>
      </trkpt>
      <trkpt lat="45.26392" lon="6.16531">
        <ele>2618</ele>
        <time>2016-03-19T11:32:45Z</time>
      </trkpt>
      <trkpt lat="45.26394" lon="6.16528">
        <ele>2619</ele>
        <time>2016-03-19T11:32:50Z</time>
      </trkpt>
      <trkpt lat="45.26394" lon="6.16525">
        <ele>2620</ele>
        <time>2016-03-19T11:32:55Z</time>
      </trkpt>
      <trkpt lat="45.26395" lon="6.16522">
        <ele>2620</ele>
        <time>2016-03-19T11:33:00Z</time>
      </trkpt>
      <trkpt lat="45.26397" lon="6.1652">
        <ele>2621</ele>
        <time>2016-03-19T11:33:05Z</time>
      </trkpt>
      <trkpt lat="45.26398" lon="6.16518">
        <ele>2621</ele>
        <time>2016-03-19T11:33:10Z</time>
      </trkpt>
      <trkpt lat="45.264" lon="6.16516">
        <ele>2622</ele>
        <time>2016-03-19T11:33:15Z</time>
      </trkpt>
      <trkpt lat="45.26401" lon="6.16515">
        <ele>2623</ele>
        <time>2016-03-19T11:33:20Z</time>
      </trkpt>
      <trkpt lat="45.264" lon="6.16514">
        <ele>2624</ele>
        <time>2016-03-19T11:33:25Z</time>
      </trkpt>
      <trkpt lat="45.26399" lon="6.16513">
        <ele>2624</ele>
        <time>2016-03-19T11:33:30Z</time>
      </trkpt>
      <trkpt lat="45.26397" lon="6.16511">
        <ele>2625</ele>
        <time>2016-03-19T11:33:35Z</time>
      </trkpt>
      <trkpt lat="45.26395" lon="6.1651">
        <ele>2625</ele>
        <time>2016-03-19T11:33:40Z</time>
      </trkpt>
      <trkpt lat="45.26393" lon="6.16509">
        <ele>2626</ele>
        <time>2016-03-19T11:33:45Z</time>
      </trkpt>
      <trkpt lat="45.26391" lon="6.16508">
        <ele>2626</ele>
        <time>2016-03-19T11:33:50Z</time>
      </trkpt>
      <trkpt lat="45.26389" lon="6.16507">
        <ele>2627</ele>
        <time>2016-03-19T11:33:55Z</time>
      </trkpt>
      <trkpt lat="45.26389" lon="6.16507">
        <ele>2627</ele>
        <time>2016-03-19T11:34:00Z</time>
      </trkpt>
      <trkpt lat="45.26388" lon="6.16507">
        <ele>2627</ele>
        <time>2016-03-19T11:34:05Z</time>
      </trkpt>
      <trkpt lat="45.26386" lon="6.16507">
        <ele>2627</ele>
        <time>2016-03-19T11:34:10Z</time>
      </trkpt>
      <trkpt lat="45.26384" lon="6.16507">
        <ele>2628</ele>
        <time>2016-03-19T11:34:15Z</time>
      </trkpt>
      <trkpt lat="45.26381" lon="6.16507">
        <ele>2629</ele>
        <time>2016-03-19T11:34:20Z</time>
      </trkpt>
      <trkpt lat="45.26378" lon="6.16509">
        <ele>2630</ele>
        <time>2016-03-19T11:34:25Z</time>
      </trkpt>
      <trkpt lat="45.26376" lon="6.16511">
        <ele>2631</ele>
        <time>2016-03-19T11:34:30Z</time>
      </trkpt>
      <trkpt lat="45.26375" lon="6.16512">
        <ele>2632</ele>
        <time>2016-03-19T11:34:35Z</time>
      </trkpt>
      <trkpt lat="45.26376" lon="6.16508">
        <ele>2632</ele>
        <time>2016-03-19T11:34:40Z</time>
      </trkpt>
      <trkpt lat="45.26378" lon="6.16504">
        <ele>2633</ele>
        <time>2016-03-19T11:34:45Z</time>
      </trkpt>
      <trkpt lat="45.26378" lon="6.165">
        <ele>2633</ele>
        <time>2016-03-19T11:34:50Z</time>
      </trkpt>
      <trkpt lat="45.26379" lon="6.16497">
        <ele>2634</ele>
        <time>2016-03-19T11:34:55Z</time>
      </trkpt>
      <trkpt lat="45.26381" lon="6.16493">
        <ele>2635</ele>
        <time>2016-03-19T11:35:00Z</time>
      </trkpt>
      <trkpt lat="45.26382" lon="6.1649">
        <ele>2635</ele>
        <time>2016-03-19T11:35:05Z</time>
      </trkpt>
      <trkpt lat="45.26383" lon="6.16488">
        <ele>2636</ele>
        <time>2016-03-19T11:35:10Z</time>
      </trkpt>
      <trkpt lat="45.26384" lon="6.16485">
        <ele>2637</ele>
        <time>2016-03-19T11:35:15Z</time>
      </trkpt>
      <trkpt lat="45.26386" lon="6.16483">
        <ele>2637</ele>
        <time>2016-03-19T11:35:20Z</time>
      </trkpt>
      <trkpt lat="45.26387" lon="6.16481">
        <ele>2638</ele>
        <time>2016-03-19T11:35:25Z</time>
      </trkpt>
      <trkpt lat="45.26389" lon="6.16478">
        <ele>2639</ele>
        <time>2016-03-19T11:35:30Z</time>
      </trkpt>
      <trkpt lat="45.26391" lon="6.16476">
        <ele>2639</ele>
        <time>2016-03-19T11:35:35Z</time>
      </trkpt>
      <trkpt lat="45.26392" lon="6.16474">
        <ele>2640</ele>
        <time>2016-03-19T11:35:40Z</time>
      </trkpt>
      <trkpt lat="45.26394" lon="6.16472">
        <ele>2640</ele>
        <time>2016-03-19T11:35:45Z</time>
      </trkpt>
      <trkpt lat="45.26396" lon="6.1647">
        <ele>2641</ele>
        <time>2016-03-19T11:35:50Z</time>
      </trkpt>
      <trkpt lat="45.26397" lon="6.16469">
        <ele>2642</ele>
        <time>2016-03-19T11:35:55Z</time>
      </trkpt>
      <trkpt lat="45.26399" lon="6.16467">
        <ele>2643</ele>
        <time>2016-03-19T11:36:00Z</time>
      </trkpt>
      <trkpt lat="45.26401" lon="6.16466">
        <ele>2643</ele>
        <time>2016-03-19T11:36:05Z</time>
      </trkpt>
      <trkpt lat="45.26401" lon="6.16465">
        <ele>2644</ele>
        <time>2016-03-19T11:36:10Z</time>
      </trkpt>
      <trkpt lat="45.26399" lon="6.16464">
        <ele>2645</ele>
        <time>2016-03-19T11:36:15Z</time>
      </trkpt>
      <trkpt lat="45.26397" lon="6.16462">
        <ele>2646</ele>
        <time>2016-03-19T11:36:20Z</time>
      </trkpt>
      <trkpt lat="45.26394" lon="6.1646">
        <ele>2647</ele>
        <time>2016-03-19T11:36:25Z</time>
      </trkpt>
      <trkpt lat="45.26392" lon="6.16458">
        <ele>2647</ele>
        <time>2016-03-19T11:36:30Z</time>
      </trkpt>
      <trkpt lat="45.2639" lon="6.16457">
        <ele>2648</ele>
        <time>2016-03-19T11:36:35Z</time>
      </trkpt>
      <trkpt lat="45.26387" lon="6.16455">
        <ele>2649</ele>
        <time>2016-03-19T11:36:40Z</time>
      </trkpt>
      <trkpt lat="45.26385" lon="6.16454">
        <ele>2650</ele>
        <time>2016-03-19T11:36:45Z</time>
      </trkpt>
      <trkpt lat="45.26383" lon="6.16453">
        <ele>2650</ele>
        <time>2016-03-19T11:36:50Z</time>
      </trkpt>
      <trkpt lat="45.2638" lon="6.16453">
        <ele>2651</ele>
        <time>2016-03-19T11:36:55Z</time>
      </trkpt>
      <trkpt lat="45.26378" lon="6.16453">
        <ele>2651</ele>
        <time>2016-03-19T11:37:00Z</time>
      </trkpt>
      <trkpt lat="45.26375" lon="6.16453">
        <ele>2651</ele>
        <time>2016-03-19T11:37:05Z</time>
      </trkpt>
      <trkpt lat="45.26373" lon="6.16453">
        <ele>2652</ele>
        <time>2016-03-19T11:37:10Z</time>
      </trkpt>
      <trkpt lat="45.26372" lon="6.16454">
        <ele>2652</ele>
        <time>2016-03-19T11:37:15Z</time>
      </trkpt>
      <trkpt lat="45.26372" lon="6.16453">
        <ele>2653</ele>
        <time>2016-03-19T11:37:20Z</time>
      </trkpt>
      <trkpt lat="45.26372" lon="6.16453">
        <ele>2653</ele>
        <time>2016-03-19T11:37:25Z</time>
      </trkpt>
      <trkpt lat="45.26374" lon="6.16451">
        <ele>2654</ele>
        <time>2016-03-19T11:37:30Z</time>
      </trkpt>
      <trkpt lat="45.26375" lon="6.16448">
        <ele>2654</ele>
        <time>2016-03-19T11:37:35Z</time>
      </trkpt>
      <trkpt lat="45.26376" lon="6.16445">
        <ele>2655</ele>
        <time>2016-03-19T11:37:40Z</time>
      </trkpt>
      <trkpt lat="45.26378" lon="6.16441">
        <ele>2655</ele>
        <time>2016-03-19T11:37:45Z</time>
      </trkpt>
      <trkpt lat="45.26379" lon="6.16438">
        <ele>2656</ele>
        <time>2016-03-19T11:37:50Z</time>
      </trkpt>
      <trkpt lat="45.2638" lon="6.16436">
        <ele>2656</ele>
        <time>2016-03-19T11:37:55Z</time>
      </trkpt>
      <trkpt lat="45.26381" lon="6.16433">
        <ele>2657</ele>
        <time>2016-03-19T11:38:00Z</time>
      </trkpt>
      <trkpt lat="45.26383" lon="6.1643">
        <ele>2657</ele>
        <time>2016-03-19T11:38:05Z</time>
      </trkpt>
      <trkpt lat="45.26384" lon="6.16427">
        <ele>2658</ele>
        <time>2016-03-19T11:38:10Z</time>
      </trkpt>
      <trkpt lat="45.26385" lon="6.16425">
        <ele>2659</ele>
        <time>2016-03-19T11:38:15Z</time>
      </trkpt>
      <trkpt lat="45.26387" lon="6.16423">
        <ele>2660</ele>
        <time>2016-03-19T11:38:20Z</time>
      </trkpt>
      <trkpt lat="45.26388" lon="6.16421">
        <ele>2661</ele>
        <time>2016-03-19T11:38:25Z</time>
      </trkpt>
      <trkpt lat="45.26391" lon="6.16419">
        <ele>2662</ele>
        <time>2016-03-19T11:38:30Z</time>
      </trkpt>
      <trkpt lat="45.26393" lon="6.16417">
        <ele>2662</ele>
        <time>2016-03-19T11:38:35Z</time>
      </trkpt>
      <trkpt lat="45.26395" lon="6.16416">
        <ele>2663</ele>
        <time>2016-03-19T11:38:40Z</time>
      </trkpt>
      <trkpt lat="45.26397" lon="6.16415">
        <ele>2664</ele>
        <time>2016-03-19T11:38:45Z</time>
      </trkpt>
      <trkpt lat="45.26397" lon="6.16415">
        <ele>2664</ele>
        <time>2016-03-19T11:38:50Z</time>
      </trkpt>
      <trkpt lat="45.26397" lon="6.16415">
        <ele>2663</ele>
        <time>2016-03-19T11:38:55Z</time>
      </trkpt>
      <trkpt lat="45.26397" lon="6.16415">
        <ele>2663</ele>
        <time>2016-03-19T11:39:00Z</time>
      </trkpt>
      <trkpt lat="45.26399" lon="6.16415">
        <ele>2664</ele>
        <time>2016-03-19T11:39:05Z</time>
      </trkpt>
      <trkpt lat="45.264" lon="6.16415">
        <ele>2664</ele>
        <time>2016-03-19T11:39:10Z</time>
      </trkpt>
      <trkpt lat="45.26402" lon="6.16414">
        <ele>2665</ele>
        <time>2016-03-19T11:39:15Z</time>
      </trkpt>
      <trkpt lat="45.26405" lon="6.16414">
        <ele>2666</ele>
        <time>2016-03-19T11:39:20Z</time>
      </trkpt>
      <trkpt lat="45.26407" lon="6.16414">
        <ele>2667</ele>
        <time>2016-03-19T11:39:25Z</time>
      </trkpt>
      <trkpt lat="45.26409" lon="6.16414">
        <ele>2667</ele>
        <time>2016-03-19T11:39:30Z</time>
      </trkpt>
      <trkpt lat="45.2641" lon="6.16415">
        <ele>2669</ele>
        <time>2016-03-19T11:39:35Z</time>
      </trkpt>
      <trkpt lat="45.2641" lon="6.16414">
        <ele>2670</ele>
        <time>2016-03-19T11:39:40Z</time>
      </trkpt>
      <trkpt lat="45.26408" lon="6.16411">
        <ele>2671</ele>
        <time>2016-03-19T11:39:45Z</time>
      </trkpt>
      <trkpt lat="45.26408" lon="6.16408">
        <ele>2672</ele>
        <time>2016-03-19T11:39:50Z</time>
      </trkpt>
      <trkpt lat="45.26406" lon="6.16405">
        <ele>2672</ele>
        <time>2016-03-19T11:39:55Z</time>
      </trkpt>
      <trkpt lat="45.26405" lon="6.16401">
        <ele>2673</ele>
        <time>2016-03-19T11:40:00Z</time>
      </trkpt>
      <trkpt lat="45.26403" lon="6.16398">
        <ele>2674</ele>
        <time>2016-03-19T11:40:05Z</time>
      </trkpt>
      <trkpt lat="45.26401" lon="6.16395">
        <ele>2674</ele>
        <time>2016-03-19T11:40:10Z</time>
      </trkpt>
      <trkpt lat="45.264" lon="6.16392">
        <ele>2675</ele>
        <time>2016-03-19T11:40:15Z</time>
      </trkpt>
      <trkpt lat="45.26399" lon="6.1639">
        <ele>2675</ele>
        <time>2016-03-19T11:40:20Z</time>
      </trkpt>
      <trkpt lat="45.26397" lon="6.16387">
        <ele>2676</ele>
        <time>2016-03-19T11:40:25Z</time>
      </trkpt>
      <trkpt lat="45.26395" lon="6.16385">
        <ele>2676</ele>
        <time>2016-03-19T11:40:30Z</time>
      </trkpt>
      <trkpt lat="45.26394" lon="6.16382">
        <ele>2677</ele>
        <time>2016-03-19T11:40:35Z</time>
      </trkpt>
      <trkpt lat="45.26393" lon="6.16379">
        <ele>2678</ele>
        <time>2016-03-19T11:40:40Z</time>
      </trkpt>
      <trkpt lat="45.26391" lon="6.16377">
        <ele>2678</ele>
        <time>2016-03-19T11:40:45Z</time>
      </trkpt>
      <trkpt lat="45.2639" lon="6.16374">
        <ele>2679</ele>
        <time>2016-03-19T11:40:50Z</time>
      </trkpt>
      <trkpt lat="45.26388" lon="6.16371">
        <ele>2680</ele>
        <time>2016-03-19T11:40:55Z</time>
      </trkpt>
      <trkpt lat="45.26387" lon="6.16369">
        <ele>2681</ele>
        <time>2016-03-19T11:41:00Z</time>
      </trkpt>
      <trkpt lat="45.26385" lon="6.16366">
        <ele>2681</ele>
        <time>2016-03-19T11:41:05Z</time>
      </trkpt>
      <trkpt lat="45.26383" lon="6.16363">
        <ele>2682</ele>
        <time>2016-03-19T11:41:10Z</time>
      </trkpt>
      <trkpt lat="45.26381" lon="6.16361">
        <ele>2683</ele>
        <time>2016-03-19T11:41:15Z</time>
      </trkpt>
      <trkpt lat="45.26379" lon="6.16358">
        <ele>2684</ele>
        <time>2016-03-19T11:41:20Z</time>
      </trkpt>
      <trkpt lat="45.26377" lon="6.16356">
        <ele>2684</ele>
        <time>2016-03-19T11:41:25Z</time>
      </trkpt>
      <trkpt lat="45.26375" lon="6.16355">
        <ele>2685</ele>
        <time>2016-03-19T11:41:30Z</time>
      </trkpt>
      <trkpt lat="45.26372" lon="6.16353">
        <ele>2685</ele>
        <time>2016-03-19T11:41:35Z</time>
      </trkpt>
      <trkpt lat="45.2637" lon="6.16352">
        <ele>2686</ele>
        <time>2016-03-19T11:41:40Z</time>
      </trkpt>
      <trkpt lat="45.26367" lon="6.16351">
        <ele>2687</ele>
        <time>2016-03-19T11:41:45Z</time>
      </trkpt>
      <trkpt lat="45.26364" lon="6.16351">
        <ele>2687</ele>
        <time>2016-03-19T11:41:50Z</time>
      </trkpt>
      <trkpt lat="45.26362" lon="6.16351">
        <ele>2688</ele>
        <time>2016-03-19T11:41:55Z</time>
      </trkpt>
      <trkpt lat="45.2636" lon="6.16351">
        <ele>2689</ele>
        <time>2016-03-19T11:42:00Z</time>
      </trkpt>
      <trkpt lat="45.26361" lon="6.16351">
        <ele>2689</ele>
        <time>2016-03-19T11:42:05Z</time>
      </trkpt>
      <trkpt lat="45.26361" lon="6.16351">
        <ele>2690</ele>
        <time>2016-03-19T11:42:10Z</time>
      </trkpt>
      <trkpt lat="45.26361" lon="6.16347">
        <ele>2690</ele>
        <time>2016-03-19T11:42:15Z</time>
      </trkpt>
      <trkpt lat="45.26362" lon="6.16343">
        <ele>2691</ele>
        <time>2016-03-19T11:42:20Z</time>
      </trkpt>
      <trkpt lat="45.26362" lon="6.16341">
        <ele>2691</ele>
        <time>2016-03-19T11:42:25Z</time>
      </trkpt>
      <trkpt lat="45.26362" lon="6.16341">
        <ele>2691</ele>
        <time>2016-03-19T11:42:30Z</time>
      </trkpt>
      <trkpt lat="45.26363" lon="6.16341">
        <ele>2692</ele>
        <time>2016-03-19T11:42:35Z</time>
      </trkpt>
      <trkpt lat="45.26363" lon="6.16341">
        <ele>2692</ele>
        <time>2016-03-19T11:42:40Z</time>
      </trkpt>
      <trkpt lat="45.26363" lon="6.16341">
        <ele>2693</ele>
        <time>2016-03-19T11:42:45Z</time>
      </trkpt>
      <trkpt lat="45.26365" lon="6.16339">
        <ele>2694</ele>
        <time>2016-03-19T11:42:50Z</time>
      </trkpt>
      <trkpt lat="45.26366" lon="6.16334">
        <ele>2695</ele>
        <time>2016-03-19T11:42:55Z</time>
      </trkpt>
      <trkpt lat="45.26367" lon="6.16329">
        <ele>2695</ele>
        <time>2016-03-19T11:43:00Z</time>
      </trkpt>
      <trkpt lat="45.26367" lon="6.16324">
        <ele>2696</ele>
        <time>2016-03-19T11:43:05Z</time>
      </trkpt>
      <trkpt lat="45.26368" lon="6.1632">
        <ele>2696</ele>
        <time>2016-03-19T11:43:10Z</time>
      </trkpt>
      <trkpt lat="45.2637" lon="6.16315">
        <ele>2697</ele>
        <time>2016-03-19T11:43:15Z</time>
      </trkpt>
      <trkpt lat="45.26371" lon="6.16312">
        <ele>2698</ele>
        <time>2016-03-19T11:43:20Z</time>
      </trkpt>
      <trkpt lat="45.26373" lon="6.16308">
        <ele>2698</ele>
        <time>2016-03-19T11:43:25Z</time>
      </trkpt>
      <trkpt lat="45.26375" lon="6.16306">
        <ele>2699</ele>
        <time>2016-03-19T11:43:30Z</time>
      </trkpt>
      <trkpt lat="45.26376" lon="6.16303">
        <ele>2700</ele>
        <time>2016-03-19T11:43:35Z</time>
      </trkpt>
      <trkpt lat="45.26375" lon="6.163">
        <ele>2700</ele>
        <time>2016-03-19T11:43:40Z</time>
      </trkpt>
      <trkpt lat="45.26373" lon="6.16298">
        <ele>2701</ele>
        <time>2016-03-19T11:43:45Z</time>
      </trkpt>
      <trkpt lat="45.26371" lon="6.16296">
        <ele>2702</ele>
        <time>2016-03-19T11:43:50Z</time>
      </trkpt>
      <trkpt lat="45.26369" lon="6.16293">
        <ele>2702</ele>
        <time>2016-03-19T11:43:55Z</time>
      </trkpt>
      <trkpt lat="45.26369" lon="6.16293">
        <ele>2703</ele>
        <time>2016-03-19T11:44:00Z</time>
      </trkpt>
      <trkpt lat="45.26369" lon="6.16293">
        <ele>2703</ele>
        <time>2016-03-19T11:44:05Z</time>
      </trkpt>
      <trkpt lat="45.26369" lon="6.16293">
        <ele>2703</ele>
        <time>2016-03-19T11:44:10Z</time>
      </trkpt>
      <trkpt lat="45.26369" lon="6.16293">
        <ele>2703</ele>
        <time>2016-03-19T11:44:15Z</time>
      </trkpt>
      <trkpt lat="45.26369" lon="6.16293">
        <ele>2703</ele>
        <time>2016-03-19T11:44:20Z</time>
      </trkpt>
      <trkpt lat="45.26369" lon="6.16293">
        <ele>2703</ele>
        <time>2016-03-19T11:44:25Z</time>
      </trkpt>
      <trkpt lat="45.2637" lon="6.16293">
        <ele>2704</ele>
        <time>2016-03-19T11:44:30Z</time>
      </trkpt>
      <trkpt lat="45.26371" lon="6.16293">
        <ele>2704</ele>
        <time>2016-03-19T11:44:35Z</time>
      </trkpt>
      <trkpt lat="45.26371" lon="6.16293">
        <ele>2704</ele>
        <time>2016-03-19T11:44:40Z</time>
      </trkpt>
      <trkpt lat="45.26371" lon="6.16293">
        <ele>2704</ele>
        <time>2016-03-19T11:44:45Z</time>
      </trkpt>
      <trkpt lat="45.26371" lon="6.16293">
        <ele>2704</ele>
        <time>2016-03-19T11:44:50Z</time>
      </trkpt>
      <trkpt lat="45.26372" lon="6.16293">
        <ele>2705</ele>
        <time>2016-03-19T11:44:55Z</time>
      </trkpt>
      <trkpt lat="45.26372" lon="6.16293">
        <ele>2705</ele>
        <time>2016-03-19T11:45:00Z</time>
      </trkpt>
      <trkpt lat="45.26372" lon="6.16293">
        <ele>2705</ele>
        <time>2016-03-19T11:45:05Z</time>
      </trkpt>
      <trkpt lat="45.26372" lon="6.16294">
        <ele>2706</ele>
        <time>2016-03-19T11:45:10Z</time>
      </trkpt>
      <trkpt lat="45.26371" lon="6.16293">
        <ele>2706</ele>
        <time>2016-03-19T11:45:15Z</time>
      </trkpt>
      <trkpt lat="45.26368" lon="6.1629">
        <ele>2707</ele>
        <time>2016-03-19T11:45:20Z</time>
      </trkpt>
      <trkpt lat="45.26365" lon="6.16287">
        <ele>2707</ele>
        <time>2016-03-19T11:45:25Z</time>
      </trkpt>
      <trkpt lat="45.26361" lon="6.16284">
        <ele>2708</ele>
        <time>2016-03-19T11:45:30Z</time>
      </trkpt>
      <trkpt lat="45.26358" lon="6.16282">
        <ele>2709</ele>
        <time>2016-03-19T11:45:35Z</time>
      </trkpt>
      <trkpt lat="45.26354" lon="6.16279">
        <ele>2709</ele>
        <time>2016-03-19T11:45:40Z</time>
      </trkpt>
      <trkpt lat="45.26351" lon="6.16278">
        <ele>2710</ele>
        <time>2016-03-19T11:45:45Z</time>
      </trkpt>
      <trkpt lat="45.26349" lon="6.16276">
        <ele>2711</ele>
        <time>2016-03-19T11:45:50Z</time>
      </trkpt>
      <trkpt lat="45.26346" lon="6.16273">
        <ele>2712</ele>
        <time>2016-03-19T11:45:55Z</time>
      </trkpt>
      <trkpt lat="45.26344" lon="6.16271">
        <ele>2713</ele>
        <time>2016-03-19T11:46:00Z</time>
      </trkpt>
      <trkpt lat="45.26343" lon="6.16268">
        <ele>2713</ele>
        <time>2016-03-19T11:46:05Z</time>
      </trkpt>
      <trkpt lat="45.26342" lon="6.16264">
        <ele>2714</ele>
        <time>2016-03-19T11:46:10Z</time>
      </trkpt>
      <trkpt lat="45.26342" lon="6.16263">
        <ele>2715</ele>
        <time>2016-03-19T11:46:15Z</time>
      </trkpt>
      <trkpt lat="45.26342" lon="6.16263">
        <ele>2715</ele>
        <time>2016-03-19T11:46:20Z</time>
      </trkpt>
      <trkpt lat="45.26342" lon="6.16263">
        <ele>2714</ele>
        <time>2016-03-19T11:46:25Z</time>
      </trkpt>
      <trkpt lat="45.26342" lon="6.16263">
        <ele>2714</ele>
        <time>2016-03-19T11:46:30Z</time>
      </trkpt>
      <trkpt lat="45.26341" lon="6.16262">
        <ele>2715</ele>
        <time>2016-03-19T11:46:35Z</time>
      </trkpt>
      <trkpt lat="45.2634" lon="6.16258">
        <ele>2716</ele>
        <time>2016-03-19T11:46:40Z</time>
      </trkpt>
      <trkpt lat="45.26339" lon="6.16253">
        <ele>2717</ele>
        <time>2016-03-19T11:46:45Z</time>
      </trkpt>
      <trkpt lat="45.26338" lon="6.16249">
        <ele>2718</ele>
        <time>2016-03-19T11:46:50Z</time>
      </trkpt>
      <trkpt lat="45.26338" lon="6.16246">
        <ele>2719</ele>
        <time>2016-03-19T11:46:55Z</time>
      </trkpt>
      <trkpt lat="45.26336" lon="6.16246">
        <ele>2720</ele>
        <time>2016-03-19T11:47:00Z</time>
      </trkpt>
      <trkpt lat="45.26333" lon="6.1625">
        <ele>2721</ele>
        <time>2016-03-19T11:47:05Z</time>
      </trkpt>
      <trkpt lat="45.26331" lon="6.16253">
        <ele>2722</ele>
        <time>2016-03-19T11:47:10Z</time>
      </trkpt>
      <trkpt lat="45.2633" lon="6.16254">
        <ele>2723</ele>
        <time>2016-03-19T11:47:15Z</time>
      </trkpt>
      <trkpt lat="45.26328" lon="6.16256">
        <ele>2723</ele>
        <time>2016-03-19T11:47:20Z</time>
      </trkpt>
      <trkpt lat="45.26325" lon="6.16258">
        <ele>2724</ele>
        <time>2016-03-19T11:47:25Z</time>
      </trkpt>
      <trkpt lat="45.26321" lon="6.16259">
        <ele>2724</ele>
        <time>2016-03-19T11:47:30Z</time>
      </trkpt>
      <trkpt lat="45.26318" lon="6.16261">
        <ele>2725</ele>
        <time>2016-03-19T11:47:35Z</time>
      </trkpt>
      <trkpt lat="45.26315" lon="6.16263">
        <ele>2725</ele>
        <time>2016-03-19T11:47:40Z</time>
      </trkpt>
      <trkpt lat="45.26313" lon="6.16265">
        <ele>2726</ele>
        <time>2016-03-19T11:47:45Z</time>
      </trkpt>
      <trkpt lat="45.2631" lon="6.16268">
        <ele>2727</ele>
        <time>2016-03-19T11:47:50Z</time>
      </trkpt>
      <trkpt lat="45.26308" lon="6.16271">
        <ele>2727</ele>
        <time>2016-03-19T11:47:55Z</time>
      </trkpt>
      <trkpt lat="45.26307" lon="6.16273">
        <ele>2729</ele>
        <time>2016-03-19T11:48:00Z</time>
      </trkpt>
      <trkpt lat="45.26307" lon="6.16276">
        <ele>2729</ele>
        <time>2016-03-19T11:48:05Z</time>
      </trkpt>
      <trkpt lat="45.26306" lon="6.1628">
        <ele>2731</ele>
        <time>2016-03-19T11:48:10Z</time>
      </trkpt>
      <trkpt lat="45.26305" lon="6.16283">
        <ele>2731</ele>
        <time>2016-03-19T11:48:15Z</time>
      </trkpt>
      <trkpt lat="45.26305" lon="6.16283">
        <ele>2732</ele>
        <time>2016-03-19T11:48:20Z</time>
      </trkpt>
      <trkpt lat="45.26305" lon="6.16283">
        <ele>2732</ele>
        <time>2016-03-19T11:48:25Z</time>
      </trkpt>
      <trkpt lat="45.26305" lon="6.16282">
        <ele>2732</ele>
        <time>2016-03-19T11:48:30Z</time>
      </trkpt>
      <trkpt lat="45.26305" lon="6.16282">
        <ele>2732</ele>
        <time>2016-03-19T11:48:35Z</time>
      </trkpt>
      <trkpt lat="45.26305" lon="6.16282">
        <ele>2731</ele>
        <time>2016-03-19T11:48:40Z</time>
      </trkpt>
      <trkpt lat="45.26305" lon="6.16282">
        <ele>2731</ele>
        <time>2016-03-19T11:48:45Z</time>
      </trkpt>
      <trkpt lat="45.26304" lon="6.16282">
        <ele>2731</ele>
        <time>2016-03-19T11:48:50Z</time>
      </trkpt>
      <trkpt lat="45.26305" lon="6.16282">
        <ele>2731</ele>
        <time>2016-03-19T11:48:55Z</time>
      </trkpt>
      <trkpt lat="45.26303" lon="6.16284">
        <ele>2731</ele>
        <time>2016-03-19T11:54:20Z</time>
      </trkpt>
      <trkpt lat="45.26304" lon="6.16282">
        <ele>2731</ele>
        <time>2016-03-19T11:54:25Z</time>
      </trkpt>
      <trkpt lat="45.26306" lon="6.16278">
        <ele>2730</ele>
        <time>2016-03-19T11:54:30Z</time>
      </trkpt>
      <trkpt lat="45.26306" lon="6.16274">
        <ele>2729</ele>
        <time>2016-03-19T11:54:35Z</time>
      </trkpt>
      <trkpt lat="45.26308" lon="6.16264">
        <ele>2727</ele>
        <time>2016-03-19T11:54:40Z</time>
      </trkpt>
      <trkpt lat="45.26311" lon="6.16249">
        <ele>2726</ele>
        <time>2016-03-19T11:54:45Z</time>
      </trkpt>
      <trkpt lat="45.26314" lon="6.16241">
        <ele>2726</ele>
        <time>2016-03-19T11:54:50Z</time>
      </trkpt>
      <trkpt lat="45.26317" lon="6.16235">
        <ele>2726</ele>
        <time>2016-03-19T11:54:55Z</time>
      </trkpt>
      <trkpt lat="45.26318" lon="6.16228">
        <ele>2726</ele>
        <time>2016-03-19T11:55:00Z</time>
      </trkpt>
      <trkpt lat="45.26317" lon="6.16218">
        <ele>2725</ele>
        <time>2016-03-19T11:55:05Z</time>
      </trkpt>
      <trkpt lat="45.26317" lon="6.16211">
        <ele>2726</ele>
        <time>2016-03-19T11:55:10Z</time>
      </trkpt>
      <trkpt lat="45.26317" lon="6.16208">
        <ele>2726</ele>
        <time>2016-03-19T11:55:15Z</time>
      </trkpt>
      <trkpt lat="45.26317" lon="6.16207">
        <ele>2726</ele>
        <time>2016-03-19T11:55:20Z</time>
      </trkpt>
      <trkpt lat="45.26317" lon="6.16207">
        <ele>2726</ele>
        <time>2016-03-19T11:55:25Z</time>
      </trkpt>
      <trkpt lat="45.26319" lon="6.16207">
        <ele>2726</ele>
        <time>2016-03-19T11:55:30Z</time>
      </trkpt>
      <trkpt lat="45.26319" lon="6.16207">
        <ele>2725</ele>
        <time>2016-03-19T11:55:35Z</time>
      </trkpt>
      <trkpt lat="45.26322" lon="6.16207">
        <ele>2726</ele>
        <time>2016-03-19T11:55:40Z</time>
      </trkpt>
      <trkpt lat="45.26324" lon="6.16206">
        <ele>2726</ele>
        <time>2016-03-19T11:55:45Z</time>
      </trkpt>
      <trkpt lat="45.26324" lon="6.16206">
        <ele>2725</ele>
        <time>2016-03-19T11:55:50Z</time>
      </trkpt>
      <trkpt lat="45.26324" lon="6.16206">
        <ele>2726</ele>
        <time>2016-03-19T11:55:55Z</time>
      </trkpt>
      <trkpt lat="45.26324" lon="6.16207">
        <ele>2726</ele>
        <time>2016-03-19T11:56:00Z</time>
      </trkpt>
      <trkpt lat="45.26323" lon="6.16206">
        <ele>2726</ele>
        <time>2016-03-19T11:56:05Z</time>
      </trkpt>
      <trkpt lat="45.26325" lon="6.16206">
        <ele>2726</ele>
        <time>2016-03-19T11:56:10Z</time>
      </trkpt>
      <trkpt lat="45.2633" lon="6.16199">
        <ele>2725</ele>
        <time>2016-03-19T11:56:15Z</time>
      </trkpt>
      <trkpt lat="45.26333" lon="6.16196">
        <ele>2725</ele>
        <time>2016-03-19T11:56:20Z</time>
      </trkpt>
      <trkpt lat="45.26336" lon="6.16194">
        <ele>2726</ele>
        <time>2016-03-19T11:56:25Z</time>
      </trkpt>
      <trkpt lat="45.2634" lon="6.16193">
        <ele>2726</ele>
        <time>2016-03-19T11:56:30Z</time>
      </trkpt>
      <trkpt lat="45.26344" lon="6.16194">
        <ele>2726</ele>
        <time>2016-03-19T11:56:35Z</time>
      </trkpt>
      <trkpt lat="45.26347" lon="6.16196">
        <ele>2726</ele>
        <time>2016-03-19T11:56:40Z</time>
      </trkpt>
      <trkpt lat="45.26349" lon="6.16194">
        <ele>2726</ele>
        <time>2016-03-19T11:56:45Z</time>
      </trkpt>
      <trkpt lat="45.26349" lon="6.16191">
        <ele>2726</ele>
        <time>2016-03-19T11:56:50Z</time>
      </trkpt>
      <trkpt lat="45.2635" lon="6.16188">
        <ele>2726</ele>
        <time>2016-03-19T11:56:55Z</time>
      </trkpt>
      <trkpt lat="45.26351" lon="6.16185">
        <ele>2727</ele>
        <time>2016-03-19T11:57:00Z</time>
      </trkpt>
      <trkpt lat="45.26351" lon="6.16184">
        <ele>2728</ele>
        <time>2016-03-19T11:57:05Z</time>
      </trkpt>
      <trkpt lat="45.26352" lon="6.16181">
        <ele>2729</ele>
        <time>2016-03-19T11:57:10Z</time>
      </trkpt>
      <trkpt lat="45.26352" lon="6.16178">
        <ele>2729</ele>
        <time>2016-03-19T11:57:15Z</time>
      </trkpt>
      <trkpt lat="45.26353" lon="6.16177">
        <ele>2730</ele>
        <time>2016-03-19T11:57:20Z</time>
      </trkpt>
      <trkpt lat="45.26354" lon="6.16174">
        <ele>2730</ele>
        <time>2016-03-19T11:57:25Z</time>
      </trkpt>
      <trkpt lat="45.26356" lon="6.16171">
        <ele>2731</ele>
        <time>2016-03-19T11:57:30Z</time>
      </trkpt>
      <trkpt lat="45.26358" lon="6.16167">
        <ele>2731</ele>
        <time>2016-03-19T11:57:35Z</time>
      </trkpt>
      <trkpt lat="45.26359" lon="6.16166">
        <ele>2732</ele>
        <time>2016-03-19T11:57:40Z</time>
      </trkpt>
      <trkpt lat="45.2636" lon="6.16164">
        <ele>2732</ele>
        <time>2016-03-19T11:57:45Z</time>
      </trkpt>
      <trkpt lat="45.26362" lon="6.1616">
        <ele>2732</ele>
        <time>2016-03-19T11:57:50Z</time>
      </trkpt>
      <trkpt lat="45.26362" lon="6.16159">
        <ele>2732</ele>
        <time>2016-03-19T11:57:55Z</time>
      </trkpt>
      <trkpt lat="45.26362" lon="6.16159">
        <ele>2732</ele>
        <time>2016-03-19T11:58:00Z</time>
      </trkpt>
      <trkpt lat="45.26362" lon="6.16154">
        <ele>2737</ele>
        <time>2016-03-19T12:30:05Z</time>
      </trkpt>
      <trkpt lat="45.26362" lon="6.16155">
        <ele>2737</ele>
        <time>2016-03-19T12:30:10Z</time>
      </trkpt>
      <trkpt lat="45.26362" lon="6.16156">
        <ele>2738</ele>
        <time>2016-03-19T12:30:15Z</time>
      </trkpt>
      <trkpt lat="45.2636" lon="6.16162">
        <ele>2738</ele>
        <time>2016-03-19T12:30:20Z</time>
      </trkpt>
      <trkpt lat="45.26358" lon="6.16168">
        <ele>2737</ele>
        <time>2016-03-19T12:30:25Z</time>
      </trkpt>
      <trkpt lat="45.26352" lon="6.16191">
        <ele>2733</ele>
        <time>2016-03-19T12:30:30Z</time>
      </trkpt>
      <trkpt lat="45.26336" lon="6.16182">
        <ele>2728</ele>
        <time>2016-03-19T12:30:35Z</time>
      </trkpt>
      <trkpt lat="45.26321" lon="6.16178">
        <ele>2724</ele>
        <time>2016-03-19T12:30:40Z</time>
      </trkpt>
      <trkpt lat="45.26312" lon="6.16173">
        <ele>2721</ele>
        <time>2016-03-19T12:30:45Z</time>
      </trkpt>
      <trkpt lat="45.26313" lon="6.16164">
        <ele>2719</ele>
        <time>2016-03-19T12:30:50Z</time>
      </trkpt>
      <trkpt lat="45.26314" lon="6.16164">
        <ele>2718</ele>
        <time>2016-03-19T12:33:30Z</time>
      </trkpt>
      <trkpt lat="45.26313" lon="6.16163">
        <ele>2718</ele>
        <time>2016-03-19T12:33:35Z</time>
      </trkpt>
      <trkpt lat="45.26315" lon="6.1615">
        <ele>2715</ele>
        <time>2016-03-19T12:33:40Z</time>
      </trkpt>
      <trkpt lat="45.26315" lon="6.1614">
        <ele>2712</ele>
        <time>2016-03-19T12:33:45Z</time>
      </trkpt>
      <trkpt lat="45.26307" lon="6.16138">
        <ele>2707</ele>
        <time>2016-03-19T12:33:50Z</time>
      </trkpt>
      <trkpt lat="45.26305" lon="6.1613">
        <ele>2703</ele>
        <time>2016-03-19T12:33:55Z</time>
      </trkpt>
      <trkpt lat="45.26305" lon="6.1613">
        <ele>2703</ele>
        <time>2016-03-19T12:34:00Z</time>
      </trkpt>
      <trkpt lat="45.26305" lon="6.1613">
        <ele>2703</ele>
        <time>2016-03-19T12:34:05Z</time>
      </trkpt>
      <trkpt lat="45.26305" lon="6.1613">
        <ele>2703</ele>
        <time>2016-03-19T12:34:10Z</time>
      </trkpt>
      <trkpt lat="45.26305" lon="6.1613">
        <ele>2704</ele>
        <time>2016-03-19T12:34:15Z</time>
      </trkpt>
      <trkpt lat="45.26304" lon="6.1613">
        <ele>2704</ele>
        <time>2016-03-19T12:34:20Z</time>
      </trkpt>
      <trkpt lat="45.26304" lon="6.1613">
        <ele>2704</ele>
        <time>2016-03-19T12:34:25Z</time>
      </trkpt>
      <trkpt lat="45.26304" lon="6.1613">
        <ele>2704</ele>
        <time>2016-03-19T12:34:30Z</time>
      </trkpt>
      <trkpt lat="45.26304" lon="6.1613">
        <ele>2705</ele>
        <time>2016-03-19T12:34:35Z</time>
      </trkpt>
      <trkpt lat="45.26304" lon="6.1613">
        <ele>2705</ele>
        <time>2016-03-19T12:34:40Z</time>
      </trkpt>
      <trkpt lat="45.26304" lon="6.1613">
        <ele>2705</ele>
        <time>2016-03-19T12:34:45Z</time>
      </trkpt>
      <trkpt lat="45.26304" lon="6.1613">
        <ele>2705</ele>
        <time>2016-03-19T12:34:50Z</time>
      </trkpt>
      <trkpt lat="45.26304" lon="6.1613">
        <ele>2705</ele>
        <time>2016-03-19T12:34:55Z</time>
      </trkpt>
      <trkpt lat="45.26304" lon="6.1613">
        <ele>2705</ele>
        <time>2016-03-19T12:35:00Z</time>
      </trkpt>
      <trkpt lat="45.26303" lon="6.1613">
        <ele>2705</ele>
        <time>2016-03-19T12:35:05Z</time>
      </trkpt>
      <trkpt lat="45.26299" lon="6.1613">
        <ele>2704</ele>
        <time>2016-03-19T12:35:10Z</time>
      </trkpt>
      <trkpt lat="45.26296" lon="6.16131">
        <ele>2704</ele>
        <time>2016-03-19T12:35:15Z</time>
      </trkpt>
      <trkpt lat="45.26293" lon="6.16133">
        <ele>2703</ele>
        <time>2016-03-19T12:35:20Z</time>
      </trkpt>
      <trkpt lat="45.26292" lon="6.16133">
        <ele>2703</ele>
        <time>2016-03-19T12:35:25Z</time>
      </trkpt>
      <trkpt lat="45.26293" lon="6.16134">
        <ele>2703</ele>
        <time>2016-03-19T12:35:30Z</time>
      </trkpt>
      <trkpt lat="45.26293" lon="6.16133">
        <ele>2703</ele>
        <time>2016-03-19T12:35:35Z</time>
      </trkpt>
      <trkpt lat="45.26293" lon="6.16133">
        <ele>2703</ele>
        <time>2016-03-19T12:35:40Z</time>
      </trkpt>
      <trkpt lat="45.26293" lon="6.16134">
        <ele>2702</ele>
        <time>2016-03-19T12:35:45Z</time>
      </trkpt>
      <trkpt lat="45.26293" lon="6.16134">
        <ele>2702</ele>
        <time>2016-03-19T12:35:50Z</time>
      </trkpt>
      <trkpt lat="45.26293" lon="6.16133">
        <ele>2702</ele>
        <time>2016-03-19T12:35:55Z</time>
      </trkpt>
      <trkpt lat="45.26293" lon="6.16134">
        <ele>2703</ele>
        <time>2016-03-19T12:36:00Z</time>
      </trkpt>
      <trkpt lat="45.26291" lon="6.16136">
        <ele>2703</ele>
        <time>2016-03-19T12:36:05Z</time>
      </trkpt>
      <trkpt lat="45.26284" lon="6.16149">
        <ele>2701</ele>
        <time>2016-03-19T12:36:10Z</time>
      </trkpt>
      <trkpt lat="45.26275" lon="6.16139">
        <ele>2693</ele>
        <time>2016-03-19T12:36:15Z</time>
      </trkpt>
      <trkpt lat="45.26279" lon="6.16125">
        <ele>2689</ele>
        <time>2016-03-19T12:36:20Z</time>
      </trkpt>
      <trkpt lat="45.2628" lon="6.16119">
        <ele>2687</ele>
        <time>2016-03-19T12:36:25Z</time>
      </trkpt>
      <trkpt lat="45.26272" lon="6.1612">
        <ele>2685</ele>
        <time>2016-03-19T12:36:30Z</time>
      </trkpt>
      <trkpt lat="45.2627" lon="6.16122">
        <ele>2684</ele>
        <time>2016-03-19T12:36:35Z</time>
      </trkpt>
      <trkpt lat="45.26264" lon="6.16125">
        <ele>2682</ele>
        <time>2016-03-19T12:36:40Z</time>
      </trkpt>
      <trkpt lat="45.26262" lon="6.16117">
        <ele>2679</ele>
        <time>2016-03-19T12:36:45Z</time>
      </trkpt>
      <trkpt lat="45.26256" lon="6.16117">
        <ele>2676</ele>
        <time>2016-03-19T12:36:50Z</time>
      </trkpt>
      <trkpt lat="45.26257" lon="6.16107">
        <ele>2673</ele>
        <time>2016-03-19T12:36:55Z</time>
      </trkpt>
      <trkpt lat="45.2625" lon="6.16107">
        <ele>2669</ele>
        <time>2016-03-19T12:37:00Z</time>
      </trkpt>
      <trkpt lat="45.26249" lon="6.16101">
        <ele>2666</ele>
        <time>2016-03-19T12:37:05Z</time>
      </trkpt>
      <trkpt lat="45.26253" lon="6.16093">
        <ele>2664</ele>
        <time>2016-03-19T12:37:10Z</time>
      </trkpt>
      <trkpt lat="45.26253" lon="6.16092">
        <ele>2663</ele>
        <time>2016-03-19T12:37:15Z</time>
      </trkpt>
      <trkpt lat="45.26251" lon="6.16094">
        <ele>2663</ele>
        <time>2016-03-19T12:37:20Z</time>
      </trkpt>
      <trkpt lat="45.26247" lon="6.16097">
        <ele>2662</ele>
        <time>2016-03-19T12:37:25Z</time>
      </trkpt>
      <trkpt lat="45.26247" lon="6.16096">
        <ele>2661</ele>
        <time>2016-03-19T12:37:30Z</time>
      </trkpt>
      <trkpt lat="45.26242" lon="6.1609">
        <ele>2656</ele>
        <time>2016-03-19T12:37:35Z</time>
      </trkpt>
      <trkpt lat="45.2624" lon="6.16081">
        <ele>2651</ele>
        <time>2016-03-19T12:37:40Z</time>
      </trkpt>
      <trkpt lat="45.26235" lon="6.16073">
        <ele>2643</ele>
        <time>2016-03-19T12:37:45Z</time>
      </trkpt>
      <trkpt lat="45.26227" lon="6.1607">
        <ele>2637</ele>
        <time>2016-03-19T12:37:50Z</time>
      </trkpt>
      <trkpt lat="45.26224" lon="6.1607">
        <ele>2636</ele>
        <time>2016-03-19T12:37:55Z</time>
      </trkpt>
      <trkpt lat="45.26225" lon="6.16069">
        <ele>2635</ele>
        <time>2016-03-19T12:38:00Z</time>
      </trkpt>
      <trkpt lat="45.26225" lon="6.16068">
        <ele>2634</ele>
        <time>2016-03-19T12:38:05Z</time>
      </trkpt>
      <trkpt lat="45.26222" lon="6.16066">
        <ele>2632</ele>
        <time>2016-03-19T12:38:10Z</time>
      </trkpt>
      <trkpt lat="45.26223" lon="6.16055">
        <ele>2629</ele>
        <time>2016-03-19T12:38:15Z</time>
      </trkpt>
      <trkpt lat="45.26215" lon="6.16054">
        <ele>2625</ele>
        <time>2016-03-19T12:38:20Z</time>
      </trkpt>
      <trkpt lat="45.26216" lon="6.16043">
        <ele>2620</ele>
        <time>2016-03-19T12:38:25Z</time>
      </trkpt>
      <trkpt lat="45.26207" lon="6.16042">
        <ele>2616</ele>
        <time>2016-03-19T12:38:30Z</time>
      </trkpt>
      <trkpt lat="45.26205" lon="6.16032">
        <ele>2609</ele>
        <time>2016-03-19T12:38:35Z</time>
      </trkpt>
      <trkpt lat="45.26201" lon="6.16026">
        <ele>2605</ele>
        <time>2016-03-19T12:38:40Z</time>
      </trkpt>
      <trkpt lat="45.26201" lon="6.16025">
        <ele>2604</ele>
        <time>2016-03-19T12:38:45Z</time>
      </trkpt>
      <trkpt lat="45.26202" lon="6.16024">
        <ele>2604</ele>
        <time>2016-03-19T12:38:50Z</time>
      </trkpt>
      <trkpt lat="45.26202" lon="6.16024">
        <ele>2604</ele>
        <time>2016-03-19T12:38:55Z</time>
      </trkpt>
      <trkpt lat="45.26202" lon="6.16024">
        <ele>2605</ele>
        <time>2016-03-19T12:39:00Z</time>
      </trkpt>
      <trkpt lat="45.26202" lon="6.16024">
        <ele>2604</ele>
        <time>2016-03-19T12:39:05Z</time>
      </trkpt>
      <trkpt lat="45.26202" lon="6.16024">
        <ele>2604</ele>
        <time>2016-03-19T12:39:10Z</time>
      </trkpt>
      <trkpt lat="45.26202" lon="6.16024">
        <ele>2604</ele>
        <time>2016-03-19T12:39:15Z</time>
      </trkpt>
      <trkpt lat="45.26202" lon="6.16024">
        <ele>2604</ele>
        <time>2016-03-19T12:39:20Z</time>
      </trkpt>
      <trkpt lat="45.26202" lon="6.16024">
        <ele>2604</ele>
        <time>2016-03-19T12:39:25Z</time>
      </trkpt>
      <trkpt lat="45.26202" lon="6.16023">
        <ele>2604</ele>
        <time>2016-03-19T12:39:30Z</time>
      </trkpt>
      <trkpt lat="45.26201" lon="6.16023">
        <ele>2604</ele>
        <time>2016-03-19T12:39:35Z</time>
      </trkpt>
      <trkpt lat="45.26201" lon="6.16022">
        <ele>2604</ele>
        <time>2016-03-19T12:39:40Z</time>
      </trkpt>
      <trkpt lat="45.26201" lon="6.16023">
        <ele>2604</ele>
        <time>2016-03-19T12:39:45Z</time>
      </trkpt>
      <trkpt lat="45.26201" lon="6.16024">
        <ele>2604</ele>
        <time>2016-03-19T12:39:50Z</time>
      </trkpt>
      <trkpt lat="45.26201" lon="6.16024">
        <ele>2604</ele>
        <time>2016-03-19T12:39:55Z</time>
      </trkpt>
      <trkpt lat="45.26201" lon="6.16024">
        <ele>2604</ele>
        <time>2016-03-19T12:40:00Z</time>
      </trkpt>
      <trkpt lat="45.26201" lon="6.16025">
        <ele>2604</ele>
        <time>2016-03-19T12:40:05Z</time>
      </trkpt>
      <trkpt lat="45.26201" lon="6.16025">
        <ele>2604</ele>
        <time>2016-03-19T12:40:10Z</time>
      </trkpt>
      <trkpt lat="45.26201" lon="6.16025">
        <ele>2604</ele>
        <time>2016-03-19T12:40:15Z</time>
      </trkpt>
      <trkpt lat="45.26201" lon="6.16025">
        <ele>2603</ele>
        <time>2016-03-19T12:40:20Z</time>
      </trkpt>
      <trkpt lat="45.26199" lon="6.16027">
        <ele>2602</ele>
        <time>2016-03-19T12:40:25Z</time>
      </trkpt>
      <trkpt lat="45.26187" lon="6.16022">
        <ele>2597</ele>
        <time>2016-03-19T12:40:30Z</time>
      </trkpt>
      <trkpt lat="45.26176" lon="6.16013">
        <ele>2590</ele>
        <time>2016-03-19T12:40:35Z</time>
      </trkpt>
      <trkpt lat="45.26169" lon="6.16">
        <ele>2580</ele>
        <time>2016-03-19T12:40:40Z</time>
      </trkpt>
      <trkpt lat="45.26166" lon="6.15986">
        <ele>2570</ele>
        <time>2016-03-19T12:40:45Z</time>
      </trkpt>
      <trkpt lat="45.26159" lon="6.15984">
        <ele>2564</ele>
        <time>2016-03-19T12:40:50Z</time>
      </trkpt>
      <trkpt lat="45.26166" lon="6.15966">
        <ele>2557</ele>
        <time>2016-03-19T12:40:55Z</time>
      </trkpt>
      <trkpt lat="45.26169" lon="6.15952">
        <ele>2551</ele>
        <time>2016-03-19T12:41:00Z</time>
      </trkpt>
      <trkpt lat="45.26167" lon="6.15952">
        <ele>2549</ele>
        <time>2016-03-19T12:41:05Z</time>
      </trkpt>
      <trkpt lat="45.26168" lon="6.15951">
        <ele>2548</ele>
        <time>2016-03-19T12:41:10Z</time>
      </trkpt>
      <trkpt lat="45.26168" lon="6.15951">
        <ele>2543</ele>
        <time>2016-03-19T12:45:00Z</time>
      </trkpt>
      <trkpt lat="45.26168" lon="6.15951">
        <ele>2543</ele>
        <time>2016-03-19T12:45:05Z</time>
      </trkpt>
      <trkpt lat="45.26168" lon="6.15951">
        <ele>2543</ele>
        <time>2016-03-19T12:45:10Z</time>
      </trkpt>
      <trkpt lat="45.26167" lon="6.1595">
        <ele>2543</ele>
        <time>2016-03-19T12:45:15Z</time>
      </trkpt>
      <trkpt lat="45.26161" lon="6.15947">
        <ele>2541</ele>
        <time>2016-03-19T12:45:20Z</time>
      </trkpt>
      <trkpt lat="45.26156" lon="6.15931">
        <ele>2536</ele>
        <time>2016-03-19T12:45:25Z</time>
      </trkpt>
      <trkpt lat="45.26159" lon="6.15909">
        <ele>2529</ele>
        <time>2016-03-19T12:45:30Z</time>
      </trkpt>
      <trkpt lat="45.26157" lon="6.15875">
        <ele>2517</ele>
        <time>2016-03-19T12:45:35Z</time>
      </trkpt>
      <trkpt lat="45.26156" lon="6.15806">
        <ele>2509</ele>
        <time>2016-03-19T12:45:40Z</time>
      </trkpt>
      <trkpt lat="45.26151" lon="6.15783">
        <ele>2510</ele>
        <time>2016-03-19T12:45:45Z</time>
      </trkpt>
      <trkpt lat="45.26147" lon="6.15777">
        <ele>2510</ele>
        <time>2016-03-19T12:45:50Z</time>
      </trkpt>
      <trkpt lat="45.26145" lon="6.15773">
        <ele>2511</ele>
        <time>2016-03-19T12:45:55Z</time>
      </trkpt>
      <trkpt lat="45.26145" lon="6.15771">
        <ele>2511</ele>
        <time>2016-03-19T12:46:00Z</time>
      </trkpt>
      <trkpt lat="45.26145" lon="6.15769">
        <ele>2511</ele>
        <time>2016-03-19T12:46:05Z</time>
      </trkpt>
      <trkpt lat="45.26144" lon="6.15765">
        <ele>2511</ele>
        <time>2016-03-19T12:46:10Z</time>
      </trkpt>
      <trkpt lat="45.26143" lon="6.15762">
        <ele>2512</ele>
        <time>2016-03-19T12:46:15Z</time>
      </trkpt>
      <trkpt lat="45.26143" lon="6.1576">
        <ele>2511</ele>
        <time>2016-03-19T12:46:20Z</time>
      </trkpt>
      <trkpt lat="45.26143" lon="6.15758">
        <ele>2512</ele>
        <time>2016-03-19T12:46:25Z</time>
      </trkpt>
      <trkpt lat="45.26144" lon="6.15755">
        <ele>2512</ele>
        <time>2016-03-19T12:46:30Z</time>
      </trkpt>
      <trkpt lat="45.26144" lon="6.15754">
        <ele>2512</ele>
        <time>2016-03-19T12:46:35Z</time>
      </trkpt>
      <trkpt lat="45.26144" lon="6.15752">
        <ele>2512</ele>
        <time>2016-03-19T12:46:40Z</time>
      </trkpt>
      <trkpt lat="45.26145" lon="6.15749">
        <ele>2512</ele>
        <time>2016-03-19T12:46:45Z</time>
      </trkpt>
      <trkpt lat="45.26146" lon="6.15745">
        <ele>2513</ele>
        <time>2016-03-19T12:46:50Z</time>
      </trkpt>
      <trkpt lat="45.26146" lon="6.15744">
        <ele>2514</ele>
        <time>2016-03-19T12:46:55Z</time>
      </trkpt>
      <trkpt lat="45.26146" lon="6.15744">
        <ele>2514</ele>
        <time>2016-03-19T12:47:00Z</time>
      </trkpt>
      <trkpt lat="45.26146" lon="6.15744">
        <ele>2514</ele>
        <time>2016-03-19T12:47:05Z</time>
      </trkpt>
      <trkpt lat="45.26146" lon="6.15744">
        <ele>2514</ele>
        <time>2016-03-19T12:47:10Z</time>
      </trkpt>
      <trkpt lat="45.26148" lon="6.15741">
        <ele>2515</ele>
        <time>2016-03-19T12:47:15Z</time>
      </trkpt>
      <trkpt lat="45.26149" lon="6.15736">
        <ele>2515</ele>
        <time>2016-03-19T12:47:20Z</time>
      </trkpt>
      <trkpt lat="45.26151" lon="6.15733">
        <ele>2516</ele>
        <time>2016-03-19T12:47:25Z</time>
      </trkpt>
      <trkpt lat="45.26154" lon="6.15731">
        <ele>2516</ele>
        <time>2016-03-19T12:47:30Z</time>
      </trkpt>
      <trkpt lat="45.26156" lon="6.1573">
        <ele>2517</ele>
        <time>2016-03-19T12:47:35Z</time>
      </trkpt>
      <trkpt lat="45.26157" lon="6.15728">
        <ele>2517</ele>
        <time>2016-03-19T12:47:40Z</time>
      </trkpt>
      <trkpt lat="45.26159" lon="6.15725">
        <ele>2518</ele>
        <time>2016-03-19T12:47:45Z</time>
      </trkpt>
      <trkpt lat="45.26159" lon="6.15725">
        <ele>2518</ele>
        <time>2016-03-19T12:47:50Z</time>
      </trkpt>
      <trkpt lat="45.26159" lon="6.15725">
        <ele>2518</ele>
        <time>2016-03-19T12:47:55Z</time>
      </trkpt>
      <trkpt lat="45.26159" lon="6.15725">
        <ele>2518</ele>
        <time>2016-03-19T12:48:00Z</time>
      </trkpt>
      <trkpt lat="45.26159" lon="6.15725">
        <ele>2518</ele>
        <time>2016-03-19T12:48:05Z</time>
      </trkpt>
      <trkpt lat="45.26159" lon="6.15725">
        <ele>2518</ele>
        <time>2016-03-19T12:48:10Z</time>
      </trkpt>
      <trkpt lat="45.26159" lon="6.15725">
        <ele>2518</ele>
        <time>2016-03-19T12:48:15Z</time>
      </trkpt>
      <trkpt lat="45.2616" lon="6.15723">
        <ele>2519</ele>
        <time>2016-03-19T12:48:20Z</time>
      </trkpt>
      <trkpt lat="45.26161" lon="6.15722">
        <ele>2519</ele>
        <time>2016-03-19T12:48:25Z</time>
      </trkpt>
      <trkpt lat="45.26161" lon="6.15722">
        <ele>2519</ele>
        <time>2016-03-19T12:48:30Z</time>
      </trkpt>
      <trkpt lat="45.26161" lon="6.15722">
        <ele>2519</ele>
        <time>2016-03-19T12:48:35Z</time>
      </trkpt>
      <trkpt lat="45.26161" lon="6.15722">
        <ele>2519</ele>
        <time>2016-03-19T12:48:40Z</time>
      </trkpt>
      <trkpt lat="45.26161" lon="6.15722">
        <ele>2519</ele>
        <time>2016-03-19T12:48:45Z</time>
      </trkpt>
      <trkpt lat="45.26163" lon="6.15717">
        <ele>2518</ele>
        <time>2016-03-19T12:48:50Z</time>
      </trkpt>
      <trkpt lat="45.26167" lon="6.15705">
        <ele>2517</ele>
        <time>2016-03-19T12:48:55Z</time>
      </trkpt>
      <trkpt lat="45.2618" lon="6.15692">
        <ele>2512</ele>
        <time>2016-03-19T12:49:00Z</time>
      </trkpt>
      <trkpt lat="45.26166" lon="6.1568">
        <ele>2507</ele>
        <time>2016-03-19T12:49:05Z</time>
      </trkpt>
      <trkpt lat="45.26156" lon="6.1566">
        <ele>2498</ele>
        <time>2016-03-19T12:49:10Z</time>
      </trkpt>
      <trkpt lat="45.26138" lon="6.15646">
        <ele>2486</ele>
        <time>2016-03-19T12:49:15Z</time>
      </trkpt>
      <trkpt lat="45.26121" lon="6.15625">
        <ele>2476</ele>
        <time>2016-03-19T12:49:20Z</time>
      </trkpt>
      <trkpt lat="45.26106" lon="6.15608">
        <ele>2465</ele>
        <time>2016-03-19T12:49:25Z</time>
      </trkpt>
      <trkpt lat="45.26093" lon="6.15601">
        <ele>2459</ele>
        <time>2016-03-19T12:49:30Z</time>
      </trkpt>
      <trkpt lat="45.26075" lon="6.15592">
        <ele>2451</ele>
        <time>2016-03-19T12:49:35Z</time>
      </trkpt>
      <trkpt lat="45.26066" lon="6.15563">
        <ele>2449</ele>
        <time>2016-03-19T12:52:30Z</time>
      </trkpt>
      <trkpt lat="45.26066" lon="6.15562">
        <ele>2449</ele>
        <time>2016-03-19T12:52:35Z</time>
      </trkpt>
      <trkpt lat="45.26065" lon="6.15562">
        <ele>2449</ele>
        <time>2016-03-19T12:52:40Z</time>
      </trkpt>
      <trkpt lat="45.26058" lon="6.15577">
        <ele>2445</ele>
        <time>2016-03-19T12:52:45Z</time>
      </trkpt>
      <trkpt lat="45.26045" lon="6.15582">
        <ele>2440</ele>
        <time>2016-03-19T12:52:50Z</time>
      </trkpt>
      <trkpt lat="45.26027" lon="6.15586">
        <ele>2430</ele>
        <time>2016-03-19T12:52:55Z</time>
      </trkpt>
      <trkpt lat="45.26006" lon="6.156">
        <ele>2423</ele>
        <time>2016-03-19T12:53:00Z</time>
      </trkpt>
      <trkpt lat="45.25986" lon="6.15606">
        <ele>2416</ele>
        <time>2016-03-19T12:53:05Z</time>
      </trkpt>
      <trkpt lat="45.2597" lon="6.15587">
        <ele>2406</ele>
        <time>2016-03-19T12:53:10Z</time>
      </trkpt>
      <trkpt lat="45.25937" lon="6.15594">
        <ele>2397</ele>
        <time>2016-03-19T12:53:15Z</time>
      </trkpt>
      <trkpt lat="45.25919" lon="6.15588">
        <ele>2394</ele>
        <time>2016-03-19T12:53:20Z</time>
      </trkpt>
      <trkpt lat="45.25902" lon="6.15585">
        <ele>2392</ele>
        <time>2016-03-19T12:53:25Z</time>
      </trkpt>
      <trkpt lat="45.25887" lon="6.15579">
        <ele>2390</ele>
        <time>2016-03-19T12:53:30Z</time>
      </trkpt>
      <trkpt lat="45.25881" lon="6.15573">
        <ele>2391</ele>
        <time>2016-03-19T12:53:35Z</time>
      </trkpt>
      <trkpt lat="45.25864" lon="6.15563">
        <ele>2388</ele>
        <time>2016-03-19T12:53:40Z</time>
      </trkpt>
      <trkpt lat="45.25844" lon="6.15552">
        <ele>2387</ele>
        <time>2016-03-19T12:53:45Z</time>
      </trkpt>
      <trkpt lat="45.25833" lon="6.15548">
        <ele>2388</ele>
        <time>2016-03-19T12:53:50Z</time>
      </trkpt>
      <trkpt lat="45.25824" lon="6.15547">
        <ele>2388</ele>
        <time>2016-03-19T12:53:55Z</time>
      </trkpt>
      <trkpt lat="45.25811" lon="6.15548">
        <ele>2387</ele>
        <time>2016-03-19T12:54:00Z</time>
      </trkpt>
      <trkpt lat="45.25791" lon="6.1555">
        <ele>2385</ele>
        <time>2016-03-19T12:54:05Z</time>
      </trkpt>
      <trkpt lat="45.25779" lon="6.15556">
        <ele>2384</ele>
        <time>2016-03-19T12:54:10Z</time>
      </trkpt>
      <trkpt lat="45.25779" lon="6.15556">
        <ele>2384</ele>
        <time>2016-03-19T12:54:15Z</time>
      </trkpt>
      <trkpt lat="45.25779" lon="6.15556">
        <ele>2384</ele>
        <time>2016-03-19T12:54:20Z</time>
      </trkpt>
      <trkpt lat="45.25779" lon="6.15555">
        <ele>2384</ele>
        <time>2016-03-19T12:54:25Z</time>
      </trkpt>
      <trkpt lat="45.25779" lon="6.15553">
        <ele>2385</ele>
        <time>2016-03-19T12:54:30Z</time>
      </trkpt>
      <trkpt lat="45.25779" lon="6.15553">
        <ele>2386</ele>
        <time>2016-03-19T12:54:35Z</time>
      </trkpt>
      <trkpt lat="45.2578" lon="6.15555">
        <ele>2384</ele>
        <time>2016-03-19T12:54:40Z</time>
      </trkpt>
      <trkpt lat="45.2578" lon="6.15555">
        <ele>2384</ele>
        <time>2016-03-19T12:54:45Z</time>
      </trkpt>
      <trkpt lat="45.2578" lon="6.15555">
        <ele>2384</ele>
        <time>2016-03-19T12:54:50Z</time>
      </trkpt>
      <trkpt lat="45.2578" lon="6.15555">
        <ele>2384</ele>
        <time>2016-03-19T12:54:55Z</time>
      </trkpt>
      <trkpt lat="45.25779" lon="6.15555">
        <ele>2384</ele>
        <time>2016-03-19T12:55:00Z</time>
      </trkpt>
      <trkpt lat="45.25779" lon="6.15555">
        <ele>2384</ele>
        <time>2016-03-19T12:55:05Z</time>
      </trkpt>
      <trkpt lat="45.25779" lon="6.15554">
        <ele>2384</ele>
        <time>2016-03-19T12:55:10Z</time>
      </trkpt>
      <trkpt lat="45.25779" lon="6.15554">
        <ele>2385</ele>
        <time>2016-03-19T12:55:15Z</time>
      </trkpt>
      <trkpt lat="45.25779" lon="6.15554">
        <ele>2385</ele>
        <time>2016-03-19T12:55:20Z</time>
      </trkpt>
      <trkpt lat="45.25779" lon="6.15553">
        <ele>2384</ele>
        <time>2016-03-19T12:55:25Z</time>
      </trkpt>
      <trkpt lat="45.25779" lon="6.15553">
        <ele>2384</ele>
        <time>2016-03-19T12:55:30Z</time>
      </trkpt>
      <trkpt lat="45.25776" lon="6.15553">
        <ele>2384</ele>
        <time>2016-03-19T12:55:35Z</time>
      </trkpt>
      <trkpt lat="45.25774" lon="6.15554">
        <ele>2384</ele>
        <time>2016-03-19T12:55:40Z</time>
      </trkpt>
      <trkpt lat="45.25774" lon="6.15555">
        <ele>2384</ele>
        <time>2016-03-19T12:55:45Z</time>
      </trkpt>
      <trkpt lat="45.25774" lon="6.15555">
        <ele>2384</ele>
        <time>2016-03-19T12:55:50Z</time>
      </trkpt>
      <trkpt lat="45.25774" lon="6.15555">
        <ele>2384</ele>
        <time>2016-03-19T12:55:55Z</time>
      </trkpt>
      <trkpt lat="45.25774" lon="6.15555">
        <ele>2384</ele>
        <time>2016-03-19T12:56:00Z</time>
      </trkpt>
      <trkpt lat="45.25774" lon="6.15555">
        <ele>2384</ele>
        <time>2016-03-19T12:56:05Z</time>
      </trkpt>
      <trkpt lat="45.25774" lon="6.15555">
        <ele>2385</ele>
        <time>2016-03-19T12:56:10Z</time>
      </trkpt>
      <trkpt lat="45.25774" lon="6.15555">
        <ele>2385</ele>
        <time>2016-03-19T12:56:15Z</time>
      </trkpt>
      <trkpt lat="45.25774" lon="6.15555">
        <ele>2385</ele>
        <time>2016-03-19T12:56:20Z</time>
      </trkpt>
      <trkpt lat="45.25774" lon="6.15555">
        <ele>2385</ele>
        <time>2016-03-19T12:56:25Z</time>
      </trkpt>
      <trkpt lat="45.25774" lon="6.15555">
        <ele>2385</ele>
        <time>2016-03-19T12:56:30Z</time>
      </trkpt>
      <trkpt lat="45.25773" lon="6.15556">
        <ele>2383</ele>
        <time>2016-03-19T12:56:35Z</time>
      </trkpt>
      <trkpt lat="45.25773" lon="6.15557">
        <ele>2381</ele>
        <time>2016-03-19T12:56:40Z</time>
      </trkpt>
      <trkpt lat="45.25772" lon="6.15558">
        <ele>2380</ele>
        <time>2016-03-19T12:56:45Z</time>
      </trkpt>
      <trkpt lat="45.25765" lon="6.15558">
        <ele>2378</ele>
        <time>2016-03-19T12:56:50Z</time>
      </trkpt>
      <trkpt lat="45.25747" lon="6.15564">
        <ele>2376</ele>
        <time>2016-03-19T12:56:55Z</time>
      </trkpt>
      <trkpt lat="45.2573" lon="6.15547">
        <ele>2372</ele>
        <time>2016-03-19T12:57:00Z</time>
      </trkpt>
      <trkpt lat="45.25713" lon="6.15527">
        <ele>2363</ele>
        <time>2016-03-19T12:57:05Z</time>
      </trkpt>
      <trkpt lat="45.25692" lon="6.15516">
        <ele>2352</ele>
        <time>2016-03-19T12:57:10Z</time>
      </trkpt>
      <trkpt lat="45.2568" lon="6.15486">
        <ele>2344</ele>
        <time>2016-03-19T12:57:15Z</time>
      </trkpt>
      <trkpt lat="45.25663" lon="6.15467">
        <ele>2338</ele>
        <time>2016-03-19T12:57:20Z</time>
      </trkpt>
      <trkpt lat="45.25642" lon="6.15466">
        <ele>2331</ele>
        <time>2016-03-19T12:57:25Z</time>
      </trkpt>
      <trkpt lat="45.25622" lon="6.15459">
        <ele>2325</ele>
        <time>2016-03-19T12:57:30Z</time>
      </trkpt>
      <trkpt lat="45.25607" lon="6.1545">
        <ele>2319</ele>
        <time>2016-03-19T12:57:35Z</time>
      </trkpt>
      <trkpt lat="45.25597" lon="6.15438">
        <ele>2315</ele>
        <time>2016-03-19T12:57:40Z</time>
      </trkpt>
      <trkpt lat="45.25599" lon="6.15438">
        <ele>2315</ele>
        <time>2016-03-19T12:57:45Z</time>
      </trkpt>
      <trkpt lat="45.25599" lon="6.15438">
        <ele>2316</ele>
        <time>2016-03-19T12:57:50Z</time>
      </trkpt>
      <trkpt lat="45.25599" lon="6.15438">
        <ele>2317</ele>
        <time>2016-03-19T12:57:55Z</time>
      </trkpt>
      <trkpt lat="45.25599" lon="6.15438">
        <ele>2317</ele>
        <time>2016-03-19T12:58:00Z</time>
      </trkpt>
      <trkpt lat="45.25599" lon="6.15438">
        <ele>2318</ele>
        <time>2016-03-19T12:58:05Z</time>
      </trkpt>
      <trkpt lat="45.25599" lon="6.15438">
        <ele>2319</ele>
        <time>2016-03-19T12:58:10Z</time>
      </trkpt>
      <trkpt lat="45.25597" lon="6.15433">
        <ele>2319</ele>
        <time>2016-03-19T12:58:15Z</time>
      </trkpt>
      <trkpt lat="45.25596" lon="6.15432">
        <ele>2319</ele>
        <time>2016-03-19T12:58:20Z</time>
      </trkpt>
      <trkpt lat="45.25596" lon="6.15431">
        <ele>2319</ele>
        <time>2016-03-19T12:58:25Z</time>
      </trkpt>
      <trkpt lat="45.25595" lon="6.15431">
        <ele>2319</ele>
        <time>2016-03-19T12:58:30Z</time>
      </trkpt>
      <trkpt lat="45.25595" lon="6.15431">
        <ele>2319</ele>
        <time>2016-03-19T12:58:35Z</time>
      </trkpt>
      <trkpt lat="45.25594" lon="6.15431">
        <ele>2319</ele>
        <time>2016-03-19T12:58:40Z</time>
      </trkpt>
      <trkpt lat="45.25594" lon="6.15431">
        <ele>2320</ele>
        <time>2016-03-19T12:58:45Z</time>
      </trkpt>
      <trkpt lat="45.25594" lon="6.15431">
        <ele>2320</ele>
        <time>2016-03-19T12:58:50Z</time>
      </trkpt>
      <trkpt lat="45.25594" lon="6.15431">
        <ele>2320</ele>
        <time>2016-03-19T12:58:55Z</time>
      </trkpt>
      <trkpt lat="45.25594" lon="6.15431">
        <ele>2320</ele>
        <time>2016-03-19T12:59:00Z</time>
      </trkpt>
      <trkpt lat="45.25594" lon="6.15431">
        <ele>2320</ele>
        <time>2016-03-19T12:59:05Z</time>
      </trkpt>
      <trkpt lat="45.25594" lon="6.15431">
        <ele>2320</ele>
        <time>2016-03-19T12:59:10Z</time>
      </trkpt>
      <trkpt lat="45.25594" lon="6.15431">
        <ele>2320</ele>
        <time>2016-03-19T12:59:15Z</time>
      </trkpt>
      <trkpt lat="45.25594" lon="6.15431">
        <ele>2320</ele>
        <time>2016-03-19T12:59:20Z</time>
      </trkpt>
      <trkpt lat="45.25594" lon="6.15432">
        <ele>2320</ele>
        <time>2016-03-19T12:59:25Z</time>
      </trkpt>
      <trkpt lat="45.25594" lon="6.15432">
        <ele>2320</ele>
        <time>2016-03-19T12:59:30Z</time>
      </trkpt>
      <trkpt lat="45.25594" lon="6.15432">
        <ele>2320</ele>
        <time>2016-03-19T12:59:35Z</time>
      </trkpt>
      <trkpt lat="45.25593" lon="6.15431">
        <ele>2321</ele>
        <time>2016-03-19T12:59:40Z</time>
      </trkpt>
      <trkpt lat="45.25593" lon="6.15431">
        <ele>2321</ele>
        <time>2016-03-19T12:59:45Z</time>
      </trkpt>
      <trkpt lat="45.25593" lon="6.15431">
        <ele>2321</ele>
        <time>2016-03-19T12:59:50Z</time>
      </trkpt>
      <trkpt lat="45.25594" lon="6.15431">
        <ele>2321</ele>
        <time>2016-03-19T12:59:55Z</time>
      </trkpt>
      <trkpt lat="45.25594" lon="6.15431">
        <ele>2321</ele>
        <time>2016-03-19T13:00:00Z</time>
      </trkpt>
      <trkpt lat="45.25593" lon="6.15431">
        <ele>2321</ele>
        <time>2016-03-19T13:00:05Z</time>
      </trkpt>
      <trkpt lat="45.25593" lon="6.15431">
        <ele>2322</ele>
        <time>2016-03-19T13:00:10Z</time>
      </trkpt>
      <trkpt lat="45.25593" lon="6.15431">
        <ele>2321</ele>
        <time>2016-03-19T13:00:15Z</time>
      </trkpt>
      <trkpt lat="45.25593" lon="6.15432">
        <ele>2321</ele>
        <time>2016-03-19T13:00:20Z</time>
      </trkpt>
      <trkpt lat="45.25593" lon="6.15432">
        <ele>2321</ele>
        <time>2016-03-19T13:00:25Z</time>
      </trkpt>
      <trkpt lat="45.25593" lon="6.15432">
        <ele>2321</ele>
        <time>2016-03-19T13:00:30Z</time>
      </trkpt>
      <trkpt lat="45.25593" lon="6.15432">
        <ele>2321</ele>
        <time>2016-03-19T13:00:35Z</time>
      </trkpt>
      <trkpt lat="45.25593" lon="6.15432">
        <ele>2321</ele>
        <time>2016-03-19T13:00:40Z</time>
      </trkpt>
      <trkpt lat="45.25593" lon="6.15432">
        <ele>2321</ele>
        <time>2016-03-19T13:00:45Z</time>
      </trkpt>
      <trkpt lat="45.25593" lon="6.15432">
        <ele>2321</ele>
        <time>2016-03-19T13:00:50Z</time>
      </trkpt>
      <trkpt lat="45.25593" lon="6.15432">
        <ele>2320</ele>
        <time>2016-03-19T13:00:55Z</time>
      </trkpt>
      <trkpt lat="45.25593" lon="6.15432">
        <ele>2319</ele>
        <time>2016-03-19T13:01:00Z</time>
      </trkpt>
      <trkpt lat="45.25594" lon="6.15432">
        <ele>2319</ele>
        <time>2016-03-19T13:01:05Z</time>
      </trkpt>
      <trkpt lat="45.25594" lon="6.15432">
        <ele>2319</ele>
        <time>2016-03-19T13:01:10Z</time>
      </trkpt>
      <trkpt lat="45.25593" lon="6.15432">
        <ele>2319</ele>
        <time>2016-03-19T13:01:15Z</time>
      </trkpt>
      <trkpt lat="45.2558" lon="6.15429">
        <ele>2315</ele>
        <time>2016-03-19T13:01:20Z</time>
      </trkpt>
      <trkpt lat="45.25567" lon="6.15419">
        <ele>2307</ele>
        <time>2016-03-19T13:01:25Z</time>
      </trkpt>
      <trkpt lat="45.25551" lon="6.1541">
        <ele>2296</ele>
        <time>2016-03-19T13:01:30Z</time>
      </trkpt>
      <trkpt lat="45.25537" lon="6.15413">
        <ele>2287</ele>
        <time>2016-03-19T13:01:35Z</time>
      </trkpt>
      <trkpt lat="45.25537" lon="6.15414">
        <ele>2285</ele>
        <time>2016-03-19T13:01:40Z</time>
      </trkpt>
      <trkpt lat="45.25533" lon="6.15411">
        <ele>2284</ele>
        <time>2016-03-19T13:01:45Z</time>
      </trkpt>
      <trkpt lat="45.25532" lon="6.15383">
        <ele>2281</ele>
        <time>2016-03-19T13:01:50Z</time>
      </trkpt>
      <trkpt lat="45.25533" lon="6.15358">
        <ele>2279</ele>
        <time>2016-03-19T13:01:55Z</time>
      </trkpt>
      <trkpt lat="45.25535" lon="6.15325">
        <ele>2276</ele>
        <time>2016-03-19T13:02:00Z</time>
      </trkpt>
      <trkpt lat="45.25529" lon="6.15306">
        <ele>2269</ele>
        <time>2016-03-19T13:02:05Z</time>
      </trkpt>
      <trkpt lat="45.25512" lon="6.15298">
        <ele>2256</ele>
        <time>2016-03-19T13:02:10Z</time>
      </trkpt>
      <trkpt lat="45.25499" lon="6.15288">
        <ele>2244</ele>
        <time>2016-03-19T13:02:15Z</time>
      </trkpt>
      <trkpt lat="45.2549" lon="6.15297">
        <ele>2234</ele>
        <time>2016-03-19T13:02:20Z</time>
      </trkpt>
      <trkpt lat="45.25473" lon="6.15287">
        <ele>2219</ele>
        <time>2016-03-19T13:02:25Z</time>
      </trkpt>
      <trkpt lat="45.25449" lon="6.15277">
        <ele>2201</ele>
        <time>2016-03-19T13:02:30Z</time>
      </trkpt>
      <trkpt lat="45.25425" lon="6.15275">
        <ele>2185</ele>
        <time>2016-03-19T13:02:35Z</time>
      </trkpt>
      <trkpt lat="45.25399" lon="6.15263">
        <ele>2172</ele>
        <time>2016-03-19T13:02:40Z</time>
      </trkpt>
      <trkpt lat="45.25375" lon="6.15255">
        <ele>2161</ele>
        <time>2016-03-19T13:02:45Z</time>
      </trkpt>
      <trkpt lat="45.25345" lon="6.15246">
        <ele>2151</ele>
        <time>2016-03-19T13:02:50Z</time>
      </trkpt>
      <trkpt lat="45.25302" lon="6.15258">
        <ele>2146</ele>
        <time>2016-03-19T13:02:55Z</time>
      </trkpt>
      <trkpt lat="45.25282" lon="6.15278">
        <ele>2146</ele>
        <time>2016-03-19T13:03:00Z</time>
      </trkpt>
      <trkpt lat="45.25272" lon="6.15297">
        <ele>2145</ele>
        <time>2016-03-19T13:03:05Z</time>
      </trkpt>
      <trkpt lat="45.25265" lon="6.15317">
        <ele>2143</ele>
        <time>2016-03-19T13:03:10Z</time>
      </trkpt>
      <trkpt lat="45.25261" lon="6.15338">
        <ele>2141</ele>
        <time>2016-03-19T13:03:15Z</time>
      </trkpt>
      <trkpt lat="45.25258" lon="6.15364">
        <ele>2139</ele>
        <time>2016-03-19T13:03:20Z</time>
      </trkpt>
      <trkpt lat="45.25255" lon="6.15393">
        <ele>2137</ele>
        <time>2016-03-19T13:03:25Z</time>
      </trkpt>
      <trkpt lat="45.25254" lon="6.15406">
        <ele>2137</ele>
        <time>2016-03-19T13:03:30Z</time>
      </trkpt>
      <trkpt lat="45.25253" lon="6.15407">
        <ele>2137</ele>
        <time>2016-03-19T13:03:35Z</time>
      </trkpt>
      <trkpt lat="45.25254" lon="6.15407">
        <ele>2137</ele>
        <time>2016-03-19T13:03:40Z</time>
      </trkpt>
      <trkpt lat="45.25254" lon="6.15409">
        <ele>2137</ele>
        <time>2016-03-19T13:03:45Z</time>
      </trkpt>
      <trkpt lat="45.25254" lon="6.15415">
        <ele>2137</ele>
        <time>2016-03-19T13:03:50Z</time>
      </trkpt>
      <trkpt lat="45.25253" lon="6.15427">
        <ele>2137</ele>
        <time>2016-03-19T13:03:55Z</time>
      </trkpt>
      <trkpt lat="45.25251" lon="6.1544">
        <ele>2137</ele>
        <time>2016-03-19T13:04:00Z</time>
      </trkpt>
      <trkpt lat="45.25248" lon="6.15455">
        <ele>2136</ele>
        <time>2016-03-19T13:04:05Z</time>
      </trkpt>
      <trkpt lat="45.25243" lon="6.15474">
        <ele>2135</ele>
        <time>2016-03-19T13:04:10Z</time>
      </trkpt>
      <trkpt lat="45.25237" lon="6.15496">
        <ele>2133</ele>
        <time>2016-03-19T13:04:15Z</time>
      </trkpt>
      <trkpt lat="45.25221" lon="6.15507">
        <ele>2130</ele>
        <time>2016-03-19T13:04:20Z</time>
      </trkpt>
      <trkpt lat="45.2521" lon="6.15533">
        <ele>2128</ele>
        <time>2016-03-19T13:04:25Z</time>
      </trkpt>
      <trkpt lat="45.25207" lon="6.15559">
        <ele>2127</ele>
        <time>2016-03-19T13:04:30Z</time>
      </trkpt>
      <trkpt lat="45.25204" lon="6.15575">
        <ele>2127</ele>
        <time>2016-03-19T13:04:35Z</time>
      </trkpt>
      <trkpt lat="45.252" lon="6.15588">
        <ele>2126</ele>
        <time>2016-03-19T13:04:40Z</time>
      </trkpt>
      <trkpt lat="45.25191" lon="6.15605">
        <ele>2124</ele>
        <time>2016-03-19T13:04:45Z</time>
      </trkpt>
      <trkpt lat="45.25182" lon="6.15621">
        <ele>2124</ele>
        <time>2016-03-19T13:04:50Z</time>
      </trkpt>
      <trkpt lat="45.25182" lon="6.15622">
        <ele>2124</ele>
        <time>2016-03-19T13:04:55Z</time>
      </trkpt>
      <trkpt lat="45.25182" lon="6.15623">
        <ele>2124</ele>
        <time>2016-03-19T13:05:00Z</time>
      </trkpt>
      <trkpt lat="45.25181" lon="6.15627">
        <ele>2124</ele>
        <time>2016-03-19T13:05:05Z</time>
      </trkpt>
      <trkpt lat="45.25178" lon="6.15634">
        <ele>2124</ele>
        <time>2016-03-19T13:05:10Z</time>
      </trkpt>
      <trkpt lat="45.25175" lon="6.1565">
        <ele>2123</ele>
        <time>2016-03-19T13:05:15Z</time>
      </trkpt>
      <trkpt lat="45.25173" lon="6.15663">
        <ele>2123</ele>
        <time>2016-03-19T13:05:20Z</time>
      </trkpt>
      <trkpt lat="45.25173" lon="6.15664">
        <ele>2123</ele>
        <time>2016-03-19T13:05:25Z</time>
      </trkpt>
      <trkpt lat="45.25172" lon="6.15664">
        <ele>2123</ele>
        <time>2016-03-19T13:05:30Z</time>
      </trkpt>
      <trkpt lat="45.25173" lon="6.15665">
        <ele>2123</ele>
        <time>2016-03-19T13:05:35Z</time>
      </trkpt>
      <trkpt lat="45.25172" lon="6.15666">
        <ele>2123</ele>
        <time>2016-03-19T13:05:40Z</time>
      </trkpt>
      <trkpt lat="45.25172" lon="6.15666">
        <ele>2123</ele>
        <time>2016-03-19T13:05:45Z</time>
      </trkpt>
      <trkpt lat="45.25172" lon="6.15666">
        <ele>2123</ele>
        <time>2016-03-19T13:05:50Z</time>
      </trkpt>
      <trkpt lat="45.25171" lon="6.15672">
        <ele>2122</ele>
        <time>2016-03-19T13:05:55Z</time>
      </trkpt>
      <trkpt lat="45.25168" lon="6.15686">
        <ele>2121</ele>
        <time>2016-03-19T13:06:00Z</time>
      </trkpt>
      <trkpt lat="45.25162" lon="6.1571">
        <ele>2119</ele>
        <time>2016-03-19T13:06:05Z</time>
      </trkpt>
      <trkpt lat="45.25153" lon="6.15737">
        <ele>2117</ele>
        <time>2016-03-19T13:06:10Z</time>
      </trkpt>
      <trkpt lat="45.25142" lon="6.15767">
        <ele>2114</ele>
        <time>2016-03-19T13:06:15Z</time>
      </trkpt>
      <trkpt lat="45.25128" lon="6.1579">
        <ele>2113</ele>
        <time>2016-03-19T13:06:20Z</time>
      </trkpt>
      <trkpt lat="45.25113" lon="6.15806">
        <ele>2111</ele>
        <time>2016-03-19T13:06:25Z</time>
      </trkpt>
      <trkpt lat="45.25103" lon="6.15827">
        <ele>2106</ele>
        <time>2016-03-19T13:06:30Z</time>
      </trkpt>
      <trkpt lat="45.25087" lon="6.15852">
        <ele>2102</ele>
        <time>2016-03-19T13:06:35Z</time>
      </trkpt>
      <trkpt lat="45.25071" lon="6.15882">
        <ele>2099</ele>
        <time>2016-03-19T13:06:40Z</time>
      </trkpt>
      <trkpt lat="45.25057" lon="6.15905">
        <ele>2098</ele>
        <time>2016-03-19T13:06:45Z</time>
      </trkpt>
      <trkpt lat="45.25048" lon="6.1592">
        <ele>2097</ele>
        <time>2016-03-19T13:06:50Z</time>
      </trkpt>
      <trkpt lat="45.25047" lon="6.15923">
        <ele>2097</ele>
        <time>2016-03-19T13:06:55Z</time>
      </trkpt>
      <trkpt lat="45.25047" lon="6.15923">
        <ele>2097</ele>
        <time>2016-03-19T13:07:00Z</time>
      </trkpt>
      <trkpt lat="45.25047" lon="6.15922">
        <ele>2097</ele>
        <time>2016-03-19T13:07:05Z</time>
      </trkpt>
      <trkpt lat="45.25047" lon="6.15922">
        <ele>2097</ele>
        <time>2016-03-19T13:07:10Z</time>
      </trkpt>
      <trkpt lat="45.25047" lon="6.15922">
        <ele>2097</ele>
        <time>2016-03-19T13:07:15Z</time>
      </trkpt>
      <trkpt lat="45.25047" lon="6.15922">
        <ele>2097</ele>
        <time>2016-03-19T13:07:20Z</time>
      </trkpt>
      <trkpt lat="45.25047" lon="6.15922">
        <ele>2097</ele>
        <time>2016-03-19T13:07:25Z</time>
      </trkpt>
      <trkpt lat="45.25048" lon="6.15922">
        <ele>2097</ele>
        <time>2016-03-19T13:07:30Z</time>
      </trkpt>
      <trkpt lat="45.25048" lon="6.15922">
        <ele>2097</ele>
        <time>2016-03-19T13:07:35Z</time>
      </trkpt>
      <trkpt lat="45.25048" lon="6.15921">
        <ele>2098</ele>
        <time>2016-03-19T13:07:40Z</time>
      </trkpt>
      <trkpt lat="45.25048" lon="6.15921">
        <ele>2097</ele>
        <time>2016-03-19T13:07:45Z</time>
      </trkpt>
      <trkpt lat="45.25048" lon="6.15921">
        <ele>2097</ele>
        <time>2016-03-19T13:07:50Z</time>
      </trkpt>
      <trkpt lat="45.25048" lon="6.15921">
        <ele>2097</ele>
        <time>2016-03-19T13:07:55Z</time>
      </trkpt>
      <trkpt lat="45.25048" lon="6.15921">
        <ele>2097</ele>
        <time>2016-03-19T13:08:00Z</time>
      </trkpt>
      <trkpt lat="45.25048" lon="6.15921">
        <ele>2097</ele>
        <time>2016-03-19T13:08:05Z</time>
      </trkpt>
      <trkpt lat="45.25048" lon="6.15921">
        <ele>2097</ele>
        <time>2016-03-19T13:08:10Z</time>
      </trkpt>
      <trkpt lat="45.25054" lon="6.15936">
        <ele>2093</ele>
        <time>2016-03-19T13:08:15Z</time>
      </trkpt>
      <trkpt lat="45.25061" lon="6.15966">
        <ele>2084</ele>
        <time>2016-03-19T13:08:20Z</time>
      </trkpt>
      <trkpt lat="45.25064" lon="6.15996">
        <ele>2075</ele>
        <time>2016-03-19T13:08:25Z</time>
      </trkpt>
      <trkpt lat="45.25061" lon="6.16029">
        <ele>2067</ele>
        <time>2016-03-19T13:08:30Z</time>
      </trkpt>
      <trkpt lat="45.25051" lon="6.16058">
        <ele>2060</ele>
        <time>2016-03-19T13:08:35Z</time>
      </trkpt>
      <trkpt lat="45.25036" lon="6.16081">
        <ele>2055</ele>
        <time>2016-03-19T13:08:40Z</time>
      </trkpt>
      <trkpt lat="45.25016" lon="6.16104">
        <ele>2052</ele>
        <time>2016-03-19T13:08:45Z</time>
      </trkpt>
      <trkpt lat="45.24999" lon="6.1613">
        <ele>2050</ele>
        <time>2016-03-19T13:08:50Z</time>
      </trkpt>
      <trkpt lat="45.24991" lon="6.16143">
        <ele>2049</ele>
        <time>2016-03-19T13:08:55Z</time>
      </trkpt>
      <trkpt lat="45.24979" lon="6.16172">
        <ele>2045</ele>
        <time>2016-03-19T13:09:00Z</time>
      </trkpt>
      <trkpt lat="45.24971" lon="6.16207">
        <ele>2044</ele>
        <time>2016-03-19T13:09:05Z</time>
      </trkpt>
      <trkpt lat="45.24961" lon="6.16237">
        <ele>2041</ele>
        <time>2016-03-19T13:09:10Z</time>
      </trkpt>
      <trkpt lat="45.24956" lon="6.16243">
        <ele>2041</ele>
        <time>2016-03-19T13:09:15Z</time>
      </trkpt>
      <trkpt lat="45.24956" lon="6.16243">
        <ele>2041</ele>
        <time>2016-03-19T13:09:20Z</time>
      </trkpt>
      <trkpt lat="45.24957" lon="6.16244">
        <ele>2042</ele>
        <time>2016-03-19T13:09:25Z</time>
      </trkpt>
      <trkpt lat="45.24953" lon="6.16255">
        <ele>2039</ele>
        <time>2016-03-19T13:09:30Z</time>
      </trkpt>
      <trkpt lat="45.2495" lon="6.16283">
        <ele>2032</ele>
        <time>2016-03-19T13:09:35Z</time>
      </trkpt>
      <trkpt lat="45.2496" lon="6.16311">
        <ele>2022</ele>
        <time>2016-03-19T13:09:40Z</time>
      </trkpt>
      <trkpt lat="45.24952" lon="6.1634">
        <ele>2015</ele>
        <time>2016-03-19T13:09:45Z</time>
      </trkpt>
      <trkpt lat="45.24951" lon="6.16372">
        <ele>2006</ele>
        <time>2016-03-19T13:09:50Z</time>
      </trkpt>
      <trkpt lat="45.24942" lon="6.16403">
        <ele>1999</ele>
        <time>2016-03-19T13:09:55Z</time>
      </trkpt>
      <trkpt lat="45.24918" lon="6.16407">
        <ele>1993</ele>
        <time>2016-03-19T13:10:00Z</time>
      </trkpt>
      <trkpt lat="45.24911" lon="6.16434">
        <ele>1987</ele>
        <time>2016-03-19T13:10:05Z</time>
      </trkpt>
      <trkpt lat="45.24901" lon="6.1646">
        <ele>1980</ele>
        <time>2016-03-19T13:10:10Z</time>
      </trkpt>
      <trkpt lat="45.249" lon="6.16476">
        <ele>1977</ele>
        <time>2016-03-19T13:10:15Z</time>
      </trkpt>
      <trkpt lat="45.249" lon="6.16476">
        <ele>1977</ele>
        <time>2016-03-19T13:10:20Z</time>
      </trkpt>
      <trkpt lat="45.249" lon="6.16476">
        <ele>1977</ele>
        <time>2016-03-19T13:10:25Z</time>
      </trkpt>
      <trkpt lat="45.249" lon="6.16476">
        <ele>1977</ele>
        <time>2016-03-19T13:10:30Z</time>
      </trkpt>
      <trkpt lat="45.249" lon="6.16475">
        <ele>1976</ele>
        <time>2016-03-19T13:10:35Z</time>
      </trkpt>
      <trkpt lat="45.249" lon="6.16475">
        <ele>1976</ele>
        <time>2016-03-19T13:10:40Z</time>
      </trkpt>
      <trkpt lat="45.249" lon="6.16475">
        <ele>1976</ele>
        <time>2016-03-19T13:10:45Z</time>
      </trkpt>
      <trkpt lat="45.249" lon="6.16475">
        <ele>1976</ele>
        <time>2016-03-19T13:10:50Z</time>
      </trkpt>
      <trkpt lat="45.24901" lon="6.16475">
        <ele>1976</ele>
        <time>2016-03-19T13:10:55Z</time>
      </trkpt>
      <trkpt lat="45.24901" lon="6.16475">
        <ele>1976</ele>
        <time>2016-03-19T13:11:00Z</time>
      </trkpt>
      <trkpt lat="45.24901" lon="6.16475">
        <ele>1976</ele>
        <time>2016-03-19T13:11:05Z</time>
      </trkpt>
      <trkpt lat="45.24901" lon="6.16475">
        <ele>1976</ele>
        <time>2016-03-19T13:11:10Z</time>
      </trkpt>
      <trkpt lat="45.24901" lon="6.16475">
        <ele>1976</ele>
        <time>2016-03-19T13:11:15Z</time>
      </trkpt>
      <trkpt lat="45.24901" lon="6.16475">
        <ele>1976</ele>
        <time>2016-03-19T13:11:20Z</time>
      </trkpt>
      <trkpt lat="45.24901" lon="6.16475">
        <ele>1976</ele>
        <time>2016-03-19T13:11:25Z</time>
      </trkpt>
      <trkpt lat="45.24901" lon="6.16475">
        <ele>1976</ele>
        <time>2016-03-19T13:11:30Z</time>
      </trkpt>
      <trkpt lat="45.24901" lon="6.16475">
        <ele>1976</ele>
        <time>2016-03-19T13:11:35Z</time>
      </trkpt>
      <trkpt lat="45.24901" lon="6.16475">
        <ele>1976</ele>
        <time>2016-03-19T13:11:40Z</time>
      </trkpt>
      <trkpt lat="45.24901" lon="6.16475">
        <ele>1977</ele>
        <time>2016-03-19T13:11:45Z</time>
      </trkpt>
      <trkpt lat="45.24901" lon="6.16475">
        <ele>1977</ele>
        <time>2016-03-19T13:11:50Z</time>
      </trkpt>
      <trkpt lat="45.24901" lon="6.16475">
        <ele>1977</ele>
        <time>2016-03-19T13:11:55Z</time>
      </trkpt>
      <trkpt lat="45.24901" lon="6.16479">
        <ele>1976</ele>
        <time>2016-03-19T13:12:00Z</time>
      </trkpt>
      <trkpt lat="45.24888" lon="6.16497">
        <ele>1972</ele>
        <time>2016-03-19T13:12:05Z</time>
      </trkpt>
      <trkpt lat="45.24868" lon="6.16509">
        <ele>1964</ele>
        <time>2016-03-19T13:12:10Z</time>
      </trkpt>
      <trkpt lat="45.24849" lon="6.16527">
        <ele>1956</ele>
        <time>2016-03-19T13:12:15Z</time>
      </trkpt>
      <trkpt lat="45.24851" lon="6.16556">
        <ele>1949</ele>
        <time>2016-03-19T13:12:20Z</time>
      </trkpt>
      <trkpt lat="45.24835" lon="6.16565">
        <ele>1942</ele>
        <time>2016-03-19T13:12:25Z</time>
      </trkpt>
      <trkpt lat="45.24822" lon="6.16583">
        <ele>1935</ele>
        <time>2016-03-19T13:12:30Z</time>
      </trkpt>
      <trkpt lat="45.24818" lon="6.16607">
        <ele>1926</ele>
        <time>2016-03-19T13:12:35Z</time>
      </trkpt>
      <trkpt lat="45.24814" lon="6.16628">
        <ele>1917</ele>
        <time>2016-03-19T13:12:40Z</time>
      </trkpt>
      <trkpt lat="45.24811" lon="6.16658">
        <ele>1907</ele>
        <time>2016-03-19T13:12:45Z</time>
      </trkpt>
      <trkpt lat="45.24799" lon="6.16685">
        <ele>1900</ele>
        <time>2016-03-19T13:12:50Z</time>
      </trkpt>
      <trkpt lat="45.24801" lon="6.16717">
        <ele>1889</ele>
        <time>2016-03-19T13:12:55Z</time>
      </trkpt>
      <trkpt lat="45.2481" lon="6.16751">
        <ele>1881</ele>
        <time>2016-03-19T13:13:00Z</time>
      </trkpt>
      <trkpt lat="45.24801" lon="6.16778">
        <ele>1871</ele>
        <time>2016-03-19T13:13:05Z</time>
      </trkpt>
      <trkpt lat="45.24793" lon="6.16808">
        <ele>1860</ele>
        <time>2016-03-19T13:13:10Z</time>
      </trkpt>
      <trkpt lat="45.24789" lon="6.1684">
        <ele>1851</ele>
        <time>2016-03-19T13:13:15Z</time>
      </trkpt>
      <trkpt lat="45.24792" lon="6.16872">
        <ele>1843</ele>
        <time>2016-03-19T13:13:20Z</time>
      </trkpt>
      <trkpt lat="45.24777" lon="6.1689">
        <ele>1838</ele>
        <time>2016-03-19T13:13:25Z</time>
      </trkpt>
      <trkpt lat="45.24767" lon="6.16892">
        <ele>1837</ele>
        <time>2016-03-19T13:13:30Z</time>
      </trkpt>
      <trkpt lat="45.24767" lon="6.16892">
        <ele>1838</ele>
        <time>2016-03-19T13:13:35Z</time>
      </trkpt>
      <trkpt lat="45.24767" lon="6.16894">
        <ele>1838</ele>
        <time>2016-03-19T13:13:40Z</time>
      </trkpt>
      <trkpt lat="45.24767" lon="6.16894">
        <ele>1838</ele>
        <time>2016-03-19T13:13:45Z</time>
      </trkpt>
      <trkpt lat="45.24767" lon="6.16894">
        <ele>1838</ele>
        <time>2016-03-19T13:13:50Z</time>
      </trkpt>
      <trkpt lat="45.24767" lon="6.16893">
        <ele>1838</ele>
        <time>2016-03-19T13:13:55Z</time>
      </trkpt>
      <trkpt lat="45.24767" lon="6.16893">
        <ele>1838</ele>
        <time>2016-03-19T13:14:00Z</time>
      </trkpt>
      <trkpt lat="45.24767" lon="6.16893">
        <ele>1838</ele>
        <time>2016-03-19T13:14:05Z</time>
      </trkpt>
      <trkpt lat="45.24767" lon="6.16893">
        <ele>1839</ele>
        <time>2016-03-19T13:14:10Z</time>
      </trkpt>
      <trkpt lat="45.24767" lon="6.16893">
        <ele>1839</ele>
        <time>2016-03-19T13:14:15Z</time>
      </trkpt>
      <trkpt lat="45.24768" lon="6.16892">
        <ele>1839</ele>
        <time>2016-03-19T13:14:20Z</time>
      </trkpt>
      <trkpt lat="45.24768" lon="6.16893">
        <ele>1839</ele>
        <time>2016-03-19T13:14:25Z</time>
      </trkpt>
      <trkpt lat="45.24769" lon="6.169">
        <ele>1838</ele>
        <time>2016-03-19T13:14:30Z</time>
      </trkpt>
      <trkpt lat="45.2477" lon="6.16909">
        <ele>1838</ele>
        <time>2016-03-19T13:14:35Z</time>
      </trkpt>
      <trkpt lat="45.24771" lon="6.16909">
        <ele>1838</ele>
        <time>2016-03-19T13:14:40Z</time>
      </trkpt>
      <trkpt lat="45.24771" lon="6.16909">
        <ele>1838</ele>
        <time>2016-03-19T13:14:45Z</time>
      </trkpt>
      <trkpt lat="45.24771" lon="6.1691">
        <ele>1838</ele>
        <time>2016-03-19T13:14:50Z</time>
      </trkpt>
      <trkpt lat="45.2477" lon="6.16909">
        <ele>1838</ele>
        <time>2016-03-19T13:14:55Z</time>
      </trkpt>
      <trkpt lat="45.2477" lon="6.1691">
        <ele>1838</ele>
        <time>2016-03-19T13:15:00Z</time>
      </trkpt>
      <trkpt lat="45.2477" lon="6.16909">
        <ele>1838</ele>
        <time>2016-03-19T13:15:05Z</time>
      </trkpt>
      <trkpt lat="45.2477" lon="6.1691">
        <ele>1837</ele>
        <time>2016-03-19T13:15:10Z</time>
      </trkpt>
      <trkpt lat="45.2477" lon="6.1691">
        <ele>1837</ele>
        <time>2016-03-19T13:15:15Z</time>
      </trkpt>
      <trkpt lat="45.2477" lon="6.1691">
        <ele>1837</ele>
        <time>2016-03-19T13:15:20Z</time>
      </trkpt>
      <trkpt lat="45.24764" lon="6.16905">
        <ele>1836</ele>
        <time>2016-03-19T13:15:25Z</time>
      </trkpt>
      <trkpt lat="45.24744" lon="6.16906">
        <ele>1832</ele>
        <time>2016-03-19T13:15:30Z</time>
      </trkpt>
      <trkpt lat="45.24726" lon="6.16921">
        <ele>1824</ele>
        <time>2016-03-19T13:15:35Z</time>
      </trkpt>
      <trkpt lat="45.24711" lon="6.16916">
        <ele>1820</ele>
        <time>2016-03-19T13:15:40Z</time>
      </trkpt>
      <trkpt lat="45.2471" lon="6.16916">
        <ele>1820</ele>
        <time>2016-03-19T13:15:45Z</time>
      </trkpt>
      <trkpt lat="45.24697" lon="6.16912">
        <ele>1814</ele>
        <time>2016-03-19T13:15:50Z</time>
      </trkpt>
      <trkpt lat="45.24691" lon="6.16927">
        <ele>1807</ele>
        <time>2016-03-19T13:15:55Z</time>
      </trkpt>
      <trkpt lat="45.24689" lon="6.16931">
        <ele>1805</ele>
        <time>2016-03-19T13:16:00Z</time>
      </trkpt>
      <trkpt lat="45.24686" lon="6.16934">
        <ele>1804</ele>
        <time>2016-03-19T13:16:05Z</time>
      </trkpt>
      <trkpt lat="45.24672" lon="6.16938">
        <ele>1800</ele>
        <time>2016-03-19T13:16:10Z</time>
      </trkpt>
      <trkpt lat="45.2466" lon="6.16957">
        <ele>1791</ele>
        <time>2016-03-19T13:16:15Z</time>
      </trkpt>
      <trkpt lat="45.24652" lon="6.16976">
        <ele>1783</ele>
        <time>2016-03-19T13:16:20Z</time>
      </trkpt>
      <trkpt lat="45.24627" lon="6.16976">
        <ele>1778</ele>
        <time>2016-03-19T13:16:25Z</time>
      </trkpt>
      <trkpt lat="45.24621" lon="6.16978">
        <ele>1777</ele>
        <time>2016-03-19T13:16:30Z</time>
      </trkpt>
      <trkpt lat="45.24621" lon="6.16978">
        <ele>1777</ele>
        <time>2016-03-19T13:16:35Z</time>
      </trkpt>
      <trkpt lat="45.24618" lon="6.16983">
        <ele>1776</ele>
        <time>2016-03-19T13:16:40Z</time>
      </trkpt>
      <trkpt lat="45.24617" lon="6.16986">
        <ele>1775</ele>
        <time>2016-03-19T13:16:45Z</time>
      </trkpt>
      <trkpt lat="45.24617" lon="6.16987">
        <ele>1774</ele>
        <time>2016-03-19T13:16:50Z</time>
      </trkpt>
      <trkpt lat="45.24629" lon="6.16991">
        <ele>1771</ele>
        <time>2016-03-19T13:16:55Z</time>
      </trkpt>
      <trkpt lat="45.24627" lon="6.1701">
        <ele>1762</ele>
        <time>2016-03-19T13:17:00Z</time>
      </trkpt>
      <trkpt lat="45.24642" lon="6.17019">
        <ele>1754</ele>
        <time>2016-03-19T13:17:05Z</time>
      </trkpt>
      <trkpt lat="45.24632" lon="6.17031">
        <ele>1747</ele>
        <time>2016-03-19T13:17:10Z</time>
      </trkpt>
      <trkpt lat="45.24617" lon="6.17041">
        <ele>1742</ele>
        <time>2016-03-19T13:17:15Z</time>
      </trkpt>
      <trkpt lat="45.24618" lon="6.17043">
        <ele>1740</ele>
        <time>2016-03-19T13:17:20Z</time>
      </trkpt>
      <trkpt lat="45.24622" lon="6.17057">
        <ele>1733</ele>
        <time>2016-03-19T13:17:25Z</time>
      </trkpt>
      <trkpt lat="45.24616" lon="6.17083">
        <ele>1720</ele>
        <time>2016-03-19T13:17:30Z</time>
      </trkpt>
      <trkpt lat="45.24589" lon="6.17098">
        <ele>1715</ele>
        <time>2016-03-19T13:17:35Z</time>
      </trkpt>
      <trkpt lat="45.24584" lon="6.17127">
        <ele>1707</ele>
        <time>2016-03-19T13:17:40Z</time>
      </trkpt>
      <trkpt lat="45.24582" lon="6.17169">
        <ele>1698</ele>
        <time>2016-03-19T13:17:45Z</time>
      </trkpt>
      <trkpt lat="45.24585" lon="6.17203">
        <ele>1694</ele>
        <time>2016-03-19T13:17:50Z</time>
      </trkpt>
      <trkpt lat="45.24587" lon="6.17217">
        <ele>1693</ele>
        <time>2016-03-19T13:17:55Z</time>
      </trkpt>
      <trkpt lat="45.2458" lon="6.17237">
        <ele>1690</ele>
        <time>2016-03-19T13:18:00Z</time>
      </trkpt>
      <trkpt lat="45.24569" lon="6.17251">
        <ele>1690</ele>
        <time>2016-03-19T13:18:05Z</time>
      </trkpt>
      <trkpt lat="45.24561" lon="6.17258">
        <ele>1689</ele>
        <time>2016-03-19T13:18:10Z</time>
      </trkpt>
      <trkpt lat="45.24539" lon="6.17257">
        <ele>1683</ele>
        <time>2016-03-19T13:18:15Z</time>
      </trkpt>
      <trkpt lat="45.24525" lon="6.17296">
        <ele>1674</ele>
        <time>2016-03-19T13:18:20Z</time>
      </trkpt>
      <trkpt lat="45.24513" lon="6.17346">
        <ele>1669</ele>
        <time>2016-03-19T13:18:25Z</time>
      </trkpt>
      <trkpt lat="45.24507" lon="6.17375">
        <ele>1667</ele>
        <time>2016-03-19T13:18:30Z</time>
      </trkpt>
      <trkpt lat="45.24521" lon="6.17398">
        <ele>1664</ele>
        <time>2016-03-19T13:18:35Z</time>
      </trkpt>
      <trkpt lat="45.24534" lon="6.17416">
        <ele>1664</ele>
        <time>2016-03-19T13:18:40Z</time>
      </trkpt>
      <trkpt lat="45.24539" lon="6.17421">
        <ele>1664</ele>
        <time>2016-03-19T13:18:45Z</time>
      </trkpt>
      <trkpt lat="45.24545" lon="6.17429">
        <ele>1664</ele>
        <time>2016-03-19T13:18:50Z</time>
      </trkpt>
      <trkpt lat="45.24555" lon="6.17441">
        <ele>1663</ele>
        <time>2016-03-19T13:18:55Z</time>
      </trkpt>
      <trkpt lat="45.24563" lon="6.17452">
        <ele>1662</ele>
        <time>2016-03-19T13:19:00Z</time>
      </trkpt>
      <trkpt lat="45.24571" lon="6.17463">
        <ele>1662</ele>
        <time>2016-03-19T13:19:05Z</time>
      </trkpt>
      <trkpt lat="45.24572" lon="6.17464">
        <ele>1662</ele>
        <time>2016-03-19T13:19:10Z</time>
      </trkpt>
      <trkpt lat="45.24572" lon="6.17464">
        <ele>1662</ele>
        <time>2016-03-19T13:19:15Z</time>
      </trkpt>
      <trkpt lat="45.24572" lon="6.17464">
        <ele>1662</ele>
        <time>2016-03-19T13:19:20Z</time>
      </trkpt>
      <trkpt lat="45.24572" lon="6.17464">
        <ele>1662</ele>
        <time>2016-03-19T13:19:25Z</time>
      </trkpt>
      <trkpt lat="45.24573" lon="6.17464">
        <ele>1662</ele>
        <time>2016-03-19T13:19:30Z</time>
      </trkpt>
      <trkpt lat="45.24575" lon="6.17466">
        <ele>1662</ele>
        <time>2016-03-19T13:19:35Z</time>
      </trkpt>
      <trkpt lat="45.24578" lon="6.17469">
        <ele>1662</ele>
        <time>2016-03-19T13:19:40Z</time>
      </trkpt>
      <trkpt lat="45.24583" lon="6.17474">
        <ele>1662</ele>
        <time>2016-03-19T13:19:45Z</time>
      </trkpt>
      <trkpt lat="45.2459" lon="6.17481">
        <ele>1662</ele>
        <time>2016-03-19T13:19:50Z</time>
      </trkpt>
      <trkpt lat="45.24596" lon="6.17488">
        <ele>1661</ele>
        <time>2016-03-19T13:19:55Z</time>
      </trkpt>
      <trkpt lat="45.24603" lon="6.17496">
        <ele>1661</ele>
        <time>2016-03-19T13:20:00Z</time>
      </trkpt>
      <trkpt lat="45.24611" lon="6.17503">
        <ele>1660</ele>
        <time>2016-03-19T13:20:05Z</time>
      </trkpt>
      <trkpt lat="45.24617" lon="6.17509">
        <ele>1660</ele>
        <time>2016-03-19T13:20:10Z</time>
      </trkpt>
      <trkpt lat="45.24624" lon="6.17513">
        <ele>1660</ele>
        <time>2016-03-19T13:20:15Z</time>
      </trkpt>
      <trkpt lat="45.24627" lon="6.17517">
        <ele>1660</ele>
        <time>2016-03-19T13:20:20Z</time>
      </trkpt>
      <trkpt lat="45.24631" lon="6.17521">
        <ele>1661</ele>
        <time>2016-03-19T13:20:25Z</time>
      </trkpt>
      <trkpt lat="45.24634" lon="6.17524">
        <ele>1661</ele>
        <time>2016-03-19T13:20:30Z</time>
      </trkpt>
      <trkpt lat="45.24638" lon="6.17527">
        <ele>1661</ele>
        <time>2016-03-19T13:20:35Z</time>
      </trkpt>
      <trkpt lat="45.24643" lon="6.1753">
        <ele>1661</ele>
        <time>2016-03-19T13:20:40Z</time>
      </trkpt>
      <trkpt lat="45.2465" lon="6.17534">
        <ele>1661</ele>
        <time>2016-03-19T13:20:45Z</time>
      </trkpt>
      <trkpt lat="45.24658" lon="6.17539">
        <ele>1661</ele>
        <time>2016-03-19T13:20:50Z</time>
      </trkpt>
      <trkpt lat="45.24667" lon="6.17544">
        <ele>1661</ele>
        <time>2016-03-19T13:20:55Z</time>
      </trkpt>
      <trkpt lat="45.24677" lon="6.17551">
        <ele>1660</ele>
        <time>2016-03-19T13:21:00Z</time>
      </trkpt>
      <trkpt lat="45.24686" lon="6.17559">
        <ele>1660</ele>
        <time>2016-03-19T13:21:05Z</time>
      </trkpt>
      <trkpt lat="45.24695" lon="6.17566">
        <ele>1659</ele>
        <time>2016-03-19T13:21:10Z</time>
      </trkpt>
      <trkpt lat="45.24699" lon="6.17569">
        <ele>1660</ele>
        <time>2016-03-19T13:21:15Z</time>
      </trkpt>
      <trkpt lat="45.24703" lon="6.17572">
        <ele>1660</ele>
        <time>2016-03-19T13:21:20Z</time>
      </trkpt>
      <trkpt lat="45.24707" lon="6.17577">
        <ele>1660</ele>
        <time>2016-03-19T13:21:25Z</time>
      </trkpt>
      <trkpt lat="45.24708" lon="6.17578">
        <ele>1660</ele>
        <time>2016-03-19T13:21:30Z</time>
      </trkpt>
      <trkpt lat="45.24708" lon="6.17578">
        <ele>1660</ele>
        <time>2016-03-19T13:21:35Z</time>
      </trkpt>
      <trkpt lat="45.24708" lon="6.17578">
        <ele>1660</ele>
        <time>2016-03-19T13:21:40Z</time>
      </trkpt>
      <trkpt lat="45.2471" lon="6.17581">
        <ele>1660</ele>
        <time>2016-03-19T13:21:45Z</time>
      </trkpt>
      <trkpt lat="45.24714" lon="6.17586">
        <ele>1660</ele>
        <time>2016-03-19T13:21:50Z</time>
      </trkpt>
      <trkpt lat="45.24713" lon="6.17586">
        <ele>1660</ele>
        <time>2016-03-19T13:21:55Z</time>
      </trkpt>
      <trkpt lat="45.24713" lon="6.17586">
        <ele>1660</ele>
        <time>2016-03-19T13:22:00Z</time>
      </trkpt>
      <trkpt lat="45.24713" lon="6.17586">
        <ele>1660</ele>
        <time>2016-03-19T13:22:05Z</time>
      </trkpt>
      <trkpt lat="45.24712" lon="6.17586">
        <ele>1660</ele>
        <time>2016-03-19T13:22:10Z</time>
      </trkpt>
      <trkpt lat="45.24712" lon="6.17586">
        <ele>1660</ele>
        <time>2016-03-19T13:22:15Z</time>
      </trkpt>
      <trkpt lat="45.24712" lon="6.17586">
        <ele>1660</ele>
        <time>2016-03-19T13:22:20Z</time>
      </trkpt>
      <trkpt lat="45.24712" lon="6.17586">
        <ele>1660</ele>
        <time>2016-03-19T13:22:25Z</time>
      </trkpt>
      <trkpt lat="45.24713" lon="6.17586">
        <ele>1660</ele>
        <time>2016-03-19T13:22:30Z</time>
      </trkpt>
      <trkpt lat="45.2472" lon="6.17593">
        <ele>1659</ele>
        <time>2016-03-19T13:22:35Z</time>
      </trkpt>
      <trkpt lat="45.2473" lon="6.17606">
        <ele>1658</ele>
        <time>2016-03-19T13:22:40Z</time>
      </trkpt>
      <trkpt lat="45.24742" lon="6.17623">
        <ele>1656</ele>
        <time>2016-03-19T13:22:45Z</time>
      </trkpt>
      <trkpt lat="45.24759" lon="6.17642">
        <ele>1653</ele>
        <time>2016-03-19T13:22:50Z</time>
      </trkpt>
      <trkpt lat="45.24775" lon="6.17661">
        <ele>1651</ele>
        <time>2016-03-19T13:22:55Z</time>
      </trkpt>
      <trkpt lat="45.24787" lon="6.17678">
        <ele>1650</ele>
        <time>2016-03-19T13:23:00Z</time>
      </trkpt>
      <trkpt lat="45.24797" lon="6.17694">
        <ele>1648</ele>
        <time>2016-03-19T13:23:05Z</time>
      </trkpt>
      <trkpt lat="45.24807" lon="6.17718">
        <ele>1646</ele>
        <time>2016-03-19T13:23:10Z</time>
      </trkpt>
      <trkpt lat="45.24817" lon="6.17744">
        <ele>1644</ele>
        <time>2016-03-19T13:23:15Z</time>
      </trkpt>
      <trkpt lat="45.24828" lon="6.17771">
        <ele>1642</ele>
        <time>2016-03-19T13:23:20Z</time>
      </trkpt>
      <trkpt lat="45.2484" lon="6.17794">
        <ele>1640</ele>
        <time>2016-03-19T13:23:25Z</time>
      </trkpt>
      <trkpt lat="45.24851" lon="6.17808">
        <ele>1638</ele>
        <time>2016-03-19T13:23:30Z</time>
      </trkpt>
      <trkpt lat="45.24862" lon="6.17817">
        <ele>1637</ele>
        <time>2016-03-19T13:23:35Z</time>
      </trkpt>
      <trkpt lat="45.24875" lon="6.17827">
        <ele>1636</ele>
        <time>2016-03-19T13:23:40Z</time>
      </trkpt>
      <trkpt lat="45.24888" lon="6.17837">
        <ele>1635</ele>
        <time>2016-03-19T13:23:45Z</time>
      </trkpt>
      <trkpt lat="45.24901" lon="6.17847">
        <ele>1634</ele>
        <time>2016-03-19T13:23:50Z</time>
      </trkpt>
      <trkpt lat="45.24913" lon="6.17858">
        <ele>1633</ele>
        <time>2016-03-19T13:23:55Z</time>
      </trkpt>
      <trkpt lat="45.24925" lon="6.1787">
        <ele>1632</ele>
        <time>2016-03-19T13:24:00Z</time>
      </trkpt>
      <trkpt lat="45.24933" lon="6.17881">
        <ele>1631</ele>
        <time>2016-03-19T13:24:05Z</time>
      </trkpt>
      <trkpt lat="45.24938" lon="6.17891">
        <ele>1631</ele>
        <time>2016-03-19T13:24:10Z</time>
      </trkpt>
      <trkpt lat="45.24942" lon="6.17902">
        <ele>1631</ele>
        <time>2016-03-19T13:24:15Z</time>
      </trkpt>
      <trkpt lat="45.24946" lon="6.17914">
        <ele>1631</ele>
        <time>2016-03-19T13:24:20Z</time>
      </trkpt>
      <trkpt lat="45.24948" lon="6.17921">
        <ele>1631</ele>
        <time>2016-03-19T13:24:25Z</time>
      </trkpt>
      <trkpt lat="45.24951" lon="6.17928">
        <ele>1630</ele>
        <time>2016-03-19T13:24:30Z</time>
      </trkpt>
      <trkpt lat="45.2496" lon="6.17953">
        <ele>1627</ele>
        <time>2016-03-19T13:24:35Z</time>
      </trkpt>
      <trkpt lat="45.2497" lon="6.17976">
        <ele>1626</ele>
        <time>2016-03-19T13:24:40Z</time>
      </trkpt>
      <trkpt lat="45.24976" lon="6.17991">
        <ele>1625</ele>
        <time>2016-03-19T13:24:45Z</time>
      </trkpt>
      <trkpt lat="45.24981" lon="6.18001">
        <ele>1624</ele>
        <time>2016-03-19T13:24:50Z</time>
      </trkpt>
      <trkpt lat="45.24988" lon="6.18012">
        <ele>1623</ele>
        <time>2016-03-19T13:24:55Z</time>
      </trkpt>
      <trkpt lat="45.24996" lon="6.18026">
        <ele>1622</ele>
        <time>2016-03-19T13:25:00Z</time>
      </trkpt>
      <trkpt lat="45.25006" lon="6.18037">
        <ele>1622</ele>
        <time>2016-03-19T13:25:05Z</time>
      </trkpt>
      <trkpt lat="45.25016" lon="6.1805">
        <ele>1621</ele>
        <time>2016-03-19T13:25:10Z</time>
      </trkpt>
      <trkpt lat="45.25028" lon="6.18065">
        <ele>1620</ele>
        <time>2016-03-19T13:25:15Z</time>
      </trkpt>
      <trkpt lat="45.25039" lon="6.18083">
        <ele>1619</ele>
        <time>2016-03-19T13:25:20Z</time>
      </trkpt>
      <trkpt lat="45.25052" lon="6.18101">
        <ele>1617</ele>
        <time>2016-03-19T13:25:25Z</time>
      </trkpt>
      <trkpt lat="45.25063" lon="6.1812">
        <ele>1616</ele>
        <time>2016-03-19T13:25:30Z</time>
      </trkpt>
      <trkpt lat="45.25074" lon="6.18145">
        <ele>1614</ele>
        <time>2016-03-19T13:25:35Z</time>
      </trkpt>
      <trkpt lat="45.25088" lon="6.18167">
        <ele>1613</ele>
        <time>2016-03-19T13:25:40Z</time>
      </trkpt>
      <trkpt lat="45.25103" lon="6.18178">
        <ele>1612</ele>
        <time>2016-03-19T13:25:45Z</time>
      </trkpt>
      <trkpt lat="45.25115" lon="6.18184">
        <ele>1611</ele>
        <time>2016-03-19T13:25:50Z</time>
      </trkpt>
      <trkpt lat="45.25126" lon="6.18192">
        <ele>1610</ele>
        <time>2016-03-19T13:25:55Z</time>
      </trkpt>
      <trkpt lat="45.25136" lon="6.18201">
        <ele>1609</ele>
        <time>2016-03-19T13:26:00Z</time>
      </trkpt>
      <trkpt lat="45.25146" lon="6.1821">
        <ele>1609</ele>
        <time>2016-03-19T13:26:05Z</time>
      </trkpt>
      <trkpt lat="45.25157" lon="6.18217">
        <ele>1607</ele>
        <time>2016-03-19T13:26:10Z</time>
      </trkpt>
      <trkpt lat="45.25169" lon="6.18226">
        <ele>1607</ele>
        <time>2016-03-19T13:26:15Z</time>
      </trkpt>
      <trkpt lat="45.25178" lon="6.18236">
        <ele>1606</ele>
        <time>2016-03-19T13:26:20Z</time>
      </trkpt>
      <trkpt lat="45.25186" lon="6.1825">
        <ele>1605</ele>
        <time>2016-03-19T13:26:25Z</time>
      </trkpt>
      <trkpt lat="45.25194" lon="6.1827">
        <ele>1604</ele>
        <time>2016-03-19T13:26:30Z</time>
      </trkpt>
      <trkpt lat="45.25201" lon="6.1829">
        <ele>1602</ele>
        <time>2016-03-19T13:26:35Z</time>
      </trkpt>
      <trkpt lat="45.25209" lon="6.18303">
        <ele>1602</ele>
        <time>2016-03-19T13:26:40Z</time>
      </trkpt>
      <trkpt lat="45.25214" lon="6.18316">
        <ele>1601</ele>
        <time>2016-03-19T13:26:45Z</time>
      </trkpt>
      <trkpt lat="45.2522" lon="6.18329">
        <ele>1601</ele>
        <time>2016-03-19T13:26:50Z</time>
      </trkpt>
      <trkpt lat="45.25224" lon="6.18343">
        <ele>1600</ele>
        <time>2016-03-19T13:26:55Z</time>
      </trkpt>
      <trkpt lat="45.25225" lon="6.18358">
        <ele>1600</ele>
        <time>2016-03-19T13:27:00Z</time>
      </trkpt>
      <trkpt lat="45.25226" lon="6.18371">
        <ele>1599</ele>
        <time>2016-03-19T13:27:05Z</time>
      </trkpt>
      <trkpt lat="45.25227" lon="6.18386">
        <ele>1598</ele>
        <time>2016-03-19T13:27:10Z</time>
      </trkpt>
      <trkpt lat="45.25233" lon="6.18405">
        <ele>1597</ele>
        <time>2016-03-19T13:27:15Z</time>
      </trkpt>
      <trkpt lat="45.25235" lon="6.18425">
        <ele>1596</ele>
        <time>2016-03-19T13:27:20Z</time>
      </trkpt>
      <trkpt lat="45.25239" lon="6.18441">
        <ele>1596</ele>
        <time>2016-03-19T13:27:25Z</time>
      </trkpt>
      <trkpt lat="45.25241" lon="6.18454">
        <ele>1596</ele>
        <time>2016-03-19T13:27:30Z</time>
      </trkpt>
      <trkpt lat="45.25243" lon="6.18466">
        <ele>1596</ele>
        <time>2016-03-19T13:27:35Z</time>
      </trkpt>
      <trkpt lat="45.25245" lon="6.18477">
        <ele>1595</ele>
        <time>2016-03-19T13:27:40Z</time>
      </trkpt>
      <trkpt lat="45.25246" lon="6.18487">
        <ele>1595</ele>
        <time>2016-03-19T13:27:45Z</time>
      </trkpt>
      <trkpt lat="45.25247" lon="6.18496">
        <ele>1595</ele>
        <time>2016-03-19T13:27:50Z</time>
      </trkpt>
      <trkpt lat="45.25246" lon="6.1851">
        <ele>1594</ele>
        <time>2016-03-19T13:27:55Z</time>
      </trkpt>
      <trkpt lat="45.25247" lon="6.18523">
        <ele>1593</ele>
        <time>2016-03-19T13:28:00Z</time>
      </trkpt>
      <trkpt lat="45.25253" lon="6.18535">
        <ele>1593</ele>
        <time>2016-03-19T13:28:05Z</time>
      </trkpt>
      <trkpt lat="45.25262" lon="6.18546">
        <ele>1592</ele>
        <time>2016-03-19T13:28:10Z</time>
      </trkpt>
      <trkpt lat="45.25273" lon="6.1856">
        <ele>1591</ele>
        <time>2016-03-19T13:28:15Z</time>
      </trkpt>
      <trkpt lat="45.25282" lon="6.18574">
        <ele>1590</ele>
        <time>2016-03-19T13:28:20Z</time>
      </trkpt>
      <trkpt lat="45.25294" lon="6.18584">
        <ele>1589</ele>
        <time>2016-03-19T13:28:25Z</time>
      </trkpt>
      <trkpt lat="45.25306" lon="6.18593">
        <ele>1588</ele>
        <time>2016-03-19T13:28:30Z</time>
      </trkpt>
      <trkpt lat="45.25319" lon="6.18602">
        <ele>1588</ele>
        <time>2016-03-19T13:28:35Z</time>
      </trkpt>
      <trkpt lat="45.25332" lon="6.18611">
        <ele>1587</ele>
        <time>2016-03-19T13:28:40Z</time>
      </trkpt>
      <trkpt lat="45.25345" lon="6.18621">
        <ele>1586</ele>
        <time>2016-03-19T13:28:45Z</time>
      </trkpt>
      <trkpt lat="45.25355" lon="6.18637">
        <ele>1585</ele>
        <time>2016-03-19T13:28:50Z</time>
      </trkpt>
      <trkpt lat="45.25357" lon="6.18659">
        <ele>1584</ele>
        <time>2016-03-19T13:28:55Z</time>
      </trkpt>
      <trkpt lat="45.25359" lon="6.18679">
        <ele>1583</ele>
        <time>2016-03-19T13:29:00Z</time>
      </trkpt>
      <trkpt lat="45.25369" lon="6.18696">
        <ele>1582</ele>
        <time>2016-03-19T13:29:05Z</time>
      </trkpt>
      <trkpt lat="45.25383" lon="6.18709">
        <ele>1581</ele>
        <time>2016-03-19T13:29:10Z</time>
      </trkpt>
      <trkpt lat="45.25395" lon="6.18725">
        <ele>1579</ele>
        <time>2016-03-19T13:29:15Z</time>
      </trkpt>
      <trkpt lat="45.25399" lon="6.18749">
        <ele>1578</ele>
        <time>2016-03-19T13:29:20Z</time>
      </trkpt>
      <trkpt lat="45.25405" lon="6.18772">
        <ele>1576</ele>
        <time>2016-03-19T13:29:25Z</time>
      </trkpt>
      <trkpt lat="45.25416" lon="6.18796">
        <ele>1574</ele>
        <time>2016-03-19T13:29:30Z</time>
      </trkpt>
      <trkpt lat="45.25429" lon="6.18816">
        <ele>1572</ele>
        <time>2016-03-19T13:29:35Z</time>
      </trkpt>
      <trkpt lat="45.25444" lon="6.18834">
        <ele>1571</ele>
        <time>2016-03-19T13:29:40Z</time>
      </trkpt>
      <trkpt lat="45.2546" lon="6.18851">
        <ele>1569</ele>
        <time>2016-03-19T13:29:45Z</time>
      </trkpt>
      <trkpt lat="45.25477" lon="6.18871">
        <ele>1567</ele>
        <time>2016-03-19T13:29:50Z</time>
      </trkpt>
      <trkpt lat="45.25493" lon="6.18893">
        <ele>1565</ele>
        <time>2016-03-19T13:29:55Z</time>
      </trkpt>
      <trkpt lat="45.25508" lon="6.18916">
        <ele>1564</ele>
        <time>2016-03-19T13:30:00Z</time>
      </trkpt>
      <trkpt lat="45.25525" lon="6.18941">
        <ele>1561</ele>
        <time>2016-03-19T13:30:05Z</time>
      </trkpt>
      <trkpt lat="45.25546" lon="6.18965">
        <ele>1559</ele>
        <time>2016-03-19T13:30:10Z</time>
      </trkpt>
      <trkpt lat="45.25567" lon="6.18986">
        <ele>1557</ele>
        <time>2016-03-19T13:30:15Z</time>
      </trkpt>
      <trkpt lat="45.25587" lon="6.19006">
        <ele>1554</ele>
        <time>2016-03-19T13:30:20Z</time>
      </trkpt>
      <trkpt lat="45.25608" lon="6.19025">
        <ele>1552</ele>
        <time>2016-03-19T13:30:25Z</time>
      </trkpt>
      <trkpt lat="45.25631" lon="6.19038">
        <ele>1550</ele>
        <time>2016-03-19T13:30:30Z</time>
      </trkpt>
      <trkpt lat="45.25655" lon="6.19046">
        <ele>1547</ele>
        <time>2016-03-19T13:30:35Z</time>
      </trkpt>
      <trkpt lat="45.25675" lon="6.1905">
        <ele>1545</ele>
        <time>2016-03-19T13:30:40Z</time>
      </trkpt>
      <trkpt lat="45.25692" lon="6.19052">
        <ele>1544</ele>
        <time>2016-03-19T13:30:45Z</time>
      </trkpt>
      <trkpt lat="45.2571" lon="6.19056">
        <ele>1542</ele>
        <time>2016-03-19T13:30:50Z</time>
      </trkpt>
      <trkpt lat="45.25731" lon="6.19062">
        <ele>1541</ele>
        <time>2016-03-19T13:30:55Z</time>
      </trkpt>
      <trkpt lat="45.25746" lon="6.1907">
        <ele>1539</ele>
        <time>2016-03-19T13:31:00Z</time>
      </trkpt>
      <trkpt lat="45.25761" lon="6.19077">
        <ele>1538</ele>
        <time>2016-03-19T13:31:05Z</time>
      </trkpt>
      <trkpt lat="45.25778" lon="6.1909">
        <ele>1536</ele>
        <time>2016-03-19T13:31:10Z</time>
      </trkpt>
      <trkpt lat="45.25794" lon="6.19109">
        <ele>1534</ele>
        <time>2016-03-19T13:31:15Z</time>
      </trkpt>
      <trkpt lat="45.25808" lon="6.19131">
        <ele>1533</ele>
        <time>2016-03-19T13:31:20Z</time>
      </trkpt>
      <trkpt lat="45.25825" lon="6.19152">
        <ele>1530</ele>
        <time>2016-03-19T13:31:25Z</time>
      </trkpt>
      <trkpt lat="45.25844" lon="6.1917">
        <ele>1528</ele>
        <time>2016-03-19T13:31:30Z</time>
      </trkpt>
      <trkpt lat="45.25863" lon="6.19181">
        <ele>1527</ele>
        <time>2016-03-19T13:31:35Z</time>
      </trkpt>
      <trkpt lat="45.25875" lon="6.19195">
        <ele>1526</ele>
        <time>2016-03-19T13:31:40Z</time>
      </trkpt>
      <trkpt lat="45.25885" lon="6.19214">
        <ele>1524</ele>
        <time>2016-03-19T13:31:45Z</time>
      </trkpt>
      <trkpt lat="45.25894" lon="6.19234">
        <ele>1523</ele>
        <time>2016-03-19T13:31:50Z</time>
      </trkpt>
      <trkpt lat="45.25903" lon="6.19256">
        <ele>1521</ele>
        <time>2016-03-19T13:31:55Z</time>
      </trkpt>
      <trkpt lat="45.25905" lon="6.19274">
        <ele>1521</ele>
        <time>2016-03-19T13:32:00Z</time>
      </trkpt>
      <trkpt lat="45.25906" lon="6.1929">
        <ele>1520</ele>
        <time>2016-03-19T13:32:05Z</time>
      </trkpt>
      <trkpt lat="45.25905" lon="6.19307">
        <ele>1520</ele>
        <time>2016-03-19T13:32:10Z</time>
      </trkpt>
      <trkpt lat="45.25908" lon="6.1932">
        <ele>1519</ele>
        <time>2016-03-19T13:32:15Z</time>
      </trkpt>
      <trkpt lat="45.25914" lon="6.19336">
        <ele>1518</ele>
        <time>2016-03-19T13:32:20Z</time>
      </trkpt>
      <trkpt lat="45.25922" lon="6.19356">
        <ele>1517</ele>
        <time>2016-03-19T13:32:25Z</time>
      </trkpt>
      <trkpt lat="45.25928" lon="6.19375">
        <ele>1516</ele>
        <time>2016-03-19T13:32:30Z</time>
      </trkpt>
      <trkpt lat="45.25935" lon="6.19394">
        <ele>1514</ele>
        <time>2016-03-19T13:32:35Z</time>
      </trkpt>
      <trkpt lat="45.25941" lon="6.19419">
        <ele>1512</ele>
        <time>2016-03-19T13:32:40Z</time>
      </trkpt>
      <trkpt lat="45.25947" lon="6.19446">
        <ele>1509</ele>
        <time>2016-03-19T13:32:45Z</time>
      </trkpt>
      <trkpt lat="45.25959" lon="6.19473">
        <ele>1505</ele>
        <time>2016-03-19T13:32:50Z</time>
      </trkpt>
      <trkpt lat="45.25979" lon="6.19496">
        <ele>1501</ele>
        <time>2016-03-19T13:32:55Z</time>
      </trkpt>
      <trkpt lat="45.26009" lon="6.19512">
        <ele>1495</ele>
        <time>2016-03-19T13:33:00Z</time>
      </trkpt>
      <trkpt lat="45.26041" lon="6.19521">
        <ele>1490</ele>
        <time>2016-03-19T13:33:05Z</time>
      </trkpt>
      <trkpt lat="45.26068" lon="6.19525">
        <ele>1486</ele>
        <time>2016-03-19T13:33:10Z</time>
      </trkpt>
      <trkpt lat="45.26091" lon="6.19536">
        <ele>1483</ele>
        <time>2016-03-19T13:33:15Z</time>
      </trkpt>
      <trkpt lat="45.26111" lon="6.19548">
        <ele>1480</ele>
        <time>2016-03-19T13:33:20Z</time>
      </trkpt>
      <trkpt lat="45.26132" lon="6.19555">
        <ele>1477</ele>
        <time>2016-03-19T13:33:25Z</time>
      </trkpt>
      <trkpt lat="45.26152" lon="6.19559">
        <ele>1475</ele>
        <time>2016-03-19T13:33:30Z</time>
      </trkpt>
      <trkpt lat="45.2617" lon="6.19561">
        <ele>1472</ele>
        <time>2016-03-19T13:33:35Z</time>
      </trkpt>
      <trkpt lat="45.2619" lon="6.19566">
        <ele>1470</ele>
        <time>2016-03-19T13:33:40Z</time>
      </trkpt>
      <trkpt lat="45.26208" lon="6.19572">
        <ele>1467</ele>
        <time>2016-03-19T13:33:45Z</time>
      </trkpt>
      <trkpt lat="45.26229" lon="6.19581">
        <ele>1464</ele>
        <time>2016-03-19T13:33:50Z</time>
      </trkpt>
      <trkpt lat="45.26251" lon="6.19582">
        <ele>1461</ele>
        <time>2016-03-19T13:33:55Z</time>
      </trkpt>
      <trkpt lat="45.26273" lon="6.19581">
        <ele>1458</ele>
        <time>2016-03-19T13:34:00Z</time>
      </trkpt>
      <trkpt lat="45.26299" lon="6.19586">
        <ele>1453</ele>
        <time>2016-03-19T13:34:05Z</time>
      </trkpt>
      <trkpt lat="45.26332" lon="6.19595">
        <ele>1449</ele>
        <time>2016-03-19T13:34:10Z</time>
      </trkpt>
      <trkpt lat="45.26363" lon="6.19607">
        <ele>1445</ele>
        <time>2016-03-19T13:34:15Z</time>
      </trkpt>
      <trkpt lat="45.26392" lon="6.19627">
        <ele>1442</ele>
        <time>2016-03-19T13:34:20Z</time>
      </trkpt>
      <trkpt lat="45.26422" lon="6.19648">
        <ele>1438</ele>
        <time>2016-03-19T13:34:25Z</time>
      </trkpt>
      <trkpt lat="45.26445" lon="6.19664">
        <ele>1435</ele>
        <time>2016-03-19T13:34:30Z</time>
      </trkpt>
      <trkpt lat="45.26473" lon="6.19665">
        <ele>1427</ele>
        <time>2016-03-19T13:34:35Z</time>
      </trkpt>
      <trkpt lat="45.26492" lon="6.19656">
        <ele>1425</ele>
        <time>2016-03-19T13:34:40Z</time>
      </trkpt>
      <trkpt lat="45.26506" lon="6.19645">
        <ele>1423</ele>
        <time>2016-03-19T13:34:45Z</time>
      </trkpt>
      <trkpt lat="45.26524" lon="6.1964">
        <ele>1422</ele>
        <time>2016-03-19T13:34:50Z</time>
      </trkpt>
      <trkpt lat="45.26541" lon="6.19629">
        <ele>1420</ele>
        <time>2016-03-19T13:34:55Z</time>
      </trkpt>
      <trkpt lat="45.26552" lon="6.19616">
        <ele>1419</ele>
        <time>2016-03-19T13:35:00Z</time>
      </trkpt>
      <trkpt lat="45.26558" lon="6.19606">
        <ele>1419</ele>
        <time>2016-03-19T13:35:05Z</time>
      </trkpt>
      <trkpt lat="45.26567" lon="6.19605">
        <ele>1418</ele>
        <time>2016-03-19T13:35:10Z</time>
      </trkpt>
      <trkpt lat="45.26582" lon="6.19611">
        <ele>1417</ele>
        <time>2016-03-19T13:35:15Z</time>
      </trkpt>
      <trkpt lat="45.26598" lon="6.19617">
        <ele>1416</ele>
        <time>2016-03-19T13:35:20Z</time>
      </trkpt>
      <trkpt lat="45.26613" lon="6.19624">
        <ele>1414</ele>
        <time>2016-03-19T13:35:25Z</time>
      </trkpt>
      <trkpt lat="45.26632" lon="6.19632">
        <ele>1412</ele>
        <time>2016-03-19T13:35:30Z</time>
      </trkpt>
      <trkpt lat="45.26652" lon="6.19636">
        <ele>1409</ele>
        <time>2016-03-19T13:35:35Z</time>
      </trkpt>
      <trkpt lat="45.26674" lon="6.19645">
        <ele>1406</ele>
        <time>2016-03-19T13:35:40Z</time>
      </trkpt>
      <trkpt lat="45.26687" lon="6.19668">
        <ele>1403</ele>
        <time>2016-03-19T13:35:45Z</time>
      </trkpt>
      <trkpt lat="45.267" lon="6.19704">
        <ele>1400</ele>
        <time>2016-03-19T13:35:50Z</time>
      </trkpt>
      <trkpt lat="45.26727" lon="6.19728">
        <ele>1395</ele>
        <time>2016-03-19T13:35:55Z</time>
      </trkpt>
      <trkpt lat="45.26753" lon="6.19749">
        <ele>1391</ele>
        <time>2016-03-19T13:36:00Z</time>
      </trkpt>
      <trkpt lat="45.26779" lon="6.19759">
        <ele>1387</ele>
        <time>2016-03-19T13:36:05Z</time>
      </trkpt>
      <trkpt lat="45.26801" lon="6.19788">
        <ele>1382</ele>
        <time>2016-03-19T13:36:10Z</time>
      </trkpt>
      <trkpt lat="45.26828" lon="6.19799">
        <ele>1379</ele>
        <time>2016-03-19T13:36:15Z</time>
      </trkpt>
      <trkpt lat="45.26851" lon="6.19793">
        <ele>1376</ele>
        <time>2016-03-19T13:36:20Z</time>
      </trkpt>
      <trkpt lat="45.26871" lon="6.19791">
        <ele>1375</ele>
        <time>2016-03-19T13:36:25Z</time>
      </trkpt>
      <trkpt lat="45.26893" lon="6.19789">
        <ele>1373</ele>
        <time>2016-03-19T13:36:30Z</time>
      </trkpt>
      <trkpt lat="45.26917" lon="6.19795">
        <ele>1369</ele>
        <time>2016-03-19T13:36:35Z</time>
      </trkpt>
      <trkpt lat="45.2693" lon="6.19827">
        <ele>1366</ele>
        <time>2016-03-19T13:36:40Z</time>
      </trkpt>
      <trkpt lat="45.26944" lon="6.1986">
        <ele>1362</ele>
        <time>2016-03-19T13:36:45Z</time>
      </trkpt>
      <trkpt lat="45.26953" lon="6.19893">
        <ele>1360</ele>
        <time>2016-03-19T13:36:50Z</time>
      </trkpt>
      <trkpt lat="45.26968" lon="6.19923">
        <ele>1356</ele>
        <time>2016-03-19T13:36:55Z</time>
      </trkpt>
      <trkpt lat="45.26977" lon="6.19949">
        <ele>1354</ele>
        <time>2016-03-19T13:37:00Z</time>
      </trkpt>
      <trkpt lat="45.26989" lon="6.19974">
        <ele>1351</ele>
        <time>2016-03-19T13:37:05Z</time>
      </trkpt>
      <trkpt lat="45.26995" lon="6.2">
        <ele>1349</ele>
        <time>2016-03-19T13:37:10Z</time>
      </trkpt>
      <trkpt lat="45.27015" lon="6.20009">
        <ele>1346</ele>
        <time>2016-03-19T13:37:15Z</time>
      </trkpt>
      <trkpt lat="45.27033" lon="6.20013">
        <ele>1344</ele>
        <time>2016-03-19T13:37:20Z</time>
      </trkpt>
      <trkpt lat="45.27047" lon="6.20017">
        <ele>1342</ele>
        <time>2016-03-19T13:37:25Z</time>
      </trkpt>
      <trkpt lat="45.27062" lon="6.20026">
        <ele>1340</ele>
        <time>2016-03-19T13:37:30Z</time>
      </trkpt>
      <trkpt lat="45.27078" lon="6.20041">
        <ele>1338</ele>
        <time>2016-03-19T13:37:35Z</time>
      </trkpt>
      <trkpt lat="45.27092" lon="6.20058">
        <ele>1336</ele>
        <time>2016-03-19T13:37:40Z</time>
      </trkpt>
      <trkpt lat="45.27107" lon="6.20075">
        <ele>1335</ele>
        <time>2016-03-19T13:37:45Z</time>
      </trkpt>
      <trkpt lat="45.27128" lon="6.20084">
        <ele>1333</ele>
        <time>2016-03-19T13:37:50Z</time>
      </trkpt>
      <trkpt lat="45.27149" lon="6.20064">
        <ele>1330</ele>
        <time>2016-03-19T13:37:55Z</time>
      </trkpt>
      <trkpt lat="45.27167" lon="6.20041">
        <ele>1327</ele>
        <time>2016-03-19T13:38:00Z</time>
      </trkpt>
      <trkpt lat="45.27191" lon="6.20037">
        <ele>1325</ele>
        <time>2016-03-19T13:38:05Z</time>
      </trkpt>
      <trkpt lat="45.27214" lon="6.20056">
        <ele>1322</ele>
        <time>2016-03-19T13:38:10Z</time>
      </trkpt>
      <trkpt lat="45.27232" lon="6.20083">
        <ele>1319</ele>
        <time>2016-03-19T13:38:15Z</time>
      </trkpt>
      <trkpt lat="45.27245" lon="6.20109">
        <ele>1316</ele>
        <time>2016-03-19T13:38:20Z</time>
      </trkpt>
      <trkpt lat="45.27255" lon="6.20131">
        <ele>1314</ele>
        <time>2016-03-19T13:38:25Z</time>
      </trkpt>
      <trkpt lat="45.27264" lon="6.20154">
        <ele>1311</ele>
        <time>2016-03-19T13:38:30Z</time>
      </trkpt>
      <trkpt lat="45.27281" lon="6.20176">
        <ele>1308</ele>
        <time>2016-03-19T13:38:35Z</time>
      </trkpt>
      <trkpt lat="45.27304" lon="6.20188">
        <ele>1305</ele>
        <time>2016-03-19T13:38:40Z</time>
      </trkpt>
      <trkpt lat="45.27328" lon="6.20186">
        <ele>1303</ele>
        <time>2016-03-19T13:38:45Z</time>
      </trkpt>
      <trkpt lat="45.27348" lon="6.20183">
        <ele>1301</ele>
        <time>2016-03-19T13:38:50Z</time>
      </trkpt>
      <trkpt lat="45.27363" lon="6.20198">
        <ele>1299</ele>
        <time>2016-03-19T13:38:55Z</time>
      </trkpt>
      <trkpt lat="45.27377" lon="6.20214">
        <ele>1298</ele>
        <time>2016-03-19T13:39:00Z</time>
      </trkpt>
      <trkpt lat="45.27388" lon="6.20229">
        <ele>1297</ele>
        <time>2016-03-19T13:39:05Z</time>
      </trkpt>
      <trkpt lat="45.274" lon="6.20242">
        <ele>1295</ele>
        <time>2016-03-19T13:39:10Z</time>
      </trkpt>
      <trkpt lat="45.27412" lon="6.20259">
        <ele>1293</ele>
        <time>2016-03-19T13:39:15Z</time>
      </trkpt>
      <trkpt lat="45.27426" lon="6.20271">
        <ele>1293</ele>
        <time>2016-03-19T13:39:20Z</time>
      </trkpt>
      <trkpt lat="45.27438" lon="6.20284">
        <ele>1292</ele>
        <time>2016-03-19T13:39:25Z</time>
      </trkpt>
      <trkpt lat="45.27451" lon="6.20302">
        <ele>1290</ele>
        <time>2016-03-19T13:39:30Z</time>
      </trkpt>
      <trkpt lat="45.27461" lon="6.20321">
        <ele>1288</ele>
        <time>2016-03-19T13:39:35Z</time>
      </trkpt>
      <trkpt lat="45.27472" lon="6.20343">
        <ele>1285</ele>
        <time>2016-03-19T13:39:40Z</time>
      </trkpt>
      <trkpt lat="45.27482" lon="6.20364">
        <ele>1283</ele>
        <time>2016-03-19T13:39:45Z</time>
      </trkpt>
      <trkpt lat="45.27493" lon="6.20386">
        <ele>1281</ele>
        <time>2016-03-19T13:39:50Z</time>
      </trkpt>
      <trkpt lat="45.27504" lon="6.20408">
        <ele>1279</ele>
        <time>2016-03-19T13:39:55Z</time>
      </trkpt>
      <trkpt lat="45.27515" lon="6.2043">
        <ele>1277</ele>
        <time>2016-03-19T13:40:00Z</time>
      </trkpt>
      <trkpt lat="45.27525" lon="6.20451">
        <ele>1275</ele>
        <time>2016-03-19T13:40:05Z</time>
      </trkpt>
      <trkpt lat="45.27535" lon="6.20471">
        <ele>1274</ele>
        <time>2016-03-19T13:40:10Z</time>
      </trkpt>
      <trkpt lat="45.27544" lon="6.20489">
        <ele>1273</ele>
        <time>2016-03-19T13:40:15Z</time>
      </trkpt>
      <trkpt lat="45.27553" lon="6.20504">
        <ele>1273</ele>
        <time>2016-03-19T13:40:20Z</time>
      </trkpt>
      <trkpt lat="45.27564" lon="6.20521">
        <ele>1269</ele>
        <time>2016-03-19T13:40:25Z</time>
      </trkpt>
      <trkpt lat="45.27572" lon="6.20542">
        <ele>1267</ele>
        <time>2016-03-19T13:40:30Z</time>
      </trkpt>
      <trkpt lat="45.27581" lon="6.20573">
        <ele>1265</ele>
        <time>2016-03-19T13:40:35Z</time>
      </trkpt>
      <trkpt lat="45.27585" lon="6.20605">
        <ele>1264</ele>
        <time>2016-03-19T13:40:40Z</time>
      </trkpt>
      <trkpt lat="45.27586" lon="6.20631">
        <ele>1262</ele>
        <time>2016-03-19T13:40:45Z</time>
      </trkpt>
      <trkpt lat="45.27589" lon="6.20656">
        <ele>1261</ele>
        <time>2016-03-19T13:40:50Z</time>
      </trkpt>
      <trkpt lat="45.27592" lon="6.20677">
        <ele>1260</ele>
        <time>2016-03-19T13:40:55Z</time>
      </trkpt>
      <trkpt lat="45.27596" lon="6.20694">
        <ele>1262</ele>
        <time>2016-03-19T13:41:00Z</time>
      </trkpt>
      <trkpt lat="45.27602" lon="6.20712">
        <ele>1260</ele>
        <time>2016-03-19T13:41:05Z</time>
      </trkpt>
      <trkpt lat="45.27613" lon="6.20726">
        <ele>1256</ele>
        <time>2016-03-19T13:41:10Z</time>
      </trkpt>
      <trkpt lat="45.27627" lon="6.20739">
        <ele>1254</ele>
        <time>2016-03-19T13:41:15Z</time>
      </trkpt>
      <trkpt lat="45.27639" lon="6.20749">
        <ele>1252</ele>
        <time>2016-03-19T13:41:20Z</time>
      </trkpt>
      <trkpt lat="45.27652" lon="6.20763">
        <ele>1250</ele>
        <time>2016-03-19T13:41:25Z</time>
      </trkpt>
      <trkpt lat="45.27663" lon="6.20778">
        <ele>1249</ele>
        <time>2016-03-19T13:41:30Z</time>
      </trkpt>
      <trkpt lat="45.27675" lon="6.20795">
        <ele>1247</ele>
        <time>2016-03-19T13:41:35Z</time>
      </trkpt>
      <trkpt lat="45.27689" lon="6.2081">
        <ele>1247</ele>
        <time>2016-03-19T13:41:40Z</time>
      </trkpt>
      <trkpt lat="45.27706" lon="6.20824">
        <ele>1245</ele>
        <time>2016-03-19T13:41:45Z</time>
      </trkpt>
      <trkpt lat="45.27722" lon="6.20839">
        <ele>1245</ele>
        <time>2016-03-19T13:41:50Z</time>
      </trkpt>
      <trkpt lat="45.27739" lon="6.20858">
        <ele>1243</ele>
        <time>2016-03-19T13:41:55Z</time>
      </trkpt>
      <trkpt lat="45.27754" lon="6.20874">
        <ele>1241</ele>
        <time>2016-03-19T13:42:00Z</time>
      </trkpt>
      <trkpt lat="45.2777" lon="6.20892">
        <ele>1237</ele>
        <time>2016-03-19T13:42:05Z</time>
      </trkpt>
      <trkpt lat="45.27784" lon="6.20909">
        <ele>1236</ele>
        <time>2016-03-19T13:42:10Z</time>
      </trkpt>
      <trkpt lat="45.27796" lon="6.20924">
        <ele>1234</ele>
        <time>2016-03-19T13:42:15Z</time>
      </trkpt>
      <trkpt lat="45.27806" lon="6.20938">
        <ele>1233</ele>
        <time>2016-03-19T13:42:20Z</time>
      </trkpt>
      <trkpt lat="45.27816" lon="6.20951">
        <ele>1232</ele>
        <time>2016-03-19T13:42:25Z</time>
      </trkpt>
      <trkpt lat="45.27827" lon="6.20964">
        <ele>1232</ele>
        <time>2016-03-19T13:42:30Z</time>
      </trkpt>
      <trkpt lat="45.27841" lon="6.20978">
        <ele>1231</ele>
        <time>2016-03-19T13:42:35Z</time>
      </trkpt>
      <trkpt lat="45.27856" lon="6.2099">
        <ele>1229</ele>
        <time>2016-03-19T13:42:40Z</time>
      </trkpt>
      <trkpt lat="45.27872" lon="6.21003">
        <ele>1228</ele>
        <time>2016-03-19T13:42:45Z</time>
      </trkpt>
      <trkpt lat="45.27886" lon="6.21011">
        <ele>1226</ele>
        <time>2016-03-19T13:42:50Z</time>
      </trkpt>
      <trkpt lat="45.27901" lon="6.21018">
        <ele>1225</ele>
        <time>2016-03-19T13:42:55Z</time>
      </trkpt>
      <trkpt lat="45.27917" lon="6.21024">
        <ele>1223</ele>
        <time>2016-03-19T13:43:00Z</time>
      </trkpt>
      <trkpt lat="45.27933" lon="6.21029">
        <ele>1221</ele>
        <time>2016-03-19T13:43:05Z</time>
      </trkpt>
      <trkpt lat="45.27948" lon="6.21035">
        <ele>1219</ele>
        <time>2016-03-19T13:43:10Z</time>
      </trkpt>
      <trkpt lat="45.27952" lon="6.21036">
        <ele>1218</ele>
        <time>2016-03-19T13:43:15Z</time>
      </trkpt>
      <trkpt lat="45.27954" lon="6.21037">
        <ele>1218</ele>
        <time>2016-03-19T13:43:20Z</time>
      </trkpt>
      <trkpt lat="45.27955" lon="6.21037">
        <ele>1217</ele>
        <time>2016-03-19T13:43:25Z</time>
      </trkpt>
      <trkpt lat="45.27958" lon="6.21037">
        <ele>1216</ele>
        <time>2016-03-19T13:43:30Z</time>
      </trkpt>
      <trkpt lat="45.2796" lon="6.21036">
        <ele>1217</ele>
        <time>2016-03-19T13:43:35Z</time>
      </trkpt>
      <trkpt lat="45.27965" lon="6.21037">
        <ele>1217</ele>
        <time>2016-03-19T13:43:40Z</time>
      </trkpt>
      <trkpt lat="45.27972" lon="6.21039">
        <ele>1216</ele>
        <time>2016-03-19T13:43:45Z</time>
      </trkpt>
      <trkpt lat="45.27977" lon="6.21047">
        <ele>1215</ele>
        <time>2016-03-19T13:43:50Z</time>
      </trkpt>
      <trkpt lat="45.27979" lon="6.21048">
        <ele>1214</ele>
        <time>2016-03-19T13:43:55Z</time>
      </trkpt>
      <trkpt lat="45.27981" lon="6.21052">
        <ele>1214</ele>
        <time>2016-03-19T13:44:00Z</time>
      </trkpt>
      <trkpt lat="45.27982" lon="6.21056">
        <ele>1215</ele>
        <time>2016-03-19T13:44:05Z</time>
      </trkpt>
      <trkpt lat="45.27982" lon="6.21062">
        <ele>1215</ele>
        <time>2016-03-19T13:44:10Z</time>
      </trkpt>
      <trkpt lat="45.27983" lon="6.21062">
        <ele>1215</ele>
        <time>2016-03-19T13:44:15Z</time>
      </trkpt>
      <trkpt lat="45.27983" lon="6.21062">
        <ele>1214</ele>
        <time>2016-03-19T13:44:20Z</time>
      </trkpt>
      <trkpt lat="45.27983" lon="6.21063">
        <ele>1214</ele>
        <time>2016-03-19T13:44:25Z</time>
      </trkpt>
      <trkpt lat="45.27983" lon="6.21063">
        <ele>1214</ele>
        <time>2016-03-19T13:44:30Z</time>
      </trkpt>
      <trkpt lat="45.27983" lon="6.21065">
        <ele>1214</ele>
        <time>2016-03-19T13:44:35Z</time>
      </trkpt>
      <trkpt lat="45.27987" lon="6.2107">
        <ele>1214</ele>
        <time>2016-03-19T13:44:40Z</time>
      </trkpt>
      <trkpt lat="45.27991" lon="6.21076">
        <ele>1214</ele>
        <time>2016-03-19T13:44:45Z</time>
      </trkpt>
      <trkpt lat="45.27994" lon="6.21082">
        <ele>1213</ele>
        <time>2016-03-19T13:44:50Z</time>
      </trkpt>
      <trkpt lat="45.27998" lon="6.21086">
        <ele>1212</ele>
        <time>2016-03-19T13:44:55Z</time>
      </trkpt>
      <trkpt lat="45.27998" lon="6.21086">
        <ele>1212</ele>
        <time>2016-03-19T13:45:00Z</time>
      </trkpt>
      <trkpt lat="45.27998" lon="6.21086">
        <ele>1210</ele>
        <time>2016-03-19T13:45:05Z</time>
      </trkpt>
      <trkpt lat="45.27998" lon="6.21087">
        <ele>1209</ele>
        <time>2016-03-19T13:45:10Z</time>
      </trkpt>
      <trkpt lat="45.27998" lon="6.21088">
        <ele>1207</ele>
        <time>2016-03-19T13:45:15Z</time>
      </trkpt>
      <trkpt lat="45.27999" lon="6.21088">
        <ele>1206</ele>
        <time>2016-03-19T13:45:20Z</time>
      </trkpt>
      <trkpt lat="45.28001" lon="6.2109">
        <ele>1205</ele>
        <time>2016-03-19T13:45:25Z</time>
      </trkpt>
      <trkpt lat="45.28012" lon="6.21095">
        <ele>1202</ele>
        <time>2016-03-19T13:45:30Z</time>
      </trkpt>
      <trkpt lat="45.28016" lon="6.21093">
        <ele>1201</ele>
        <time>2016-03-19T13:45:35Z</time>
      </trkpt>
      <trkpt lat="45.28018" lon="6.21093">
        <ele>1201</ele>
        <time>2016-03-19T13:45:40Z</time>
      </trkpt>
      <trkpt lat="45.28019" lon="6.21093">
        <ele>1201</ele>
        <time>2016-03-19T13:45:45Z</time>
      </trkpt>
      <trkpt lat="45.28022" lon="6.21094">
        <ele>1201</ele>
        <time>2016-03-19T13:45:50Z</time>
      </trkpt>
      <trkpt lat="45.28024" lon="6.21095">
        <ele>1201</ele>
        <time>2016-03-19T13:45:55Z</time>
      </trkpt>
      <trkpt lat="45.28027" lon="6.21098">
        <ele>1201</ele>
        <time>2016-03-19T13:46:00Z</time>
      </trkpt>
      <trkpt lat="45.28031" lon="6.211">
        <ele>1201</ele>
        <time>2016-03-19T13:46:05Z</time>
      </trkpt>
      <trkpt lat="45.28038" lon="6.21104">
        <ele>1201</ele>
        <time>2016-03-19T13:46:10Z</time>
      </trkpt>
      <trkpt lat="45.2804" lon="6.21104">
        <ele>1201</ele>
        <time>2016-03-19T13:46:15Z</time>
      </trkpt>
      <trkpt lat="45.28041" lon="6.21105">
        <ele>1203</ele>
        <time>2016-03-19T13:46:20Z</time>
      </trkpt>
      <trkpt lat="45.28043" lon="6.21106">
        <ele>1204</ele>
        <time>2016-03-19T13:46:25Z</time>
      </trkpt>
      <trkpt lat="45.28045" lon="6.21107">
        <ele>1204</ele>
        <time>2016-03-19T13:46:30Z</time>
      </trkpt>
      <trkpt lat="45.28046" lon="6.21108">
        <ele>1205</ele>
        <time>2016-03-19T13:46:35Z</time>
      </trkpt>
      <trkpt lat="45.28047" lon="6.21109">
        <ele>1206</ele>
        <time>2016-03-19T13:46:40Z</time>
      </trkpt>
      <trkpt lat="45.28047" lon="6.21109">
        <ele>1206</ele>
        <time>2016-03-19T13:46:45Z</time>
      </trkpt>
      <trkpt lat="45.28047" lon="6.21109">
        <ele>1207</ele>
        <time>2016-03-19T13:46:50Z</time>
      </trkpt>
      <trkpt lat="45.28046" lon="6.2111">
        <ele>1208</ele>
        <time>2016-03-19T13:46:55Z</time>
      </trkpt>
      <trkpt lat="45.28046" lon="6.21111">
        <ele>1210</ele>
        <time>2016-03-19T13:47:00Z</time>
      </trkpt>
      <trkpt lat="45.28047" lon="6.2111">
        <ele>1210</ele>
        <time>2016-03-19T13:47:05Z</time>
      </trkpt>
      <trkpt lat="45.28047" lon="6.2111">
        <ele>1210</ele>
        <time>2016-03-19T13:47:10Z</time>
      </trkpt>
      <trkpt lat="45.28047" lon="6.2111">
        <ele>1210</ele>
        <time>2016-03-19T13:47:15Z</time>
      </trkpt>
      <trkpt lat="45.28048" lon="6.21111">
        <ele>1209</ele>
        <time>2016-03-19T13:47:20Z</time>
      </trkpt>
      <trkpt lat="45.2805" lon="6.2111">
        <ele>1208</ele>
        <time>2016-03-19T13:47:25Z</time>
      </trkpt>
      <trkpt lat="45.2805" lon="6.21109">
        <ele>1208</ele>
        <time>2016-03-19T13:47:30Z</time>
      </trkpt>
      <trkpt lat="45.28052" lon="6.21109">
        <ele>1207</ele>
        <time>2016-03-19T13:47:35Z</time>
      </trkpt>
      <trkpt lat="45.28051" lon="6.21109">
        <ele>1206</ele>
        <time>2016-03-19T13:47:40Z</time>
      </trkpt>
      <trkpt lat="45.28051" lon="6.21109">
        <ele>1206</ele>
        <time>2016-03-19T13:47:45Z</time>
      </trkpt>
      <trkpt lat="45.28052" lon="6.2111">
        <ele>1207</ele>
        <time>2016-03-19T13:47:50Z</time>
      </trkpt>
      <trkpt lat="45.28058" lon="6.21113">
        <ele>1207</ele>
        <time>2016-03-19T13:47:55Z</time>
      </trkpt>
      <trkpt lat="45.28063" lon="6.21117">
        <ele>1208</ele>
        <time>2016-03-19T13:48:00Z</time>
      </trkpt>
      <trkpt lat="45.28067" lon="6.21121">
        <ele>1209</ele>
        <time>2016-03-19T13:48:05Z</time>
      </trkpt>
      <trkpt lat="45.28073" lon="6.21123">
        <ele>1208</ele>
        <time>2016-03-19T13:48:10Z</time>
      </trkpt>
      <trkpt lat="45.28079" lon="6.21129">
        <ele>1208</ele>
        <time>2016-03-19T13:48:15Z</time>
      </trkpt>
      <trkpt lat="45.28085" lon="6.21134">
        <ele>1207</ele>
        <time>2016-03-19T13:48:20Z</time>
      </trkpt>
      <trkpt lat="45.2809" lon="6.21139">
        <ele>1206</ele>
        <time>2016-03-19T13:48:25Z</time>
      </trkpt>
      <trkpt lat="45.28094" lon="6.21145">
        <ele>1205</ele>
        <time>2016-03-19T13:48:30Z</time>
      </trkpt>
      <trkpt lat="45.28096" lon="6.21148">
        <ele>1208</ele>
        <time>2016-03-19T13:48:35Z</time>
      </trkpt>
      <trkpt lat="45.28102" lon="6.21158">
        <ele>1204</ele>
        <time>2016-03-19T13:48:40Z</time>
      </trkpt>
      <trkpt lat="45.28108" lon="6.21165">
        <ele>1200</ele>
        <time>2016-03-19T13:48:45Z</time>
      </trkpt>
      <trkpt lat="45.28113" lon="6.21172">
        <ele>1200</ele>
        <time>2016-03-19T13:48:50Z</time>
      </trkpt>
      <trkpt lat="45.28116" lon="6.21175">
        <ele>1204</ele>
        <time>2016-03-19T13:48:55Z</time>
      </trkpt>
      <trkpt lat="45.28123" lon="6.21179">
        <ele>1203</ele>
        <time>2016-03-19T13:49:00Z</time>
      </trkpt>
      <trkpt lat="45.2813" lon="6.21183">
        <ele>1200</ele>
        <time>2016-03-19T13:49:05Z</time>
      </trkpt>
      <trkpt lat="45.28137" lon="6.21188">
        <ele>1199</ele>
        <time>2016-03-19T13:49:10Z</time>
      </trkpt>
      <trkpt lat="45.28141" lon="6.21196">
        <ele>1196</ele>
        <time>2016-03-19T13:49:15Z</time>
      </trkpt>
      <trkpt lat="45.28143" lon="6.21198">
        <ele>1200</ele>
        <time>2016-03-19T13:49:20Z</time>
      </trkpt>
      <trkpt lat="45.2815" lon="6.21202">
        <ele>1199</ele>
        <time>2016-03-19T13:49:25Z</time>
      </trkpt>
      <trkpt lat="45.28155" lon="6.21202">
        <ele>1196</ele>
        <time>2016-03-19T13:49:30Z</time>
      </trkpt>
      <trkpt lat="45.28159" lon="6.21196">
        <ele>1194</ele>
        <time>2016-03-19T13:49:35Z</time>
      </trkpt>
      <trkpt lat="45.28163" lon="6.2119">
        <ele>1196</ele>
        <time>2016-03-19T13:49:40Z</time>
      </trkpt>
      <trkpt lat="45.28168" lon="6.21183">
        <ele>1199</ele>
        <time>2016-03-19T13:49:45Z</time>
      </trkpt>
      <trkpt lat="45.28169" lon="6.21176">
        <ele>1199</ele>
        <time>2016-03-19T13:49:50Z</time>
      </trkpt>
      <trkpt lat="45.28168" lon="6.21167">
        <ele>1197</ele>
        <time>2016-03-19T13:49:55Z</time>
      </trkpt>
      <trkpt lat="45.28168" lon="6.2116">
        <ele>1197</ele>
        <time>2016-03-19T13:50:00Z</time>
      </trkpt>
      <trkpt lat="45.2817" lon="6.21152">
        <ele>1198</ele>
        <time>2016-03-19T13:50:05Z</time>
      </trkpt>
      <trkpt lat="45.28172" lon="6.21145">
        <ele>1200</ele>
        <time>2016-03-19T13:50:10Z</time>
      </trkpt>
      <trkpt lat="45.28175" lon="6.2114">
        <ele>1202</ele>
        <time>2016-03-19T13:50:15Z</time>
      </trkpt>
      <trkpt lat="45.2818" lon="6.21137">
        <ele>1201</ele>
        <time>2016-03-19T13:50:20Z</time>
      </trkpt>
      <trkpt lat="45.28185" lon="6.21133">
        <ele>1196</ele>
        <time>2016-03-19T13:50:25Z</time>
      </trkpt>
      <trkpt lat="45.2819" lon="6.2113">
        <ele>1194</ele>
        <time>2016-03-19T13:50:30Z</time>
      </trkpt>
      <trkpt lat="45.28196" lon="6.21129">
        <ele>1195</ele>
        <time>2016-03-19T13:50:35Z</time>
      </trkpt>
      <trkpt lat="45.28202" lon="6.21129">
        <ele>1196</ele>
        <time>2016-03-19T13:50:40Z</time>
      </trkpt>
      <trkpt lat="45.28207" lon="6.21129">
        <ele>1196</ele>
        <time>2016-03-19T13:50:45Z</time>
      </trkpt>
      <trkpt lat="45.28211" lon="6.21128">
        <ele>1197</ele>
        <time>2016-03-19T13:50:50Z</time>
      </trkpt>
      <trkpt lat="45.28215" lon="6.21126">
        <ele>1199</ele>
        <time>2016-03-19T13:50:55Z</time>
      </trkpt>
      <trkpt lat="45.2822" lon="6.21121">
        <ele>1198</ele>
        <time>2016-03-19T13:51:00Z</time>
      </trkpt>
      <trkpt lat="45.28225" lon="6.21118">
        <ele>1198</ele>
        <time>2016-03-19T13:51:05Z</time>
      </trkpt>
      <trkpt lat="45.28227" lon="6.21113">
        <ele>1199</ele>
        <time>2016-03-19T13:51:10Z</time>
      </trkpt>
      <trkpt lat="45.28229" lon="6.21112">
        <ele>1200</ele>
        <time>2016-03-19T13:51:15Z</time>
      </trkpt>
      <trkpt lat="45.2823" lon="6.21109">
        <ele>1201</ele>
        <time>2016-03-19T13:51:20Z</time>
      </trkpt>
      <trkpt lat="45.28232" lon="6.21105">
        <ele>1204</ele>
        <time>2016-03-19T13:51:25Z</time>
      </trkpt>
      <trkpt lat="45.28235" lon="6.21099">
        <ele>1205</ele>
        <time>2016-03-19T13:51:30Z</time>
      </trkpt>
      <trkpt lat="45.28237" lon="6.21094">
        <ele>1207</ele>
        <time>2016-03-19T13:51:35Z</time>
      </trkpt>
      <trkpt lat="45.2824" lon="6.21088">
        <ele>1207</ele>
        <time>2016-03-19T13:51:40Z</time>
      </trkpt>
      <trkpt lat="45.28243" lon="6.21081">
        <ele>1207</ele>
        <time>2016-03-19T13:51:45Z</time>
      </trkpt>
      <trkpt lat="45.28246" lon="6.21075">
        <ele>1207</ele>
        <time>2016-03-19T13:51:50Z</time>
      </trkpt>
      <trkpt lat="45.28248" lon="6.21068">
        <ele>1207</ele>
        <time>2016-03-19T13:51:55Z</time>
      </trkpt>
      <trkpt lat="45.28251" lon="6.21062">
        <ele>1208</ele>
        <time>2016-03-19T13:52:00Z</time>
      </trkpt>
      <trkpt lat="45.28252" lon="6.21056">
        <ele>1210</ele>
        <time>2016-03-19T13:52:05Z</time>
      </trkpt>
      <trkpt lat="45.28254" lon="6.21049">
        <ele>1209</ele>
        <time>2016-03-19T13:52:10Z</time>
      </trkpt>
      <trkpt lat="45.28256" lon="6.21041">
        <ele>1209</ele>
        <time>2016-03-19T13:52:15Z</time>
      </trkpt>
      <trkpt lat="45.28258" lon="6.21034">
        <ele>1211</ele>
        <time>2016-03-19T13:52:20Z</time>
      </trkpt>
      <trkpt lat="45.28259" lon="6.21027">
        <ele>1213</ele>
        <time>2016-03-19T13:52:25Z</time>
      </trkpt>
      <trkpt lat="45.28261" lon="6.21021">
        <ele>1215</ele>
        <time>2016-03-19T13:52:30Z</time>
      </trkpt>
      <trkpt lat="45.28265" lon="6.21016">
        <ele>1218</ele>
        <time>2016-03-19T13:52:35Z</time>
      </trkpt>
      <trkpt lat="45.28268" lon="6.21011">
        <ele>1219</ele>
        <time>2016-03-19T13:52:40Z</time>
      </trkpt>
      <trkpt lat="45.28272" lon="6.21007">
        <ele>1221</ele>
        <time>2016-03-19T13:52:45Z</time>
      </trkpt>
      <trkpt lat="45.28277" lon="6.21004">
        <ele>1222</ele>
        <time>2016-03-19T13:52:50Z</time>
      </trkpt>
      <trkpt lat="45.28282" lon="6.21">
        <ele>1222</ele>
        <time>2016-03-19T13:52:55Z</time>
      </trkpt>
      <trkpt lat="45.28283" lon="6.21">
        <ele>1221</ele>
        <time>2016-03-19T13:53:00Z</time>
      </trkpt>
      <trkpt lat="45.28282" lon="6.21">
        <ele>1220</ele>
        <time>2016-03-19T13:53:05Z</time>
      </trkpt>
      <trkpt lat="45.28281" lon="6.21">
        <ele>1219</ele>
        <time>2016-03-19T13:53:10Z</time>
      </trkpt>
      <trkpt lat="45.2828" lon="6.21">
        <ele>1218</ele>
        <time>2016-03-19T13:53:15Z</time>
      </trkpt>
      <trkpt lat="45.28281" lon="6.21">
        <ele>1218</ele>
        <time>2016-03-19T13:53:20Z</time>
      </trkpt>
    </trkseg>
  </trk>
</gpx>